<?xml version="1.0" encoding="UTF-8" standalone="no" ?>
<gpx xmlns="http://www.topografix.com/GPX/1/1" xmlns:xsi="http://www.w3.org/2001/XMLSchema-instance" xsi:schemaLocation="http://www.topografix.com/GPX/1/1 http://www.topografix.com/GPX/1/1/gpx.xsd" version="1.1" creator="VisuGPX - https://www.visugpx.com">
  <metadata>
    <name>2018 vanoise</name>
    <desc><![CDATA[2018 vanoise en ski de randonnée]]></desc>
  </metadata>
  <trk>
    <name><![CDATA[vanoise]]></name>
    <trkseg>
      <trkpt lat="45.39008" lon="6.75278">
        <ele>2070.82</ele>
        <time>2018-03-24T08:38:45Z</time>
      </trkpt>
      <trkpt lat="45.39016" lon="6.75286">
        <ele>2070.82</ele>
        <time>2018-03-24T08:38:58Z</time>
      </trkpt>
      <trkpt lat="45.39026" lon="6.75298">
        <ele>2071.3</ele>
        <time>2018-03-24T08:39:12Z</time>
      </trkpt>
      <trkpt lat="45.39033" lon="6.75307">
        <ele>2071.78</ele>
        <time>2018-03-24T08:39:23Z</time>
      </trkpt>
      <trkpt lat="45.39041" lon="6.75316">
        <ele>2073.22</ele>
        <time>2018-03-24T08:39:35Z</time>
      </trkpt>
      <trkpt lat="45.39044" lon="6.7532">
        <ele>2073.22</ele>
        <time>2018-03-24T08:39:40Z</time>
      </trkpt>
      <trkpt lat="45.3905" lon="6.75329">
        <ele>2073.7</ele>
        <time>2018-03-24T08:39:51Z</time>
      </trkpt>
      <trkpt lat="45.39054" lon="6.75335">
        <ele>2074.18</ele>
        <time>2018-03-24T08:40:03Z</time>
      </trkpt>
      <trkpt lat="45.39052" lon="6.75335">
        <ele>2073.7</ele>
        <time>2018-03-24T08:40:09Z</time>
      </trkpt>
      <trkpt lat="45.39054" lon="6.7535">
        <ele>2072.74</ele>
        <time>2018-03-24T08:40:20Z</time>
      </trkpt>
      <trkpt lat="45.3906" lon="6.75367">
        <ele>2073.7</ele>
        <time>2018-03-24T08:40:35Z</time>
      </trkpt>
      <trkpt lat="45.39061" lon="6.75372">
        <ele>2074.18</ele>
        <time>2018-03-24T08:40:44Z</time>
      </trkpt>
      <trkpt lat="45.39066" lon="6.7538">
        <ele>2074.66</ele>
        <time>2018-03-24T08:40:55Z</time>
      </trkpt>
      <trkpt lat="45.39068" lon="6.75386">
        <ele>2075.14</ele>
        <time>2018-03-24T08:41:01Z</time>
      </trkpt>
      <trkpt lat="45.39074" lon="6.75397">
        <ele>2075.14</ele>
        <time>2018-03-24T08:41:13Z</time>
      </trkpt>
      <trkpt lat="45.39078" lon="6.75404">
        <ele>2074.66</ele>
        <time>2018-03-24T08:41:23Z</time>
      </trkpt>
      <trkpt lat="45.39086" lon="6.7542">
        <ele>2074.18</ele>
        <time>2018-03-24T08:41:37Z</time>
      </trkpt>
      <trkpt lat="45.3909" lon="6.75432">
        <ele>2074.18</ele>
        <time>2018-03-24T08:41:49Z</time>
      </trkpt>
      <trkpt lat="45.39093" lon="6.75439">
        <ele>2074.66</ele>
        <time>2018-03-24T08:41:57Z</time>
      </trkpt>
      <trkpt lat="45.39095" lon="6.75445">
        <ele>2074.66</ele>
        <time>2018-03-24T08:42:11Z</time>
      </trkpt>
      <trkpt lat="45.39097" lon="6.75441">
        <ele>2073.22</ele>
        <time>2018-03-24T08:42:29Z</time>
      </trkpt>
      <trkpt lat="45.39103" lon="6.75445">
        <ele>2073.22</ele>
        <time>2018-03-24T08:42:56Z</time>
      </trkpt>
      <trkpt lat="45.39098" lon="6.75443">
        <ele>2072.74</ele>
        <time>2018-03-24T08:43:23Z</time>
      </trkpt>
      <trkpt lat="45.391" lon="6.75451">
        <ele>2072.74</ele>
        <time>2018-03-24T08:43:30Z</time>
      </trkpt>
      <trkpt lat="45.39105" lon="6.75471">
        <ele>2070.82</ele>
        <time>2018-03-24T08:43:44Z</time>
      </trkpt>
      <trkpt lat="45.39106" lon="6.75475">
        <ele>2071.3</ele>
        <time>2018-03-24T08:43:55Z</time>
      </trkpt>
      <trkpt lat="45.39108" lon="6.75479">
        <ele>2069.86</ele>
        <time>2018-03-24T08:44:22Z</time>
      </trkpt>
      <trkpt lat="45.39103" lon="6.75483">
        <ele>2072.74</ele>
        <time>2018-03-24T08:44:38Z</time>
      </trkpt>
      <trkpt lat="45.39101" lon="6.75486">
        <ele>2072.74</ele>
        <time>2018-03-24T08:44:50Z</time>
      </trkpt>
      <trkpt lat="45.39097" lon="6.75496">
        <ele>2073.7</ele>
        <time>2018-03-24T08:45:03Z</time>
      </trkpt>
      <trkpt lat="45.39096" lon="6.75499">
        <ele>2074.18</ele>
        <time>2018-03-24T08:45:08Z</time>
      </trkpt>
      <trkpt lat="45.39095" lon="6.75511">
        <ele>2075.14</ele>
        <time>2018-03-24T08:45:22Z</time>
      </trkpt>
      <trkpt lat="45.39092" lon="6.75526">
        <ele>2075.62</ele>
        <time>2018-03-24T08:45:36Z</time>
      </trkpt>
      <trkpt lat="45.39091" lon="6.75543">
        <ele>2077.07</ele>
        <time>2018-03-24T08:45:49Z</time>
      </trkpt>
      <trkpt lat="45.39087" lon="6.75562">
        <ele>2078.03</ele>
        <time>2018-03-24T08:46:04Z</time>
      </trkpt>
      <trkpt lat="45.39087" lon="6.75566">
        <ele>2078.51</ele>
        <time>2018-03-24T08:46:07Z</time>
      </trkpt>
      <trkpt lat="45.39086" lon="6.75573">
        <ele>2078.99</ele>
        <time>2018-03-24T08:46:11Z</time>
      </trkpt>
      <trkpt lat="45.39083" lon="6.75588">
        <ele>2078.51</ele>
        <time>2018-03-24T08:46:22Z</time>
      </trkpt>
      <trkpt lat="45.39079" lon="6.75599">
        <ele>2079.95</ele>
        <time>2018-03-24T08:46:35Z</time>
      </trkpt>
      <trkpt lat="45.39078" lon="6.75609">
        <ele>2081.39</ele>
        <time>2018-03-24T08:46:47Z</time>
      </trkpt>
      <trkpt lat="45.39083" lon="6.75625">
        <ele>2081.39</ele>
        <time>2018-03-24T08:47:01Z</time>
      </trkpt>
      <trkpt lat="45.39083" lon="6.75626">
        <ele>2082.83</ele>
        <time>2018-03-24T08:47:02Z</time>
      </trkpt>
      <trkpt lat="45.39078" lon="6.75645">
        <ele>2083.79</ele>
        <time>2018-03-24T08:47:15Z</time>
      </trkpt>
      <trkpt lat="45.39083" lon="6.7565">
        <ele>2084.28</ele>
        <time>2018-03-24T08:47:30Z</time>
      </trkpt>
      <trkpt lat="45.39085" lon="6.75656">
        <ele>2086.2</ele>
        <time>2018-03-24T08:47:42Z</time>
      </trkpt>
      <trkpt lat="45.39085" lon="6.75666">
        <ele>2087.16</ele>
        <time>2018-03-24T08:47:54Z</time>
      </trkpt>
      <trkpt lat="45.39087" lon="6.75677">
        <ele>2087.64</ele>
        <time>2018-03-24T08:48:06Z</time>
      </trkpt>
      <trkpt lat="45.39096" lon="6.75693">
        <ele>2089.08</ele>
        <time>2018-03-24T08:48:20Z</time>
      </trkpt>
      <trkpt lat="45.39119" lon="6.75706">
        <ele>2090.04</ele>
        <time>2018-03-24T08:48:32Z</time>
      </trkpt>
      <trkpt lat="45.39126" lon="6.75711">
        <ele>2090.52</ele>
        <time>2018-03-24T08:48:45Z</time>
      </trkpt>
      <trkpt lat="45.39131" lon="6.75722">
        <ele>2091.97</ele>
        <time>2018-03-24T08:48:58Z</time>
      </trkpt>
      <trkpt lat="45.39135" lon="6.75736">
        <ele>2092.93</ele>
        <time>2018-03-24T08:49:13Z</time>
      </trkpt>
      <trkpt lat="45.3914" lon="6.75746">
        <ele>2094.37</ele>
        <time>2018-03-24T08:49:25Z</time>
      </trkpt>
      <trkpt lat="45.39144" lon="6.75754">
        <ele>2095.81</ele>
        <time>2018-03-24T08:49:37Z</time>
      </trkpt>
      <trkpt lat="45.39147" lon="6.75766">
        <ele>2097.25</ele>
        <time>2018-03-24T08:49:50Z</time>
      </trkpt>
      <trkpt lat="45.39147" lon="6.7578">
        <ele>2098.21</ele>
        <time>2018-03-24T08:50:05Z</time>
      </trkpt>
      <trkpt lat="45.39145" lon="6.75793">
        <ele>2099.66</ele>
        <time>2018-03-24T08:50:17Z</time>
      </trkpt>
      <trkpt lat="45.3915" lon="6.75803">
        <ele>2099.18</ele>
        <time>2018-03-24T08:50:29Z</time>
      </trkpt>
      <trkpt lat="45.39152" lon="6.75816">
        <ele>2101.1</ele>
        <time>2018-03-24T08:50:42Z</time>
      </trkpt>
      <trkpt lat="45.39152" lon="6.75826">
        <ele>2101.1</ele>
        <time>2018-03-24T08:50:50Z</time>
      </trkpt>
      <trkpt lat="45.39156" lon="6.75844">
        <ele>2101.1</ele>
        <time>2018-03-24T08:51:03Z</time>
      </trkpt>
      <trkpt lat="45.39169" lon="6.75857">
        <ele>2101.1</ele>
        <time>2018-03-24T08:51:14Z</time>
      </trkpt>
      <trkpt lat="45.39175" lon="6.75864">
        <ele>2102.06</ele>
        <time>2018-03-24T08:51:27Z</time>
      </trkpt>
      <trkpt lat="45.39171" lon="6.75859">
        <ele>2100.62</ele>
        <time>2018-03-24T08:51:47Z</time>
      </trkpt>
      <trkpt lat="45.39174" lon="6.75859">
        <ele>2102.06</ele>
        <time>2018-03-24T08:51:57Z</time>
      </trkpt>
      <trkpt lat="45.39173" lon="6.75864">
        <ele>2101.1</ele>
        <time>2018-03-24T08:52:16Z</time>
      </trkpt>
      <trkpt lat="45.39174" lon="6.75867">
        <ele>2101.58</ele>
        <time>2018-03-24T08:52:34Z</time>
      </trkpt>
      <trkpt lat="45.39178" lon="6.75876">
        <ele>2101.58</ele>
        <time>2018-03-24T08:52:47Z</time>
      </trkpt>
      <trkpt lat="45.39186" lon="6.75888">
        <ele>2103.02</ele>
        <time>2018-03-24T08:53:00Z</time>
      </trkpt>
      <trkpt lat="45.39191" lon="6.75899">
        <ele>2103.02</ele>
        <time>2018-03-24T08:53:11Z</time>
      </trkpt>
      <trkpt lat="45.39194" lon="6.75907">
        <ele>2103.5</ele>
        <time>2018-03-24T08:53:16Z</time>
      </trkpt>
      <trkpt lat="45.39204" lon="6.75923">
        <ele>2101.58</ele>
        <time>2018-03-24T08:53:31Z</time>
      </trkpt>
      <trkpt lat="45.3921" lon="6.75937">
        <ele>2103.02</ele>
        <time>2018-03-24T08:53:45Z</time>
      </trkpt>
      <trkpt lat="45.3921" lon="6.75939">
        <ele>2103.02</ele>
        <time>2018-03-24T08:53:48Z</time>
      </trkpt>
      <trkpt lat="45.39219" lon="6.75958">
        <ele>2103.98</ele>
        <time>2018-03-24T08:54:04Z</time>
      </trkpt>
      <trkpt lat="45.39227" lon="6.75974">
        <ele>2103.02</ele>
        <time>2018-03-24T08:54:17Z</time>
      </trkpt>
      <trkpt lat="45.39229" lon="6.75976">
        <ele>2103.5</ele>
        <time>2018-03-24T08:54:19Z</time>
      </trkpt>
      <trkpt lat="45.39232" lon="6.75984">
        <ele>2103.02</ele>
        <time>2018-03-24T08:54:26Z</time>
      </trkpt>
      <trkpt lat="45.39236" lon="6.75999">
        <ele>2103.98</ele>
        <time>2018-03-24T08:54:41Z</time>
      </trkpt>
      <trkpt lat="45.39242" lon="6.76012">
        <ele>2104.46</ele>
        <time>2018-03-24T08:54:56Z</time>
      </trkpt>
      <trkpt lat="45.39242" lon="6.76015">
        <ele>2103.5</ele>
        <time>2018-03-24T08:54:58Z</time>
      </trkpt>
      <trkpt lat="45.39246" lon="6.76022">
        <ele>2104.46</ele>
        <time>2018-03-24T08:55:13Z</time>
      </trkpt>
      <trkpt lat="45.3925" lon="6.76034">
        <ele>2104.94</ele>
        <time>2018-03-24T08:55:26Z</time>
      </trkpt>
      <trkpt lat="45.39257" lon="6.76041">
        <ele>2106.39</ele>
        <time>2018-03-24T08:55:37Z</time>
      </trkpt>
      <trkpt lat="45.39261" lon="6.7605">
        <ele>2105.91</ele>
        <time>2018-03-24T08:55:54Z</time>
      </trkpt>
      <trkpt lat="45.39265" lon="6.76058">
        <ele>2106.87</ele>
        <time>2018-03-24T08:56:06Z</time>
      </trkpt>
      <trkpt lat="45.39269" lon="6.76064">
        <ele>2108.31</ele>
        <time>2018-03-24T08:56:17Z</time>
      </trkpt>
      <trkpt lat="45.39274" lon="6.7607">
        <ele>2108.79</ele>
        <time>2018-03-24T08:56:28Z</time>
      </trkpt>
      <trkpt lat="45.39278" lon="6.76078">
        <ele>2108.79</ele>
        <time>2018-03-24T08:56:41Z</time>
      </trkpt>
      <trkpt lat="45.39282" lon="6.76085">
        <ele>2110.71</ele>
        <time>2018-03-24T08:56:53Z</time>
      </trkpt>
      <trkpt lat="45.39286" lon="6.76089">
        <ele>2111.19</ele>
        <time>2018-03-24T08:57:08Z</time>
      </trkpt>
      <trkpt lat="45.39289" lon="6.76094">
        <ele>2112.63</ele>
        <time>2018-03-24T08:57:18Z</time>
      </trkpt>
      <trkpt lat="45.39292" lon="6.76101">
        <ele>2113.6</ele>
        <time>2018-03-24T08:57:31Z</time>
      </trkpt>
      <trkpt lat="45.39296" lon="6.76107">
        <ele>2114.56</ele>
        <time>2018-03-24T08:57:42Z</time>
      </trkpt>
      <trkpt lat="45.393" lon="6.76113">
        <ele>2116.96</ele>
        <time>2018-03-24T08:57:54Z</time>
      </trkpt>
      <trkpt lat="45.39304" lon="6.7612">
        <ele>2117.44</ele>
        <time>2018-03-24T08:58:06Z</time>
      </trkpt>
      <trkpt lat="45.39308" lon="6.76126">
        <ele>2119.36</ele>
        <time>2018-03-24T08:58:18Z</time>
      </trkpt>
      <trkpt lat="45.39313" lon="6.76134">
        <ele>2118.88</ele>
        <time>2018-03-24T08:58:31Z</time>
      </trkpt>
      <trkpt lat="45.3932" lon="6.76143">
        <ele>2121.29</ele>
        <time>2018-03-24T08:58:45Z</time>
      </trkpt>
      <trkpt lat="45.39326" lon="6.76152">
        <ele>2122.25</ele>
        <time>2018-03-24T08:58:59Z</time>
      </trkpt>
      <trkpt lat="45.39333" lon="6.76159">
        <ele>2123.21</ele>
        <time>2018-03-24T08:59:12Z</time>
      </trkpt>
      <trkpt lat="45.39337" lon="6.76165">
        <ele>2124.65</ele>
        <time>2018-03-24T08:59:25Z</time>
      </trkpt>
      <trkpt lat="45.39342" lon="6.76174">
        <ele>2125.13</ele>
        <time>2018-03-24T08:59:39Z</time>
      </trkpt>
      <trkpt lat="45.39347" lon="6.7618">
        <ele>2126.57</ele>
        <time>2018-03-24T08:59:52Z</time>
      </trkpt>
      <trkpt lat="45.39351" lon="6.7619">
        <ele>2126.57</ele>
        <time>2018-03-24T09:00:04Z</time>
      </trkpt>
      <trkpt lat="45.39353" lon="6.7619">
        <ele>2127.53</ele>
        <time>2018-03-24T09:00:17Z</time>
      </trkpt>
      <trkpt lat="45.39354" lon="6.76189">
        <ele>2127.53</ele>
        <time>2018-03-24T09:00:35Z</time>
      </trkpt>
      <trkpt lat="45.39355" lon="6.76188">
        <ele>2127.53</ele>
        <time>2018-03-24T09:00:56Z</time>
      </trkpt>
      <trkpt lat="45.39354" lon="6.76192">
        <ele>2128.5</ele>
        <time>2018-03-24T09:01:18Z</time>
      </trkpt>
      <trkpt lat="45.39358" lon="6.76196">
        <ele>2129.46</ele>
        <time>2018-03-24T09:01:29Z</time>
      </trkpt>
      <trkpt lat="45.39366" lon="6.76203">
        <ele>2130.9</ele>
        <time>2018-03-24T09:01:41Z</time>
      </trkpt>
      <trkpt lat="45.3937" lon="6.76211">
        <ele>2131.86</ele>
        <time>2018-03-24T09:01:52Z</time>
      </trkpt>
      <trkpt lat="45.3937" lon="6.76217">
        <ele>2132.82</ele>
        <time>2018-03-24T09:02:04Z</time>
      </trkpt>
      <trkpt lat="45.39369" lon="6.76216">
        <ele>2132.82</ele>
        <time>2018-03-24T09:02:23Z</time>
      </trkpt>
      <trkpt lat="45.39373" lon="6.76217">
        <ele>2132.34</ele>
        <time>2018-03-24T09:02:37Z</time>
      </trkpt>
      <trkpt lat="45.39378" lon="6.76223">
        <ele>2134.74</ele>
        <time>2018-03-24T09:02:49Z</time>
      </trkpt>
      <trkpt lat="45.39383" lon="6.76233">
        <ele>2138.11</ele>
        <time>2018-03-24T09:03:05Z</time>
      </trkpt>
      <trkpt lat="45.39385" lon="6.76236">
        <ele>2138.59</ele>
        <time>2018-03-24T09:03:11Z</time>
      </trkpt>
      <trkpt lat="45.39389" lon="6.76242">
        <ele>2140.03</ele>
        <time>2018-03-24T09:03:24Z</time>
      </trkpt>
      <trkpt lat="45.39394" lon="6.76249">
        <ele>2140.99</ele>
        <time>2018-03-24T09:03:36Z</time>
      </trkpt>
      <trkpt lat="45.39397" lon="6.76257">
        <ele>2141.47</ele>
        <time>2018-03-24T09:03:47Z</time>
      </trkpt>
      <trkpt lat="45.39404" lon="6.76264">
        <ele>2143.88</ele>
        <time>2018-03-24T09:04:03Z</time>
      </trkpt>
      <trkpt lat="45.39406" lon="6.76272">
        <ele>2146.28</ele>
        <time>2018-03-24T09:04:16Z</time>
      </trkpt>
      <trkpt lat="45.39407" lon="6.76283">
        <ele>2146.28</ele>
        <time>2018-03-24T09:04:31Z</time>
      </trkpt>
      <trkpt lat="45.39406" lon="6.76296">
        <ele>2148.68</ele>
        <time>2018-03-24T09:04:46Z</time>
      </trkpt>
      <trkpt lat="45.39409" lon="6.76303">
        <ele>2151.57</ele>
        <time>2018-03-24T09:05:03Z</time>
      </trkpt>
      <trkpt lat="45.3941" lon="6.7631">
        <ele>2151.57</ele>
        <time>2018-03-24T09:05:17Z</time>
      </trkpt>
      <trkpt lat="45.39412" lon="6.76315">
        <ele>2154.45</ele>
        <time>2018-03-24T09:05:25Z</time>
      </trkpt>
      <trkpt lat="45.39413" lon="6.76319">
        <ele>2153.97</ele>
        <time>2018-03-24T09:05:34Z</time>
      </trkpt>
      <trkpt lat="45.39416" lon="6.76326">
        <ele>2155.41</ele>
        <time>2018-03-24T09:05:48Z</time>
      </trkpt>
      <trkpt lat="45.39415" lon="6.76335">
        <ele>2156.37</ele>
        <time>2018-03-24T09:06:07Z</time>
      </trkpt>
      <trkpt lat="45.39415" lon="6.76344">
        <ele>2158.3</ele>
        <time>2018-03-24T09:06:23Z</time>
      </trkpt>
      <trkpt lat="45.39418" lon="6.76351">
        <ele>2159.74</ele>
        <time>2018-03-24T09:06:39Z</time>
      </trkpt>
      <trkpt lat="45.39418" lon="6.76353">
        <ele>2159.74</ele>
        <time>2018-03-24T09:06:41Z</time>
      </trkpt>
      <trkpt lat="45.39421" lon="6.7636">
        <ele>2161.66</ele>
        <time>2018-03-24T09:06:56Z</time>
      </trkpt>
      <trkpt lat="45.39419" lon="6.76364">
        <ele>2160.22</ele>
        <time>2018-03-24T09:07:14Z</time>
      </trkpt>
      <trkpt lat="45.39417" lon="6.76364">
        <ele>2161.18</ele>
        <time>2018-03-24T09:07:26Z</time>
      </trkpt>
      <trkpt lat="45.39418" lon="6.76358">
        <ele>2160.7</ele>
        <time>2018-03-24T09:07:50Z</time>
      </trkpt>
      <trkpt lat="45.39409" lon="6.76365">
        <ele>2160.7</ele>
        <time>2018-03-24T09:08:18Z</time>
      </trkpt>
      <trkpt lat="45.3941" lon="6.76362">
        <ele>2159.74</ele>
        <time>2018-03-24T09:08:38Z</time>
      </trkpt>
      <trkpt lat="45.39405" lon="6.76361">
        <ele>2160.7</ele>
        <time>2018-03-24T09:08:51Z</time>
      </trkpt>
      <trkpt lat="45.39401" lon="6.7636">
        <ele>2163.1</ele>
        <time>2018-03-24T09:09:03Z</time>
      </trkpt>
      <trkpt lat="45.39399" lon="6.76362">
        <ele>2162.62</ele>
        <time>2018-03-24T09:09:06Z</time>
      </trkpt>
      <trkpt lat="45.39397" lon="6.76367">
        <ele>2163.1</ele>
        <time>2018-03-24T09:09:19Z</time>
      </trkpt>
      <trkpt lat="45.39397" lon="6.7637">
        <ele>2163.1</ele>
        <time>2018-03-24T09:09:46Z</time>
      </trkpt>
      <trkpt lat="45.39394" lon="6.7637">
        <ele>2160.7</ele>
        <time>2018-03-24T09:10:14Z</time>
      </trkpt>
      <trkpt lat="45.39392" lon="6.76368">
        <ele>2162.62</ele>
        <time>2018-03-24T09:10:33Z</time>
      </trkpt>
      <trkpt lat="45.39391" lon="6.76368">
        <ele>2163.1</ele>
        <time>2018-03-24T09:10:46Z</time>
      </trkpt>
      <trkpt lat="45.39388" lon="6.76377">
        <ele>2164.06</ele>
        <time>2018-03-24T09:10:55Z</time>
      </trkpt>
      <trkpt lat="45.39391" lon="6.76388">
        <ele>2166.47</ele>
        <time>2018-03-24T09:11:09Z</time>
      </trkpt>
      <trkpt lat="45.39394" lon="6.76399">
        <ele>2167.91</ele>
        <time>2018-03-24T09:11:25Z</time>
      </trkpt>
      <trkpt lat="45.39395" lon="6.76407">
        <ele>2169.35</ele>
        <time>2018-03-24T09:11:38Z</time>
      </trkpt>
      <trkpt lat="45.39394" lon="6.76409">
        <ele>2168.39</ele>
        <time>2018-03-24T09:11:57Z</time>
      </trkpt>
      <trkpt lat="45.394" lon="6.76415">
        <ele>2169.83</ele>
        <time>2018-03-24T09:12:12Z</time>
      </trkpt>
      <trkpt lat="45.39402" lon="6.76426">
        <ele>2171.27</ele>
        <time>2018-03-24T09:12:25Z</time>
      </trkpt>
      <trkpt lat="45.39406" lon="6.76432">
        <ele>2171.76</ele>
        <time>2018-03-24T09:12:38Z</time>
      </trkpt>
      <trkpt lat="45.39409" lon="6.76441">
        <ele>2172.72</ele>
        <time>2018-03-24T09:12:52Z</time>
      </trkpt>
      <trkpt lat="45.39412" lon="6.76447">
        <ele>2174.64</ele>
        <time>2018-03-24T09:13:06Z</time>
      </trkpt>
      <trkpt lat="45.39413" lon="6.76456">
        <ele>2175.12</ele>
        <time>2018-03-24T09:13:20Z</time>
      </trkpt>
      <trkpt lat="45.39414" lon="6.76456">
        <ele>2176.56</ele>
        <time>2018-03-24T09:13:21Z</time>
      </trkpt>
      <trkpt lat="45.39421" lon="6.76462">
        <ele>2178.48</ele>
        <time>2018-03-24T09:13:36Z</time>
      </trkpt>
      <trkpt lat="45.39419" lon="6.76466">
        <ele>2179.45</ele>
        <time>2018-03-24T09:13:47Z</time>
      </trkpt>
      <trkpt lat="45.3942" lon="6.7647">
        <ele>2180.89</ele>
        <time>2018-03-24T09:13:59Z</time>
      </trkpt>
      <trkpt lat="45.39424" lon="6.76476">
        <ele>2183.29</ele>
        <time>2018-03-24T09:14:09Z</time>
      </trkpt>
      <trkpt lat="45.39427" lon="6.76481">
        <ele>2182.81</ele>
        <time>2018-03-24T09:14:23Z</time>
      </trkpt>
      <trkpt lat="45.39426" lon="6.7648">
        <ele>2182.33</ele>
        <time>2018-03-24T09:14:36Z</time>
      </trkpt>
      <trkpt lat="45.39425" lon="6.7648">
        <ele>2181.85</ele>
        <time>2018-03-24T09:14:42Z</time>
      </trkpt>
      <trkpt lat="45.39427" lon="6.76478">
        <ele>2182.33</ele>
        <time>2018-03-24T09:15:18Z</time>
      </trkpt>
      <trkpt lat="45.39427" lon="6.76478">
        <ele>2181.37</ele>
        <time>2018-03-24T09:15:48Z</time>
      </trkpt>
      <trkpt lat="45.39426" lon="6.76481">
        <ele>2180.89</ele>
        <time>2018-03-24T09:16:10Z</time>
      </trkpt>
      <trkpt lat="45.39428" lon="6.7648">
        <ele>2179.93</ele>
        <time>2018-03-24T09:16:33Z</time>
      </trkpt>
      <trkpt lat="45.39432" lon="6.76481">
        <ele>2179.93</ele>
        <time>2018-03-24T09:16:55Z</time>
      </trkpt>
      <trkpt lat="45.39435" lon="6.76485">
        <ele>2179.93</ele>
        <time>2018-03-24T09:17:06Z</time>
      </trkpt>
      <trkpt lat="45.39429" lon="6.76486">
        <ele>2180.89</ele>
        <time>2018-03-24T09:17:17Z</time>
      </trkpt>
      <trkpt lat="45.39426" lon="6.76487">
        <ele>2180.41</ele>
        <time>2018-03-24T09:17:34Z</time>
      </trkpt>
      <trkpt lat="45.39419" lon="6.76491">
        <ele>2181.37</ele>
        <time>2018-03-24T09:17:47Z</time>
      </trkpt>
      <trkpt lat="45.39419" lon="6.76492">
        <ele>2182.33</ele>
        <time>2018-03-24T09:18:03Z</time>
      </trkpt>
      <trkpt lat="45.39415" lon="6.76495">
        <ele>2181.85</ele>
        <time>2018-03-24T09:18:25Z</time>
      </trkpt>
      <trkpt lat="45.39417" lon="6.76494">
        <ele>2182.81</ele>
        <time>2018-03-24T09:18:38Z</time>
      </trkpt>
      <trkpt lat="45.3942" lon="6.765">
        <ele>2184.73</ele>
        <time>2018-03-24T09:18:49Z</time>
      </trkpt>
      <trkpt lat="45.39426" lon="6.76507">
        <ele>2184.73</ele>
        <time>2018-03-24T09:19:02Z</time>
      </trkpt>
      <trkpt lat="45.39431" lon="6.76515">
        <ele>2186.66</ele>
        <time>2018-03-24T09:19:16Z</time>
      </trkpt>
      <trkpt lat="45.39434" lon="6.76518">
        <ele>2187.62</ele>
        <time>2018-03-24T09:19:23Z</time>
      </trkpt>
      <trkpt lat="45.3944" lon="6.76524">
        <ele>2188.1</ele>
        <time>2018-03-24T09:19:35Z</time>
      </trkpt>
      <trkpt lat="45.39441" lon="6.76529">
        <ele>2188.58</ele>
        <time>2018-03-24T09:19:48Z</time>
      </trkpt>
      <trkpt lat="45.3943" lon="6.76533">
        <ele>2190.02</ele>
        <time>2018-03-24T09:20:03Z</time>
      </trkpt>
      <trkpt lat="45.39427" lon="6.76539">
        <ele>2191.46</ele>
        <time>2018-03-24T09:20:16Z</time>
      </trkpt>
      <trkpt lat="45.39434" lon="6.76549">
        <ele>2192.9</ele>
        <time>2018-03-24T09:20:30Z</time>
      </trkpt>
      <trkpt lat="45.39438" lon="6.76558">
        <ele>2194.35</ele>
        <time>2018-03-24T09:20:43Z</time>
      </trkpt>
      <trkpt lat="45.39438" lon="6.76562">
        <ele>2193.39</ele>
        <time>2018-03-24T09:21:00Z</time>
      </trkpt>
      <trkpt lat="45.39443" lon="6.76567">
        <ele>2195.31</ele>
        <time>2018-03-24T09:21:13Z</time>
      </trkpt>
      <trkpt lat="45.3945" lon="6.76576">
        <ele>2196.27</ele>
        <time>2018-03-24T09:21:26Z</time>
      </trkpt>
      <trkpt lat="45.39456" lon="6.76587">
        <ele>2198.67</ele>
        <time>2018-03-24T09:21:41Z</time>
      </trkpt>
      <trkpt lat="45.39457" lon="6.76591">
        <ele>2198.19</ele>
        <time>2018-03-24T09:21:58Z</time>
      </trkpt>
      <trkpt lat="45.39457" lon="6.76593">
        <ele>2198.19</ele>
        <time>2018-03-24T09:22:11Z</time>
      </trkpt>
      <trkpt lat="45.39453" lon="6.76594">
        <ele>2199.15</ele>
        <time>2018-03-24T09:22:20Z</time>
      </trkpt>
      <trkpt lat="45.39448" lon="6.76593">
        <ele>2200.11</ele>
        <time>2018-03-24T09:22:35Z</time>
      </trkpt>
      <trkpt lat="45.39443" lon="6.76594">
        <ele>2201.08</ele>
        <time>2018-03-24T09:22:49Z</time>
      </trkpt>
      <trkpt lat="45.39445" lon="6.76602">
        <ele>2203</ele>
        <time>2018-03-24T09:23:02Z</time>
      </trkpt>
      <trkpt lat="45.39452" lon="6.76613">
        <ele>2204.44</ele>
        <time>2018-03-24T09:23:16Z</time>
      </trkpt>
      <trkpt lat="45.39456" lon="6.76624">
        <ele>2206.36</ele>
        <time>2018-03-24T09:23:31Z</time>
      </trkpt>
      <trkpt lat="45.39461" lon="6.76634">
        <ele>2207.81</ele>
        <time>2018-03-24T09:23:47Z</time>
      </trkpt>
      <trkpt lat="45.39463" lon="6.76639">
        <ele>2208.29</ele>
        <time>2018-03-24T09:24:03Z</time>
      </trkpt>
      <trkpt lat="45.39465" lon="6.76644">
        <ele>2208.29</ele>
        <time>2018-03-24T09:24:23Z</time>
      </trkpt>
      <trkpt lat="45.39468" lon="6.76652">
        <ele>2210.21</ele>
        <time>2018-03-24T09:24:37Z</time>
      </trkpt>
      <trkpt lat="45.39471" lon="6.7666">
        <ele>2212.13</ele>
        <time>2018-03-24T09:24:52Z</time>
      </trkpt>
      <trkpt lat="45.39475" lon="6.76668">
        <ele>2213.57</ele>
        <time>2018-03-24T09:25:07Z</time>
      </trkpt>
      <trkpt lat="45.39474" lon="6.76671">
        <ele>2214.05</ele>
        <time>2018-03-24T09:25:22Z</time>
      </trkpt>
      <trkpt lat="45.39475" lon="6.76671">
        <ele>2215.01</ele>
        <time>2018-03-24T09:25:38Z</time>
      </trkpt>
      <trkpt lat="45.39476" lon="6.76676">
        <ele>2215.01</ele>
        <time>2018-03-24T09:25:52Z</time>
      </trkpt>
      <trkpt lat="45.39468" lon="6.76677">
        <ele>2216.94</ele>
        <time>2018-03-24T09:26:06Z</time>
      </trkpt>
      <trkpt lat="45.39466" lon="6.76679">
        <ele>2216.46</ele>
        <time>2018-03-24T09:26:21Z</time>
      </trkpt>
      <trkpt lat="45.39464" lon="6.76679">
        <ele>2216.46</ele>
        <time>2018-03-24T09:26:49Z</time>
      </trkpt>
      <trkpt lat="45.39463" lon="6.76679">
        <ele>2217.42</ele>
        <time>2018-03-24T09:27:04Z</time>
      </trkpt>
      <trkpt lat="45.39463" lon="6.76679">
        <ele>2217.42</ele>
        <time>2018-03-24T09:27:16Z</time>
      </trkpt>
      <trkpt lat="45.39465" lon="6.76679">
        <ele>2217.42</ele>
        <time>2018-03-24T09:27:28Z</time>
      </trkpt>
      <trkpt lat="45.39466" lon="6.7668">
        <ele>2217.42</ele>
        <time>2018-03-24T09:27:49Z</time>
      </trkpt>
      <trkpt lat="45.39463" lon="6.76681">
        <ele>2216.94</ele>
        <time>2018-03-24T09:28:09Z</time>
      </trkpt>
      <trkpt lat="45.39466" lon="6.76687">
        <ele>2217.9</ele>
        <time>2018-03-24T09:28:20Z</time>
      </trkpt>
      <trkpt lat="45.39465" lon="6.76693">
        <ele>2218.86</ele>
        <time>2018-03-24T09:28:34Z</time>
      </trkpt>
      <trkpt lat="45.39468" lon="6.76688">
        <ele>2218.86</ele>
        <time>2018-03-24T09:28:58Z</time>
      </trkpt>
      <trkpt lat="45.39467" lon="6.76695">
        <ele>2220.78</ele>
        <time>2018-03-24T09:29:14Z</time>
      </trkpt>
      <trkpt lat="45.39467" lon="6.76696">
        <ele>2219.34</ele>
        <time>2018-03-24T09:29:27Z</time>
      </trkpt>
      <trkpt lat="45.39463" lon="6.76695">
        <ele>2220.78</ele>
        <time>2018-03-24T09:29:36Z</time>
      </trkpt>
      <trkpt lat="45.39459" lon="6.76704">
        <ele>2220.3</ele>
        <time>2018-03-24T09:29:59Z</time>
      </trkpt>
      <trkpt lat="45.39459" lon="6.76701">
        <ele>2220.78</ele>
        <time>2018-03-24T09:30:25Z</time>
      </trkpt>
      <trkpt lat="45.39462" lon="6.76694">
        <ele>2221.26</ele>
        <time>2018-03-24T09:30:41Z</time>
      </trkpt>
      <trkpt lat="45.3946" lon="6.76695">
        <ele>2220.78</ele>
        <time>2018-03-24T09:30:54Z</time>
      </trkpt>
      <trkpt lat="45.39461" lon="6.76699">
        <ele>2222.71</ele>
        <time>2018-03-24T09:31:04Z</time>
      </trkpt>
      <trkpt lat="45.39464" lon="6.767">
        <ele>2223.67</ele>
        <time>2018-03-24T09:31:12Z</time>
      </trkpt>
      <trkpt lat="45.39471" lon="6.76709">
        <ele>2226.07</ele>
        <time>2018-03-24T09:31:27Z</time>
      </trkpt>
      <trkpt lat="45.39476" lon="6.76717">
        <ele>2226.55</ele>
        <time>2018-03-24T09:31:40Z</time>
      </trkpt>
      <trkpt lat="45.39481" lon="6.76724">
        <ele>2227.03</ele>
        <time>2018-03-24T09:31:53Z</time>
      </trkpt>
      <trkpt lat="45.39486" lon="6.76731">
        <ele>2228.47</ele>
        <time>2018-03-24T09:32:05Z</time>
      </trkpt>
      <trkpt lat="45.39488" lon="6.76737">
        <ele>2229.92</ele>
        <time>2018-03-24T09:32:16Z</time>
      </trkpt>
      <trkpt lat="45.39489" lon="6.76741">
        <ele>2231.36</ele>
        <time>2018-03-24T09:32:23Z</time>
      </trkpt>
      <trkpt lat="45.39492" lon="6.7675">
        <ele>2233.28</ele>
        <time>2018-03-24T09:32:37Z</time>
      </trkpt>
      <trkpt lat="45.39494" lon="6.76758">
        <ele>2234.24</ele>
        <time>2018-03-24T09:32:50Z</time>
      </trkpt>
      <trkpt lat="45.39496" lon="6.76766">
        <ele>2236.16</ele>
        <time>2018-03-24T09:33:04Z</time>
      </trkpt>
      <trkpt lat="45.39497" lon="6.76774">
        <ele>2236.16</ele>
        <time>2018-03-24T09:33:19Z</time>
      </trkpt>
      <trkpt lat="45.39498" lon="6.76778">
        <ele>2239.53</ele>
        <time>2018-03-24T09:33:29Z</time>
      </trkpt>
      <trkpt lat="45.39499" lon="6.76784">
        <ele>2239.53</ele>
        <time>2018-03-24T09:33:49Z</time>
      </trkpt>
      <trkpt lat="45.39502" lon="6.76794">
        <ele>2240.97</ele>
        <time>2018-03-24T09:34:03Z</time>
      </trkpt>
      <trkpt lat="45.39504" lon="6.76805">
        <ele>2241.93</ele>
        <time>2018-03-24T09:34:18Z</time>
      </trkpt>
      <trkpt lat="45.39507" lon="6.76812">
        <ele>2242.89</ele>
        <time>2018-03-24T09:34:29Z</time>
      </trkpt>
      <trkpt lat="45.39509" lon="6.76816">
        <ele>2244.82</ele>
        <time>2018-03-24T09:34:43Z</time>
      </trkpt>
      <trkpt lat="45.39512" lon="6.76826">
        <ele>2246.74</ele>
        <time>2018-03-24T09:34:57Z</time>
      </trkpt>
      <trkpt lat="45.39511" lon="6.76829">
        <ele>2247.22</ele>
        <time>2018-03-24T09:35:12Z</time>
      </trkpt>
      <trkpt lat="45.39513" lon="6.76837">
        <ele>2247.7</ele>
        <time>2018-03-24T09:35:31Z</time>
      </trkpt>
      <trkpt lat="45.39514" lon="6.76846">
        <ele>2250.1</ele>
        <time>2018-03-24T09:35:45Z</time>
      </trkpt>
      <trkpt lat="45.39511" lon="6.76849">
        <ele>2249.62</ele>
        <time>2018-03-24T09:36:10Z</time>
      </trkpt>
      <trkpt lat="45.39509" lon="6.76848">
        <ele>2249.14</ele>
        <time>2018-03-24T09:36:43Z</time>
      </trkpt>
      <trkpt lat="45.39509" lon="6.76848">
        <ele>2249.14</ele>
        <time>2018-03-24T09:36:44Z</time>
      </trkpt>
      <trkpt lat="45.39515" lon="6.76856">
        <ele>2251.54</ele>
        <time>2018-03-24T09:36:56Z</time>
      </trkpt>
      <trkpt lat="45.39519" lon="6.76864">
        <ele>2252.99</ele>
        <time>2018-03-24T09:37:04Z</time>
      </trkpt>
      <trkpt lat="45.39522" lon="6.76875">
        <ele>2254.43</ele>
        <time>2018-03-24T09:37:19Z</time>
      </trkpt>
      <trkpt lat="45.39523" lon="6.76878">
        <ele>2254.91</ele>
        <time>2018-03-24T09:37:24Z</time>
      </trkpt>
      <trkpt lat="45.39526" lon="6.7689">
        <ele>2257.31</ele>
        <time>2018-03-24T09:37:39Z</time>
      </trkpt>
      <trkpt lat="45.39528" lon="6.769">
        <ele>2258.27</ele>
        <time>2018-03-24T09:37:52Z</time>
      </trkpt>
      <trkpt lat="45.39529" lon="6.7691">
        <ele>2260.68</ele>
        <time>2018-03-24T09:38:06Z</time>
      </trkpt>
      <trkpt lat="45.39532" lon="6.76919">
        <ele>2262.12</ele>
        <time>2018-03-24T09:38:18Z</time>
      </trkpt>
      <trkpt lat="45.39534" lon="6.76927">
        <ele>2263.56</ele>
        <time>2018-03-24T09:38:31Z</time>
      </trkpt>
      <trkpt lat="45.39535" lon="6.76936">
        <ele>2265.48</ele>
        <time>2018-03-24T09:38:45Z</time>
      </trkpt>
      <trkpt lat="45.39536" lon="6.76945">
        <ele>2267.41</ele>
        <time>2018-03-24T09:38:59Z</time>
      </trkpt>
      <trkpt lat="45.39535" lon="6.76957">
        <ele>2267.41</ele>
        <time>2018-03-24T09:39:14Z</time>
      </trkpt>
      <trkpt lat="45.39532" lon="6.76957">
        <ele>2268.37</ele>
        <time>2018-03-24T09:39:29Z</time>
      </trkpt>
      <trkpt lat="45.39528" lon="6.76963">
        <ele>2267.89</ele>
        <time>2018-03-24T09:40:01Z</time>
      </trkpt>
      <trkpt lat="45.39531" lon="6.76962">
        <ele>2268.85</ele>
        <time>2018-03-24T09:40:14Z</time>
      </trkpt>
      <trkpt lat="45.39528" lon="6.76971">
        <ele>2270.29</ele>
        <time>2018-03-24T09:40:27Z</time>
      </trkpt>
      <trkpt lat="45.39528" lon="6.76981">
        <ele>2272.69</ele>
        <time>2018-03-24T09:40:41Z</time>
      </trkpt>
      <trkpt lat="45.39532" lon="6.7699">
        <ele>2273.66</ele>
        <time>2018-03-24T09:40:55Z</time>
      </trkpt>
      <trkpt lat="45.39535" lon="6.77004">
        <ele>2276.06</ele>
        <time>2018-03-24T09:41:10Z</time>
      </trkpt>
      <trkpt lat="45.3954" lon="6.77014">
        <ele>2277.5</ele>
        <time>2018-03-24T09:41:24Z</time>
      </trkpt>
      <trkpt lat="45.39544" lon="6.77026">
        <ele>2278.94</ele>
        <time>2018-03-24T09:41:38Z</time>
      </trkpt>
      <trkpt lat="45.3955" lon="6.77035">
        <ele>2280.87</ele>
        <time>2018-03-24T09:41:54Z</time>
      </trkpt>
      <trkpt lat="45.39555" lon="6.77045">
        <ele>2283.75</ele>
        <time>2018-03-24T09:42:11Z</time>
      </trkpt>
      <trkpt lat="45.39559" lon="6.77056">
        <ele>2284.71</ele>
        <time>2018-03-24T09:42:27Z</time>
      </trkpt>
      <trkpt lat="45.39561" lon="6.77068">
        <ele>2286.15</ele>
        <time>2018-03-24T09:42:43Z</time>
      </trkpt>
      <trkpt lat="45.39565" lon="6.77076">
        <ele>2288.56</ele>
        <time>2018-03-24T09:42:56Z</time>
      </trkpt>
      <trkpt lat="45.39568" lon="6.77088">
        <ele>2289.52</ele>
        <time>2018-03-24T09:43:10Z</time>
      </trkpt>
      <trkpt lat="45.39571" lon="6.77101">
        <ele>2290.96</ele>
        <time>2018-03-24T09:43:24Z</time>
      </trkpt>
      <trkpt lat="45.39575" lon="6.77111">
        <ele>2292.4</ele>
        <time>2018-03-24T09:43:37Z</time>
      </trkpt>
      <trkpt lat="45.39577" lon="6.77124">
        <ele>2293.36</ele>
        <time>2018-03-24T09:43:53Z</time>
      </trkpt>
      <trkpt lat="45.39578" lon="6.77136">
        <ele>2295.77</ele>
        <time>2018-03-24T09:44:08Z</time>
      </trkpt>
      <trkpt lat="45.39582" lon="6.77149">
        <ele>2297.69</ele>
        <time>2018-03-24T09:44:23Z</time>
      </trkpt>
      <trkpt lat="45.39585" lon="6.77159">
        <ele>2300.09</ele>
        <time>2018-03-24T09:44:38Z</time>
      </trkpt>
      <trkpt lat="45.39586" lon="6.77167">
        <ele>2301.05</ele>
        <time>2018-03-24T09:44:52Z</time>
      </trkpt>
      <trkpt lat="45.39587" lon="6.7718">
        <ele>2302.01</ele>
        <time>2018-03-24T09:45:06Z</time>
      </trkpt>
      <trkpt lat="45.39592" lon="6.77188">
        <ele>2304.42</ele>
        <time>2018-03-24T09:45:21Z</time>
      </trkpt>
      <trkpt lat="45.39596" lon="6.77198">
        <ele>2306.82</ele>
        <time>2018-03-24T09:45:36Z</time>
      </trkpt>
      <trkpt lat="45.396" lon="6.77206">
        <ele>2307.78</ele>
        <time>2018-03-24T09:45:51Z</time>
      </trkpt>
      <trkpt lat="45.39607" lon="6.77218">
        <ele>2309.22</ele>
        <time>2018-03-24T09:46:07Z</time>
      </trkpt>
      <trkpt lat="45.39611" lon="6.77222">
        <ele>2309.7</ele>
        <time>2018-03-24T09:46:23Z</time>
      </trkpt>
      <trkpt lat="45.39612" lon="6.77219">
        <ele>2309.7</ele>
        <time>2018-03-24T09:46:38Z</time>
      </trkpt>
      <trkpt lat="45.39612" lon="6.77222">
        <ele>2310.19</ele>
        <time>2018-03-24T09:46:49Z</time>
      </trkpt>
      <trkpt lat="45.39613" lon="6.77226">
        <ele>2310.19</ele>
        <time>2018-03-24T09:46:53Z</time>
      </trkpt>
      <trkpt lat="45.39617" lon="6.77239">
        <ele>2310.67</ele>
        <time>2018-03-24T09:47:06Z</time>
      </trkpt>
      <trkpt lat="45.39623" lon="6.77252">
        <ele>2312.11</ele>
        <time>2018-03-24T09:47:22Z</time>
      </trkpt>
      <trkpt lat="45.39631" lon="6.77258">
        <ele>2312.59</ele>
        <time>2018-03-24T09:47:36Z</time>
      </trkpt>
      <trkpt lat="45.39641" lon="6.77262">
        <ele>2313.07</ele>
        <time>2018-03-24T09:47:50Z</time>
      </trkpt>
      <trkpt lat="45.39647" lon="6.77274">
        <ele>2312.59</ele>
        <time>2018-03-24T09:48:01Z</time>
      </trkpt>
      <trkpt lat="45.39654" lon="6.77283">
        <ele>2313.55</ele>
        <time>2018-03-24T09:48:15Z</time>
      </trkpt>
      <trkpt lat="45.39658" lon="6.7729">
        <ele>2313.07</ele>
        <time>2018-03-24T09:48:26Z</time>
      </trkpt>
      <trkpt lat="45.39665" lon="6.77304">
        <ele>2313.07</ele>
        <time>2018-03-24T09:48:40Z</time>
      </trkpt>
      <trkpt lat="45.39672" lon="6.77315">
        <ele>2314.99</ele>
        <time>2018-03-24T09:48:54Z</time>
      </trkpt>
      <trkpt lat="45.3968" lon="6.7733">
        <ele>2315.47</ele>
        <time>2018-03-24T09:49:10Z</time>
      </trkpt>
      <trkpt lat="45.39686" lon="6.77343">
        <ele>2315.95</ele>
        <time>2018-03-24T09:49:25Z</time>
      </trkpt>
      <trkpt lat="45.39689" lon="6.77352">
        <ele>2315.95</ele>
        <time>2018-03-24T09:49:36Z</time>
      </trkpt>
      <trkpt lat="45.39696" lon="6.77362">
        <ele>2316.91</ele>
        <time>2018-03-24T09:49:50Z</time>
      </trkpt>
      <trkpt lat="45.39702" lon="6.77372">
        <ele>2317.4</ele>
        <time>2018-03-24T09:50:04Z</time>
      </trkpt>
      <trkpt lat="45.39706" lon="6.77377">
        <ele>2318.36</ele>
        <time>2018-03-24T09:50:11Z</time>
      </trkpt>
      <trkpt lat="45.39708" lon="6.77385">
        <ele>2319.8</ele>
        <time>2018-03-24T09:50:18Z</time>
      </trkpt>
      <trkpt lat="45.39713" lon="6.77394">
        <ele>2319.8</ele>
        <time>2018-03-24T09:50:31Z</time>
      </trkpt>
      <trkpt lat="45.39717" lon="6.77404">
        <ele>2323.16</ele>
        <time>2018-03-24T09:50:44Z</time>
      </trkpt>
      <trkpt lat="45.39722" lon="6.77417">
        <ele>2323.16</ele>
        <time>2018-03-24T09:50:59Z</time>
      </trkpt>
      <trkpt lat="45.39725" lon="6.7743">
        <ele>2324.61</ele>
        <time>2018-03-24T09:51:12Z</time>
      </trkpt>
      <trkpt lat="45.39734" lon="6.77441">
        <ele>2326.53</ele>
        <time>2018-03-24T09:51:27Z</time>
      </trkpt>
      <trkpt lat="45.39737" lon="6.77451">
        <ele>2327.49</ele>
        <time>2018-03-24T09:51:41Z</time>
      </trkpt>
      <trkpt lat="45.39742" lon="6.7746">
        <ele>2328.93</ele>
        <time>2018-03-24T09:51:54Z</time>
      </trkpt>
      <trkpt lat="45.39746" lon="6.77469">
        <ele>2328.93</ele>
        <time>2018-03-24T09:52:08Z</time>
      </trkpt>
      <trkpt lat="45.39747" lon="6.77471">
        <ele>2328.93</ele>
        <time>2018-03-24T09:52:23Z</time>
      </trkpt>
      <trkpt lat="45.39749" lon="6.77478">
        <ele>2328.93</ele>
        <time>2018-03-24T09:52:42Z</time>
      </trkpt>
      <trkpt lat="45.39759" lon="6.77488">
        <ele>2328.45</ele>
        <time>2018-03-24T09:52:59Z</time>
      </trkpt>
      <trkpt lat="45.39767" lon="6.77497">
        <ele>2328.93</ele>
        <time>2018-03-24T09:53:12Z</time>
      </trkpt>
      <trkpt lat="45.39774" lon="6.7751">
        <ele>2328.93</ele>
        <time>2018-03-24T09:53:29Z</time>
      </trkpt>
      <trkpt lat="45.39783" lon="6.77521">
        <ele>2329.89</ele>
        <time>2018-03-24T09:53:44Z</time>
      </trkpt>
      <trkpt lat="45.39791" lon="6.77531">
        <ele>2330.37</ele>
        <time>2018-03-24T09:53:58Z</time>
      </trkpt>
      <trkpt lat="45.39802" lon="6.77543">
        <ele>2330.37</ele>
        <time>2018-03-24T09:54:12Z</time>
      </trkpt>
      <trkpt lat="45.39809" lon="6.77556">
        <ele>2330.37</ele>
        <time>2018-03-24T09:54:27Z</time>
      </trkpt>
      <trkpt lat="45.39816" lon="6.77569">
        <ele>2331.33</ele>
        <time>2018-03-24T09:54:38Z</time>
      </trkpt>
      <trkpt lat="45.39823" lon="6.77582">
        <ele>2331.81</ele>
        <time>2018-03-24T09:54:53Z</time>
      </trkpt>
      <trkpt lat="45.39831" lon="6.77592">
        <ele>2330.85</ele>
        <time>2018-03-24T09:55:08Z</time>
      </trkpt>
      <trkpt lat="45.39841" lon="6.77602">
        <ele>2331.33</ele>
        <time>2018-03-24T09:55:23Z</time>
      </trkpt>
      <trkpt lat="45.39845" lon="6.77611">
        <ele>2331.33</ele>
        <time>2018-03-24T09:55:36Z</time>
      </trkpt>
      <trkpt lat="45.39847" lon="6.77616">
        <ele>2331.33</ele>
        <time>2018-03-24T09:55:54Z</time>
      </trkpt>
      <trkpt lat="45.39849" lon="6.77617">
        <ele>2332.3</ele>
        <time>2018-03-24T09:56:19Z</time>
      </trkpt>
      <trkpt lat="45.39858" lon="6.7763">
        <ele>2331.81</ele>
        <time>2018-03-24T09:56:35Z</time>
      </trkpt>
      <trkpt lat="45.39868" lon="6.77647">
        <ele>2331.81</ele>
        <time>2018-03-24T09:56:49Z</time>
      </trkpt>
      <trkpt lat="45.39877" lon="6.77658">
        <ele>2332.3</ele>
        <time>2018-03-24T09:57:01Z</time>
      </trkpt>
      <trkpt lat="45.3989" lon="6.77665">
        <ele>2332.78</ele>
        <time>2018-03-24T09:57:16Z</time>
      </trkpt>
      <trkpt lat="45.3989" lon="6.77667">
        <ele>2333.74</ele>
        <time>2018-03-24T09:57:32Z</time>
      </trkpt>
      <trkpt lat="45.39884" lon="6.77668">
        <ele>2334.22</ele>
        <time>2018-03-24T09:57:58Z</time>
      </trkpt>
      <trkpt lat="45.39888" lon="6.77661">
        <ele>2334.22</ele>
        <time>2018-03-24T09:58:23Z</time>
      </trkpt>
      <trkpt lat="45.39898" lon="6.77668">
        <ele>2336.14</ele>
        <time>2018-03-24T09:58:35Z</time>
      </trkpt>
      <trkpt lat="45.39904" lon="6.77676">
        <ele>2338.54</ele>
        <time>2018-03-24T09:58:49Z</time>
      </trkpt>
      <trkpt lat="45.39908" lon="6.7768">
        <ele>2339.51</ele>
        <time>2018-03-24T09:59:02Z</time>
      </trkpt>
      <trkpt lat="45.39911" lon="6.77685">
        <ele>2341.91</ele>
        <time>2018-03-24T09:59:15Z</time>
      </trkpt>
      <trkpt lat="45.39915" lon="6.7769">
        <ele>2343.35</ele>
        <time>2018-03-24T09:59:29Z</time>
      </trkpt>
      <trkpt lat="45.39917" lon="6.77697">
        <ele>2343.83</ele>
        <time>2018-03-24T09:59:42Z</time>
      </trkpt>
      <trkpt lat="45.3992" lon="6.77706">
        <ele>2346.23</ele>
        <time>2018-03-24T09:59:55Z</time>
      </trkpt>
      <trkpt lat="45.39922" lon="6.77715">
        <ele>2347.68</ele>
        <time>2018-03-24T10:00:05Z</time>
      </trkpt>
      <trkpt lat="45.39924" lon="6.77721">
        <ele>2348.16</ele>
        <time>2018-03-24T10:00:12Z</time>
      </trkpt>
      <trkpt lat="45.39924" lon="6.77734">
        <ele>2350.56</ele>
        <time>2018-03-24T10:00:24Z</time>
      </trkpt>
      <trkpt lat="45.39925" lon="6.77744">
        <ele>2352</ele>
        <time>2018-03-24T10:00:38Z</time>
      </trkpt>
      <trkpt lat="45.39929" lon="6.77764">
        <ele>2353.93</ele>
        <time>2018-03-24T10:00:50Z</time>
      </trkpt>
      <trkpt lat="45.39931" lon="6.77773">
        <ele>2353.93</ele>
        <time>2018-03-24T10:01:05Z</time>
      </trkpt>
      <trkpt lat="45.39928" lon="6.77775">
        <ele>2353.93</ele>
        <time>2018-03-24T10:01:24Z</time>
      </trkpt>
      <trkpt lat="45.39929" lon="6.77784">
        <ele>2355.37</ele>
        <time>2018-03-24T10:01:36Z</time>
      </trkpt>
      <trkpt lat="45.39929" lon="6.7779">
        <ele>2357.29</ele>
        <time>2018-03-24T10:01:49Z</time>
      </trkpt>
      <trkpt lat="45.39928" lon="6.77792">
        <ele>2358.25</ele>
        <time>2018-03-24T10:01:53Z</time>
      </trkpt>
      <trkpt lat="45.39928" lon="6.77799">
        <ele>2360.65</ele>
        <time>2018-03-24T10:02:06Z</time>
      </trkpt>
      <trkpt lat="45.39928" lon="6.77808">
        <ele>2362.1</ele>
        <time>2018-03-24T10:02:19Z</time>
      </trkpt>
      <trkpt lat="45.3993" lon="6.77816">
        <ele>2364.02</ele>
        <time>2018-03-24T10:02:33Z</time>
      </trkpt>
      <trkpt lat="45.39932" lon="6.77822">
        <ele>2365.46</ele>
        <time>2018-03-24T10:02:50Z</time>
      </trkpt>
      <trkpt lat="45.39932" lon="6.77825">
        <ele>2364.98</ele>
        <time>2018-03-24T10:02:54Z</time>
      </trkpt>
      <trkpt lat="45.39937" lon="6.7783">
        <ele>2365.94</ele>
        <time>2018-03-24T10:03:07Z</time>
      </trkpt>
      <trkpt lat="45.39939" lon="6.77835">
        <ele>2366.42</ele>
        <time>2018-03-24T10:03:23Z</time>
      </trkpt>
      <trkpt lat="45.39939" lon="6.77838">
        <ele>2365.46</ele>
        <time>2018-03-24T10:03:41Z</time>
      </trkpt>
      <trkpt lat="45.39942" lon="6.77838">
        <ele>2365.94</ele>
        <time>2018-03-24T10:03:53Z</time>
      </trkpt>
      <trkpt lat="45.39943" lon="6.77841">
        <ele>2364.5</ele>
        <time>2018-03-24T10:04:11Z</time>
      </trkpt>
      <trkpt lat="45.39945" lon="6.77841">
        <ele>2365.94</ele>
        <time>2018-03-24T10:04:31Z</time>
      </trkpt>
      <trkpt lat="45.39943" lon="6.77843">
        <ele>2364.98</ele>
        <time>2018-03-24T10:04:52Z</time>
      </trkpt>
      <trkpt lat="45.39944" lon="6.77842">
        <ele>2364.5</ele>
        <time>2018-03-24T10:05:02Z</time>
      </trkpt>
      <trkpt lat="45.39945" lon="6.77841">
        <ele>2364.98</ele>
        <time>2018-03-24T10:05:05Z</time>
      </trkpt>
      <trkpt lat="45.39946" lon="6.77843">
        <ele>2366.9</ele>
        <time>2018-03-24T10:05:13Z</time>
      </trkpt>
      <trkpt lat="45.39943" lon="6.77845">
        <ele>2365.94</ele>
        <time>2018-03-24T10:05:29Z</time>
      </trkpt>
      <trkpt lat="45.39946" lon="6.77846">
        <ele>2364.5</ele>
        <time>2018-03-24T10:05:36Z</time>
      </trkpt>
      <trkpt lat="45.39948" lon="6.77847">
        <ele>2364.98</ele>
        <time>2018-03-24T10:05:51Z</time>
      </trkpt>
      <trkpt lat="45.39949" lon="6.77849">
        <ele>2365.46</ele>
        <time>2018-03-24T10:06:09Z</time>
      </trkpt>
      <trkpt lat="45.39948" lon="6.77849">
        <ele>2365.94</ele>
        <time>2018-03-24T10:06:20Z</time>
      </trkpt>
      <trkpt lat="45.39946" lon="6.77847">
        <ele>2364.98</ele>
        <time>2018-03-24T10:06:28Z</time>
      </trkpt>
      <trkpt lat="45.39945" lon="6.77843">
        <ele>2364.98</ele>
        <time>2018-03-24T10:06:39Z</time>
      </trkpt>
      <trkpt lat="45.39945" lon="6.77844">
        <ele>2365.46</ele>
        <time>2018-03-24T10:06:58Z</time>
      </trkpt>
      <trkpt lat="45.39943" lon="6.77846">
        <ele>2364.02</ele>
        <time>2018-03-24T10:07:11Z</time>
      </trkpt>
      <trkpt lat="45.39941" lon="6.77846">
        <ele>2365.46</ele>
        <time>2018-03-24T10:07:23Z</time>
      </trkpt>
      <trkpt lat="45.39941" lon="6.77847">
        <ele>2364.02</ele>
        <time>2018-03-24T10:07:30Z</time>
      </trkpt>
      <trkpt lat="45.39939" lon="6.77846">
        <ele>2363.06</ele>
        <time>2018-03-24T10:07:55Z</time>
      </trkpt>
      <trkpt lat="45.39942" lon="6.77843">
        <ele>2364.5</ele>
        <time>2018-03-24T10:08:07Z</time>
      </trkpt>
      <trkpt lat="45.39942" lon="6.77845">
        <ele>2364.5</ele>
        <time>2018-03-24T10:08:23Z</time>
      </trkpt>
      <trkpt lat="45.39942" lon="6.77844">
        <ele>2363.54</ele>
        <time>2018-03-24T10:08:36Z</time>
      </trkpt>
      <trkpt lat="45.3994" lon="6.77846">
        <ele>2364.5</ele>
        <time>2018-03-24T10:08:58Z</time>
      </trkpt>
      <trkpt lat="45.39945" lon="6.77843">
        <ele>2364.5</ele>
        <time>2018-03-24T10:09:21Z</time>
      </trkpt>
      <trkpt lat="45.39943" lon="6.77842">
        <ele>2364.5</ele>
        <time>2018-03-24T10:09:48Z</time>
      </trkpt>
      <trkpt lat="45.39941" lon="6.77842">
        <ele>2364.98</ele>
        <time>2018-03-24T10:10:08Z</time>
      </trkpt>
      <trkpt lat="45.39941" lon="6.7784">
        <ele>2364.5</ele>
        <time>2018-03-24T10:10:23Z</time>
      </trkpt>
      <trkpt lat="45.39943" lon="6.77842">
        <ele>2362.1</ele>
        <time>2018-03-24T10:10:33Z</time>
      </trkpt>
      <trkpt lat="45.39942" lon="6.77843">
        <ele>2364.98</ele>
        <time>2018-03-24T10:10:36Z</time>
      </trkpt>
      <trkpt lat="45.39943" lon="6.77844">
        <ele>2363.06</ele>
        <time>2018-03-24T10:10:53Z</time>
      </trkpt>
      <trkpt lat="45.39942" lon="6.77843">
        <ele>2364.02</ele>
        <time>2018-03-24T10:11:07Z</time>
      </trkpt>
      <trkpt lat="45.39941" lon="6.77843">
        <ele>2363.54</ele>
        <time>2018-03-24T10:11:11Z</time>
      </trkpt>
      <trkpt lat="45.39942" lon="6.77846">
        <ele>2363.54</ele>
        <time>2018-03-24T10:11:27Z</time>
      </trkpt>
      <trkpt lat="45.39942" lon="6.77845">
        <ele>2363.54</ele>
        <time>2018-03-24T10:11:51Z</time>
      </trkpt>
      <trkpt lat="45.39946" lon="6.77849">
        <ele>2364.5</ele>
        <time>2018-03-24T10:12:08Z</time>
      </trkpt>
      <trkpt lat="45.39946" lon="6.77853">
        <ele>2364.98</ele>
        <time>2018-03-24T10:12:26Z</time>
      </trkpt>
      <trkpt lat="45.39952" lon="6.77864">
        <ele>2364.98</ele>
        <time>2018-03-24T10:12:40Z</time>
      </trkpt>
      <trkpt lat="45.39959" lon="6.77875">
        <ele>2366.42</ele>
        <time>2018-03-24T10:12:55Z</time>
      </trkpt>
      <trkpt lat="45.39964" lon="6.77887">
        <ele>2367.86</ele>
        <time>2018-03-24T10:13:11Z</time>
      </trkpt>
      <trkpt lat="45.39972" lon="6.77897">
        <ele>2368.83</ele>
        <time>2018-03-24T10:13:26Z</time>
      </trkpt>
      <trkpt lat="45.39982" lon="6.77907">
        <ele>2370.27</ele>
        <time>2018-03-24T10:13:42Z</time>
      </trkpt>
      <trkpt lat="45.39969" lon="6.77923">
        <ele>2371.23</ele>
        <time>2018-03-24T10:13:55Z</time>
      </trkpt>
      <trkpt lat="45.39968" lon="6.77936">
        <ele>2372.19</ele>
        <time>2018-03-24T10:14:09Z</time>
      </trkpt>
      <trkpt lat="45.39966" lon="6.77944">
        <ele>2373.15</ele>
        <time>2018-03-24T10:14:21Z</time>
      </trkpt>
      <trkpt lat="45.39967" lon="6.77949">
        <ele>2373.63</ele>
        <time>2018-03-24T10:14:30Z</time>
      </trkpt>
      <trkpt lat="45.39975" lon="6.77958">
        <ele>2374.11</ele>
        <time>2018-03-24T10:14:42Z</time>
      </trkpt>
      <trkpt lat="45.39981" lon="6.77966">
        <ele>2375.55</ele>
        <time>2018-03-24T10:14:56Z</time>
      </trkpt>
      <trkpt lat="45.39989" lon="6.77973">
        <ele>2375.55</ele>
        <time>2018-03-24T10:15:10Z</time>
      </trkpt>
      <trkpt lat="45.39987" lon="6.77984">
        <ele>2376.52</ele>
        <time>2018-03-24T10:15:22Z</time>
      </trkpt>
      <trkpt lat="45.39988" lon="6.77986">
        <ele>2376.04</ele>
        <time>2018-03-24T10:15:40Z</time>
      </trkpt>
      <trkpt lat="45.39986" lon="6.77989">
        <ele>2376.52</ele>
        <time>2018-03-24T10:15:50Z</time>
      </trkpt>
      <trkpt lat="45.39973" lon="6.78003">
        <ele>2377</ele>
        <time>2018-03-24T10:16:01Z</time>
      </trkpt>
      <trkpt lat="45.39982" lon="6.78009">
        <ele>2379.4</ele>
        <time>2018-03-24T10:16:15Z</time>
      </trkpt>
      <trkpt lat="45.39983" lon="6.78009">
        <ele>2379.4</ele>
        <time>2018-03-24T10:16:16Z</time>
      </trkpt>
      <trkpt lat="45.39993" lon="6.78017">
        <ele>2380.84</ele>
        <time>2018-03-24T10:16:31Z</time>
      </trkpt>
      <trkpt lat="45.39998" lon="6.78031">
        <ele>2381.8</ele>
        <time>2018-03-24T10:16:46Z</time>
      </trkpt>
      <trkpt lat="45.40009" lon="6.78037">
        <ele>2383.25</ele>
        <time>2018-03-24T10:16:58Z</time>
      </trkpt>
      <trkpt lat="45.40022" lon="6.78042">
        <ele>2384.69</ele>
        <time>2018-03-24T10:17:11Z</time>
      </trkpt>
      <trkpt lat="45.40024" lon="6.78048">
        <ele>2386.13</ele>
        <time>2018-03-24T10:17:23Z</time>
      </trkpt>
      <trkpt lat="45.40012" lon="6.7806">
        <ele>2386.13</ele>
        <time>2018-03-24T10:17:32Z</time>
      </trkpt>
      <trkpt lat="45.40007" lon="6.78068">
        <ele>2387.57</ele>
        <time>2018-03-24T10:17:45Z</time>
      </trkpt>
      <trkpt lat="45.40004" lon="6.78078">
        <ele>2387.57</ele>
        <time>2018-03-24T10:17:58Z</time>
      </trkpt>
      <trkpt lat="45.40002" lon="6.7808">
        <ele>2389.01</ele>
        <time>2018-03-24T10:18:00Z</time>
      </trkpt>
      <trkpt lat="45.39973" lon="6.78094">
        <ele>2389.97</ele>
        <time>2018-03-24T10:18:11Z</time>
      </trkpt>
      <trkpt lat="45.39989" lon="6.78089">
        <ele>2390.46</ele>
        <time>2018-03-24T10:18:28Z</time>
      </trkpt>
      <trkpt lat="45.39994" lon="6.78096">
        <ele>2391.42</ele>
        <time>2018-03-24T10:18:43Z</time>
      </trkpt>
      <trkpt lat="45.40027" lon="6.7808">
        <ele>2392.86</ele>
        <time>2018-03-24T10:19:00Z</time>
      </trkpt>
      <trkpt lat="45.40035" lon="6.78082">
        <ele>2391.9</ele>
        <time>2018-03-24T10:19:12Z</time>
      </trkpt>
      <trkpt lat="45.40048" lon="6.78084">
        <ele>2392.86</ele>
        <time>2018-03-24T10:19:27Z</time>
      </trkpt>
      <trkpt lat="45.40055" lon="6.78087">
        <ele>2394.78</ele>
        <time>2018-03-24T10:19:39Z</time>
      </trkpt>
      <trkpt lat="45.40055" lon="6.78089">
        <ele>2396.7</ele>
        <time>2018-03-24T10:19:52Z</time>
      </trkpt>
      <trkpt lat="45.4005" lon="6.78089">
        <ele>2396.22</ele>
        <time>2018-03-24T10:20:05Z</time>
      </trkpt>
      <trkpt lat="45.40046" lon="6.78091">
        <ele>2394.78</ele>
        <time>2018-03-24T10:20:08Z</time>
      </trkpt>
      <trkpt lat="45.40016" lon="6.78096">
        <ele>2395.26</ele>
        <time>2018-03-24T10:20:28Z</time>
      </trkpt>
      <trkpt lat="45.40024" lon="6.78089">
        <ele>2395.26</ele>
        <time>2018-03-24T10:20:54Z</time>
      </trkpt>
      <trkpt lat="45.40012" lon="6.78094">
        <ele>2394.78</ele>
        <time>2018-03-24T10:21:14Z</time>
      </trkpt>
      <trkpt lat="45.40003" lon="6.78102">
        <ele>2395.74</ele>
        <time>2018-03-24T10:21:29Z</time>
      </trkpt>
      <trkpt lat="45.39983" lon="6.78119">
        <ele>2395.26</ele>
        <time>2018-03-24T10:21:55Z</time>
      </trkpt>
      <trkpt lat="45.39987" lon="6.78116">
        <ele>2395.74</ele>
        <time>2018-03-24T10:22:00Z</time>
      </trkpt>
      <trkpt lat="45.39992" lon="6.78117">
        <ele>2397.67</ele>
        <time>2018-03-24T10:22:08Z</time>
      </trkpt>
      <trkpt lat="45.40001" lon="6.78118">
        <ele>2398.63</ele>
        <time>2018-03-24T10:22:19Z</time>
      </trkpt>
      <trkpt lat="45.40004" lon="6.78121">
        <ele>2398.63</ele>
        <time>2018-03-24T10:22:35Z</time>
      </trkpt>
      <trkpt lat="45.40003" lon="6.78125">
        <ele>2398.63</ele>
        <time>2018-03-24T10:22:45Z</time>
      </trkpt>
      <trkpt lat="45.40014" lon="6.78125">
        <ele>2399.59</ele>
        <time>2018-03-24T10:22:56Z</time>
      </trkpt>
      <trkpt lat="45.40027" lon="6.78115">
        <ele>2400.55</ele>
        <time>2018-03-24T10:23:15Z</time>
      </trkpt>
      <trkpt lat="45.40036" lon="6.78118">
        <ele>2401.51</ele>
        <time>2018-03-24T10:23:27Z</time>
      </trkpt>
      <trkpt lat="45.40046" lon="6.78122">
        <ele>2402.47</ele>
        <time>2018-03-24T10:23:39Z</time>
      </trkpt>
      <trkpt lat="45.40047" lon="6.78123">
        <ele>2402.47</ele>
        <time>2018-03-24T10:23:40Z</time>
      </trkpt>
      <trkpt lat="45.40048" lon="6.78128">
        <ele>2402.47</ele>
        <time>2018-03-24T10:23:51Z</time>
      </trkpt>
      <trkpt lat="45.4004" lon="6.78135">
        <ele>2402.95</ele>
        <time>2018-03-24T10:24:03Z</time>
      </trkpt>
      <trkpt lat="45.4004" lon="6.78131">
        <ele>2402.95</ele>
        <time>2018-03-24T10:24:10Z</time>
      </trkpt>
      <trkpt lat="45.40025" lon="6.78136">
        <ele>2404.88</ele>
        <time>2018-03-24T10:24:21Z</time>
      </trkpt>
      <trkpt lat="45.40008" lon="6.78142">
        <ele>2406.32</ele>
        <time>2018-03-24T10:24:37Z</time>
      </trkpt>
      <trkpt lat="45.40009" lon="6.78139">
        <ele>2405.36</ele>
        <time>2018-03-24T10:24:57Z</time>
      </trkpt>
      <trkpt lat="45.40029" lon="6.78136">
        <ele>2406.8</ele>
        <time>2018-03-24T10:25:10Z</time>
      </trkpt>
      <trkpt lat="45.40025" lon="6.78141">
        <ele>2408.72</ele>
        <time>2018-03-24T10:25:23Z</time>
      </trkpt>
      <trkpt lat="45.40018" lon="6.78147">
        <ele>2410.64</ele>
        <time>2018-03-24T10:25:36Z</time>
      </trkpt>
      <trkpt lat="45.40011" lon="6.78158">
        <ele>2410.64</ele>
        <time>2018-03-24T10:25:49Z</time>
      </trkpt>
      <trkpt lat="45.40011" lon="6.78162">
        <ele>2413.05</ele>
        <time>2018-03-24T10:26:04Z</time>
      </trkpt>
      <trkpt lat="45.40005" lon="6.78165">
        <ele>2414.01</ele>
        <time>2018-03-24T10:26:11Z</time>
      </trkpt>
      <trkpt lat="45.40002" lon="6.78167">
        <ele>2414.97</ele>
        <time>2018-03-24T10:26:23Z</time>
      </trkpt>
      <trkpt lat="45.39995" lon="6.78175">
        <ele>2415.93</ele>
        <time>2018-03-24T10:26:34Z</time>
      </trkpt>
      <trkpt lat="45.40011" lon="6.78169">
        <ele>2415.45</ele>
        <time>2018-03-24T10:27:03Z</time>
      </trkpt>
      <trkpt lat="45.4" lon="6.78177">
        <ele>2415.45</ele>
        <time>2018-03-24T10:27:14Z</time>
      </trkpt>
      <trkpt lat="45.39995" lon="6.78186">
        <ele>2416.41</ele>
        <time>2018-03-24T10:27:24Z</time>
      </trkpt>
      <trkpt lat="45.39998" lon="6.78186">
        <ele>2416.41</ele>
        <time>2018-03-24T10:27:28Z</time>
      </trkpt>
      <trkpt lat="45.40003" lon="6.78185">
        <ele>2416.41</ele>
        <time>2018-03-24T10:27:40Z</time>
      </trkpt>
      <trkpt lat="45.40026" lon="6.78177">
        <ele>2416.89</ele>
        <time>2018-03-24T10:27:59Z</time>
      </trkpt>
      <trkpt lat="45.40033" lon="6.78181">
        <ele>2417.85</ele>
        <time>2018-03-24T10:28:07Z</time>
      </trkpt>
      <trkpt lat="45.4005" lon="6.78178">
        <ele>2418.81</ele>
        <time>2018-03-24T10:28:20Z</time>
      </trkpt>
      <trkpt lat="45.40066" lon="6.78172">
        <ele>2420.26</ele>
        <time>2018-03-24T10:28:35Z</time>
      </trkpt>
      <trkpt lat="45.40078" lon="6.78175">
        <ele>2422.18</ele>
        <time>2018-03-24T10:28:47Z</time>
      </trkpt>
      <trkpt lat="45.40075" lon="6.78181">
        <ele>2423.62</ele>
        <time>2018-03-24T10:28:58Z</time>
      </trkpt>
      <trkpt lat="45.40075" lon="6.78182">
        <ele>2423.62</ele>
        <time>2018-03-24T10:29:03Z</time>
      </trkpt>
      <trkpt lat="45.40077" lon="6.78186">
        <ele>2424.58</ele>
        <time>2018-03-24T10:29:17Z</time>
      </trkpt>
      <trkpt lat="45.40075" lon="6.78187">
        <ele>2426.99</ele>
        <time>2018-03-24T10:29:29Z</time>
      </trkpt>
      <trkpt lat="45.40073" lon="6.78183">
        <ele>2425.06</ele>
        <time>2018-03-24T10:29:42Z</time>
      </trkpt>
      <trkpt lat="45.40072" lon="6.78182">
        <ele>2425.54</ele>
        <time>2018-03-24T10:30:03Z</time>
      </trkpt>
      <trkpt lat="45.40075" lon="6.7818">
        <ele>2424.1</ele>
        <time>2018-03-24T10:30:19Z</time>
      </trkpt>
      <trkpt lat="45.40068" lon="6.78178">
        <ele>2425.06</ele>
        <time>2018-03-24T10:30:38Z</time>
      </trkpt>
      <trkpt lat="45.40061" lon="6.78184">
        <ele>2425.54</ele>
        <time>2018-03-24T10:30:56Z</time>
      </trkpt>
      <trkpt lat="45.40051" lon="6.78196">
        <ele>2427.47</ele>
        <time>2018-03-24T10:31:11Z</time>
      </trkpt>
      <trkpt lat="45.40046" lon="6.78202">
        <ele>2430.83</ele>
        <time>2018-03-24T10:31:22Z</time>
      </trkpt>
      <trkpt lat="45.40049" lon="6.78202">
        <ele>2429.87</ele>
        <time>2018-03-24T10:31:29Z</time>
      </trkpt>
      <trkpt lat="45.40055" lon="6.782">
        <ele>2429.39</ele>
        <time>2018-03-24T10:31:48Z</time>
      </trkpt>
      <trkpt lat="45.40057" lon="6.782">
        <ele>2429.87</ele>
        <time>2018-03-24T10:32:13Z</time>
      </trkpt>
      <trkpt lat="45.40057" lon="6.78199">
        <ele>2430.83</ele>
        <time>2018-03-24T10:32:33Z</time>
      </trkpt>
      <trkpt lat="45.4005" lon="6.78207">
        <ele>2431.79</ele>
        <time>2018-03-24T10:32:46Z</time>
      </trkpt>
      <trkpt lat="45.40049" lon="6.78208">
        <ele>2433.71</ele>
        <time>2018-03-24T10:32:49Z</time>
      </trkpt>
      <trkpt lat="45.40042" lon="6.78217">
        <ele>2435.64</ele>
        <time>2018-03-24T10:33:02Z</time>
      </trkpt>
      <trkpt lat="45.40042" lon="6.78224">
        <ele>2436.12</ele>
        <time>2018-03-24T10:33:16Z</time>
      </trkpt>
      <trkpt lat="45.40035" lon="6.78234">
        <ele>2439</ele>
        <time>2018-03-24T10:33:26Z</time>
      </trkpt>
      <trkpt lat="45.4003" lon="6.7824">
        <ele>2439.48</ele>
        <time>2018-03-24T10:33:38Z</time>
      </trkpt>
      <trkpt lat="45.40027" lon="6.78252">
        <ele>2442.37</ele>
        <time>2018-03-24T10:33:50Z</time>
      </trkpt>
      <trkpt lat="45.40023" lon="6.78257">
        <ele>2443.81</ele>
        <time>2018-03-24T10:34:06Z</time>
      </trkpt>
      <trkpt lat="45.40017" lon="6.78257">
        <ele>2443.33</ele>
        <time>2018-03-24T10:34:21Z</time>
      </trkpt>
      <trkpt lat="45.40042" lon="6.78245">
        <ele>2441.89</ele>
        <time>2018-03-24T10:34:51Z</time>
      </trkpt>
      <trkpt lat="45.40045" lon="6.78251">
        <ele>2441.89</ele>
        <time>2018-03-24T10:35:03Z</time>
      </trkpt>
      <trkpt lat="45.40041" lon="6.78255">
        <ele>2445.25</ele>
        <time>2018-03-24T10:35:09Z</time>
      </trkpt>
      <trkpt lat="45.40037" lon="6.78262">
        <ele>2445.73</ele>
        <time>2018-03-24T10:35:16Z</time>
      </trkpt>
      <trkpt lat="45.40036" lon="6.78266">
        <ele>2446.69</ele>
        <time>2018-03-24T10:35:20Z</time>
      </trkpt>
      <trkpt lat="45.40028" lon="6.78277">
        <ele>2448.62</ele>
        <time>2018-03-24T10:35:32Z</time>
      </trkpt>
      <trkpt lat="45.40027" lon="6.78287">
        <ele>2451.02</ele>
        <time>2018-03-24T10:35:47Z</time>
      </trkpt>
      <trkpt lat="45.40021" lon="6.78288">
        <ele>2450.54</ele>
        <time>2018-03-24T10:35:59Z</time>
      </trkpt>
      <trkpt lat="45.4003" lon="6.78283">
        <ele>2447.17</ele>
        <time>2018-03-24T10:36:15Z</time>
      </trkpt>
      <trkpt lat="45.40036" lon="6.78279">
        <ele>2448.62</ele>
        <time>2018-03-24T10:36:33Z</time>
      </trkpt>
      <trkpt lat="45.40042" lon="6.78279">
        <ele>2449.58</ele>
        <time>2018-03-24T10:36:50Z</time>
      </trkpt>
      <trkpt lat="45.40037" lon="6.78281">
        <ele>2450.06</ele>
        <time>2018-03-24T10:37:07Z</time>
      </trkpt>
      <trkpt lat="45.40033" lon="6.78283">
        <ele>2450.06</ele>
        <time>2018-03-24T10:37:27Z</time>
      </trkpt>
      <trkpt lat="45.40031" lon="6.78282">
        <ele>2450.06</ele>
        <time>2018-03-24T10:37:43Z</time>
      </trkpt>
      <trkpt lat="45.40035" lon="6.78283">
        <ele>2450.06</ele>
        <time>2018-03-24T10:38:01Z</time>
      </trkpt>
      <trkpt lat="45.40037" lon="6.78284">
        <ele>2451.5</ele>
        <time>2018-03-24T10:38:07Z</time>
      </trkpt>
      <trkpt lat="45.40046" lon="6.78282">
        <ele>2449.58</ele>
        <time>2018-03-24T10:38:35Z</time>
      </trkpt>
      <trkpt lat="45.40046" lon="6.78283">
        <ele>2450.54</ele>
        <time>2018-03-24T10:38:40Z</time>
      </trkpt>
      <trkpt lat="45.40048" lon="6.78291">
        <ele>2451.98</ele>
        <time>2018-03-24T10:38:57Z</time>
      </trkpt>
      <trkpt lat="45.40048" lon="6.783">
        <ele>2452.94</ele>
        <time>2018-03-24T10:39:11Z</time>
      </trkpt>
      <trkpt lat="45.40056" lon="6.78308">
        <ele>2452.94</ele>
        <time>2018-03-24T10:39:26Z</time>
      </trkpt>
      <trkpt lat="45.40064" lon="6.78314">
        <ele>2451.98</ele>
        <time>2018-03-24T10:39:41Z</time>
      </trkpt>
      <trkpt lat="45.40067" lon="6.78317">
        <ele>2452.94</ele>
        <time>2018-03-24T10:39:57Z</time>
      </trkpt>
      <trkpt lat="45.40065" lon="6.78321">
        <ele>2451.98</ele>
        <time>2018-03-24T10:40:15Z</time>
      </trkpt>
      <trkpt lat="45.40068" lon="6.78324">
        <ele>2453.9</ele>
        <time>2018-03-24T10:40:36Z</time>
      </trkpt>
      <trkpt lat="45.40068" lon="6.78323">
        <ele>2453.42</ele>
        <time>2018-03-24T10:40:53Z</time>
      </trkpt>
      <trkpt lat="45.40065" lon="6.78322">
        <ele>2453.42</ele>
        <time>2018-03-24T10:41:10Z</time>
      </trkpt>
      <trkpt lat="45.40062" lon="6.78321">
        <ele>2453.42</ele>
        <time>2018-03-24T10:41:24Z</time>
      </trkpt>
      <trkpt lat="45.40069" lon="6.78331">
        <ele>2454.86</ele>
        <time>2018-03-24T10:41:39Z</time>
      </trkpt>
      <trkpt lat="45.40074" lon="6.78343">
        <ele>2456.31</ele>
        <time>2018-03-24T10:41:55Z</time>
      </trkpt>
      <trkpt lat="45.40082" lon="6.78358">
        <ele>2456.79</ele>
        <time>2018-03-24T10:42:12Z</time>
      </trkpt>
      <trkpt lat="45.40086" lon="6.78368">
        <ele>2456.79</ele>
        <time>2018-03-24T10:42:26Z</time>
      </trkpt>
      <trkpt lat="45.40087" lon="6.78375">
        <ele>2457.75</ele>
        <time>2018-03-24T10:42:40Z</time>
      </trkpt>
      <trkpt lat="45.40089" lon="6.78386">
        <ele>2458.71</ele>
        <time>2018-03-24T10:42:55Z</time>
      </trkpt>
      <trkpt lat="45.40091" lon="6.78397">
        <ele>2461.59</ele>
        <time>2018-03-24T10:43:11Z</time>
      </trkpt>
      <trkpt lat="45.40093" lon="6.78408">
        <ele>2463.04</ele>
        <time>2018-03-24T10:43:26Z</time>
      </trkpt>
      <trkpt lat="45.40094" lon="6.78418">
        <ele>2463.52</ele>
        <time>2018-03-24T10:43:47Z</time>
      </trkpt>
      <trkpt lat="45.40093" lon="6.78427">
        <ele>2465.44</ele>
        <time>2018-03-24T10:44:01Z</time>
      </trkpt>
      <trkpt lat="45.40092" lon="6.78438">
        <ele>2466.4</ele>
        <time>2018-03-24T10:44:17Z</time>
      </trkpt>
      <trkpt lat="45.40092" lon="6.78439">
        <ele>2468.32</ele>
        <time>2018-03-24T10:44:19Z</time>
      </trkpt>
      <trkpt lat="45.40091" lon="6.78442">
        <ele>2467.36</ele>
        <time>2018-03-24T10:44:38Z</time>
      </trkpt>
      <trkpt lat="45.4009" lon="6.78448">
        <ele>2469.28</ele>
        <time>2018-03-24T10:44:54Z</time>
      </trkpt>
      <trkpt lat="45.40088" lon="6.78452">
        <ele>2468.8</ele>
        <time>2018-03-24T10:45:18Z</time>
      </trkpt>
      <trkpt lat="45.4009" lon="6.78448">
        <ele>2469.76</ele>
        <time>2018-03-24T10:45:35Z</time>
      </trkpt>
      <trkpt lat="45.40089" lon="6.78448">
        <ele>2468.8</ele>
        <time>2018-03-24T10:45:52Z</time>
      </trkpt>
      <trkpt lat="45.40088" lon="6.7845">
        <ele>2469.76</ele>
        <time>2018-03-24T10:46:09Z</time>
      </trkpt>
      <trkpt lat="45.40088" lon="6.78462">
        <ele>2472.17</ele>
        <time>2018-03-24T10:46:25Z</time>
      </trkpt>
      <trkpt lat="45.40086" lon="6.78473">
        <ele>2473.61</ele>
        <time>2018-03-24T10:46:41Z</time>
      </trkpt>
      <trkpt lat="45.40086" lon="6.7848">
        <ele>2475.05</ele>
        <time>2018-03-24T10:46:53Z</time>
      </trkpt>
      <trkpt lat="45.40085" lon="6.78485">
        <ele>2475.05</ele>
        <time>2018-03-24T10:47:05Z</time>
      </trkpt>
      <trkpt lat="45.40085" lon="6.78485">
        <ele>2475.05</ele>
        <time>2018-03-24T10:47:06Z</time>
      </trkpt>
      <trkpt lat="45.40083" lon="6.78491">
        <ele>2477.94</ele>
        <time>2018-03-24T10:47:20Z</time>
      </trkpt>
      <trkpt lat="45.40081" lon="6.785">
        <ele>2479.86</ele>
        <time>2018-03-24T10:47:34Z</time>
      </trkpt>
      <trkpt lat="45.40081" lon="6.78507">
        <ele>2481.78</ele>
        <time>2018-03-24T10:47:47Z</time>
      </trkpt>
      <trkpt lat="45.40078" lon="6.78514">
        <ele>2481.3</ele>
        <time>2018-03-24T10:48:01Z</time>
      </trkpt>
      <trkpt lat="45.40078" lon="6.78523">
        <ele>2483.22</ele>
        <time>2018-03-24T10:48:19Z</time>
      </trkpt>
      <trkpt lat="45.40079" lon="6.78527">
        <ele>2485.15</ele>
        <time>2018-03-24T10:48:34Z</time>
      </trkpt>
      <trkpt lat="45.40078" lon="6.78534">
        <ele>2485.63</ele>
        <time>2018-03-24T10:48:47Z</time>
      </trkpt>
      <trkpt lat="45.40078" lon="6.78544">
        <ele>2486.59</ele>
        <time>2018-03-24T10:49:01Z</time>
      </trkpt>
      <trkpt lat="45.40077" lon="6.78551">
        <ele>2488.51</ele>
        <time>2018-03-24T10:49:17Z</time>
      </trkpt>
      <trkpt lat="45.40078" lon="6.78558">
        <ele>2490.43</ele>
        <time>2018-03-24T10:49:32Z</time>
      </trkpt>
      <trkpt lat="45.40079" lon="6.78567">
        <ele>2490.91</ele>
        <time>2018-03-24T10:49:49Z</time>
      </trkpt>
      <trkpt lat="45.4008" lon="6.78575">
        <ele>2491.87</ele>
        <time>2018-03-24T10:50:03Z</time>
      </trkpt>
      <trkpt lat="45.40079" lon="6.78588">
        <ele>2494.28</ele>
        <time>2018-03-24T10:50:20Z</time>
      </trkpt>
      <trkpt lat="45.4008" lon="6.78598">
        <ele>2494.76</ele>
        <time>2018-03-24T10:50:35Z</time>
      </trkpt>
      <trkpt lat="45.40079" lon="6.78608">
        <ele>2495.24</ele>
        <time>2018-03-24T10:50:48Z</time>
      </trkpt>
      <trkpt lat="45.40081" lon="6.78619">
        <ele>2495.72</ele>
        <time>2018-03-24T10:51:03Z</time>
      </trkpt>
      <trkpt lat="45.40083" lon="6.78627">
        <ele>2498.12</ele>
        <time>2018-03-24T10:51:17Z</time>
      </trkpt>
      <trkpt lat="45.40083" lon="6.78633">
        <ele>2499.08</ele>
        <time>2018-03-24T10:51:33Z</time>
      </trkpt>
      <trkpt lat="45.40086" lon="6.7864">
        <ele>2499.57</ele>
        <time>2018-03-24T10:51:49Z</time>
      </trkpt>
      <trkpt lat="45.40086" lon="6.78637">
        <ele>2502.45</ele>
        <time>2018-03-24T10:51:53Z</time>
      </trkpt>
      <trkpt lat="45.40085" lon="6.78637">
        <ele>2500.53</ele>
        <time>2018-03-24T10:51:57Z</time>
      </trkpt>
      <trkpt lat="45.40082" lon="6.78644">
        <ele>2498.6</ele>
        <time>2018-03-24T10:52:19Z</time>
      </trkpt>
      <trkpt lat="45.40083" lon="6.78652">
        <ele>2500.05</ele>
        <time>2018-03-24T10:52:32Z</time>
      </trkpt>
      <trkpt lat="45.40085" lon="6.78662">
        <ele>2501.49</ele>
        <time>2018-03-24T10:52:47Z</time>
      </trkpt>
      <trkpt lat="45.40085" lon="6.7867">
        <ele>2503.89</ele>
        <time>2018-03-24T10:52:59Z</time>
      </trkpt>
      <trkpt lat="45.40081" lon="6.78675">
        <ele>2501.01</ele>
        <time>2018-03-24T10:53:15Z</time>
      </trkpt>
      <trkpt lat="45.40086" lon="6.78675">
        <ele>2501.49</ele>
        <time>2018-03-24T10:53:41Z</time>
      </trkpt>
      <trkpt lat="45.40085" lon="6.78679">
        <ele>2502.93</ele>
        <time>2018-03-24T10:53:56Z</time>
      </trkpt>
      <trkpt lat="45.40084" lon="6.78689">
        <ele>2503.41</ele>
        <time>2018-03-24T10:54:11Z</time>
      </trkpt>
      <trkpt lat="45.40083" lon="6.78703">
        <ele>2503.89</ele>
        <time>2018-03-24T10:54:27Z</time>
      </trkpt>
      <trkpt lat="45.40082" lon="6.78716">
        <ele>2506.29</ele>
        <time>2018-03-24T10:54:43Z</time>
      </trkpt>
      <trkpt lat="45.40082" lon="6.78722">
        <ele>2508.7</ele>
        <time>2018-03-24T10:54:51Z</time>
      </trkpt>
      <trkpt lat="45.40085" lon="6.78731">
        <ele>2508.7</ele>
        <time>2018-03-24T10:55:07Z</time>
      </trkpt>
      <trkpt lat="45.40085" lon="6.78745">
        <ele>2509.18</ele>
        <time>2018-03-24T10:55:24Z</time>
      </trkpt>
      <trkpt lat="45.40089" lon="6.78755">
        <ele>2510.14</ele>
        <time>2018-03-24T10:55:39Z</time>
      </trkpt>
      <trkpt lat="45.40088" lon="6.78757">
        <ele>2511.58</ele>
        <time>2018-03-24T10:55:43Z</time>
      </trkpt>
      <trkpt lat="45.4009" lon="6.78766">
        <ele>2512.54</ele>
        <time>2018-03-24T10:55:54Z</time>
      </trkpt>
      <trkpt lat="45.40092" lon="6.78775">
        <ele>2513.02</ele>
        <time>2018-03-24T10:56:09Z</time>
      </trkpt>
      <trkpt lat="45.40092" lon="6.78778">
        <ele>2512.54</ele>
        <time>2018-03-24T10:56:17Z</time>
      </trkpt>
      <trkpt lat="45.40093" lon="6.78782">
        <ele>2514.95</ele>
        <time>2018-03-24T10:56:23Z</time>
      </trkpt>
      <trkpt lat="45.40093" lon="6.78793">
        <ele>2515.91</ele>
        <time>2018-03-24T10:56:39Z</time>
      </trkpt>
      <trkpt lat="45.40094" lon="6.78803">
        <ele>2516.87</ele>
        <time>2018-03-24T10:56:53Z</time>
      </trkpt>
      <trkpt lat="45.40091" lon="6.78812">
        <ele>2517.35</ele>
        <time>2018-03-24T10:57:07Z</time>
      </trkpt>
      <trkpt lat="45.40093" lon="6.78817">
        <ele>2519.27</ele>
        <time>2018-03-24T10:57:20Z</time>
      </trkpt>
      <trkpt lat="45.40092" lon="6.78825">
        <ele>2519.75</ele>
        <time>2018-03-24T10:57:35Z</time>
      </trkpt>
      <trkpt lat="45.40094" lon="6.78834">
        <ele>2520.71</ele>
        <time>2018-03-24T10:57:49Z</time>
      </trkpt>
      <trkpt lat="45.40096" lon="6.78839">
        <ele>2523.12</ele>
        <time>2018-03-24T10:58:02Z</time>
      </trkpt>
      <trkpt lat="45.40097" lon="6.78844">
        <ele>2523.12</ele>
        <time>2018-03-24T10:58:13Z</time>
      </trkpt>
      <trkpt lat="45.40096" lon="6.78851">
        <ele>2524.08</ele>
        <time>2018-03-24T10:58:25Z</time>
      </trkpt>
      <trkpt lat="45.40099" lon="6.7886">
        <ele>2526.96</ele>
        <time>2018-03-24T10:58:38Z</time>
      </trkpt>
      <trkpt lat="45.401" lon="6.78866">
        <ele>2527.44</ele>
        <time>2018-03-24T10:58:52Z</time>
      </trkpt>
      <trkpt lat="45.40102" lon="6.78872">
        <ele>2528.4</ele>
        <time>2018-03-24T10:59:06Z</time>
      </trkpt>
      <trkpt lat="45.40103" lon="6.78874">
        <ele>2528.89</ele>
        <time>2018-03-24T10:59:08Z</time>
      </trkpt>
      <trkpt lat="45.40104" lon="6.7887">
        <ele>2527.92</ele>
        <time>2018-03-24T10:59:23Z</time>
      </trkpt>
      <trkpt lat="45.40108" lon="6.78872">
        <ele>2527.92</ele>
        <time>2018-03-24T10:59:40Z</time>
      </trkpt>
      <trkpt lat="45.40106" lon="6.78878">
        <ele>2527.92</ele>
        <time>2018-03-24T11:00:04Z</time>
      </trkpt>
      <trkpt lat="45.40108" lon="6.78883">
        <ele>2528.89</ele>
        <time>2018-03-24T11:00:16Z</time>
      </trkpt>
      <trkpt lat="45.40109" lon="6.78891">
        <ele>2529.85</ele>
        <time>2018-03-24T11:00:30Z</time>
      </trkpt>
      <trkpt lat="45.4011" lon="6.78895">
        <ele>2528.89</ele>
        <time>2018-03-24T11:00:40Z</time>
      </trkpt>
      <trkpt lat="45.40111" lon="6.78905">
        <ele>2529.85</ele>
        <time>2018-03-24T11:00:54Z</time>
      </trkpt>
      <trkpt lat="45.40111" lon="6.78913">
        <ele>2532.73</ele>
        <time>2018-03-24T11:01:07Z</time>
      </trkpt>
      <trkpt lat="45.40113" lon="6.78923">
        <ele>2534.65</ele>
        <time>2018-03-24T11:01:23Z</time>
      </trkpt>
      <trkpt lat="45.40114" lon="6.78932">
        <ele>2535.61</ele>
        <time>2018-03-24T11:01:37Z</time>
      </trkpt>
      <trkpt lat="45.40117" lon="6.78942">
        <ele>2538.5</ele>
        <time>2018-03-24T11:01:54Z</time>
      </trkpt>
      <trkpt lat="45.40118" lon="6.78946">
        <ele>2538.5</ele>
        <time>2018-03-24T11:02:08Z</time>
      </trkpt>
      <trkpt lat="45.40119" lon="6.78951">
        <ele>2539.46</ele>
        <time>2018-03-24T11:02:24Z</time>
      </trkpt>
      <trkpt lat="45.40122" lon="6.78956">
        <ele>2539.46</ele>
        <time>2018-03-24T11:02:38Z</time>
      </trkpt>
      <trkpt lat="45.40125" lon="6.78961">
        <ele>2538.98</ele>
        <time>2018-03-24T11:02:53Z</time>
      </trkpt>
      <trkpt lat="45.40127" lon="6.78967">
        <ele>2542.34</ele>
        <time>2018-03-24T11:03:08Z</time>
      </trkpt>
      <trkpt lat="45.40131" lon="6.78974">
        <ele>2542.34</ele>
        <time>2018-03-24T11:03:21Z</time>
      </trkpt>
      <trkpt lat="45.40134" lon="6.78983">
        <ele>2543.31</ele>
        <time>2018-03-24T11:03:35Z</time>
      </trkpt>
      <trkpt lat="45.40137" lon="6.78988">
        <ele>2544.75</ele>
        <time>2018-03-24T11:03:48Z</time>
      </trkpt>
      <trkpt lat="45.40139" lon="6.78992">
        <ele>2544.27</ele>
        <time>2018-03-24T11:04:06Z</time>
      </trkpt>
      <trkpt lat="45.40142" lon="6.7899">
        <ele>2545.23</ele>
        <time>2018-03-24T11:04:35Z</time>
      </trkpt>
      <trkpt lat="45.40138" lon="6.78988">
        <ele>2546.19</ele>
        <time>2018-03-24T11:05:03Z</time>
      </trkpt>
      <trkpt lat="45.4014" lon="6.78995">
        <ele>2546.67</ele>
        <time>2018-03-24T11:05:22Z</time>
      </trkpt>
      <trkpt lat="45.40141" lon="6.78998">
        <ele>2547.63</ele>
        <time>2018-03-24T11:05:30Z</time>
      </trkpt>
      <trkpt lat="45.40143" lon="6.79003">
        <ele>2549.07</ele>
        <time>2018-03-24T11:05:44Z</time>
      </trkpt>
      <trkpt lat="45.40145" lon="6.7901">
        <ele>2550.51</ele>
        <time>2018-03-24T11:05:58Z</time>
      </trkpt>
      <trkpt lat="45.40148" lon="6.79014">
        <ele>2551</ele>
        <time>2018-03-24T11:06:12Z</time>
      </trkpt>
      <trkpt lat="45.40152" lon="6.7902">
        <ele>2552.92</ele>
        <time>2018-03-24T11:06:24Z</time>
      </trkpt>
      <trkpt lat="45.40154" lon="6.79023">
        <ele>2551.96</ele>
        <time>2018-03-24T11:06:32Z</time>
      </trkpt>
      <trkpt lat="45.40155" lon="6.79026">
        <ele>2553.4</ele>
        <time>2018-03-24T11:06:39Z</time>
      </trkpt>
      <trkpt lat="45.40157" lon="6.79031">
        <ele>2554.84</ele>
        <time>2018-03-24T11:06:50Z</time>
      </trkpt>
      <trkpt lat="45.4016" lon="6.79035">
        <ele>2556.28</ele>
        <time>2018-03-24T11:07:03Z</time>
      </trkpt>
      <trkpt lat="45.40162" lon="6.79038">
        <ele>2556.28</ele>
        <time>2018-03-24T11:07:20Z</time>
      </trkpt>
      <trkpt lat="45.40164" lon="6.79041">
        <ele>2558.69</ele>
        <time>2018-03-24T11:07:31Z</time>
      </trkpt>
      <trkpt lat="45.40168" lon="6.79045">
        <ele>2558.69</ele>
        <time>2018-03-24T11:07:43Z</time>
      </trkpt>
      <trkpt lat="45.40168" lon="6.7905">
        <ele>2558.69</ele>
        <time>2018-03-24T11:07:56Z</time>
      </trkpt>
      <trkpt lat="45.40173" lon="6.79047">
        <ele>2559.65</ele>
        <time>2018-03-24T11:08:16Z</time>
      </trkpt>
      <trkpt lat="45.40175" lon="6.79053">
        <ele>2560.13</ele>
        <time>2018-03-24T11:08:28Z</time>
      </trkpt>
      <trkpt lat="45.40176" lon="6.79054">
        <ele>2559.17</ele>
        <time>2018-03-24T11:08:47Z</time>
      </trkpt>
      <trkpt lat="45.40179" lon="6.79054">
        <ele>2558.69</ele>
        <time>2018-03-24T11:09:16Z</time>
      </trkpt>
      <trkpt lat="45.40179" lon="6.79054">
        <ele>2559.65</ele>
        <time>2018-03-24T11:09:50Z</time>
      </trkpt>
      <trkpt lat="45.4018" lon="6.79056">
        <ele>2559.65</ele>
        <time>2018-03-24T11:10:08Z</time>
      </trkpt>
      <trkpt lat="45.40181" lon="6.79057">
        <ele>2561.57</ele>
        <time>2018-03-24T11:10:28Z</time>
      </trkpt>
      <trkpt lat="45.40181" lon="6.79058">
        <ele>2558.21</ele>
        <time>2018-03-24T11:10:32Z</time>
      </trkpt>
      <trkpt lat="45.40171" lon="6.79056">
        <ele>2561.09</ele>
        <time>2018-03-24T11:11:09Z</time>
      </trkpt>
      <trkpt lat="45.40169" lon="6.79052">
        <ele>2561.57</ele>
        <time>2018-03-24T11:11:52Z</time>
      </trkpt>
      <trkpt lat="45.40171" lon="6.79053">
        <ele>2561.09</ele>
        <time>2018-03-24T11:12:25Z</time>
      </trkpt>
      <trkpt lat="45.40171" lon="6.79054">
        <ele>2563.01</ele>
        <time>2018-03-24T11:12:39Z</time>
      </trkpt>
      <trkpt lat="45.40172" lon="6.79053">
        <ele>2563.01</ele>
        <time>2018-03-24T11:13:00Z</time>
      </trkpt>
      <trkpt lat="45.40173" lon="6.79052">
        <ele>2563.01</ele>
        <time>2018-03-24T11:13:21Z</time>
      </trkpt>
      <trkpt lat="45.40173" lon="6.79058">
        <ele>2562.53</ele>
        <time>2018-03-24T11:13:37Z</time>
      </trkpt>
      <trkpt lat="45.40174" lon="6.79054">
        <ele>2562.53</ele>
        <time>2018-03-24T11:13:52Z</time>
      </trkpt>
      <trkpt lat="45.40177" lon="6.79058">
        <ele>2563.49</ele>
        <time>2018-03-24T11:14:05Z</time>
      </trkpt>
      <trkpt lat="45.40181" lon="6.79063">
        <ele>2565.9</ele>
        <time>2018-03-24T11:14:19Z</time>
      </trkpt>
      <trkpt lat="45.40185" lon="6.7907">
        <ele>2567.34</ele>
        <time>2018-03-24T11:14:34Z</time>
      </trkpt>
      <trkpt lat="45.40186" lon="6.79076">
        <ele>2567.82</ele>
        <time>2018-03-24T11:14:48Z</time>
      </trkpt>
      <trkpt lat="45.40189" lon="6.7908">
        <ele>2569.74</ele>
        <time>2018-03-24T11:15:01Z</time>
      </trkpt>
      <trkpt lat="45.40193" lon="6.79086">
        <ele>2570.7</ele>
        <time>2018-03-24T11:15:14Z</time>
      </trkpt>
      <trkpt lat="45.40195" lon="6.79093">
        <ele>2571.66</ele>
        <time>2018-03-24T11:15:27Z</time>
      </trkpt>
      <trkpt lat="45.40196" lon="6.79099">
        <ele>2573.59</ele>
        <time>2018-03-24T11:15:42Z</time>
      </trkpt>
      <trkpt lat="45.40198" lon="6.79104">
        <ele>2575.03</ele>
        <time>2018-03-24T11:15:56Z</time>
      </trkpt>
      <trkpt lat="45.40199" lon="6.79112">
        <ele>2575.51</ele>
        <time>2018-03-24T11:16:11Z</time>
      </trkpt>
      <trkpt lat="45.40199" lon="6.7912">
        <ele>2576.47</ele>
        <time>2018-03-24T11:16:23Z</time>
      </trkpt>
      <trkpt lat="45.402" lon="6.79124">
        <ele>2577.91</ele>
        <time>2018-03-24T11:16:35Z</time>
      </trkpt>
      <trkpt lat="45.40204" lon="6.79126">
        <ele>2578.87</ele>
        <time>2018-03-24T11:16:46Z</time>
      </trkpt>
      <trkpt lat="45.40208" lon="6.7913">
        <ele>2579.84</ele>
        <time>2018-03-24T11:17:00Z</time>
      </trkpt>
      <trkpt lat="45.40209" lon="6.79134">
        <ele>2581.76</ele>
        <time>2018-03-24T11:17:12Z</time>
      </trkpt>
      <trkpt lat="45.4021" lon="6.79141">
        <ele>2582.24</ele>
        <time>2018-03-24T11:17:25Z</time>
      </trkpt>
      <trkpt lat="45.40212" lon="6.79147">
        <ele>2583.68</ele>
        <time>2018-03-24T11:17:37Z</time>
      </trkpt>
      <trkpt lat="45.40213" lon="6.79149">
        <ele>2584.64</ele>
        <time>2018-03-24T11:17:43Z</time>
      </trkpt>
      <trkpt lat="45.40215" lon="6.79154">
        <ele>2585.12</ele>
        <time>2018-03-24T11:17:56Z</time>
      </trkpt>
      <trkpt lat="45.40216" lon="6.79159">
        <ele>2587.04</ele>
        <time>2018-03-24T11:18:09Z</time>
      </trkpt>
      <trkpt lat="45.40216" lon="6.79168">
        <ele>2588.49</ele>
        <time>2018-03-24T11:18:22Z</time>
      </trkpt>
      <trkpt lat="45.40217" lon="6.79171">
        <ele>2588.01</ele>
        <time>2018-03-24T11:18:33Z</time>
      </trkpt>
      <trkpt lat="45.40217" lon="6.79174">
        <ele>2588.97</ele>
        <time>2018-03-24T11:19:00Z</time>
      </trkpt>
      <trkpt lat="45.40216" lon="6.7918">
        <ele>2589.93</ele>
        <time>2018-03-24T11:19:10Z</time>
      </trkpt>
      <trkpt lat="45.40217" lon="6.79187">
        <ele>2591.37</ele>
        <time>2018-03-24T11:19:25Z</time>
      </trkpt>
      <trkpt lat="45.40218" lon="6.79194">
        <ele>2592.33</ele>
        <time>2018-03-24T11:19:36Z</time>
      </trkpt>
      <trkpt lat="45.40222" lon="6.79196">
        <ele>2593.77</ele>
        <time>2018-03-24T11:19:49Z</time>
      </trkpt>
      <trkpt lat="45.40227" lon="6.792">
        <ele>2594.25</ele>
        <time>2018-03-24T11:20:03Z</time>
      </trkpt>
      <trkpt lat="45.40227" lon="6.79208">
        <ele>2595.7</ele>
        <time>2018-03-24T11:20:15Z</time>
      </trkpt>
      <trkpt lat="45.40229" lon="6.79215">
        <ele>2597.14</ele>
        <time>2018-03-24T11:20:29Z</time>
      </trkpt>
      <trkpt lat="45.40232" lon="6.79216">
        <ele>2598.1</ele>
        <time>2018-03-24T11:20:49Z</time>
      </trkpt>
      <trkpt lat="45.40233" lon="6.79224">
        <ele>2600.02</ele>
        <time>2018-03-24T11:21:00Z</time>
      </trkpt>
      <trkpt lat="45.40231" lon="6.7923">
        <ele>2600.5</ele>
        <time>2018-03-24T11:21:11Z</time>
      </trkpt>
      <trkpt lat="45.40234" lon="6.79237">
        <ele>2600.98</ele>
        <time>2018-03-24T11:21:24Z</time>
      </trkpt>
      <trkpt lat="45.40237" lon="6.79241">
        <ele>2602.43</ele>
        <time>2018-03-24T11:21:36Z</time>
      </trkpt>
      <trkpt lat="45.40235" lon="6.7925">
        <ele>2603.39</ele>
        <time>2018-03-24T11:21:49Z</time>
      </trkpt>
      <trkpt lat="45.40238" lon="6.79252">
        <ele>2605.31</ele>
        <time>2018-03-24T11:22:00Z</time>
      </trkpt>
      <trkpt lat="45.40242" lon="6.79256">
        <ele>2605.79</ele>
        <time>2018-03-24T11:22:14Z</time>
      </trkpt>
      <trkpt lat="45.40242" lon="6.7926">
        <ele>2606.27</ele>
        <time>2018-03-24T11:22:32Z</time>
      </trkpt>
      <trkpt lat="45.40241" lon="6.79268">
        <ele>2607.71</ele>
        <time>2018-03-24T11:22:45Z</time>
      </trkpt>
      <trkpt lat="45.40239" lon="6.79273">
        <ele>2608.19</ele>
        <time>2018-03-24T11:22:55Z</time>
      </trkpt>
      <trkpt lat="45.4024" lon="6.79275">
        <ele>2609.64</ele>
        <time>2018-03-24T11:23:00Z</time>
      </trkpt>
      <trkpt lat="45.40236" lon="6.79282">
        <ele>2609.64</ele>
        <time>2018-03-24T11:23:11Z</time>
      </trkpt>
      <trkpt lat="45.40236" lon="6.79282">
        <ele>2609.16</ele>
        <time>2018-03-24T11:23:17Z</time>
      </trkpt>
      <trkpt lat="45.40239" lon="6.79283">
        <ele>2610.6</ele>
        <time>2018-03-24T11:23:33Z</time>
      </trkpt>
      <trkpt lat="45.40241" lon="6.79289">
        <ele>2611.56</ele>
        <time>2018-03-24T11:23:47Z</time>
      </trkpt>
      <trkpt lat="45.40238" lon="6.79295">
        <ele>2613.96</ele>
        <time>2018-03-24T11:23:59Z</time>
      </trkpt>
      <trkpt lat="45.40245" lon="6.79298">
        <ele>2614.44</ele>
        <time>2018-03-24T11:24:12Z</time>
      </trkpt>
      <trkpt lat="45.40249" lon="6.79302">
        <ele>2615.4</ele>
        <time>2018-03-24T11:24:23Z</time>
      </trkpt>
      <trkpt lat="45.40248" lon="6.79305">
        <ele>2615.4</ele>
        <time>2018-03-24T11:24:40Z</time>
      </trkpt>
      <trkpt lat="45.40248" lon="6.79311">
        <ele>2615.88</ele>
        <time>2018-03-24T11:25:00Z</time>
      </trkpt>
      <trkpt lat="45.40247" lon="6.79315">
        <ele>2617.33</ele>
        <time>2018-03-24T11:25:12Z</time>
      </trkpt>
      <trkpt lat="45.4025" lon="6.79315">
        <ele>2617.81</ele>
        <time>2018-03-24T11:25:24Z</time>
      </trkpt>
      <trkpt lat="45.40246" lon="6.79324">
        <ele>2620.21</ele>
        <time>2018-03-24T11:25:38Z</time>
      </trkpt>
      <trkpt lat="45.40245" lon="6.79326">
        <ele>2621.65</ele>
        <time>2018-03-24T11:25:50Z</time>
      </trkpt>
      <trkpt lat="45.40246" lon="6.79328">
        <ele>2622.61</ele>
        <time>2018-03-24T11:26:01Z</time>
      </trkpt>
      <trkpt lat="45.40257" lon="6.79329">
        <ele>2623.09</ele>
        <time>2018-03-24T11:26:18Z</time>
      </trkpt>
      <trkpt lat="45.40259" lon="6.79332">
        <ele>2624.06</ele>
        <time>2018-03-24T11:26:39Z</time>
      </trkpt>
      <trkpt lat="45.40255" lon="6.79338">
        <ele>2624.06</ele>
        <time>2018-03-24T11:26:53Z</time>
      </trkpt>
      <trkpt lat="45.40251" lon="6.79348">
        <ele>2625.02</ele>
        <time>2018-03-24T11:27:08Z</time>
      </trkpt>
      <trkpt lat="45.40254" lon="6.79342">
        <ele>2624.54</ele>
        <time>2018-03-24T11:27:27Z</time>
      </trkpt>
      <trkpt lat="45.40254" lon="6.79343">
        <ele>2624.54</ele>
        <time>2018-03-24T11:27:45Z</time>
      </trkpt>
      <trkpt lat="45.40251" lon="6.7935">
        <ele>2625.02</ele>
        <time>2018-03-24T11:28:04Z</time>
      </trkpt>
      <trkpt lat="45.40255" lon="6.79349">
        <ele>2625.5</ele>
        <time>2018-03-24T11:28:28Z</time>
      </trkpt>
      <trkpt lat="45.40252" lon="6.79349">
        <ele>2618.29</ele>
        <time>2018-03-24T11:28:47Z</time>
      </trkpt>
      <trkpt lat="45.40252" lon="6.79348">
        <ele>2622.13</ele>
        <time>2018-03-24T11:28:48Z</time>
      </trkpt>
      <trkpt lat="45.40252" lon="6.79349">
        <ele>2625.5</ele>
        <time>2018-03-24T11:28:49Z</time>
      </trkpt>
      <trkpt lat="45.40252" lon="6.79348">
        <ele>2624.06</ele>
        <time>2018-03-24T11:28:50Z</time>
      </trkpt>
      <trkpt lat="45.40252" lon="6.79345">
        <ele>2623.58</ele>
        <time>2018-03-24T11:29:15Z</time>
      </trkpt>
      <trkpt lat="45.4025" lon="6.79347">
        <ele>2625.98</ele>
        <time>2018-03-24T11:29:50Z</time>
      </trkpt>
      <trkpt lat="45.40249" lon="6.79351">
        <ele>2625.98</ele>
        <time>2018-03-24T11:30:03Z</time>
      </trkpt>
      <trkpt lat="45.4025" lon="6.79352">
        <ele>2625.98</ele>
        <time>2018-03-24T11:30:20Z</time>
      </trkpt>
      <trkpt lat="45.40251" lon="6.79351">
        <ele>2626.46</ele>
        <time>2018-03-24T11:30:51Z</time>
      </trkpt>
      <trkpt lat="45.40249" lon="6.79353">
        <ele>2625.5</ele>
        <time>2018-03-24T11:31:02Z</time>
      </trkpt>
      <trkpt lat="45.40248" lon="6.79354">
        <ele>2626.94</ele>
        <time>2018-03-24T11:31:04Z</time>
      </trkpt>
      <trkpt lat="45.40248" lon="6.79351">
        <ele>2625.5</ele>
        <time>2018-03-24T11:31:35Z</time>
      </trkpt>
      <trkpt lat="45.40249" lon="6.79353">
        <ele>2626.46</ele>
        <time>2018-03-24T11:32:04Z</time>
      </trkpt>
      <trkpt lat="45.40248" lon="6.79353">
        <ele>2625.5</ele>
        <time>2018-03-24T11:32:10Z</time>
      </trkpt>
      <trkpt lat="45.40249" lon="6.79351">
        <ele>2625.5</ele>
        <time>2018-03-24T11:32:28Z</time>
      </trkpt>
      <trkpt lat="45.40249" lon="6.79353">
        <ele>2626.94</ele>
        <time>2018-03-24T11:32:38Z</time>
      </trkpt>
      <trkpt lat="45.40249" lon="6.79353">
        <ele>2627.42</ele>
        <time>2018-03-24T11:32:51Z</time>
      </trkpt>
      <trkpt lat="45.40252" lon="6.79358">
        <ele>2628.86</ele>
        <time>2018-03-24T11:33:05Z</time>
      </trkpt>
      <trkpt lat="45.40257" lon="6.79362">
        <ele>2630.3</ele>
        <time>2018-03-24T11:33:20Z</time>
      </trkpt>
      <trkpt lat="45.4027" lon="6.79361">
        <ele>2630.3</ele>
        <time>2018-03-24T11:33:36Z</time>
      </trkpt>
      <trkpt lat="45.4027" lon="6.79362">
        <ele>2631.27</ele>
        <time>2018-03-24T11:33:40Z</time>
      </trkpt>
      <trkpt lat="45.40275" lon="6.79363">
        <ele>2632.23</ele>
        <time>2018-03-24T11:33:52Z</time>
      </trkpt>
      <trkpt lat="45.40279" lon="6.79366">
        <ele>2632.71</ele>
        <time>2018-03-24T11:34:04Z</time>
      </trkpt>
      <trkpt lat="45.40285" lon="6.79368">
        <ele>2634.15</ele>
        <time>2018-03-24T11:34:15Z</time>
      </trkpt>
      <trkpt lat="45.40292" lon="6.79372">
        <ele>2634.63</ele>
        <time>2018-03-24T11:34:30Z</time>
      </trkpt>
      <trkpt lat="45.40296" lon="6.79373">
        <ele>2635.59</ele>
        <time>2018-03-24T11:34:42Z</time>
      </trkpt>
      <trkpt lat="45.40301" lon="6.79376">
        <ele>2637.03</ele>
        <time>2018-03-24T11:34:57Z</time>
      </trkpt>
      <trkpt lat="45.40302" lon="6.79379">
        <ele>2637.51</ele>
        <time>2018-03-24T11:35:13Z</time>
      </trkpt>
      <trkpt lat="45.40312" lon="6.79381">
        <ele>2637.99</ele>
        <time>2018-03-24T11:35:29Z</time>
      </trkpt>
      <trkpt lat="45.40315" lon="6.79383">
        <ele>2638.48</ele>
        <time>2018-03-24T11:35:42Z</time>
      </trkpt>
      <trkpt lat="45.40317" lon="6.79387">
        <ele>2641.84</ele>
        <time>2018-03-24T11:35:51Z</time>
      </trkpt>
      <trkpt lat="45.40321" lon="6.79388">
        <ele>2641.36</ele>
        <time>2018-03-24T11:36:02Z</time>
      </trkpt>
      <trkpt lat="45.40325" lon="6.79389">
        <ele>2642.32</ele>
        <time>2018-03-24T11:36:14Z</time>
      </trkpt>
      <trkpt lat="45.40328" lon="6.79392">
        <ele>2644.72</ele>
        <time>2018-03-24T11:36:26Z</time>
      </trkpt>
      <trkpt lat="45.40328" lon="6.79392">
        <ele>2644.72</ele>
        <time>2018-03-24T11:36:27Z</time>
      </trkpt>
      <trkpt lat="45.40332" lon="6.79391">
        <ele>2643.76</ele>
        <time>2018-03-24T11:36:38Z</time>
      </trkpt>
      <trkpt lat="45.40334" lon="6.79397">
        <ele>2646.17</ele>
        <time>2018-03-24T11:36:56Z</time>
      </trkpt>
      <trkpt lat="45.40339" lon="6.79397">
        <ele>2646.65</ele>
        <time>2018-03-24T11:37:12Z</time>
      </trkpt>
      <trkpt lat="45.40343" lon="6.79402">
        <ele>2647.61</ele>
        <time>2018-03-24T11:37:25Z</time>
      </trkpt>
      <trkpt lat="45.40343" lon="6.79402">
        <ele>2648.57</ele>
        <time>2018-03-24T11:37:45Z</time>
      </trkpt>
      <trkpt lat="45.40345" lon="6.79403">
        <ele>2650.01</ele>
        <time>2018-03-24T11:38:00Z</time>
      </trkpt>
      <trkpt lat="45.40346" lon="6.79404">
        <ele>2651.45</ele>
        <time>2018-03-24T11:38:11Z</time>
      </trkpt>
      <trkpt lat="45.40348" lon="6.79406">
        <ele>2651.93</ele>
        <time>2018-03-24T11:38:21Z</time>
      </trkpt>
      <trkpt lat="45.40351" lon="6.79412">
        <ele>2652.42</ele>
        <time>2018-03-24T11:38:34Z</time>
      </trkpt>
      <trkpt lat="45.40341" lon="6.79418">
        <ele>2653.38</ele>
        <time>2018-03-24T11:38:57Z</time>
      </trkpt>
      <trkpt lat="45.40348" lon="6.79414">
        <ele>2653.86</ele>
        <time>2018-03-24T11:39:13Z</time>
      </trkpt>
      <trkpt lat="45.40352" lon="6.79413">
        <ele>2653.38</ele>
        <time>2018-03-24T11:39:28Z</time>
      </trkpt>
      <trkpt lat="45.40357" lon="6.79413">
        <ele>2652.42</ele>
        <time>2018-03-24T11:39:37Z</time>
      </trkpt>
      <trkpt lat="45.40361" lon="6.79417">
        <ele>2652.42</ele>
        <time>2018-03-24T11:39:43Z</time>
      </trkpt>
      <trkpt lat="45.40367" lon="6.79409">
        <ele>2653.38</ele>
        <time>2018-03-24T11:40:10Z</time>
      </trkpt>
      <trkpt lat="45.40364" lon="6.79408">
        <ele>2650.97</ele>
        <time>2018-03-24T11:40:33Z</time>
      </trkpt>
      <trkpt lat="45.40364" lon="6.7941">
        <ele>2654.34</ele>
        <time>2018-03-24T11:40:40Z</time>
      </trkpt>
      <trkpt lat="45.40364" lon="6.79412">
        <ele>2651.93</ele>
        <time>2018-03-24T11:41:00Z</time>
      </trkpt>
      <trkpt lat="45.40365" lon="6.79413">
        <ele>2653.86</ele>
        <time>2018-03-24T11:41:19Z</time>
      </trkpt>
      <trkpt lat="45.40364" lon="6.79414">
        <ele>2653.86</ele>
        <time>2018-03-24T11:41:37Z</time>
      </trkpt>
      <trkpt lat="45.40367" lon="6.79417">
        <ele>2654.82</ele>
        <time>2018-03-24T11:41:51Z</time>
      </trkpt>
      <trkpt lat="45.40366" lon="6.79419">
        <ele>2654.34</ele>
        <time>2018-03-24T11:42:16Z</time>
      </trkpt>
      <trkpt lat="45.40364" lon="6.79419">
        <ele>2655.3</ele>
        <time>2018-03-24T11:42:32Z</time>
      </trkpt>
      <trkpt lat="45.40366" lon="6.79423">
        <ele>2655.78</ele>
        <time>2018-03-24T11:42:45Z</time>
      </trkpt>
      <trkpt lat="45.40368" lon="6.79426">
        <ele>2657.22</ele>
        <time>2018-03-24T11:42:50Z</time>
      </trkpt>
      <trkpt lat="45.40369" lon="6.79433">
        <ele>2658.66</ele>
        <time>2018-03-24T11:43:06Z</time>
      </trkpt>
      <trkpt lat="45.40376" lon="6.7944">
        <ele>2659.14</ele>
        <time>2018-03-24T11:43:25Z</time>
      </trkpt>
      <trkpt lat="45.40378" lon="6.79446">
        <ele>2660.59</ele>
        <time>2018-03-24T11:43:38Z</time>
      </trkpt>
      <trkpt lat="45.40383" lon="6.79454">
        <ele>2662.51</ele>
        <time>2018-03-24T11:43:54Z</time>
      </trkpt>
      <trkpt lat="45.40386" lon="6.79458">
        <ele>2662.99</ele>
        <time>2018-03-24T11:44:10Z</time>
      </trkpt>
      <trkpt lat="45.40391" lon="6.79461">
        <ele>2664.43</ele>
        <time>2018-03-24T11:44:24Z</time>
      </trkpt>
      <trkpt lat="45.40392" lon="6.79465">
        <ele>2665.39</ele>
        <time>2018-03-24T11:44:42Z</time>
      </trkpt>
      <trkpt lat="45.40395" lon="6.79469">
        <ele>2666.35</ele>
        <time>2018-03-24T11:44:56Z</time>
      </trkpt>
      <trkpt lat="45.40397" lon="6.79473">
        <ele>2667.31</ele>
        <time>2018-03-24T11:45:09Z</time>
      </trkpt>
      <trkpt lat="45.40398" lon="6.79479">
        <ele>2669.24</ele>
        <time>2018-03-24T11:45:22Z</time>
      </trkpt>
      <trkpt lat="45.404" lon="6.79488">
        <ele>2670.2</ele>
        <time>2018-03-24T11:45:40Z</time>
      </trkpt>
      <trkpt lat="45.40401" lon="6.79493">
        <ele>2671.16</ele>
        <time>2018-03-24T11:45:52Z</time>
      </trkpt>
      <trkpt lat="45.40402" lon="6.79496">
        <ele>2672.12</ele>
        <time>2018-03-24T11:46:02Z</time>
      </trkpt>
      <trkpt lat="45.40404" lon="6.795">
        <ele>2673.08</ele>
        <time>2018-03-24T11:46:16Z</time>
      </trkpt>
      <trkpt lat="45.4041" lon="6.79506">
        <ele>2674.52</ele>
        <time>2018-03-24T11:46:31Z</time>
      </trkpt>
      <trkpt lat="45.40414" lon="6.79511">
        <ele>2675.97</ele>
        <time>2018-03-24T11:46:46Z</time>
      </trkpt>
      <trkpt lat="45.40415" lon="6.7951">
        <ele>2674.04</ele>
        <time>2018-03-24T11:47:08Z</time>
      </trkpt>
      <trkpt lat="45.40416" lon="6.79517">
        <ele>2676.45</ele>
        <time>2018-03-24T11:47:22Z</time>
      </trkpt>
      <trkpt lat="45.40418" lon="6.7952">
        <ele>2677.41</ele>
        <time>2018-03-24T11:47:34Z</time>
      </trkpt>
      <trkpt lat="45.4042" lon="6.79521">
        <ele>2678.85</ele>
        <time>2018-03-24T11:47:39Z</time>
      </trkpt>
      <trkpt lat="45.40423" lon="6.79525">
        <ele>2679.33</ele>
        <time>2018-03-24T11:47:53Z</time>
      </trkpt>
      <trkpt lat="45.40422" lon="6.7953">
        <ele>2679.33</ele>
        <time>2018-03-24T11:48:09Z</time>
      </trkpt>
      <trkpt lat="45.40427" lon="6.79531">
        <ele>2680.77</ele>
        <time>2018-03-24T11:48:21Z</time>
      </trkpt>
      <trkpt lat="45.4043" lon="6.79536">
        <ele>2681.73</ele>
        <time>2018-03-24T11:48:38Z</time>
      </trkpt>
      <trkpt lat="45.40428" lon="6.79544">
        <ele>2681.73</ele>
        <time>2018-03-24T11:48:54Z</time>
      </trkpt>
      <trkpt lat="45.40425" lon="6.79552">
        <ele>2683.66</ele>
        <time>2018-03-24T11:49:11Z</time>
      </trkpt>
      <trkpt lat="45.40428" lon="6.79554">
        <ele>2684.14</ele>
        <time>2018-03-24T11:49:28Z</time>
      </trkpt>
      <trkpt lat="45.40426" lon="6.79562">
        <ele>2685.1</ele>
        <time>2018-03-24T11:49:40Z</time>
      </trkpt>
      <trkpt lat="45.40431" lon="6.79563">
        <ele>2685.58</ele>
        <time>2018-03-24T11:49:50Z</time>
      </trkpt>
      <trkpt lat="45.40436" lon="6.79563">
        <ele>2686.54</ele>
        <time>2018-03-24T11:50:02Z</time>
      </trkpt>
      <trkpt lat="45.40439" lon="6.79562">
        <ele>2686.54</ele>
        <time>2018-03-24T11:50:29Z</time>
      </trkpt>
      <trkpt lat="45.40438" lon="6.79568">
        <ele>2686.54</ele>
        <time>2018-03-24T11:50:43Z</time>
      </trkpt>
      <trkpt lat="45.4044" lon="6.79573">
        <ele>2688.94</ele>
        <time>2018-03-24T11:50:57Z</time>
      </trkpt>
      <trkpt lat="45.40441" lon="6.79581">
        <ele>2689.43</ele>
        <time>2018-03-24T11:51:09Z</time>
      </trkpt>
      <trkpt lat="45.40441" lon="6.79588">
        <ele>2690.87</ele>
        <time>2018-03-24T11:51:21Z</time>
      </trkpt>
      <trkpt lat="45.40441" lon="6.79594">
        <ele>2691.35</ele>
        <time>2018-03-24T11:51:32Z</time>
      </trkpt>
      <trkpt lat="45.40444" lon="6.79598">
        <ele>2691.83</ele>
        <time>2018-03-24T11:51:49Z</time>
      </trkpt>
      <trkpt lat="45.40445" lon="6.79605">
        <ele>2692.31</ele>
        <time>2018-03-24T11:52:03Z</time>
      </trkpt>
      <trkpt lat="45.40447" lon="6.7961">
        <ele>2693.27</ele>
        <time>2018-03-24T11:52:16Z</time>
      </trkpt>
      <trkpt lat="45.40447" lon="6.79615">
        <ele>2694.71</ele>
        <time>2018-03-24T11:52:30Z</time>
      </trkpt>
      <trkpt lat="45.40448" lon="6.7962">
        <ele>2695.19</ele>
        <time>2018-03-24T11:52:46Z</time>
      </trkpt>
      <trkpt lat="45.40452" lon="6.79625">
        <ele>2695.19</ele>
        <time>2018-03-24T11:53:00Z</time>
      </trkpt>
      <trkpt lat="45.40453" lon="6.7963">
        <ele>2697.12</ele>
        <time>2018-03-24T11:53:14Z</time>
      </trkpt>
      <trkpt lat="45.40453" lon="6.79631">
        <ele>2697.6</ele>
        <time>2018-03-24T11:53:28Z</time>
      </trkpt>
      <trkpt lat="45.40452" lon="6.79631">
        <ele>2697.12</ele>
        <time>2018-03-24T11:53:48Z</time>
      </trkpt>
      <trkpt lat="45.40455" lon="6.79634">
        <ele>2698.56</ele>
        <time>2018-03-24T11:54:01Z</time>
      </trkpt>
      <trkpt lat="45.40455" lon="6.79639">
        <ele>2699.04</ele>
        <time>2018-03-24T11:54:14Z</time>
      </trkpt>
      <trkpt lat="45.40455" lon="6.79642">
        <ele>2700</ele>
        <time>2018-03-24T11:54:26Z</time>
      </trkpt>
      <trkpt lat="45.40458" lon="6.79647">
        <ele>2701.44</ele>
        <time>2018-03-24T11:54:39Z</time>
      </trkpt>
      <trkpt lat="45.4046" lon="6.7965">
        <ele>2701.92</ele>
        <time>2018-03-24T11:54:53Z</time>
      </trkpt>
      <trkpt lat="45.4046" lon="6.79652">
        <ele>2701.92</ele>
        <time>2018-03-24T11:55:07Z</time>
      </trkpt>
      <trkpt lat="45.40464" lon="6.79655">
        <ele>2702.4</ele>
        <time>2018-03-24T11:55:24Z</time>
      </trkpt>
      <trkpt lat="45.40465" lon="6.79657">
        <ele>2704.33</ele>
        <time>2018-03-24T11:55:36Z</time>
      </trkpt>
      <trkpt lat="45.40467" lon="6.79662">
        <ele>2705.77</ele>
        <time>2018-03-24T11:55:48Z</time>
      </trkpt>
      <trkpt lat="45.4047" lon="6.79664">
        <ele>2706.25</ele>
        <time>2018-03-24T11:56:00Z</time>
      </trkpt>
      <trkpt lat="45.40471" lon="6.79667">
        <ele>2706.73</ele>
        <time>2018-03-24T11:56:12Z</time>
      </trkpt>
      <trkpt lat="45.4047" lon="6.7967">
        <ele>2706.73</ele>
        <time>2018-03-24T11:56:27Z</time>
      </trkpt>
      <trkpt lat="45.40473" lon="6.79672">
        <ele>2708.65</ele>
        <time>2018-03-24T11:56:41Z</time>
      </trkpt>
      <trkpt lat="45.40474" lon="6.79677">
        <ele>2709.61</ele>
        <time>2018-03-24T11:56:56Z</time>
      </trkpt>
      <trkpt lat="45.40476" lon="6.79678">
        <ele>2710.09</ele>
        <time>2018-03-24T11:57:00Z</time>
      </trkpt>
      <trkpt lat="45.40479" lon="6.79685">
        <ele>2711.06</ele>
        <time>2018-03-24T11:57:13Z</time>
      </trkpt>
      <trkpt lat="45.40481" lon="6.79688">
        <ele>2712.5</ele>
        <time>2018-03-24T11:57:28Z</time>
      </trkpt>
      <trkpt lat="45.40482" lon="6.7969">
        <ele>2712.98</ele>
        <time>2018-03-24T11:57:49Z</time>
      </trkpt>
      <trkpt lat="45.40485" lon="6.79693">
        <ele>2713.94</ele>
        <time>2018-03-24T11:58:00Z</time>
      </trkpt>
      <trkpt lat="45.40487" lon="6.79699">
        <ele>2715.86</ele>
        <time>2018-03-24T11:58:12Z</time>
      </trkpt>
      <trkpt lat="45.4049" lon="6.79702">
        <ele>2715.86</ele>
        <time>2018-03-24T11:58:25Z</time>
      </trkpt>
      <trkpt lat="45.40488" lon="6.79704">
        <ele>2715.86</ele>
        <time>2018-03-24T11:58:46Z</time>
      </trkpt>
      <trkpt lat="45.40489" lon="6.79704">
        <ele>2710.09</ele>
        <time>2018-03-24T11:58:50Z</time>
      </trkpt>
      <trkpt lat="45.4049" lon="6.79704">
        <ele>2715.38</ele>
        <time>2018-03-24T11:58:51Z</time>
      </trkpt>
      <trkpt lat="45.40488" lon="6.79703">
        <ele>2714.9</ele>
        <time>2018-03-24T11:59:15Z</time>
      </trkpt>
      <trkpt lat="45.40487" lon="6.79704">
        <ele>2713.94</ele>
        <time>2018-03-24T11:59:37Z</time>
      </trkpt>
      <trkpt lat="45.40495" lon="6.797">
        <ele>2714.42</ele>
        <time>2018-03-24T12:00:04Z</time>
      </trkpt>
      <trkpt lat="45.40495" lon="6.79703">
        <ele>2715.86</ele>
        <time>2018-03-24T12:00:18Z</time>
      </trkpt>
      <trkpt lat="45.40491" lon="6.79705">
        <ele>2715.38</ele>
        <time>2018-03-24T12:00:34Z</time>
      </trkpt>
      <trkpt lat="45.40494" lon="6.79712">
        <ele>2716.34</ele>
        <time>2018-03-24T12:00:51Z</time>
      </trkpt>
      <trkpt lat="45.40494" lon="6.79718">
        <ele>2718.27</ele>
        <time>2018-03-24T12:01:07Z</time>
      </trkpt>
      <trkpt lat="45.40496" lon="6.79722">
        <ele>2719.71</ele>
        <time>2018-03-24T12:01:21Z</time>
      </trkpt>
      <trkpt lat="45.40496" lon="6.79729">
        <ele>2719.71</ele>
        <time>2018-03-24T12:01:34Z</time>
      </trkpt>
      <trkpt lat="45.405" lon="6.79734">
        <ele>2721.15</ele>
        <time>2018-03-24T12:01:50Z</time>
      </trkpt>
      <trkpt lat="45.40503" lon="6.7974">
        <ele>2722.59</ele>
        <time>2018-03-24T12:02:03Z</time>
      </trkpt>
      <trkpt lat="45.40504" lon="6.79745">
        <ele>2723.55</ele>
        <time>2018-03-24T12:02:15Z</time>
      </trkpt>
      <trkpt lat="45.40506" lon="6.79746">
        <ele>2724.99</ele>
        <time>2018-03-24T12:02:23Z</time>
      </trkpt>
      <trkpt lat="45.40509" lon="6.7975">
        <ele>2725.48</ele>
        <time>2018-03-24T12:02:34Z</time>
      </trkpt>
      <trkpt lat="45.40511" lon="6.79752">
        <ele>2726.44</ele>
        <time>2018-03-24T12:02:47Z</time>
      </trkpt>
      <trkpt lat="45.40514" lon="6.79756">
        <ele>2725.48</ele>
        <time>2018-03-24T12:03:01Z</time>
      </trkpt>
      <trkpt lat="45.40515" lon="6.79757">
        <ele>2726.92</ele>
        <time>2018-03-24T12:03:07Z</time>
      </trkpt>
      <trkpt lat="45.40517" lon="6.79761">
        <ele>2727.88</ele>
        <time>2018-03-24T12:03:19Z</time>
      </trkpt>
      <trkpt lat="45.4052" lon="6.79763">
        <ele>2727.88</ele>
        <time>2018-03-24T12:03:31Z</time>
      </trkpt>
      <trkpt lat="45.40522" lon="6.79763">
        <ele>2729.32</ele>
        <time>2018-03-24T12:03:44Z</time>
      </trkpt>
      <trkpt lat="45.40526" lon="6.79768">
        <ele>2729.32</ele>
        <time>2018-03-24T12:03:56Z</time>
      </trkpt>
      <trkpt lat="45.40529" lon="6.79765">
        <ele>2730.76</ele>
        <time>2018-03-24T12:04:09Z</time>
      </trkpt>
      <trkpt lat="45.40529" lon="6.79764">
        <ele>2729.32</ele>
        <time>2018-03-24T12:04:13Z</time>
      </trkpt>
      <trkpt lat="45.40531" lon="6.79767">
        <ele>2727.88</ele>
        <time>2018-03-24T12:04:34Z</time>
      </trkpt>
      <trkpt lat="45.40529" lon="6.7977">
        <ele>2728.36</ele>
        <time>2018-03-24T12:05:02Z</time>
      </trkpt>
      <trkpt lat="45.40532" lon="6.79764">
        <ele>2727.88</ele>
        <time>2018-03-24T12:05:42Z</time>
      </trkpt>
      <trkpt lat="45.40533" lon="6.79766">
        <ele>2728.84</ele>
        <time>2018-03-24T12:06:06Z</time>
      </trkpt>
      <trkpt lat="45.40533" lon="6.79765">
        <ele>2728.36</ele>
        <time>2018-03-24T12:06:36Z</time>
      </trkpt>
      <trkpt lat="45.40535" lon="6.79763">
        <ele>2728.36</ele>
        <time>2018-03-24T12:07:10Z</time>
      </trkpt>
      <trkpt lat="45.40536" lon="6.79765">
        <ele>2724.03</ele>
        <time>2018-03-24T12:07:45Z</time>
      </trkpt>
      <trkpt lat="45.40536" lon="6.79765">
        <ele>2728.36</ele>
        <time>2018-03-24T12:07:46Z</time>
      </trkpt>
      <trkpt lat="45.40532" lon="6.79764">
        <ele>2727.88</ele>
        <time>2018-03-24T12:08:05Z</time>
      </trkpt>
      <trkpt lat="45.40525" lon="6.79765">
        <ele>2727.4</ele>
        <time>2018-03-24T12:08:30Z</time>
      </trkpt>
      <trkpt lat="45.40529" lon="6.79767">
        <ele>2728.36</ele>
        <time>2018-03-24T12:08:45Z</time>
      </trkpt>
      <trkpt lat="45.4053" lon="6.79767">
        <ele>2727.88</ele>
        <time>2018-03-24T12:08:47Z</time>
      </trkpt>
      <trkpt lat="45.40533" lon="6.79768">
        <ele>2727.4</ele>
        <time>2018-03-24T12:08:57Z</time>
      </trkpt>
      <trkpt lat="45.40533" lon="6.79768">
        <ele>2721.15</ele>
        <time>2018-03-24T12:08:58Z</time>
      </trkpt>
      <trkpt lat="45.40533" lon="6.79768">
        <ele>2727.88</ele>
        <time>2018-03-24T12:08:59Z</time>
      </trkpt>
      <trkpt lat="45.40535" lon="6.79769">
        <ele>2614.44</ele>
        <time>2018-03-24T12:09:06Z</time>
      </trkpt>
      <trkpt lat="45.40535" lon="6.7977">
        <ele>2712.5</ele>
        <time>2018-03-24T12:09:07Z</time>
      </trkpt>
      <trkpt lat="45.40535" lon="6.7977">
        <ele>2726.92</ele>
        <time>2018-03-24T12:09:08Z</time>
      </trkpt>
      <trkpt lat="45.40535" lon="6.7977">
        <ele>2772.58</ele>
        <time>2018-03-24T12:09:09Z</time>
      </trkpt>
      <trkpt lat="45.40535" lon="6.7977">
        <ele>2745.18</ele>
        <time>2018-03-24T12:09:10Z</time>
      </trkpt>
      <trkpt lat="45.40535" lon="6.7977">
        <ele>2728.36</ele>
        <time>2018-03-24T12:09:11Z</time>
      </trkpt>
      <trkpt lat="45.40535" lon="6.79769">
        <ele>2724.51</ele>
        <time>2018-03-24T12:09:17Z</time>
      </trkpt>
      <trkpt lat="45.40535" lon="6.79769">
        <ele>2736.05</ele>
        <time>2018-03-24T12:09:19Z</time>
      </trkpt>
      <trkpt lat="45.40536" lon="6.79769">
        <ele>2723.07</ele>
        <time>2018-03-24T12:09:20Z</time>
      </trkpt>
      <trkpt lat="45.40536" lon="6.79769">
        <ele>2728.84</ele>
        <time>2018-03-24T12:09:21Z</time>
      </trkpt>
      <trkpt lat="45.40534" lon="6.79773">
        <ele>2727.4</ele>
        <time>2018-03-24T12:09:49Z</time>
      </trkpt>
      <trkpt lat="45.40533" lon="6.79774">
        <ele>2725.96</ele>
        <time>2018-03-24T12:10:07Z</time>
      </trkpt>
      <trkpt lat="45.40532" lon="6.79774">
        <ele>2727.88</ele>
        <time>2018-03-24T12:10:09Z</time>
      </trkpt>
      <trkpt lat="45.40535" lon="6.79776">
        <ele>2726.92</ele>
        <time>2018-03-24T12:10:20Z</time>
      </trkpt>
      <trkpt lat="45.40533" lon="6.79778">
        <ele>2727.4</ele>
        <time>2018-03-24T12:10:28Z</time>
      </trkpt>
      <trkpt lat="45.40533" lon="6.79778">
        <ele>2726.92</ele>
        <time>2018-03-24T12:10:57Z</time>
      </trkpt>
      <trkpt lat="45.40536" lon="6.7977">
        <ele>2726.44</ele>
        <time>2018-03-24T12:11:25Z</time>
      </trkpt>
      <trkpt lat="45.40538" lon="6.79771">
        <ele>2730.28</ele>
        <time>2018-03-24T12:11:52Z</time>
      </trkpt>
      <trkpt lat="45.40539" lon="6.79771">
        <ele>2727.4</ele>
        <time>2018-03-24T12:11:53Z</time>
      </trkpt>
      <trkpt lat="45.40538" lon="6.79771">
        <ele>2726.44</ele>
        <time>2018-03-24T12:11:55Z</time>
      </trkpt>
      <trkpt lat="45.40538" lon="6.79771">
        <ele>2723.07</ele>
        <time>2018-03-24T12:12:07Z</time>
      </trkpt>
      <trkpt lat="45.40539" lon="6.7977">
        <ele>2729.32</ele>
        <time>2018-03-24T12:12:09Z</time>
      </trkpt>
      <trkpt lat="45.40537" lon="6.7977">
        <ele>2727.4</ele>
        <time>2018-03-24T12:12:12Z</time>
      </trkpt>
      <trkpt lat="45.40534" lon="6.79768">
        <ele>2726.44</ele>
        <time>2018-03-24T12:12:46Z</time>
      </trkpt>
      <trkpt lat="45.40534" lon="6.79771">
        <ele>2726.92</ele>
        <time>2018-03-24T12:13:24Z</time>
      </trkpt>
      <trkpt lat="45.40536" lon="6.79771">
        <ele>2731.24</ele>
        <time>2018-03-24T12:13:47Z</time>
      </trkpt>
      <trkpt lat="45.40536" lon="6.79771">
        <ele>2726.44</ele>
        <time>2018-03-24T12:13:48Z</time>
      </trkpt>
      <trkpt lat="45.40539" lon="6.79767">
        <ele>2725.96</ele>
        <time>2018-03-24T12:14:11Z</time>
      </trkpt>
      <trkpt lat="45.40542" lon="6.79765">
        <ele>2726.44</ele>
        <time>2018-03-24T12:14:47Z</time>
      </trkpt>
      <trkpt lat="45.40541" lon="6.79771">
        <ele>2724.99</ele>
        <time>2018-03-24T12:15:07Z</time>
      </trkpt>
      <trkpt lat="45.4054" lon="6.79772">
        <ele>2731.24</ele>
        <time>2018-03-24T12:15:13Z</time>
      </trkpt>
      <trkpt lat="45.4054" lon="6.79772">
        <ele>2726.92</ele>
        <time>2018-03-24T12:15:14Z</time>
      </trkpt>
      <trkpt lat="45.4054" lon="6.79773">
        <ele>2725.96</ele>
        <time>2018-03-24T12:15:16Z</time>
      </trkpt>
      <trkpt lat="45.40542" lon="6.79772">
        <ele>2717.78</ele>
        <time>2018-03-24T12:15:50Z</time>
      </trkpt>
      <trkpt lat="45.40542" lon="6.79771">
        <ele>2756.24</ele>
        <time>2018-03-24T12:15:52Z</time>
      </trkpt>
      <trkpt lat="45.40543" lon="6.79771">
        <ele>2743.74</ele>
        <time>2018-03-24T12:15:53Z</time>
      </trkpt>
      <trkpt lat="45.40543" lon="6.79772">
        <ele>2728.36</ele>
        <time>2018-03-24T12:15:54Z</time>
      </trkpt>
      <trkpt lat="45.40544" lon="6.79772">
        <ele>2726.44</ele>
        <time>2018-03-24T12:15:56Z</time>
      </trkpt>
      <trkpt lat="45.40541" lon="6.79779">
        <ele>2725.96</ele>
        <time>2018-03-24T12:16:29Z</time>
      </trkpt>
      <trkpt lat="45.40537" lon="6.79775">
        <ele>2725.96</ele>
        <time>2018-03-24T12:17:12Z</time>
      </trkpt>
      <trkpt lat="45.40536" lon="6.79775">
        <ele>2725.48</ele>
        <time>2018-03-24T12:17:25Z</time>
      </trkpt>
      <trkpt lat="45.40539" lon="6.79771">
        <ele>2724.99</ele>
        <time>2018-03-24T12:18:08Z</time>
      </trkpt>
      <trkpt lat="45.40542" lon="6.79771">
        <ele>2725.48</ele>
        <time>2018-03-24T12:18:46Z</time>
      </trkpt>
      <trkpt lat="45.40545" lon="6.79765">
        <ele>2724.03</ele>
        <time>2018-03-24T12:19:28Z</time>
      </trkpt>
      <trkpt lat="45.40544" lon="6.79764">
        <ele>2727.88</ele>
        <time>2018-03-24T12:19:36Z</time>
      </trkpt>
      <trkpt lat="45.40544" lon="6.79764">
        <ele>2724.99</ele>
        <time>2018-03-24T12:19:37Z</time>
      </trkpt>
      <trkpt lat="45.40542" lon="6.79772">
        <ele>2724.03</ele>
        <time>2018-03-24T12:20:09Z</time>
      </trkpt>
      <trkpt lat="45.40541" lon="6.7977">
        <ele>2723.55</ele>
        <time>2018-03-24T12:20:35Z</time>
      </trkpt>
      <trkpt lat="45.40542" lon="6.79765">
        <ele>2722.59</ele>
        <time>2018-03-24T12:21:10Z</time>
      </trkpt>
      <trkpt lat="45.4054" lon="6.79765">
        <ele>2724.51</ele>
        <time>2018-03-24T12:21:44Z</time>
      </trkpt>
      <trkpt lat="45.40538" lon="6.79766">
        <ele>2722.59</ele>
        <time>2018-03-24T12:22:01Z</time>
      </trkpt>
      <trkpt lat="45.40536" lon="6.79765">
        <ele>2724.03</ele>
        <time>2018-03-24T12:22:17Z</time>
      </trkpt>
      <trkpt lat="45.40537" lon="6.79766">
        <ele>2724.99</ele>
        <time>2018-03-24T12:22:41Z</time>
      </trkpt>
      <trkpt lat="45.40536" lon="6.79765">
        <ele>2723.07</ele>
        <time>2018-03-24T12:22:43Z</time>
      </trkpt>
      <trkpt lat="45.40538" lon="6.79766">
        <ele>2725.48</ele>
        <time>2018-03-24T12:23:11Z</time>
      </trkpt>
      <trkpt lat="45.40533" lon="6.79767">
        <ele>2723.07</ele>
        <time>2018-03-24T12:23:38Z</time>
      </trkpt>
      <trkpt lat="45.40536" lon="6.79769">
        <ele>2723.55</ele>
        <time>2018-03-24T12:23:59Z</time>
      </trkpt>
      <trkpt lat="45.40537" lon="6.79767">
        <ele>2723.55</ele>
        <time>2018-03-24T12:24:13Z</time>
      </trkpt>
      <trkpt lat="45.40538" lon="6.79767">
        <ele>2722.59</ele>
        <time>2018-03-24T12:24:17Z</time>
      </trkpt>
      <trkpt lat="45.40537" lon="6.79767">
        <ele>2723.55</ele>
        <time>2018-03-24T12:24:32Z</time>
      </trkpt>
      <trkpt lat="45.40534" lon="6.79772">
        <ele>2722.59</ele>
        <time>2018-03-24T12:24:57Z</time>
      </trkpt>
      <trkpt lat="45.40533" lon="6.79768">
        <ele>2723.07</ele>
        <time>2018-03-24T12:25:12Z</time>
      </trkpt>
      <trkpt lat="45.40539" lon="6.79762">
        <ele>2723.07</ele>
        <time>2018-03-24T12:25:28Z</time>
      </trkpt>
      <trkpt lat="45.4054" lon="6.79762">
        <ele>2723.07</ele>
        <time>2018-03-24T12:25:49Z</time>
      </trkpt>
      <trkpt lat="45.40542" lon="6.79761">
        <ele>2723.55</ele>
        <time>2018-03-24T12:26:14Z</time>
      </trkpt>
      <trkpt lat="45.40544" lon="6.79764">
        <ele>2723.07</ele>
        <time>2018-03-24T12:26:39Z</time>
      </trkpt>
      <trkpt lat="45.40543" lon="6.79763">
        <ele>2723.55</ele>
        <time>2018-03-24T12:27:04Z</time>
      </trkpt>
      <trkpt lat="45.40547" lon="6.79758">
        <ele>2724.03</ele>
        <time>2018-03-24T12:27:30Z</time>
      </trkpt>
      <trkpt lat="45.40546" lon="6.7976">
        <ele>2724.03</ele>
        <time>2018-03-24T12:27:53Z</time>
      </trkpt>
      <trkpt lat="45.40543" lon="6.79768">
        <ele>2724.03</ele>
        <time>2018-03-24T12:28:26Z</time>
      </trkpt>
      <trkpt lat="45.4054" lon="6.79764">
        <ele>2723.55</ele>
        <time>2018-03-24T12:28:52Z</time>
      </trkpt>
      <trkpt lat="45.40539" lon="6.79762">
        <ele>2724.03</ele>
        <time>2018-03-24T12:29:17Z</time>
      </trkpt>
      <trkpt lat="45.40541" lon="6.79761">
        <ele>2723.55</ele>
        <time>2018-03-24T12:29:44Z</time>
      </trkpt>
      <trkpt lat="45.40543" lon="6.79768">
        <ele>2724.03</ele>
        <time>2018-03-24T12:30:18Z</time>
      </trkpt>
      <trkpt lat="45.40541" lon="6.79764">
        <ele>2724.51</ele>
        <time>2018-03-24T12:30:46Z</time>
      </trkpt>
      <trkpt lat="45.40537" lon="6.79771">
        <ele>2723.55</ele>
        <time>2018-03-24T12:31:16Z</time>
      </trkpt>
      <trkpt lat="45.40536" lon="6.79766">
        <ele>2724.51</ele>
        <time>2018-03-24T12:31:42Z</time>
      </trkpt>
      <trkpt lat="45.40537" lon="6.79771">
        <ele>2724.03</ele>
        <time>2018-03-24T12:32:07Z</time>
      </trkpt>
      <trkpt lat="45.40537" lon="6.79769">
        <ele>2724.51</ele>
        <time>2018-03-24T12:32:32Z</time>
      </trkpt>
      <trkpt lat="45.40537" lon="6.79765">
        <ele>2724.51</ele>
        <time>2018-03-24T12:33:04Z</time>
      </trkpt>
      <trkpt lat="45.40532" lon="6.79768">
        <ele>2724.51</ele>
        <time>2018-03-24T12:33:27Z</time>
      </trkpt>
      <trkpt lat="45.40532" lon="6.79767">
        <ele>2724.99</ele>
        <time>2018-03-24T12:33:52Z</time>
      </trkpt>
      <trkpt lat="45.40532" lon="6.79769">
        <ele>2724.03</ele>
        <time>2018-03-24T12:33:56Z</time>
      </trkpt>
      <trkpt lat="45.40536" lon="6.79773">
        <ele>2724.03</ele>
        <time>2018-03-24T12:34:14Z</time>
      </trkpt>
      <trkpt lat="45.40537" lon="6.79776">
        <ele>2725.48</ele>
        <time>2018-03-24T12:34:44Z</time>
      </trkpt>
      <trkpt lat="45.40537" lon="6.79775">
        <ele>2724.03</ele>
        <time>2018-03-24T12:34:47Z</time>
      </trkpt>
      <trkpt lat="45.40536" lon="6.7977">
        <ele>2724.99</ele>
        <time>2018-03-24T12:35:15Z</time>
      </trkpt>
      <trkpt lat="45.40536" lon="6.7977">
        <ele>2725.48</ele>
        <time>2018-03-24T12:35:47Z</time>
      </trkpt>
      <trkpt lat="45.40538" lon="6.7977">
        <ele>2725.48</ele>
        <time>2018-03-24T12:36:21Z</time>
      </trkpt>
      <trkpt lat="45.40535" lon="6.79766">
        <ele>2724.51</ele>
        <time>2018-03-24T12:36:36Z</time>
      </trkpt>
      <trkpt lat="45.40535" lon="6.79766">
        <ele>2725.48</ele>
        <time>2018-03-24T12:37:06Z</time>
      </trkpt>
      <trkpt lat="45.40537" lon="6.79768">
        <ele>2724.51</ele>
        <time>2018-03-24T12:37:35Z</time>
      </trkpt>
      <trkpt lat="45.40538" lon="6.7977">
        <ele>2725.48</ele>
        <time>2018-03-24T12:37:54Z</time>
      </trkpt>
      <trkpt lat="45.40534" lon="6.79767">
        <ele>2725.96</ele>
        <time>2018-03-24T12:38:07Z</time>
      </trkpt>
      <trkpt lat="45.40533" lon="6.79766">
        <ele>2726.92</ele>
        <time>2018-03-24T12:38:18Z</time>
      </trkpt>
      <trkpt lat="45.40532" lon="6.79766">
        <ele>2725.96</ele>
        <time>2018-03-24T12:38:38Z</time>
      </trkpt>
      <trkpt lat="45.40535" lon="6.79767">
        <ele>2727.4</ele>
        <time>2018-03-24T12:38:52Z</time>
      </trkpt>
      <trkpt lat="45.40534" lon="6.79766">
        <ele>2725.96</ele>
        <time>2018-03-24T12:39:08Z</time>
      </trkpt>
      <trkpt lat="45.40534" lon="6.79768">
        <ele>2725.96</ele>
        <time>2018-03-24T12:39:34Z</time>
      </trkpt>
      <trkpt lat="45.40532" lon="6.79767">
        <ele>2726.44</ele>
        <time>2018-03-24T12:40:00Z</time>
      </trkpt>
      <trkpt lat="45.40531" lon="6.79771">
        <ele>2725.96</ele>
        <time>2018-03-24T12:40:24Z</time>
      </trkpt>
      <trkpt lat="45.40529" lon="6.7977">
        <ele>2725.96</ele>
        <time>2018-03-24T12:40:43Z</time>
      </trkpt>
      <trkpt lat="45.40534" lon="6.79765">
        <ele>2725.48</ele>
        <time>2018-03-24T12:41:02Z</time>
      </trkpt>
      <trkpt lat="45.40534" lon="6.79763">
        <ele>2725.48</ele>
        <time>2018-03-24T12:41:05Z</time>
      </trkpt>
      <trkpt lat="45.40532" lon="6.7976">
        <ele>2725.96</ele>
        <time>2018-03-24T12:41:17Z</time>
      </trkpt>
      <trkpt lat="45.40533" lon="6.79759">
        <ele>2724.03</ele>
        <time>2018-03-24T12:41:20Z</time>
      </trkpt>
      <trkpt lat="45.40528" lon="6.7976">
        <ele>2724.51</ele>
        <time>2018-03-24T12:41:25Z</time>
      </trkpt>
      <trkpt lat="45.4052" lon="6.79762">
        <ele>2723.07</ele>
        <time>2018-03-24T12:41:31Z</time>
      </trkpt>
      <trkpt lat="45.40503" lon="6.79759">
        <ele>2721.15</ele>
        <time>2018-03-24T12:41:43Z</time>
      </trkpt>
      <trkpt lat="45.40488" lon="6.79757">
        <ele>2720.19</ele>
        <time>2018-03-24T12:41:55Z</time>
      </trkpt>
      <trkpt lat="45.40485" lon="6.79752">
        <ele>2719.71</ele>
        <time>2018-03-24T12:42:14Z</time>
      </trkpt>
      <trkpt lat="45.40491" lon="6.79759">
        <ele>2719.23</ele>
        <time>2018-03-24T12:42:38Z</time>
      </trkpt>
      <trkpt lat="45.40492" lon="6.79767">
        <ele>2719.71</ele>
        <time>2018-03-24T12:42:50Z</time>
      </trkpt>
      <trkpt lat="45.40491" lon="6.79759">
        <ele>2719.71</ele>
        <time>2018-03-24T12:43:13Z</time>
      </trkpt>
      <trkpt lat="45.40492" lon="6.7976">
        <ele>2720.19</ele>
        <time>2018-03-24T12:43:36Z</time>
      </trkpt>
      <trkpt lat="45.4049" lon="6.79759">
        <ele>2719.71</ele>
        <time>2018-03-24T12:43:43Z</time>
      </trkpt>
      <trkpt lat="45.4048" lon="6.79747">
        <ele>2718.75</ele>
        <time>2018-03-24T12:43:48Z</time>
      </trkpt>
      <trkpt lat="45.40466" lon="6.79733">
        <ele>2714.42</ele>
        <time>2018-03-24T12:43:51Z</time>
      </trkpt>
      <trkpt lat="45.40455" lon="6.79724">
        <ele>2709.61</ele>
        <time>2018-03-24T12:43:53Z</time>
      </trkpt>
      <trkpt lat="45.40441" lon="6.79716">
        <ele>2705.29</ele>
        <time>2018-03-24T12:43:55Z</time>
      </trkpt>
      <trkpt lat="45.40432" lon="6.79715">
        <ele>2701.44</ele>
        <time>2018-03-24T12:43:56Z</time>
      </trkpt>
      <trkpt lat="45.40415" lon="6.79719">
        <ele>2697.6</ele>
        <time>2018-03-24T12:43:58Z</time>
      </trkpt>
      <trkpt lat="45.40391" lon="6.79729">
        <ele>2693.27</ele>
        <time>2018-03-24T12:44:05Z</time>
      </trkpt>
      <trkpt lat="45.40391" lon="6.79729">
        <ele>2693.75</ele>
        <time>2018-03-24T12:44:25Z</time>
      </trkpt>
      <trkpt lat="45.40392" lon="6.7973">
        <ele>2693.75</ele>
        <time>2018-03-24T12:44:43Z</time>
      </trkpt>
      <trkpt lat="45.40391" lon="6.79732">
        <ele>2693.75</ele>
        <time>2018-03-24T12:45:06Z</time>
      </trkpt>
      <trkpt lat="45.40389" lon="6.79732">
        <ele>2694.23</ele>
        <time>2018-03-24T12:45:30Z</time>
      </trkpt>
      <trkpt lat="45.40391" lon="6.79731">
        <ele>2693.75</ele>
        <time>2018-03-24T12:45:39Z</time>
      </trkpt>
      <trkpt lat="45.40373" lon="6.79712">
        <ele>2690.87</ele>
        <time>2018-03-24T12:45:49Z</time>
      </trkpt>
      <trkpt lat="45.40358" lon="6.79696">
        <ele>2687.5</ele>
        <time>2018-03-24T12:45:57Z</time>
      </trkpt>
      <trkpt lat="45.40342" lon="6.79676">
        <ele>2684.14</ele>
        <time>2018-03-24T12:46:09Z</time>
      </trkpt>
      <trkpt lat="45.40327" lon="6.79658">
        <ele>2680.77</ele>
        <time>2018-03-24T12:46:21Z</time>
      </trkpt>
      <trkpt lat="45.40302" lon="6.79637">
        <ele>2676.45</ele>
        <time>2018-03-24T12:46:28Z</time>
      </trkpt>
      <trkpt lat="45.40286" lon="6.79623">
        <ele>2673.08</ele>
        <time>2018-03-24T12:46:31Z</time>
      </trkpt>
      <trkpt lat="45.40278" lon="6.79617">
        <ele>2672.12</ele>
        <time>2018-03-24T12:46:33Z</time>
      </trkpt>
      <trkpt lat="45.40271" lon="6.79609">
        <ele>2670.2</ele>
        <time>2018-03-24T12:46:37Z</time>
      </trkpt>
      <trkpt lat="45.40265" lon="6.79604">
        <ele>2669.72</ele>
        <time>2018-03-24T12:46:51Z</time>
      </trkpt>
      <trkpt lat="45.40261" lon="6.79596">
        <ele>2668.76</ele>
        <time>2018-03-24T12:47:02Z</time>
      </trkpt>
      <trkpt lat="45.40248" lon="6.79581">
        <ele>2666.83</ele>
        <time>2018-03-24T12:47:09Z</time>
      </trkpt>
      <trkpt lat="45.40237" lon="6.79576">
        <ele>2664.91</ele>
        <time>2018-03-24T12:47:21Z</time>
      </trkpt>
      <trkpt lat="45.40232" lon="6.79568">
        <ele>2664.43</ele>
        <time>2018-03-24T12:47:44Z</time>
      </trkpt>
      <trkpt lat="45.40223" lon="6.79546">
        <ele>2661.55</ele>
        <time>2018-03-24T12:47:49Z</time>
      </trkpt>
      <trkpt lat="45.40213" lon="6.79525">
        <ele>2657.22</ele>
        <time>2018-03-24T12:47:53Z</time>
      </trkpt>
      <trkpt lat="45.40206" lon="6.79508">
        <ele>2653.86</ele>
        <time>2018-03-24T12:47:56Z</time>
      </trkpt>
      <trkpt lat="45.402" lon="6.79488">
        <ele>2650.49</ele>
        <time>2018-03-24T12:48:00Z</time>
      </trkpt>
      <trkpt lat="45.40191" lon="6.79467">
        <ele>2647.13</ele>
        <time>2018-03-24T12:48:06Z</time>
      </trkpt>
      <trkpt lat="45.40187" lon="6.79458">
        <ele>2646.65</ele>
        <time>2018-03-24T12:48:18Z</time>
      </trkpt>
      <trkpt lat="45.40186" lon="6.79456">
        <ele>2645.21</ele>
        <time>2018-03-24T12:48:20Z</time>
      </trkpt>
      <trkpt lat="45.40181" lon="6.79446">
        <ele>2645.69</ele>
        <time>2018-03-24T12:48:34Z</time>
      </trkpt>
      <trkpt lat="45.40178" lon="6.79443">
        <ele>2644.72</ele>
        <time>2018-03-24T12:48:49Z</time>
      </trkpt>
      <trkpt lat="45.40174" lon="6.79434">
        <ele>2643.76</ele>
        <time>2018-03-24T12:49:06Z</time>
      </trkpt>
      <trkpt lat="45.40169" lon="6.79409">
        <ele>2641.36</ele>
        <time>2018-03-24T12:49:20Z</time>
      </trkpt>
      <trkpt lat="45.40159" lon="6.7938">
        <ele>2637.03</ele>
        <time>2018-03-24T12:49:25Z</time>
      </trkpt>
      <trkpt lat="45.40157" lon="6.79375">
        <ele>2636.07</ele>
        <time>2018-03-24T12:49:26Z</time>
      </trkpt>
      <trkpt lat="45.40153" lon="6.79362">
        <ele>2635.11</ele>
        <time>2018-03-24T12:49:28Z</time>
      </trkpt>
      <trkpt lat="45.40136" lon="6.79321">
        <ele>2629.34</ele>
        <time>2018-03-24T12:49:35Z</time>
      </trkpt>
      <trkpt lat="45.40129" lon="6.79311">
        <ele>2627.9</ele>
        <time>2018-03-24T12:49:37Z</time>
      </trkpt>
      <trkpt lat="45.40121" lon="6.79296">
        <ele>2625.5</ele>
        <time>2018-03-24T12:49:40Z</time>
      </trkpt>
      <trkpt lat="45.40117" lon="6.79294">
        <ele>2625.02</ele>
        <time>2018-03-24T12:49:43Z</time>
      </trkpt>
      <trkpt lat="45.40115" lon="6.79291">
        <ele>2624.06</ele>
        <time>2018-03-24T12:49:45Z</time>
      </trkpt>
      <trkpt lat="45.40114" lon="6.79285">
        <ele>2623.58</ele>
        <time>2018-03-24T12:49:54Z</time>
      </trkpt>
      <trkpt lat="45.40118" lon="6.79287">
        <ele>2623.09</ele>
        <time>2018-03-24T12:50:15Z</time>
      </trkpt>
      <trkpt lat="45.40119" lon="6.79276">
        <ele>2623.09</ele>
        <time>2018-03-24T12:50:40Z</time>
      </trkpt>
      <trkpt lat="45.40122" lon="6.79285">
        <ele>2623.09</ele>
        <time>2018-03-24T12:51:02Z</time>
      </trkpt>
      <trkpt lat="45.40119" lon="6.79287">
        <ele>2624.06</ele>
        <time>2018-03-24T12:51:11Z</time>
      </trkpt>
      <trkpt lat="45.401" lon="6.79282">
        <ele>2620.69</ele>
        <time>2018-03-24T12:51:17Z</time>
      </trkpt>
      <trkpt lat="45.40086" lon="6.79287">
        <ele>2619.25</ele>
        <time>2018-03-24T12:51:20Z</time>
      </trkpt>
      <trkpt lat="45.40081" lon="6.7929">
        <ele>2617.33</ele>
        <time>2018-03-24T12:51:23Z</time>
      </trkpt>
      <trkpt lat="45.40083" lon="6.7929">
        <ele>2617.33</ele>
        <time>2018-03-24T12:51:45Z</time>
      </trkpt>
      <trkpt lat="45.40081" lon="6.7929">
        <ele>2617.33</ele>
        <time>2018-03-24T12:52:06Z</time>
      </trkpt>
      <trkpt lat="45.4008" lon="6.79289">
        <ele>2617.33</ele>
        <time>2018-03-24T12:52:26Z</time>
      </trkpt>
      <trkpt lat="45.40083" lon="6.79286">
        <ele>2616.37</ele>
        <time>2018-03-24T12:52:37Z</time>
      </trkpt>
      <trkpt lat="45.40082" lon="6.79286">
        <ele>2616.37</ele>
        <time>2018-03-24T12:52:48Z</time>
      </trkpt>
      <trkpt lat="45.40082" lon="6.79259">
        <ele>2613.96</ele>
        <time>2018-03-24T12:52:53Z</time>
      </trkpt>
      <trkpt lat="45.40084" lon="6.79229">
        <ele>2607.71</ele>
        <time>2018-03-24T12:52:57Z</time>
      </trkpt>
      <trkpt lat="45.40086" lon="6.79226">
        <ele>2608.19</ele>
        <time>2018-03-24T12:53:03Z</time>
      </trkpt>
      <trkpt lat="45.40079" lon="6.79224">
        <ele>2606.75</ele>
        <time>2018-03-24T12:53:11Z</time>
      </trkpt>
      <trkpt lat="45.40078" lon="6.79226">
        <ele>2606.75</ele>
        <time>2018-03-24T12:53:26Z</time>
      </trkpt>
      <trkpt lat="45.40079" lon="6.79226">
        <ele>2606.75</ele>
        <time>2018-03-24T12:53:38Z</time>
      </trkpt>
      <trkpt lat="45.40078" lon="6.79223">
        <ele>2606.27</ele>
        <time>2018-03-24T12:53:51Z</time>
      </trkpt>
      <trkpt lat="45.40076" lon="6.79224">
        <ele>2605.79</ele>
        <time>2018-03-24T12:53:59Z</time>
      </trkpt>
      <trkpt lat="45.40077" lon="6.79226">
        <ele>2605.31</ele>
        <time>2018-03-24T12:54:11Z</time>
      </trkpt>
      <trkpt lat="45.40078" lon="6.79225">
        <ele>2605.79</ele>
        <time>2018-03-24T12:54:14Z</time>
      </trkpt>
      <trkpt lat="45.40082" lon="6.79205">
        <ele>2603.87</ele>
        <time>2018-03-24T12:54:20Z</time>
      </trkpt>
      <trkpt lat="45.40082" lon="6.79188">
        <ele>2601.95</ele>
        <time>2018-03-24T12:54:22Z</time>
      </trkpt>
      <trkpt lat="45.40084" lon="6.79156">
        <ele>2598.1</ele>
        <time>2018-03-24T12:54:25Z</time>
      </trkpt>
      <trkpt lat="45.40088" lon="6.7914">
        <ele>2598.58</ele>
        <time>2018-03-24T12:54:31Z</time>
      </trkpt>
      <trkpt lat="45.40085" lon="6.79142">
        <ele>2598.1</ele>
        <time>2018-03-24T12:54:43Z</time>
      </trkpt>
      <trkpt lat="45.40082" lon="6.79144">
        <ele>2598.1</ele>
        <time>2018-03-24T12:54:46Z</time>
      </trkpt>
      <trkpt lat="45.40069" lon="6.79174">
        <ele>2594.74</ele>
        <time>2018-03-24T12:54:55Z</time>
      </trkpt>
      <trkpt lat="45.40058" lon="6.79196">
        <ele>2592.33</ele>
        <time>2018-03-24T12:55:07Z</time>
      </trkpt>
      <trkpt lat="45.40048" lon="6.79211">
        <ele>2588.97</ele>
        <time>2018-03-24T12:55:14Z</time>
      </trkpt>
      <trkpt lat="45.40047" lon="6.79215">
        <ele>2588.97</ele>
        <time>2018-03-24T12:55:15Z</time>
      </trkpt>
      <trkpt lat="45.4004" lon="6.79232">
        <ele>2586.08</ele>
        <time>2018-03-24T12:55:20Z</time>
      </trkpt>
      <trkpt lat="45.40035" lon="6.79249">
        <ele>2582.72</ele>
        <time>2018-03-24T12:55:24Z</time>
      </trkpt>
      <trkpt lat="45.40031" lon="6.79263">
        <ele>2579.35</ele>
        <time>2018-03-24T12:55:31Z</time>
      </trkpt>
      <trkpt lat="45.40031" lon="6.79264">
        <ele>2579.84</ele>
        <time>2018-03-24T12:56:00Z</time>
      </trkpt>
      <trkpt lat="45.4002" lon="6.79294">
        <ele>2576.47</ele>
        <time>2018-03-24T12:56:11Z</time>
      </trkpt>
      <trkpt lat="45.40019" lon="6.79298">
        <ele>2576.47</ele>
        <time>2018-03-24T12:56:12Z</time>
      </trkpt>
      <trkpt lat="45.40013" lon="6.79312">
        <ele>2574.55</ele>
        <time>2018-03-24T12:56:15Z</time>
      </trkpt>
      <trkpt lat="45.40006" lon="6.79327">
        <ele>2573.11</ele>
        <time>2018-03-24T12:56:18Z</time>
      </trkpt>
      <trkpt lat="45.39999" lon="6.79344">
        <ele>2569.74</ele>
        <time>2018-03-24T12:56:22Z</time>
      </trkpt>
      <trkpt lat="45.39994" lon="6.79352">
        <ele>2568.78</ele>
        <time>2018-03-24T12:56:33Z</time>
      </trkpt>
      <trkpt lat="45.39995" lon="6.79349">
        <ele>2568.3</ele>
        <time>2018-03-24T12:56:57Z</time>
      </trkpt>
      <trkpt lat="45.39993" lon="6.79351">
        <ele>2568.78</ele>
        <time>2018-03-24T12:57:21Z</time>
      </trkpt>
      <trkpt lat="45.39992" lon="6.79354">
        <ele>2568.78</ele>
        <time>2018-03-24T12:57:42Z</time>
      </trkpt>
      <trkpt lat="45.39993" lon="6.79354">
        <ele>2568.3</ele>
        <time>2018-03-24T12:58:06Z</time>
      </trkpt>
      <trkpt lat="45.39994" lon="6.79356">
        <ele>2569.26</ele>
        <time>2018-03-24T12:58:24Z</time>
      </trkpt>
      <trkpt lat="45.39986" lon="6.7934">
        <ele>2564.93</ele>
        <time>2018-03-24T12:58:28Z</time>
      </trkpt>
      <trkpt lat="45.39987" lon="6.79314">
        <ele>2561.57</ele>
        <time>2018-03-24T12:58:30Z</time>
      </trkpt>
      <trkpt lat="45.39989" lon="6.7927">
        <ele>2556.28</ele>
        <time>2018-03-24T12:58:33Z</time>
      </trkpt>
      <trkpt lat="45.39992" lon="6.79241">
        <ele>2552.92</ele>
        <time>2018-03-24T12:58:35Z</time>
      </trkpt>
      <trkpt lat="45.39997" lon="6.7921">
        <ele>2549.07</ele>
        <time>2018-03-24T12:58:38Z</time>
      </trkpt>
      <trkpt lat="45.39997" lon="6.79183">
        <ele>2547.63</ele>
        <time>2018-03-24T12:58:42Z</time>
      </trkpt>
      <trkpt lat="45.39998" lon="6.79158">
        <ele>2543.31</ele>
        <time>2018-03-24T12:58:45Z</time>
      </trkpt>
      <trkpt lat="45.39998" lon="6.79151">
        <ele>2542.82</ele>
        <time>2018-03-24T12:58:46Z</time>
      </trkpt>
      <trkpt lat="45.39999" lon="6.79142">
        <ele>2542.82</ele>
        <time>2018-03-24T12:58:49Z</time>
      </trkpt>
      <trkpt lat="45.39996" lon="6.79124">
        <ele>2540.42</ele>
        <time>2018-03-24T12:58:52Z</time>
      </trkpt>
      <trkpt lat="45.39996" lon="6.79104">
        <ele>2537.06</ele>
        <time>2018-03-24T12:58:55Z</time>
      </trkpt>
      <trkpt lat="45.39997" lon="6.79099">
        <ele>2537.06</ele>
        <time>2018-03-24T12:58:56Z</time>
      </trkpt>
      <trkpt lat="45.39993" lon="6.79072">
        <ele>2533.21</ele>
        <time>2018-03-24T12:59:03Z</time>
      </trkpt>
      <trkpt lat="45.39993" lon="6.79067">
        <ele>2532.73</ele>
        <time>2018-03-24T12:59:04Z</time>
      </trkpt>
      <trkpt lat="45.39991" lon="6.79054">
        <ele>2531.77</ele>
        <time>2018-03-24T12:59:06Z</time>
      </trkpt>
      <trkpt lat="45.39989" lon="6.79035">
        <ele>2529.37</ele>
        <time>2018-03-24T12:59:09Z</time>
      </trkpt>
      <trkpt lat="45.39985" lon="6.79017">
        <ele>2527.44</ele>
        <time>2018-03-24T12:59:11Z</time>
      </trkpt>
      <trkpt lat="45.39982" lon="6.78998">
        <ele>2524.08</ele>
        <time>2018-03-24T12:59:13Z</time>
      </trkpt>
      <trkpt lat="45.39976" lon="6.78967">
        <ele>2521.68</ele>
        <time>2018-03-24T12:59:17Z</time>
      </trkpt>
      <trkpt lat="45.3997" lon="6.78944">
        <ele>2519.27</ele>
        <time>2018-03-24T12:59:21Z</time>
      </trkpt>
      <trkpt lat="45.39968" lon="6.7893">
        <ele>2517.35</ele>
        <time>2018-03-24T12:59:24Z</time>
      </trkpt>
      <trkpt lat="45.39969" lon="6.78927">
        <ele>2517.83</ele>
        <time>2018-03-24T12:59:36Z</time>
      </trkpt>
      <trkpt lat="45.3997" lon="6.78926">
        <ele>2517.83</ele>
        <time>2018-03-24T12:59:55Z</time>
      </trkpt>
      <trkpt lat="45.39967" lon="6.78927">
        <ele>2517.83</ele>
        <time>2018-03-24T13:00:16Z</time>
      </trkpt>
      <trkpt lat="45.39966" lon="6.78923">
        <ele>2517.35</ele>
        <time>2018-03-24T13:00:18Z</time>
      </trkpt>
      <trkpt lat="45.39962" lon="6.78914">
        <ele>2515.43</ele>
        <time>2018-03-24T13:00:21Z</time>
      </trkpt>
      <trkpt lat="45.3996" lon="6.78907">
        <ele>2514.47</ele>
        <time>2018-03-24T13:00:23Z</time>
      </trkpt>
      <trkpt lat="45.39958" lon="6.78897">
        <ele>2513.02</ele>
        <time>2018-03-24T13:00:26Z</time>
      </trkpt>
      <trkpt lat="45.39956" lon="6.78885">
        <ele>2513.02</ele>
        <time>2018-03-24T13:00:36Z</time>
      </trkpt>
      <trkpt lat="45.39957" lon="6.78883">
        <ele>2513.02</ele>
        <time>2018-03-24T13:00:47Z</time>
      </trkpt>
      <trkpt lat="45.3995" lon="6.7887">
        <ele>2512.06</ele>
        <time>2018-03-24T13:00:51Z</time>
      </trkpt>
      <trkpt lat="45.39938" lon="6.78847">
        <ele>2507.26</ele>
        <time>2018-03-24T13:00:54Z</time>
      </trkpt>
      <trkpt lat="45.39933" lon="6.78826">
        <ele>2501.97</ele>
        <time>2018-03-24T13:00:56Z</time>
      </trkpt>
      <trkpt lat="45.39927" lon="6.78804">
        <ele>2499.08</ele>
        <time>2018-03-24T13:00:58Z</time>
      </trkpt>
      <trkpt lat="45.39926" lon="6.78785">
        <ele>2494.28</ele>
        <time>2018-03-24T13:01:00Z</time>
      </trkpt>
      <trkpt lat="45.3993" lon="6.78774">
        <ele>2494.28</ele>
        <time>2018-03-24T13:01:08Z</time>
      </trkpt>
      <trkpt lat="45.39917" lon="6.78762">
        <ele>2490.43</ele>
        <time>2018-03-24T13:01:12Z</time>
      </trkpt>
      <trkpt lat="45.39913" lon="6.78745">
        <ele>2487.07</ele>
        <time>2018-03-24T13:01:14Z</time>
      </trkpt>
      <trkpt lat="45.39913" lon="6.78731">
        <ele>2483.7</ele>
        <time>2018-03-24T13:01:16Z</time>
      </trkpt>
      <trkpt lat="45.39891" lon="6.78721">
        <ele>2478.9</ele>
        <time>2018-03-24T13:01:21Z</time>
      </trkpt>
      <trkpt lat="45.39885" lon="6.78731">
        <ele>2475.53</ele>
        <time>2018-03-24T13:01:23Z</time>
      </trkpt>
      <trkpt lat="45.39884" lon="6.78733">
        <ele>2475.05</ele>
        <time>2018-03-24T13:01:24Z</time>
      </trkpt>
      <trkpt lat="45.39881" lon="6.78736">
        <ele>2475.05</ele>
        <time>2018-03-24T13:01:37Z</time>
      </trkpt>
      <trkpt lat="45.39879" lon="6.78735">
        <ele>2475.05</ele>
        <time>2018-03-24T13:01:51Z</time>
      </trkpt>
      <trkpt lat="45.39878" lon="6.78736">
        <ele>2474.57</ele>
        <time>2018-03-24T13:02:01Z</time>
      </trkpt>
      <trkpt lat="45.39881" lon="6.78735">
        <ele>2474.57</ele>
        <time>2018-03-24T13:02:16Z</time>
      </trkpt>
      <trkpt lat="45.3988" lon="6.78736">
        <ele>2475.05</ele>
        <time>2018-03-24T13:02:23Z</time>
      </trkpt>
      <trkpt lat="45.39881" lon="6.78738">
        <ele>2474.09</ele>
        <time>2018-03-24T13:02:37Z</time>
      </trkpt>
      <trkpt lat="45.39879" lon="6.78736">
        <ele>2474.09</ele>
        <time>2018-03-24T13:03:22Z</time>
      </trkpt>
      <trkpt lat="45.3988" lon="6.78736">
        <ele>2470.73</ele>
        <time>2018-03-24T13:03:55Z</time>
      </trkpt>
      <trkpt lat="45.3988" lon="6.78736">
        <ele>2474.09</ele>
        <time>2018-03-24T13:03:56Z</time>
      </trkpt>
      <trkpt lat="45.39879" lon="6.78734">
        <ele>2474.09</ele>
        <time>2018-03-24T13:04:14Z</time>
      </trkpt>
      <trkpt lat="45.39881" lon="6.78734">
        <ele>2474.09</ele>
        <time>2018-03-24T13:04:23Z</time>
      </trkpt>
      <trkpt lat="45.39886" lon="6.78738">
        <ele>2474.57</ele>
        <time>2018-03-24T13:05:03Z</time>
      </trkpt>
      <trkpt lat="45.39888" lon="6.78736">
        <ele>2473.61</ele>
        <time>2018-03-24T13:05:45Z</time>
      </trkpt>
      <trkpt lat="45.39886" lon="6.78736">
        <ele>2474.09</ele>
        <time>2018-03-24T13:06:32Z</time>
      </trkpt>
      <trkpt lat="45.39888" lon="6.78735">
        <ele>2474.57</ele>
        <time>2018-03-24T13:07:09Z</time>
      </trkpt>
      <trkpt lat="45.39883" lon="6.78737">
        <ele>2475.05</ele>
        <time>2018-03-24T13:07:34Z</time>
      </trkpt>
      <trkpt lat="45.39881" lon="6.78735">
        <ele>2476.01</ele>
        <time>2018-03-24T13:07:45Z</time>
      </trkpt>
      <trkpt lat="45.3988" lon="6.78737">
        <ele>2475.05</ele>
        <time>2018-03-24T13:07:58Z</time>
      </trkpt>
      <trkpt lat="45.3988" lon="6.78739">
        <ele>2475.53</ele>
        <time>2018-03-24T13:08:17Z</time>
      </trkpt>
      <trkpt lat="45.39879" lon="6.78739">
        <ele>2476.49</ele>
        <time>2018-03-24T13:08:22Z</time>
      </trkpt>
      <trkpt lat="45.3988" lon="6.78738">
        <ele>2475.53</ele>
        <time>2018-03-24T13:08:36Z</time>
      </trkpt>
      <trkpt lat="45.39879" lon="6.78737">
        <ele>2476.01</ele>
        <time>2018-03-24T13:09:00Z</time>
      </trkpt>
      <trkpt lat="45.39879" lon="6.78737">
        <ele>2476.01</ele>
        <time>2018-03-24T13:09:18Z</time>
      </trkpt>
      <trkpt lat="45.39879" lon="6.78738">
        <ele>2475.53</ele>
        <time>2018-03-24T13:09:34Z</time>
      </trkpt>
      <trkpt lat="45.3988" lon="6.78736">
        <ele>2476.01</ele>
        <time>2018-03-24T13:10:01Z</time>
      </trkpt>
      <trkpt lat="45.39881" lon="6.78736">
        <ele>2476.01</ele>
        <time>2018-03-24T13:10:21Z</time>
      </trkpt>
      <trkpt lat="45.3988" lon="6.78737">
        <ele>2476.01</ele>
        <time>2018-03-24T13:10:44Z</time>
      </trkpt>
      <trkpt lat="45.39879" lon="6.78741">
        <ele>2476.49</ele>
        <time>2018-03-24T13:10:58Z</time>
      </trkpt>
      <trkpt lat="45.39875" lon="6.78748">
        <ele>2475.53</ele>
        <time>2018-03-24T13:11:09Z</time>
      </trkpt>
      <trkpt lat="45.39874" lon="6.78751">
        <ele>2476.01</ele>
        <time>2018-03-24T13:11:15Z</time>
      </trkpt>
      <trkpt lat="45.39867" lon="6.78761">
        <ele>2475.53</ele>
        <time>2018-03-24T13:11:27Z</time>
      </trkpt>
      <trkpt lat="45.39863" lon="6.78768">
        <ele>2475.53</ele>
        <time>2018-03-24T13:11:40Z</time>
      </trkpt>
      <trkpt lat="45.3986" lon="6.78774">
        <ele>2476.49</ele>
        <time>2018-03-24T13:11:50Z</time>
      </trkpt>
      <trkpt lat="45.39855" lon="6.78781">
        <ele>2476.97</ele>
        <time>2018-03-24T13:12:02Z</time>
      </trkpt>
      <trkpt lat="45.3985" lon="6.78792">
        <ele>2477.94</ele>
        <time>2018-03-24T13:12:16Z</time>
      </trkpt>
      <trkpt lat="45.39846" lon="6.78804">
        <ele>2478.42</ele>
        <time>2018-03-24T13:12:29Z</time>
      </trkpt>
      <trkpt lat="45.39842" lon="6.78813">
        <ele>2478.9</ele>
        <time>2018-03-24T13:12:40Z</time>
      </trkpt>
      <trkpt lat="45.39836" lon="6.78819">
        <ele>2478.9</ele>
        <time>2018-03-24T13:12:54Z</time>
      </trkpt>
      <trkpt lat="45.39828" lon="6.78828">
        <ele>2479.38</ele>
        <time>2018-03-24T13:13:09Z</time>
      </trkpt>
      <trkpt lat="45.39822" lon="6.78833">
        <ele>2479.86</ele>
        <time>2018-03-24T13:13:21Z</time>
      </trkpt>
      <trkpt lat="45.39819" lon="6.78834">
        <ele>2479.38</ele>
        <time>2018-03-24T13:13:35Z</time>
      </trkpt>
      <trkpt lat="45.39813" lon="6.78837">
        <ele>2480.34</ele>
        <time>2018-03-24T13:13:48Z</time>
      </trkpt>
      <trkpt lat="45.39802" lon="6.78843">
        <ele>2478.9</ele>
        <time>2018-03-24T13:14:02Z</time>
      </trkpt>
      <trkpt lat="45.39798" lon="6.78845">
        <ele>2479.86</ele>
        <time>2018-03-24T13:14:12Z</time>
      </trkpt>
      <trkpt lat="45.39797" lon="6.78845">
        <ele>2480.34</ele>
        <time>2018-03-24T13:14:23Z</time>
      </trkpt>
      <trkpt lat="45.39798" lon="6.78846">
        <ele>2478.9</ele>
        <time>2018-03-24T13:14:38Z</time>
      </trkpt>
      <trkpt lat="45.39791" lon="6.78848">
        <ele>2479.38</ele>
        <time>2018-03-24T13:14:50Z</time>
      </trkpt>
      <trkpt lat="45.39783" lon="6.78851">
        <ele>2479.86</ele>
        <time>2018-03-24T13:15:04Z</time>
      </trkpt>
      <trkpt lat="45.39774" lon="6.78853">
        <ele>2480.82</ele>
        <time>2018-03-24T13:15:17Z</time>
      </trkpt>
      <trkpt lat="45.3976" lon="6.78855">
        <ele>2481.78</ele>
        <time>2018-03-24T13:15:32Z</time>
      </trkpt>
      <trkpt lat="45.39754" lon="6.78853">
        <ele>2482.26</ele>
        <time>2018-03-24T13:15:45Z</time>
      </trkpt>
      <trkpt lat="45.39747" lon="6.78856">
        <ele>2484.18</ele>
        <time>2018-03-24T13:16:00Z</time>
      </trkpt>
      <trkpt lat="45.39744" lon="6.78856">
        <ele>2484.66</ele>
        <time>2018-03-24T13:16:12Z</time>
      </trkpt>
      <trkpt lat="45.3974" lon="6.78857">
        <ele>2485.63</ele>
        <time>2018-03-24T13:16:23Z</time>
      </trkpt>
      <trkpt lat="45.39736" lon="6.78858">
        <ele>2486.11</ele>
        <time>2018-03-24T13:16:33Z</time>
      </trkpt>
      <trkpt lat="45.39731" lon="6.7886">
        <ele>2486.59</ele>
        <time>2018-03-24T13:16:44Z</time>
      </trkpt>
      <trkpt lat="45.39722" lon="6.78863">
        <ele>2488.03</ele>
        <time>2018-03-24T13:16:58Z</time>
      </trkpt>
      <trkpt lat="45.39718" lon="6.78868">
        <ele>2488.99</ele>
        <time>2018-03-24T13:17:08Z</time>
      </trkpt>
      <trkpt lat="45.39714" lon="6.78871">
        <ele>2489.47</ele>
        <time>2018-03-24T13:17:19Z</time>
      </trkpt>
      <trkpt lat="45.39707" lon="6.78871">
        <ele>2489.47</ele>
        <time>2018-03-24T13:17:31Z</time>
      </trkpt>
      <trkpt lat="45.39696" lon="6.78872">
        <ele>2488.99</ele>
        <time>2018-03-24T13:17:44Z</time>
      </trkpt>
      <trkpt lat="45.39685" lon="6.78875">
        <ele>2489.47</ele>
        <time>2018-03-24T13:17:59Z</time>
      </trkpt>
      <trkpt lat="45.39677" lon="6.78876">
        <ele>2489.95</ele>
        <time>2018-03-24T13:18:11Z</time>
      </trkpt>
      <trkpt lat="45.3967" lon="6.78874">
        <ele>2489.47</ele>
        <time>2018-03-24T13:18:24Z</time>
      </trkpt>
      <trkpt lat="45.39661" lon="6.78872">
        <ele>2489.95</ele>
        <time>2018-03-24T13:18:38Z</time>
      </trkpt>
      <trkpt lat="45.39652" lon="6.78869">
        <ele>2490.43</ele>
        <time>2018-03-24T13:18:51Z</time>
      </trkpt>
      <trkpt lat="45.39644" lon="6.7887">
        <ele>2492.84</ele>
        <time>2018-03-24T13:19:06Z</time>
      </trkpt>
      <trkpt lat="45.39638" lon="6.78872">
        <ele>2493.8</ele>
        <time>2018-03-24T13:19:18Z</time>
      </trkpt>
      <trkpt lat="45.39631" lon="6.78873">
        <ele>2495.24</ele>
        <time>2018-03-24T13:19:30Z</time>
      </trkpt>
      <trkpt lat="45.39625" lon="6.78874">
        <ele>2495.72</ele>
        <time>2018-03-24T13:19:44Z</time>
      </trkpt>
      <trkpt lat="45.39618" lon="6.78874">
        <ele>2496.2</ele>
        <time>2018-03-24T13:19:59Z</time>
      </trkpt>
      <trkpt lat="45.3961" lon="6.78876">
        <ele>2496.2</ele>
        <time>2018-03-24T13:20:14Z</time>
      </trkpt>
      <trkpt lat="45.39601" lon="6.78875">
        <ele>2496.2</ele>
        <time>2018-03-24T13:20:27Z</time>
      </trkpt>
      <trkpt lat="45.39597" lon="6.78876">
        <ele>2497.16</ele>
        <time>2018-03-24T13:20:33Z</time>
      </trkpt>
      <trkpt lat="45.3959" lon="6.78873">
        <ele>2496.68</ele>
        <time>2018-03-24T13:20:43Z</time>
      </trkpt>
      <trkpt lat="45.39585" lon="6.78877">
        <ele>2498.6</ele>
        <time>2018-03-24T13:20:54Z</time>
      </trkpt>
      <trkpt lat="45.39582" lon="6.78884">
        <ele>2499.08</ele>
        <time>2018-03-24T13:21:06Z</time>
      </trkpt>
      <trkpt lat="45.39576" lon="6.78887">
        <ele>2500.05</ele>
        <time>2018-03-24T13:21:19Z</time>
      </trkpt>
      <trkpt lat="45.39572" lon="6.78894">
        <ele>2500.53</ele>
        <time>2018-03-24T13:21:30Z</time>
      </trkpt>
      <trkpt lat="45.39567" lon="6.78897">
        <ele>2501.49</ele>
        <time>2018-03-24T13:21:42Z</time>
      </trkpt>
      <trkpt lat="45.39561" lon="6.78901">
        <ele>2501.97</ele>
        <time>2018-03-24T13:22:03Z</time>
      </trkpt>
      <trkpt lat="45.39558" lon="6.78905">
        <ele>2502.93</ele>
        <time>2018-03-24T13:22:15Z</time>
      </trkpt>
      <trkpt lat="45.39553" lon="6.78907">
        <ele>2503.89</ele>
        <time>2018-03-24T13:22:26Z</time>
      </trkpt>
      <trkpt lat="45.39553" lon="6.78908">
        <ele>2503.89</ele>
        <time>2018-03-24T13:22:27Z</time>
      </trkpt>
      <trkpt lat="45.39547" lon="6.7891">
        <ele>2503.89</ele>
        <time>2018-03-24T13:22:38Z</time>
      </trkpt>
      <trkpt lat="45.39543" lon="6.78915">
        <ele>2504.85</ele>
        <time>2018-03-24T13:22:50Z</time>
      </trkpt>
      <trkpt lat="45.39537" lon="6.78921">
        <ele>2506.77</ele>
        <time>2018-03-24T13:23:01Z</time>
      </trkpt>
      <trkpt lat="45.39531" lon="6.78927">
        <ele>2506.77</ele>
        <time>2018-03-24T13:23:11Z</time>
      </trkpt>
      <trkpt lat="45.39527" lon="6.78931">
        <ele>2506.29</ele>
        <time>2018-03-24T13:23:16Z</time>
      </trkpt>
      <trkpt lat="45.39521" lon="6.78937">
        <ele>2505.33</ele>
        <time>2018-03-24T13:23:27Z</time>
      </trkpt>
      <trkpt lat="45.39495" lon="6.78947">
        <ele>2503.41</ele>
        <time>2018-03-24T13:23:42Z</time>
      </trkpt>
      <trkpt lat="45.39486" lon="6.7895">
        <ele>2501.97</ele>
        <time>2018-03-24T13:23:54Z</time>
      </trkpt>
      <trkpt lat="45.39476" lon="6.78951">
        <ele>2501.49</ele>
        <time>2018-03-24T13:24:06Z</time>
      </trkpt>
      <trkpt lat="45.39469" lon="6.78948">
        <ele>2501.49</ele>
        <time>2018-03-24T13:24:24Z</time>
      </trkpt>
      <trkpt lat="45.39462" lon="6.78954">
        <ele>2501.49</ele>
        <time>2018-03-24T13:24:37Z</time>
      </trkpt>
      <trkpt lat="45.39453" lon="6.78955">
        <ele>2501.49</ele>
        <time>2018-03-24T13:24:49Z</time>
      </trkpt>
      <trkpt lat="45.39443" lon="6.78959">
        <ele>2501.49</ele>
        <time>2018-03-24T13:25:02Z</time>
      </trkpt>
      <trkpt lat="45.39432" lon="6.78962">
        <ele>2501.01</ele>
        <time>2018-03-24T13:25:14Z</time>
      </trkpt>
      <trkpt lat="45.39425" lon="6.78965">
        <ele>2500.53</ele>
        <time>2018-03-24T13:25:26Z</time>
      </trkpt>
      <trkpt lat="45.39415" lon="6.78967">
        <ele>2500.53</ele>
        <time>2018-03-24T13:25:39Z</time>
      </trkpt>
      <trkpt lat="45.39413" lon="6.78967">
        <ele>2499.57</ele>
        <time>2018-03-24T13:25:41Z</time>
      </trkpt>
      <trkpt lat="45.39405" lon="6.78972">
        <ele>2501.49</ele>
        <time>2018-03-24T13:25:54Z</time>
      </trkpt>
      <trkpt lat="45.394" lon="6.78972">
        <ele>2502.45</ele>
        <time>2018-03-24T13:26:08Z</time>
      </trkpt>
      <trkpt lat="45.39399" lon="6.78972">
        <ele>2502.93</ele>
        <time>2018-03-24T13:26:18Z</time>
      </trkpt>
      <trkpt lat="45.39397" lon="6.78975">
        <ele>2503.89</ele>
        <time>2018-03-24T13:26:29Z</time>
      </trkpt>
      <trkpt lat="45.39391" lon="6.78978">
        <ele>2504.37</ele>
        <time>2018-03-24T13:26:41Z</time>
      </trkpt>
      <trkpt lat="45.39384" lon="6.78984">
        <ele>2505.33</ele>
        <time>2018-03-24T13:26:56Z</time>
      </trkpt>
      <trkpt lat="45.3938" lon="6.78992">
        <ele>2505.81</ele>
        <time>2018-03-24T13:27:10Z</time>
      </trkpt>
      <trkpt lat="45.39376" lon="6.78998">
        <ele>2506.29</ele>
        <time>2018-03-24T13:27:21Z</time>
      </trkpt>
      <trkpt lat="45.39373" lon="6.79003">
        <ele>2507.26</ele>
        <time>2018-03-24T13:27:33Z</time>
      </trkpt>
      <trkpt lat="45.39369" lon="6.79011">
        <ele>2508.22</ele>
        <time>2018-03-24T13:27:46Z</time>
      </trkpt>
      <trkpt lat="45.39365" lon="6.79016">
        <ele>2509.18</ele>
        <time>2018-03-24T13:27:58Z</time>
      </trkpt>
      <trkpt lat="45.39363" lon="6.79021">
        <ele>2509.18</ele>
        <time>2018-03-24T13:28:05Z</time>
      </trkpt>
      <trkpt lat="45.39361" lon="6.79029">
        <ele>2508.7</ele>
        <time>2018-03-24T13:28:18Z</time>
      </trkpt>
      <trkpt lat="45.39357" lon="6.79034">
        <ele>2509.66</ele>
        <time>2018-03-24T13:28:29Z</time>
      </trkpt>
      <trkpt lat="45.39352" lon="6.7904">
        <ele>2510.62</ele>
        <time>2018-03-24T13:28:42Z</time>
      </trkpt>
      <trkpt lat="45.39347" lon="6.79048">
        <ele>2511.1</ele>
        <time>2018-03-24T13:28:53Z</time>
      </trkpt>
      <trkpt lat="45.39342" lon="6.79055">
        <ele>2511.58</ele>
        <time>2018-03-24T13:29:06Z</time>
      </trkpt>
      <trkpt lat="45.39335" lon="6.7906">
        <ele>2512.06</ele>
        <time>2018-03-24T13:29:24Z</time>
      </trkpt>
      <trkpt lat="45.39328" lon="6.79067">
        <ele>2512.54</ele>
        <time>2018-03-24T13:29:39Z</time>
      </trkpt>
      <trkpt lat="45.39322" lon="6.79073">
        <ele>2513.02</ele>
        <time>2018-03-24T13:29:52Z</time>
      </trkpt>
      <trkpt lat="45.39315" lon="6.79077">
        <ele>2512.54</ele>
        <time>2018-03-24T13:30:05Z</time>
      </trkpt>
      <trkpt lat="45.39308" lon="6.7908">
        <ele>2513.5</ele>
        <time>2018-03-24T13:30:20Z</time>
      </trkpt>
      <trkpt lat="45.39304" lon="6.79083">
        <ele>2513.98</ele>
        <time>2018-03-24T13:30:30Z</time>
      </trkpt>
      <trkpt lat="45.39295" lon="6.79084">
        <ele>2513.02</ele>
        <time>2018-03-24T13:30:45Z</time>
      </trkpt>
      <trkpt lat="45.39287" lon="6.79084">
        <ele>2514.47</ele>
        <time>2018-03-24T13:31:00Z</time>
      </trkpt>
      <trkpt lat="45.39281" lon="6.79086">
        <ele>2514.95</ele>
        <time>2018-03-24T13:31:12Z</time>
      </trkpt>
      <trkpt lat="45.39276" lon="6.79092">
        <ele>2516.39</ele>
        <time>2018-03-24T13:31:25Z</time>
      </trkpt>
      <trkpt lat="45.3927" lon="6.79093">
        <ele>2516.39</ele>
        <time>2018-03-24T13:31:38Z</time>
      </trkpt>
      <trkpt lat="45.39267" lon="6.79096">
        <ele>2517.35</ele>
        <time>2018-03-24T13:31:51Z</time>
      </trkpt>
      <trkpt lat="45.39261" lon="6.79098">
        <ele>2518.31</ele>
        <time>2018-03-24T13:32:03Z</time>
      </trkpt>
      <trkpt lat="45.39259" lon="6.79102">
        <ele>2519.27</ele>
        <time>2018-03-24T13:32:16Z</time>
      </trkpt>
      <trkpt lat="45.39253" lon="6.79104">
        <ele>2519.75</ele>
        <time>2018-03-24T13:32:36Z</time>
      </trkpt>
      <trkpt lat="45.39246" lon="6.79107">
        <ele>2519.27</ele>
        <time>2018-03-24T13:32:51Z</time>
      </trkpt>
      <trkpt lat="45.3924" lon="6.79109">
        <ele>2518.79</ele>
        <time>2018-03-24T13:33:04Z</time>
      </trkpt>
      <trkpt lat="45.39233" lon="6.79105">
        <ele>2518.31</ele>
        <time>2018-03-24T13:33:16Z</time>
      </trkpt>
      <trkpt lat="45.39227" lon="6.79099">
        <ele>2517.35</ele>
        <time>2018-03-24T13:33:26Z</time>
      </trkpt>
      <trkpt lat="45.39224" lon="6.79092">
        <ele>2518.79</ele>
        <time>2018-03-24T13:33:34Z</time>
      </trkpt>
      <trkpt lat="45.39221" lon="6.79086">
        <ele>2518.31</ele>
        <time>2018-03-24T13:33:43Z</time>
      </trkpt>
      <trkpt lat="45.39205" lon="6.79074">
        <ele>2515.91</ele>
        <time>2018-03-24T13:33:52Z</time>
      </trkpt>
      <trkpt lat="45.39201" lon="6.79075">
        <ele>2516.87</ele>
        <time>2018-03-24T13:34:01Z</time>
      </trkpt>
      <trkpt lat="45.39197" lon="6.79076">
        <ele>2515.91</ele>
        <time>2018-03-24T13:34:09Z</time>
      </trkpt>
      <trkpt lat="45.39196" lon="6.79077">
        <ele>2515.91</ele>
        <time>2018-03-24T13:34:22Z</time>
      </trkpt>
      <trkpt lat="45.39196" lon="6.79078">
        <ele>2516.39</ele>
        <time>2018-03-24T13:34:36Z</time>
      </trkpt>
      <trkpt lat="45.39195" lon="6.79078">
        <ele>2515.43</ele>
        <time>2018-03-24T13:34:51Z</time>
      </trkpt>
      <trkpt lat="45.39195" lon="6.79077">
        <ele>2516.39</ele>
        <time>2018-03-24T13:35:04Z</time>
      </trkpt>
      <trkpt lat="45.39195" lon="6.79078">
        <ele>2516.39</ele>
        <time>2018-03-24T13:35:21Z</time>
      </trkpt>
      <trkpt lat="45.39195" lon="6.79078">
        <ele>2515.43</ele>
        <time>2018-03-24T13:35:38Z</time>
      </trkpt>
      <trkpt lat="45.39195" lon="6.79079">
        <ele>2517.35</ele>
        <time>2018-03-24T13:35:46Z</time>
      </trkpt>
      <trkpt lat="45.39195" lon="6.79079">
        <ele>2516.87</ele>
        <time>2018-03-24T13:36:01Z</time>
      </trkpt>
      <trkpt lat="45.39195" lon="6.79081">
        <ele>2517.35</ele>
        <time>2018-03-24T13:36:17Z</time>
      </trkpt>
      <trkpt lat="45.39195" lon="6.7908">
        <ele>2516.87</ele>
        <time>2018-03-24T13:36:31Z</time>
      </trkpt>
      <trkpt lat="45.39195" lon="6.79079">
        <ele>2516.39</ele>
        <time>2018-03-24T13:36:42Z</time>
      </trkpt>
      <trkpt lat="45.39196" lon="6.79084">
        <ele>2516.39</ele>
        <time>2018-03-24T13:36:55Z</time>
      </trkpt>
      <trkpt lat="45.39197" lon="6.79087">
        <ele>2517.35</ele>
        <time>2018-03-24T13:37:17Z</time>
      </trkpt>
      <trkpt lat="45.39202" lon="6.79089">
        <ele>2515.91</ele>
        <time>2018-03-24T13:37:39Z</time>
      </trkpt>
      <trkpt lat="45.39202" lon="6.79083">
        <ele>2515.91</ele>
        <time>2018-03-24T13:37:45Z</time>
      </trkpt>
      <trkpt lat="45.392" lon="6.79072">
        <ele>2514.95</ele>
        <time>2018-03-24T13:37:52Z</time>
      </trkpt>
      <trkpt lat="45.39196" lon="6.7907">
        <ele>2516.39</ele>
        <time>2018-03-24T13:38:14Z</time>
      </trkpt>
      <trkpt lat="45.39199" lon="6.79084">
        <ele>2515.91</ele>
        <time>2018-03-24T13:38:38Z</time>
      </trkpt>
      <trkpt lat="45.39201" lon="6.79086">
        <ele>2515.91</ele>
        <time>2018-03-24T13:38:41Z</time>
      </trkpt>
      <trkpt lat="45.39209" lon="6.79109">
        <ele>2515.91</ele>
        <time>2018-03-24T13:39:03Z</time>
      </trkpt>
      <trkpt lat="45.39206" lon="6.79111">
        <ele>2515.91</ele>
        <time>2018-03-24T13:39:07Z</time>
      </trkpt>
      <trkpt lat="45.39205" lon="6.79111">
        <ele>2515.91</ele>
        <time>2018-03-24T13:39:08Z</time>
      </trkpt>
      <trkpt lat="45.39203" lon="6.79112">
        <ele>2515.91</ele>
        <time>2018-03-24T13:39:09Z</time>
      </trkpt>
      <trkpt lat="45.39201" lon="6.79115">
        <ele>2515.91</ele>
        <time>2018-03-24T13:39:27Z</time>
      </trkpt>
      <trkpt lat="45.39206" lon="6.79112">
        <ele>2516.39</ele>
        <time>2018-03-24T13:39:48Z</time>
      </trkpt>
      <trkpt lat="45.39208" lon="6.79119">
        <ele>2514.95</ele>
        <time>2018-03-24T13:39:57Z</time>
      </trkpt>
      <trkpt lat="45.39205" lon="6.79073">
        <ele>2518.79</ele>
        <time>2018-03-24T13:42:44Z</time>
      </trkpt>
      <trkpt lat="45.39199" lon="6.79078">
        <ele>2518.79</ele>
        <time>2018-03-24T13:43:03Z</time>
      </trkpt>
      <trkpt lat="45.39196" lon="6.79078">
        <ele>2519.75</ele>
        <time>2018-03-24T13:43:24Z</time>
      </trkpt>
      <trkpt lat="45.39202" lon="6.79083">
        <ele>2518.31</ele>
        <time>2018-03-24T13:43:51Z</time>
      </trkpt>
      <trkpt lat="45.39198" lon="6.79081">
        <ele>2518.79</ele>
        <time>2018-03-24T13:44:25Z</time>
      </trkpt>
      <trkpt lat="45.39193" lon="6.79074">
        <ele>2518.31</ele>
        <time>2018-03-24T13:44:51Z</time>
      </trkpt>
      <trkpt lat="45.3919" lon="6.79076">
        <ele>2519.27</ele>
        <time>2018-03-24T13:45:21Z</time>
      </trkpt>
      <trkpt lat="45.39191" lon="6.79077">
        <ele>2518.31</ele>
        <time>2018-03-24T13:45:27Z</time>
      </trkpt>
      <trkpt lat="45.39191" lon="6.79078">
        <ele>2520.23</ele>
        <time>2018-03-24T13:45:28Z</time>
      </trkpt>
      <trkpt lat="45.39197" lon="6.7908">
        <ele>2520.23</ele>
        <time>2018-03-24T13:45:54Z</time>
      </trkpt>
      <trkpt lat="45.392" lon="6.79081">
        <ele>2518.79</ele>
        <time>2018-03-24T13:46:02Z</time>
      </trkpt>
      <trkpt lat="45.39196" lon="6.79078">
        <ele>2540.42</ele>
        <time>2018-03-25T06:10:38Z</time>
      </trkpt>
      <trkpt lat="45.39198" lon="6.79078">
        <ele>2541.38</ele>
        <time>2018-03-25T06:10:51Z</time>
      </trkpt>
      <trkpt lat="45.39197" lon="6.79088">
        <ele>2541.86</ele>
        <time>2018-03-25T06:11:04Z</time>
      </trkpt>
      <trkpt lat="45.39195" lon="6.7909">
        <ele>2542.82</ele>
        <time>2018-03-25T06:11:19Z</time>
      </trkpt>
      <trkpt lat="45.39195" lon="6.79081">
        <ele>2542.34</ele>
        <time>2018-03-25T06:11:34Z</time>
      </trkpt>
      <trkpt lat="45.39198" lon="6.79078">
        <ele>2541.86</ele>
        <time>2018-03-25T06:11:52Z</time>
      </trkpt>
      <trkpt lat="45.39196" lon="6.79076">
        <ele>2540.9</ele>
        <time>2018-03-25T06:11:54Z</time>
      </trkpt>
      <trkpt lat="45.39196" lon="6.79063">
        <ele>2542.34</ele>
        <time>2018-03-25T06:12:08Z</time>
      </trkpt>
      <trkpt lat="45.39193" lon="6.79068">
        <ele>2538.5</ele>
        <time>2018-03-25T06:12:12Z</time>
      </trkpt>
      <trkpt lat="45.39194" lon="6.79068">
        <ele>2537.06</ele>
        <time>2018-03-25T06:12:14Z</time>
      </trkpt>
      <trkpt lat="45.39195" lon="6.79066">
        <ele>2534.65</ele>
        <time>2018-03-25T06:12:17Z</time>
      </trkpt>
      <trkpt lat="45.39194" lon="6.79064">
        <ele>2530.33</ele>
        <time>2018-03-25T06:12:22Z</time>
      </trkpt>
      <trkpt lat="45.39194" lon="6.79064">
        <ele>2528.4</ele>
        <time>2018-03-25T06:12:25Z</time>
      </trkpt>
      <trkpt lat="45.39194" lon="6.79066">
        <ele>2526.96</ele>
        <time>2018-03-25T06:12:29Z</time>
      </trkpt>
      <trkpt lat="45.39194" lon="6.79066">
        <ele>2525.04</ele>
        <time>2018-03-25T06:12:31Z</time>
      </trkpt>
      <trkpt lat="45.39194" lon="6.79067">
        <ele>2523.6</ele>
        <time>2018-03-25T06:12:35Z</time>
      </trkpt>
      <trkpt lat="45.39192" lon="6.79062">
        <ele>2520.23</ele>
        <time>2018-03-25T06:12:44Z</time>
      </trkpt>
      <trkpt lat="45.39194" lon="6.79056">
        <ele>2520.23</ele>
        <time>2018-03-25T06:12:55Z</time>
      </trkpt>
      <trkpt lat="45.39194" lon="6.79058">
        <ele>2520.23</ele>
        <time>2018-03-25T06:13:05Z</time>
      </trkpt>
      <trkpt lat="45.39195" lon="6.79056">
        <ele>2519.27</ele>
        <time>2018-03-25T06:13:11Z</time>
      </trkpt>
      <trkpt lat="45.39196" lon="6.79056">
        <ele>2520.71</ele>
        <time>2018-03-25T06:13:13Z</time>
      </trkpt>
      <trkpt lat="45.39197" lon="6.79053">
        <ele>2519.75</ele>
        <time>2018-03-25T06:13:31Z</time>
      </trkpt>
      <trkpt lat="45.39197" lon="6.79056">
        <ele>2520.23</ele>
        <time>2018-03-25T06:13:33Z</time>
      </trkpt>
      <trkpt lat="45.39189" lon="6.79066">
        <ele>2520.71</ele>
        <time>2018-03-25T06:13:46Z</time>
      </trkpt>
      <trkpt lat="45.39192" lon="6.79061">
        <ele>2520.23</ele>
        <time>2018-03-25T06:14:02Z</time>
      </trkpt>
      <trkpt lat="45.39196" lon="6.79059">
        <ele>2520.71</ele>
        <time>2018-03-25T06:14:21Z</time>
      </trkpt>
      <trkpt lat="45.39194" lon="6.79063">
        <ele>2520.71</ele>
        <time>2018-03-25T06:14:33Z</time>
      </trkpt>
      <trkpt lat="45.39194" lon="6.79059">
        <ele>2520.23</ele>
        <time>2018-03-25T06:14:55Z</time>
      </trkpt>
      <trkpt lat="45.39195" lon="6.79061">
        <ele>2521.19</ele>
        <time>2018-03-25T06:15:12Z</time>
      </trkpt>
      <trkpt lat="45.39194" lon="6.79062">
        <ele>2521.68</ele>
        <time>2018-03-25T06:15:26Z</time>
      </trkpt>
      <trkpt lat="45.39188" lon="6.79063">
        <ele>2521.19</ele>
        <time>2018-03-25T06:15:54Z</time>
      </trkpt>
      <trkpt lat="45.39186" lon="6.79065">
        <ele>2521.68</ele>
        <time>2018-03-25T06:15:57Z</time>
      </trkpt>
      <trkpt lat="45.39182" lon="6.79072">
        <ele>2522.16</ele>
        <time>2018-03-25T06:16:10Z</time>
      </trkpt>
      <trkpt lat="45.39182" lon="6.79075">
        <ele>2521.68</ele>
        <time>2018-03-25T06:16:32Z</time>
      </trkpt>
      <trkpt lat="45.39179" lon="6.7908">
        <ele>2521.19</ele>
        <time>2018-03-25T06:16:45Z</time>
      </trkpt>
      <trkpt lat="45.39172" lon="6.79087">
        <ele>2521.19</ele>
        <time>2018-03-25T06:16:59Z</time>
      </trkpt>
      <trkpt lat="45.39165" lon="6.79093">
        <ele>2519.27</ele>
        <time>2018-03-25T06:17:11Z</time>
      </trkpt>
      <trkpt lat="45.39157" lon="6.79099">
        <ele>2519.27</ele>
        <time>2018-03-25T06:17:24Z</time>
      </trkpt>
      <trkpt lat="45.39151" lon="6.79106">
        <ele>2518.79</ele>
        <time>2018-03-25T06:17:36Z</time>
      </trkpt>
      <trkpt lat="45.39143" lon="6.79113">
        <ele>2518.79</ele>
        <time>2018-03-25T06:17:49Z</time>
      </trkpt>
      <trkpt lat="45.39135" lon="6.79115">
        <ele>2517.83</ele>
        <time>2018-03-25T06:18:03Z</time>
      </trkpt>
      <trkpt lat="45.39126" lon="6.79117">
        <ele>2517.35</ele>
        <time>2018-03-25T06:18:16Z</time>
      </trkpt>
      <trkpt lat="45.39115" lon="6.79116">
        <ele>2517.35</ele>
        <time>2018-03-25T06:18:30Z</time>
      </trkpt>
      <trkpt lat="45.39104" lon="6.79118">
        <ele>2516.87</ele>
        <time>2018-03-25T06:18:44Z</time>
      </trkpt>
      <trkpt lat="45.39103" lon="6.79118">
        <ele>2516.87</ele>
        <time>2018-03-25T06:18:45Z</time>
      </trkpt>
      <trkpt lat="45.39094" lon="6.79119">
        <ele>2516.39</ele>
        <time>2018-03-25T06:18:56Z</time>
      </trkpt>
      <trkpt lat="45.3908" lon="6.7912">
        <ele>2516.39</ele>
        <time>2018-03-25T06:19:13Z</time>
      </trkpt>
      <trkpt lat="45.3907" lon="6.7912">
        <ele>2517.35</ele>
        <time>2018-03-25T06:19:27Z</time>
      </trkpt>
      <trkpt lat="45.39061" lon="6.7912">
        <ele>2517.35</ele>
        <time>2018-03-25T06:19:42Z</time>
      </trkpt>
      <trkpt lat="45.39059" lon="6.79121">
        <ele>2518.79</ele>
        <time>2018-03-25T06:19:45Z</time>
      </trkpt>
      <trkpt lat="45.39052" lon="6.79121">
        <ele>2519.27</ele>
        <time>2018-03-25T06:20:00Z</time>
      </trkpt>
      <trkpt lat="45.39054" lon="6.79121">
        <ele>2518.31</ele>
        <time>2018-03-25T06:20:31Z</time>
      </trkpt>
      <trkpt lat="45.39054" lon="6.79124">
        <ele>2518.79</ele>
        <time>2018-03-25T06:21:03Z</time>
      </trkpt>
      <trkpt lat="45.39047" lon="6.79127">
        <ele>2519.27</ele>
        <time>2018-03-25T06:21:15Z</time>
      </trkpt>
      <trkpt lat="45.39043" lon="6.79138">
        <ele>2521.19</ele>
        <time>2018-03-25T06:21:28Z</time>
      </trkpt>
      <trkpt lat="45.39039" lon="6.79145">
        <ele>2523.12</ele>
        <time>2018-03-25T06:21:40Z</time>
      </trkpt>
      <trkpt lat="45.39037" lon="6.79136">
        <ele>2524.56</ele>
        <time>2018-03-25T06:21:51Z</time>
      </trkpt>
      <trkpt lat="45.39036" lon="6.79128">
        <ele>2524.08</ele>
        <time>2018-03-25T06:22:03Z</time>
      </trkpt>
      <trkpt lat="45.39036" lon="6.7912">
        <ele>2523.6</ele>
        <time>2018-03-25T06:22:21Z</time>
      </trkpt>
      <trkpt lat="45.39034" lon="6.79111">
        <ele>2523.6</ele>
        <time>2018-03-25T06:22:33Z</time>
      </trkpt>
      <trkpt lat="45.39031" lon="6.791">
        <ele>2525.52</ele>
        <time>2018-03-25T06:22:47Z</time>
      </trkpt>
      <trkpt lat="45.39027" lon="6.79088">
        <ele>2527.92</ele>
        <time>2018-03-25T06:23:01Z</time>
      </trkpt>
      <trkpt lat="45.39024" lon="6.79079">
        <ele>2529.37</ele>
        <time>2018-03-25T06:23:13Z</time>
      </trkpt>
      <trkpt lat="45.39019" lon="6.79064">
        <ele>2530.81</ele>
        <time>2018-03-25T06:23:28Z</time>
      </trkpt>
      <trkpt lat="45.39014" lon="6.79054">
        <ele>2532.25</ele>
        <time>2018-03-25T06:23:42Z</time>
      </trkpt>
      <trkpt lat="45.39009" lon="6.79046">
        <ele>2533.69</ele>
        <time>2018-03-25T06:23:55Z</time>
      </trkpt>
      <trkpt lat="45.39004" lon="6.7904">
        <ele>2536.1</ele>
        <time>2018-03-25T06:24:09Z</time>
      </trkpt>
      <trkpt lat="45.38998" lon="6.79038">
        <ele>2537.54</ele>
        <time>2018-03-25T06:24:22Z</time>
      </trkpt>
      <trkpt lat="45.38989" lon="6.79035">
        <ele>2539.46</ele>
        <time>2018-03-25T06:24:36Z</time>
      </trkpt>
      <trkpt lat="45.38984" lon="6.79035">
        <ele>2539.46</ele>
        <time>2018-03-25T06:24:44Z</time>
      </trkpt>
      <trkpt lat="45.38978" lon="6.79034">
        <ele>2542.34</ele>
        <time>2018-03-25T06:24:53Z</time>
      </trkpt>
      <trkpt lat="45.3897" lon="6.79031">
        <ele>2542.82</ele>
        <time>2018-03-25T06:25:07Z</time>
      </trkpt>
      <trkpt lat="45.38964" lon="6.79025">
        <ele>2542.82</ele>
        <time>2018-03-25T06:25:19Z</time>
      </trkpt>
      <trkpt lat="45.38952" lon="6.79026">
        <ele>2541.86</ele>
        <time>2018-03-25T06:25:32Z</time>
      </trkpt>
      <trkpt lat="45.38935" lon="6.79023">
        <ele>2540.42</ele>
        <time>2018-03-25T06:25:45Z</time>
      </trkpt>
      <trkpt lat="45.38924" lon="6.79016">
        <ele>2537.06</ele>
        <time>2018-03-25T06:25:51Z</time>
      </trkpt>
      <trkpt lat="45.38915" lon="6.79007">
        <ele>2536.58</ele>
        <time>2018-03-25T06:26:02Z</time>
      </trkpt>
      <trkpt lat="45.38904" lon="6.78995">
        <ele>2536.1</ele>
        <time>2018-03-25T06:26:16Z</time>
      </trkpt>
      <trkpt lat="45.38903" lon="6.78994">
        <ele>2536.1</ele>
        <time>2018-03-25T06:26:18Z</time>
      </trkpt>
      <trkpt lat="45.38892" lon="6.78982">
        <ele>2534.17</ele>
        <time>2018-03-25T06:26:30Z</time>
      </trkpt>
      <trkpt lat="45.38882" lon="6.78973">
        <ele>2536.58</ele>
        <time>2018-03-25T06:26:44Z</time>
      </trkpt>
      <trkpt lat="45.38872" lon="6.78969">
        <ele>2537.06</ele>
        <time>2018-03-25T06:26:58Z</time>
      </trkpt>
      <trkpt lat="45.38872" lon="6.7897">
        <ele>2537.54</ele>
        <time>2018-03-25T06:27:11Z</time>
      </trkpt>
      <trkpt lat="45.3887" lon="6.78968">
        <ele>2538.02</ele>
        <time>2018-03-25T06:27:16Z</time>
      </trkpt>
      <trkpt lat="45.38859" lon="6.78965">
        <ele>2538.98</ele>
        <time>2018-03-25T06:27:29Z</time>
      </trkpt>
      <trkpt lat="45.3885" lon="6.78965">
        <ele>2539.94</ele>
        <time>2018-03-25T06:27:42Z</time>
      </trkpt>
      <trkpt lat="45.38844" lon="6.78963">
        <ele>2540.9</ele>
        <time>2018-03-25T06:27:56Z</time>
      </trkpt>
      <trkpt lat="45.38844" lon="6.78959">
        <ele>2540.42</ele>
        <time>2018-03-25T06:28:06Z</time>
      </trkpt>
      <trkpt lat="45.38847" lon="6.78962">
        <ele>2540.42</ele>
        <time>2018-03-25T06:28:25Z</time>
      </trkpt>
      <trkpt lat="45.38849" lon="6.78962">
        <ele>2539.94</ele>
        <time>2018-03-25T06:28:42Z</time>
      </trkpt>
      <trkpt lat="45.38849" lon="6.78962">
        <ele>2538.98</ele>
        <time>2018-03-25T06:28:56Z</time>
      </trkpt>
      <trkpt lat="45.38853" lon="6.78963">
        <ele>2538.98</ele>
        <time>2018-03-25T06:29:10Z</time>
      </trkpt>
      <trkpt lat="45.38856" lon="6.78963">
        <ele>2538.02</ele>
        <time>2018-03-25T06:29:28Z</time>
      </trkpt>
      <trkpt lat="45.38858" lon="6.78961">
        <ele>2538.5</ele>
        <time>2018-03-25T06:29:31Z</time>
      </trkpt>
      <trkpt lat="45.38873" lon="6.78954">
        <ele>2534.17</ele>
        <time>2018-03-25T06:29:38Z</time>
      </trkpt>
      <trkpt lat="45.38877" lon="6.78952">
        <ele>2532.73</ele>
        <time>2018-03-25T06:29:39Z</time>
      </trkpt>
      <trkpt lat="45.38886" lon="6.78937">
        <ele>2529.37</ele>
        <time>2018-03-25T06:29:43Z</time>
      </trkpt>
      <trkpt lat="45.38889" lon="6.78926">
        <ele>2526.96</ele>
        <time>2018-03-25T06:29:53Z</time>
      </trkpt>
      <trkpt lat="45.38888" lon="6.78927">
        <ele>2525.52</ele>
        <time>2018-03-25T06:30:01Z</time>
      </trkpt>
      <trkpt lat="45.38883" lon="6.78928">
        <ele>2526.48</ele>
        <time>2018-03-25T06:30:18Z</time>
      </trkpt>
      <trkpt lat="45.38886" lon="6.78928">
        <ele>2526</ele>
        <time>2018-03-25T06:30:42Z</time>
      </trkpt>
      <trkpt lat="45.38887" lon="6.78928">
        <ele>2525.52</ele>
        <time>2018-03-25T06:31:10Z</time>
      </trkpt>
      <trkpt lat="45.38885" lon="6.78928">
        <ele>2526</ele>
        <time>2018-03-25T06:31:33Z</time>
      </trkpt>
      <trkpt lat="45.38882" lon="6.78925">
        <ele>2525.52</ele>
        <time>2018-03-25T06:31:38Z</time>
      </trkpt>
      <trkpt lat="45.38873" lon="6.78918">
        <ele>2523.6</ele>
        <time>2018-03-25T06:31:47Z</time>
      </trkpt>
      <trkpt lat="45.38863" lon="6.78913">
        <ele>2524.08</ele>
        <time>2018-03-25T06:32:01Z</time>
      </trkpt>
      <trkpt lat="45.38847" lon="6.78906">
        <ele>2521.19</ele>
        <time>2018-03-25T06:32:06Z</time>
      </trkpt>
      <trkpt lat="45.38843" lon="6.78905">
        <ele>2519.75</ele>
        <time>2018-03-25T06:32:08Z</time>
      </trkpt>
      <trkpt lat="45.38841" lon="6.78908">
        <ele>2520.23</ele>
        <time>2018-03-25T06:32:12Z</time>
      </trkpt>
      <trkpt lat="45.38839" lon="6.78908">
        <ele>2519.27</ele>
        <time>2018-03-25T06:32:24Z</time>
      </trkpt>
      <trkpt lat="45.38827" lon="6.78907">
        <ele>2519.75</ele>
        <time>2018-03-25T06:32:37Z</time>
      </trkpt>
      <trkpt lat="45.38818" lon="6.78914">
        <ele>2520.23</ele>
        <time>2018-03-25T06:32:51Z</time>
      </trkpt>
      <trkpt lat="45.38806" lon="6.7892">
        <ele>2521.19</ele>
        <time>2018-03-25T06:33:06Z</time>
      </trkpt>
      <trkpt lat="45.38802" lon="6.78923">
        <ele>2522.64</ele>
        <time>2018-03-25T06:33:14Z</time>
      </trkpt>
      <trkpt lat="45.38802" lon="6.78925">
        <ele>2522.16</ele>
        <time>2018-03-25T06:33:32Z</time>
      </trkpt>
      <trkpt lat="45.38794" lon="6.78932">
        <ele>2522.64</ele>
        <time>2018-03-25T06:33:46Z</time>
      </trkpt>
      <trkpt lat="45.38787" lon="6.78936">
        <ele>2524.08</ele>
        <time>2018-03-25T06:33:59Z</time>
      </trkpt>
      <trkpt lat="45.38779" lon="6.78947">
        <ele>2526</ele>
        <time>2018-03-25T06:34:13Z</time>
      </trkpt>
      <trkpt lat="45.38775" lon="6.78955">
        <ele>2525.52</ele>
        <time>2018-03-25T06:34:28Z</time>
      </trkpt>
      <trkpt lat="45.38776" lon="6.78955">
        <ele>2526.96</ele>
        <time>2018-03-25T06:34:47Z</time>
      </trkpt>
      <trkpt lat="45.3877" lon="6.78948">
        <ele>2528.89</ele>
        <time>2018-03-25T06:34:59Z</time>
      </trkpt>
      <trkpt lat="45.38764" lon="6.78937">
        <ele>2530.33</ele>
        <time>2018-03-25T06:35:14Z</time>
      </trkpt>
      <trkpt lat="45.38756" lon="6.78932">
        <ele>2532.25</ele>
        <time>2018-03-25T06:35:29Z</time>
      </trkpt>
      <trkpt lat="45.38751" lon="6.78923">
        <ele>2534.65</ele>
        <time>2018-03-25T06:35:45Z</time>
      </trkpt>
      <trkpt lat="45.38746" lon="6.78913">
        <ele>2536.1</ele>
        <time>2018-03-25T06:36:00Z</time>
      </trkpt>
      <trkpt lat="45.3874" lon="6.78903">
        <ele>2538.02</ele>
        <time>2018-03-25T06:36:15Z</time>
      </trkpt>
      <trkpt lat="45.38734" lon="6.78894">
        <ele>2539.94</ele>
        <time>2018-03-25T06:36:30Z</time>
      </trkpt>
      <trkpt lat="45.38726" lon="6.78884">
        <ele>2541.38</ele>
        <time>2018-03-25T06:36:46Z</time>
      </trkpt>
      <trkpt lat="45.38718" lon="6.78878">
        <ele>2542.82</ele>
        <time>2018-03-25T06:37:03Z</time>
      </trkpt>
      <trkpt lat="45.3871" lon="6.78871">
        <ele>2544.75</ele>
        <time>2018-03-25T06:37:18Z</time>
      </trkpt>
      <trkpt lat="45.38704" lon="6.78875">
        <ele>2547.63</ele>
        <time>2018-03-25T06:37:30Z</time>
      </trkpt>
      <trkpt lat="45.38704" lon="6.78886">
        <ele>2548.59</ele>
        <time>2018-03-25T06:37:44Z</time>
      </trkpt>
      <trkpt lat="45.38704" lon="6.78889">
        <ele>2551</ele>
        <time>2018-03-25T06:37:50Z</time>
      </trkpt>
      <trkpt lat="45.38705" lon="6.789">
        <ele>2550.03</ele>
        <time>2018-03-25T06:38:05Z</time>
      </trkpt>
      <trkpt lat="45.38704" lon="6.78902">
        <ele>2551</ele>
        <time>2018-03-25T06:38:07Z</time>
      </trkpt>
      <trkpt lat="45.38702" lon="6.78914">
        <ele>2551.48</ele>
        <time>2018-03-25T06:38:22Z</time>
      </trkpt>
      <trkpt lat="45.38698" lon="6.78928">
        <ele>2554.84</ele>
        <time>2018-03-25T06:38:38Z</time>
      </trkpt>
      <trkpt lat="45.38696" lon="6.78941">
        <ele>2555.8</ele>
        <time>2018-03-25T06:38:54Z</time>
      </trkpt>
      <trkpt lat="45.38692" lon="6.78946">
        <ele>2557.73</ele>
        <time>2018-03-25T06:39:07Z</time>
      </trkpt>
      <trkpt lat="45.38688" lon="6.78936">
        <ele>2559.17</ele>
        <time>2018-03-25T06:39:21Z</time>
      </trkpt>
      <trkpt lat="45.38685" lon="6.78924">
        <ele>2560.61</ele>
        <time>2018-03-25T06:39:36Z</time>
      </trkpt>
      <trkpt lat="45.3868" lon="6.78916">
        <ele>2561.57</ele>
        <time>2018-03-25T06:39:50Z</time>
      </trkpt>
      <trkpt lat="45.38675" lon="6.78906">
        <ele>2562.53</ele>
        <time>2018-03-25T06:40:04Z</time>
      </trkpt>
      <trkpt lat="45.38668" lon="6.78899">
        <ele>2563.97</ele>
        <time>2018-03-25T06:40:19Z</time>
      </trkpt>
      <trkpt lat="45.38659" lon="6.78899">
        <ele>2565.42</ele>
        <time>2018-03-25T06:40:33Z</time>
      </trkpt>
      <trkpt lat="45.38657" lon="6.78899">
        <ele>2565.9</ele>
        <time>2018-03-25T06:40:46Z</time>
      </trkpt>
      <trkpt lat="45.38658" lon="6.78895">
        <ele>2565.9</ele>
        <time>2018-03-25T06:41:05Z</time>
      </trkpt>
      <trkpt lat="45.38658" lon="6.78895">
        <ele>2566.38</ele>
        <time>2018-03-25T06:41:26Z</time>
      </trkpt>
      <trkpt lat="45.38659" lon="6.78895">
        <ele>2565.9</ele>
        <time>2018-03-25T06:41:44Z</time>
      </trkpt>
      <trkpt lat="45.38658" lon="6.78895">
        <ele>2565.42</ele>
        <time>2018-03-25T06:42:04Z</time>
      </trkpt>
      <trkpt lat="45.38657" lon="6.78894">
        <ele>2566.38</ele>
        <time>2018-03-25T06:42:30Z</time>
      </trkpt>
      <trkpt lat="45.3865" lon="6.7889">
        <ele>2568.3</ele>
        <time>2018-03-25T06:42:44Z</time>
      </trkpt>
      <trkpt lat="45.38641" lon="6.78887">
        <ele>2569.26</ele>
        <time>2018-03-25T06:42:59Z</time>
      </trkpt>
      <trkpt lat="45.38631" lon="6.78889">
        <ele>2571.18</ele>
        <time>2018-03-25T06:43:13Z</time>
      </trkpt>
      <trkpt lat="45.38623" lon="6.78889">
        <ele>2571.66</ele>
        <time>2018-03-25T06:43:27Z</time>
      </trkpt>
      <trkpt lat="45.38617" lon="6.7889">
        <ele>2573.11</ele>
        <time>2018-03-25T06:43:40Z</time>
      </trkpt>
      <trkpt lat="45.3861" lon="6.7889">
        <ele>2574.55</ele>
        <time>2018-03-25T06:43:53Z</time>
      </trkpt>
      <trkpt lat="45.38603" lon="6.78887">
        <ele>2575.51</ele>
        <time>2018-03-25T06:44:08Z</time>
      </trkpt>
      <trkpt lat="45.38596" lon="6.78885">
        <ele>2577.43</ele>
        <time>2018-03-25T06:44:23Z</time>
      </trkpt>
      <trkpt lat="45.3859" lon="6.78887">
        <ele>2577.91</ele>
        <time>2018-03-25T06:44:36Z</time>
      </trkpt>
      <trkpt lat="45.38583" lon="6.78887">
        <ele>2578.39</ele>
        <time>2018-03-25T06:44:49Z</time>
      </trkpt>
      <trkpt lat="45.38579" lon="6.78884">
        <ele>2581.28</ele>
        <time>2018-03-25T06:45:01Z</time>
      </trkpt>
      <trkpt lat="45.38577" lon="6.78876">
        <ele>2581.28</ele>
        <time>2018-03-25T06:45:14Z</time>
      </trkpt>
      <trkpt lat="45.38575" lon="6.78868">
        <ele>2582.24</ele>
        <time>2018-03-25T06:45:27Z</time>
      </trkpt>
      <trkpt lat="45.38571" lon="6.78859">
        <ele>2583.68</ele>
        <time>2018-03-25T06:45:41Z</time>
      </trkpt>
      <trkpt lat="45.38569" lon="6.7885">
        <ele>2584.16</ele>
        <time>2018-03-25T06:45:54Z</time>
      </trkpt>
      <trkpt lat="45.38568" lon="6.78846">
        <ele>2585.12</ele>
        <time>2018-03-25T06:46:07Z</time>
      </trkpt>
      <trkpt lat="45.38568" lon="6.78842">
        <ele>2586.08</ele>
        <time>2018-03-25T06:46:28Z</time>
      </trkpt>
      <trkpt lat="45.38564" lon="6.78841">
        <ele>2587.04</ele>
        <time>2018-03-25T06:46:41Z</time>
      </trkpt>
      <trkpt lat="45.38563" lon="6.78849">
        <ele>2587.53</ele>
        <time>2018-03-25T06:46:54Z</time>
      </trkpt>
      <trkpt lat="45.38559" lon="6.78857">
        <ele>2588.49</ele>
        <time>2018-03-25T06:47:08Z</time>
      </trkpt>
      <trkpt lat="45.38556" lon="6.7887">
        <ele>2589.93</ele>
        <time>2018-03-25T06:47:23Z</time>
      </trkpt>
      <trkpt lat="45.38554" lon="6.78882">
        <ele>2591.85</ele>
        <time>2018-03-25T06:47:38Z</time>
      </trkpt>
      <trkpt lat="45.38552" lon="6.7888">
        <ele>2591.85</ele>
        <time>2018-03-25T06:47:47Z</time>
      </trkpt>
      <trkpt lat="45.3855" lon="6.78868">
        <ele>2593.77</ele>
        <time>2018-03-25T06:48:01Z</time>
      </trkpt>
      <trkpt lat="45.38548" lon="6.78854">
        <ele>2594.25</ele>
        <time>2018-03-25T06:48:16Z</time>
      </trkpt>
      <trkpt lat="45.38545" lon="6.78844">
        <ele>2596.18</ele>
        <time>2018-03-25T06:48:30Z</time>
      </trkpt>
      <trkpt lat="45.3854" lon="6.7885">
        <ele>2596.66</ele>
        <time>2018-03-25T06:48:41Z</time>
      </trkpt>
      <trkpt lat="45.38536" lon="6.78862">
        <ele>2598.58</ele>
        <time>2018-03-25T06:48:57Z</time>
      </trkpt>
      <trkpt lat="45.38534" lon="6.78872">
        <ele>2599.54</ele>
        <time>2018-03-25T06:49:10Z</time>
      </trkpt>
      <trkpt lat="45.38533" lon="6.78883">
        <ele>2600.5</ele>
        <time>2018-03-25T06:49:24Z</time>
      </trkpt>
      <trkpt lat="45.38533" lon="6.78895">
        <ele>2601.95</ele>
        <time>2018-03-25T06:49:40Z</time>
      </trkpt>
      <trkpt lat="45.38531" lon="6.78898">
        <ele>2603.87</ele>
        <time>2018-03-25T06:49:51Z</time>
      </trkpt>
      <trkpt lat="45.38531" lon="6.78896">
        <ele>2603.87</ele>
        <time>2018-03-25T06:50:10Z</time>
      </trkpt>
      <trkpt lat="45.38527" lon="6.78894">
        <ele>2603.39</ele>
        <time>2018-03-25T06:50:45Z</time>
      </trkpt>
      <trkpt lat="45.38528" lon="6.78896">
        <ele>2603.39</ele>
        <time>2018-03-25T06:51:07Z</time>
      </trkpt>
      <trkpt lat="45.38529" lon="6.78894">
        <ele>2602.91</ele>
        <time>2018-03-25T06:51:25Z</time>
      </trkpt>
      <trkpt lat="45.38529" lon="6.78897">
        <ele>2603.87</ele>
        <time>2018-03-25T06:51:49Z</time>
      </trkpt>
      <trkpt lat="45.38528" lon="6.78899">
        <ele>2604.35</ele>
        <time>2018-03-25T06:52:12Z</time>
      </trkpt>
      <trkpt lat="45.38529" lon="6.78896">
        <ele>2603.87</ele>
        <time>2018-03-25T06:52:32Z</time>
      </trkpt>
      <trkpt lat="45.38529" lon="6.78898">
        <ele>2603.87</ele>
        <time>2018-03-25T06:52:58Z</time>
      </trkpt>
      <trkpt lat="45.38529" lon="6.78895">
        <ele>2603.39</ele>
        <time>2018-03-25T06:53:27Z</time>
      </trkpt>
      <trkpt lat="45.38525" lon="6.78887">
        <ele>2604.35</ele>
        <time>2018-03-25T06:53:40Z</time>
      </trkpt>
      <trkpt lat="45.38522" lon="6.78877">
        <ele>2604.83</ele>
        <time>2018-03-25T06:53:54Z</time>
      </trkpt>
      <trkpt lat="45.3852" lon="6.78866">
        <ele>2606.27</ele>
        <time>2018-03-25T06:54:09Z</time>
      </trkpt>
      <trkpt lat="45.38517" lon="6.78866">
        <ele>2606.75</ele>
        <time>2018-03-25T06:54:20Z</time>
      </trkpt>
      <trkpt lat="45.38512" lon="6.78875">
        <ele>2608.19</ele>
        <time>2018-03-25T06:54:33Z</time>
      </trkpt>
      <trkpt lat="45.3851" lon="6.78885">
        <ele>2609.16</ele>
        <time>2018-03-25T06:54:46Z</time>
      </trkpt>
      <trkpt lat="45.38509" lon="6.78894">
        <ele>2610.6</ele>
        <time>2018-03-25T06:54:59Z</time>
      </trkpt>
      <trkpt lat="45.38508" lon="6.78905">
        <ele>2612.04</ele>
        <time>2018-03-25T06:55:13Z</time>
      </trkpt>
      <trkpt lat="45.38508" lon="6.78915">
        <ele>2612.52</ele>
        <time>2018-03-25T06:55:27Z</time>
      </trkpt>
      <trkpt lat="45.38508" lon="6.78915">
        <ele>2612.52</ele>
        <time>2018-03-25T06:55:28Z</time>
      </trkpt>
      <trkpt lat="45.38508" lon="6.78925">
        <ele>2614.44</ele>
        <time>2018-03-25T06:55:41Z</time>
      </trkpt>
      <trkpt lat="45.38507" lon="6.78936">
        <ele>2616.37</ele>
        <time>2018-03-25T06:55:56Z</time>
      </trkpt>
      <trkpt lat="45.38508" lon="6.78945">
        <ele>2617.81</ele>
        <time>2018-03-25T06:56:10Z</time>
      </trkpt>
      <trkpt lat="45.38506" lon="6.78956">
        <ele>2619.73</ele>
        <time>2018-03-25T06:56:24Z</time>
      </trkpt>
      <trkpt lat="45.38506" lon="6.78957">
        <ele>2619.73</ele>
        <time>2018-03-25T06:56:38Z</time>
      </trkpt>
      <trkpt lat="45.38504" lon="6.78966">
        <ele>2620.69</ele>
        <time>2018-03-25T06:56:50Z</time>
      </trkpt>
      <trkpt lat="45.38503" lon="6.78975">
        <ele>2622.61</ele>
        <time>2018-03-25T06:57:04Z</time>
      </trkpt>
      <trkpt lat="45.38501" lon="6.78986">
        <ele>2624.54</ele>
        <time>2018-03-25T06:57:19Z</time>
      </trkpt>
      <trkpt lat="45.38498" lon="6.78996">
        <ele>2625.98</ele>
        <time>2018-03-25T06:57:35Z</time>
      </trkpt>
      <trkpt lat="45.38496" lon="6.79001">
        <ele>2625.5</ele>
        <time>2018-03-25T06:57:48Z</time>
      </trkpt>
      <trkpt lat="45.38494" lon="6.79004">
        <ele>2627.42</ele>
        <time>2018-03-25T06:58:05Z</time>
      </trkpt>
      <trkpt lat="45.38494" lon="6.79006">
        <ele>2626.94</ele>
        <time>2018-03-25T06:58:26Z</time>
      </trkpt>
      <trkpt lat="45.38496" lon="6.79004">
        <ele>2627.9</ele>
        <time>2018-03-25T06:58:38Z</time>
      </trkpt>
      <trkpt lat="45.38493" lon="6.79005">
        <ele>2626.46</ele>
        <time>2018-03-25T06:58:58Z</time>
      </trkpt>
      <trkpt lat="45.38497" lon="6.79003">
        <ele>2626.46</ele>
        <time>2018-03-25T06:59:14Z</time>
      </trkpt>
      <trkpt lat="45.38495" lon="6.79006">
        <ele>2626.94</ele>
        <time>2018-03-25T06:59:45Z</time>
      </trkpt>
      <trkpt lat="45.38491" lon="6.79004">
        <ele>2628.38</ele>
        <time>2018-03-25T06:59:59Z</time>
      </trkpt>
      <trkpt lat="45.3849" lon="6.78999">
        <ele>2629.34</ele>
        <time>2018-03-25T07:00:14Z</time>
      </trkpt>
      <trkpt lat="45.38485" lon="6.78991">
        <ele>2629.82</ele>
        <time>2018-03-25T07:00:28Z</time>
      </trkpt>
      <trkpt lat="45.38482" lon="6.78987">
        <ele>2631.75</ele>
        <time>2018-03-25T07:00:37Z</time>
      </trkpt>
      <trkpt lat="45.38478" lon="6.78981">
        <ele>2633.19</ele>
        <time>2018-03-25T07:00:50Z</time>
      </trkpt>
      <trkpt lat="45.38474" lon="6.78975">
        <ele>2633.19</ele>
        <time>2018-03-25T07:01:03Z</time>
      </trkpt>
      <trkpt lat="45.38469" lon="6.7897">
        <ele>2635.11</ele>
        <time>2018-03-25T07:01:16Z</time>
      </trkpt>
      <trkpt lat="45.3847" lon="6.7897">
        <ele>2634.63</ele>
        <time>2018-03-25T07:01:37Z</time>
      </trkpt>
      <trkpt lat="45.38466" lon="6.78973">
        <ele>2637.03</ele>
        <time>2018-03-25T07:01:50Z</time>
      </trkpt>
      <trkpt lat="45.38463" lon="6.78975">
        <ele>2637.03</ele>
        <time>2018-03-25T07:02:05Z</time>
      </trkpt>
      <trkpt lat="45.38462" lon="6.78977">
        <ele>2637.51</ele>
        <time>2018-03-25T07:02:10Z</time>
      </trkpt>
      <trkpt lat="45.38462" lon="6.78984">
        <ele>2638.96</ele>
        <time>2018-03-25T07:02:23Z</time>
      </trkpt>
      <trkpt lat="45.38462" lon="6.78988">
        <ele>2640.4</ele>
        <time>2018-03-25T07:02:37Z</time>
      </trkpt>
      <trkpt lat="45.38461" lon="6.78999">
        <ele>2642.32</ele>
        <time>2018-03-25T07:02:51Z</time>
      </trkpt>
      <trkpt lat="45.38458" lon="6.79009">
        <ele>2643.28</ele>
        <time>2018-03-25T07:03:06Z</time>
      </trkpt>
      <trkpt lat="45.38458" lon="6.79012">
        <ele>2644.24</ele>
        <time>2018-03-25T07:03:11Z</time>
      </trkpt>
      <trkpt lat="45.38454" lon="6.79024">
        <ele>2645.69</ele>
        <time>2018-03-25T07:03:24Z</time>
      </trkpt>
      <trkpt lat="45.38451" lon="6.7902">
        <ele>2646.17</ele>
        <time>2018-03-25T07:03:34Z</time>
      </trkpt>
      <trkpt lat="45.38447" lon="6.79012">
        <ele>2648.09</ele>
        <time>2018-03-25T07:03:49Z</time>
      </trkpt>
      <trkpt lat="45.38441" lon="6.79007">
        <ele>2649.53</ele>
        <time>2018-03-25T07:04:02Z</time>
      </trkpt>
      <trkpt lat="45.38441" lon="6.79013">
        <ele>2650.97</ele>
        <time>2018-03-25T07:04:13Z</time>
      </trkpt>
      <trkpt lat="45.38442" lon="6.79024">
        <ele>2651.93</ele>
        <time>2018-03-25T07:04:28Z</time>
      </trkpt>
      <trkpt lat="45.38442" lon="6.79035">
        <ele>2653.86</ele>
        <time>2018-03-25T07:04:44Z</time>
      </trkpt>
      <trkpt lat="45.38443" lon="6.79045">
        <ele>2653.86</ele>
        <time>2018-03-25T07:04:57Z</time>
      </trkpt>
      <trkpt lat="45.38442" lon="6.79054">
        <ele>2655.3</ele>
        <time>2018-03-25T07:05:10Z</time>
      </trkpt>
      <trkpt lat="45.3844" lon="6.79065">
        <ele>2657.22</ele>
        <time>2018-03-25T07:05:25Z</time>
      </trkpt>
      <trkpt lat="45.38439" lon="6.79076">
        <ele>2658.18</ele>
        <time>2018-03-25T07:05:40Z</time>
      </trkpt>
      <trkpt lat="45.38437" lon="6.7908">
        <ele>2659.62</ele>
        <time>2018-03-25T07:05:53Z</time>
      </trkpt>
      <trkpt lat="45.38436" lon="6.79084">
        <ele>2659.14</ele>
        <time>2018-03-25T07:06:07Z</time>
      </trkpt>
      <trkpt lat="45.38432" lon="6.79095">
        <ele>2660.59</ele>
        <time>2018-03-25T07:06:20Z</time>
      </trkpt>
      <trkpt lat="45.38427" lon="6.79106">
        <ele>2662.99</ele>
        <time>2018-03-25T07:06:33Z</time>
      </trkpt>
      <trkpt lat="45.38423" lon="6.79117">
        <ele>2663.95</ele>
        <time>2018-03-25T07:06:47Z</time>
      </trkpt>
      <trkpt lat="45.38421" lon="6.7912">
        <ele>2663.95</ele>
        <time>2018-03-25T07:07:05Z</time>
      </trkpt>
      <trkpt lat="45.38416" lon="6.79125">
        <ele>2666.83</ele>
        <time>2018-03-25T07:07:19Z</time>
      </trkpt>
      <trkpt lat="45.38417" lon="6.79118">
        <ele>2668.28</ele>
        <time>2018-03-25T07:07:30Z</time>
      </trkpt>
      <trkpt lat="45.38417" lon="6.79109">
        <ele>2669.24</ele>
        <time>2018-03-25T07:07:44Z</time>
      </trkpt>
      <trkpt lat="45.3841" lon="6.79112">
        <ele>2670.68</ele>
        <time>2018-03-25T07:07:57Z</time>
      </trkpt>
      <trkpt lat="45.38404" lon="6.7912">
        <ele>2671.64</ele>
        <time>2018-03-25T07:08:10Z</time>
      </trkpt>
      <trkpt lat="45.38399" lon="6.79127">
        <ele>2673.08</ele>
        <time>2018-03-25T07:08:24Z</time>
      </trkpt>
      <trkpt lat="45.38393" lon="6.79135">
        <ele>2675.49</ele>
        <time>2018-03-25T07:08:38Z</time>
      </trkpt>
      <trkpt lat="45.3839" lon="6.79142">
        <ele>2676.45</ele>
        <time>2018-03-25T07:08:54Z</time>
      </trkpt>
      <trkpt lat="45.38389" lon="6.79145">
        <ele>2677.89</ele>
        <time>2018-03-25T07:09:00Z</time>
      </trkpt>
      <trkpt lat="45.38386" lon="6.79152">
        <ele>2678.37</ele>
        <time>2018-03-25T07:09:14Z</time>
      </trkpt>
      <trkpt lat="45.38381" lon="6.79159">
        <ele>2679.81</ele>
        <time>2018-03-25T07:09:26Z</time>
      </trkpt>
      <trkpt lat="45.38378" lon="6.79164">
        <ele>2680.77</ele>
        <time>2018-03-25T07:09:36Z</time>
      </trkpt>
      <trkpt lat="45.38377" lon="6.7916">
        <ele>2682.7</ele>
        <time>2018-03-25T07:09:48Z</time>
      </trkpt>
      <trkpt lat="45.38377" lon="6.79149">
        <ele>2683.66</ele>
        <time>2018-03-25T07:10:02Z</time>
      </trkpt>
      <trkpt lat="45.38374" lon="6.79142">
        <ele>2684.62</ele>
        <time>2018-03-25T07:10:15Z</time>
      </trkpt>
      <trkpt lat="45.38372" lon="6.79135">
        <ele>2687.5</ele>
        <time>2018-03-25T07:10:28Z</time>
      </trkpt>
      <trkpt lat="45.38369" lon="6.79127">
        <ele>2688.46</ele>
        <time>2018-03-25T07:10:41Z</time>
      </trkpt>
      <trkpt lat="45.38365" lon="6.7912">
        <ele>2689.43</ele>
        <time>2018-03-25T07:10:54Z</time>
      </trkpt>
      <trkpt lat="45.38362" lon="6.79113">
        <ele>2691.83</ele>
        <time>2018-03-25T07:11:07Z</time>
      </trkpt>
      <trkpt lat="45.38359" lon="6.79104">
        <ele>2693.27</ele>
        <time>2018-03-25T07:11:21Z</time>
      </trkpt>
      <trkpt lat="45.38356" lon="6.79103">
        <ele>2692.79</ele>
        <time>2018-03-25T07:11:39Z</time>
      </trkpt>
      <trkpt lat="45.38356" lon="6.791">
        <ele>2692.79</ele>
        <time>2018-03-25T07:11:53Z</time>
      </trkpt>
      <trkpt lat="45.38356" lon="6.79098">
        <ele>2691.83</ele>
        <time>2018-03-25T07:12:09Z</time>
      </trkpt>
      <trkpt lat="45.38356" lon="6.791">
        <ele>2692.79</ele>
        <time>2018-03-25T07:12:31Z</time>
      </trkpt>
      <trkpt lat="45.38356" lon="6.79099">
        <ele>2692.79</ele>
        <time>2018-03-25T07:12:49Z</time>
      </trkpt>
      <trkpt lat="45.38357" lon="6.79099">
        <ele>2692.79</ele>
        <time>2018-03-25T07:13:07Z</time>
      </trkpt>
      <trkpt lat="45.38355" lon="6.79098">
        <ele>2692.31</ele>
        <time>2018-03-25T07:13:33Z</time>
      </trkpt>
      <trkpt lat="45.38357" lon="6.79094">
        <ele>2692.79</ele>
        <time>2018-03-25T07:13:56Z</time>
      </trkpt>
      <trkpt lat="45.38357" lon="6.79096">
        <ele>2693.75</ele>
        <time>2018-03-25T07:14:14Z</time>
      </trkpt>
      <trkpt lat="45.38355" lon="6.79098">
        <ele>2692.79</ele>
        <time>2018-03-25T07:14:35Z</time>
      </trkpt>
      <trkpt lat="45.38357" lon="6.791">
        <ele>2692.79</ele>
        <time>2018-03-25T07:14:50Z</time>
      </trkpt>
      <trkpt lat="45.38356" lon="6.79101">
        <ele>2693.75</ele>
        <time>2018-03-25T07:15:07Z</time>
      </trkpt>
      <trkpt lat="45.38349" lon="6.79096">
        <ele>2693.75</ele>
        <time>2018-03-25T07:15:20Z</time>
      </trkpt>
      <trkpt lat="45.3834" lon="6.79095">
        <ele>2696.15</ele>
        <time>2018-03-25T07:15:33Z</time>
      </trkpt>
      <trkpt lat="45.3833" lon="6.79092">
        <ele>2698.08</ele>
        <time>2018-03-25T07:15:47Z</time>
      </trkpt>
      <trkpt lat="45.38324" lon="6.7909">
        <ele>2700</ele>
        <time>2018-03-25T07:16:00Z</time>
      </trkpt>
      <trkpt lat="45.38318" lon="6.79087">
        <ele>2701.44</ele>
        <time>2018-03-25T07:16:13Z</time>
      </trkpt>
      <trkpt lat="45.38315" lon="6.79087">
        <ele>2702.88</ele>
        <time>2018-03-25T07:16:25Z</time>
      </trkpt>
      <trkpt lat="45.3831" lon="6.79087">
        <ele>2703.85</ele>
        <time>2018-03-25T07:16:37Z</time>
      </trkpt>
      <trkpt lat="45.38305" lon="6.79084">
        <ele>2705.77</ele>
        <time>2018-03-25T07:16:49Z</time>
      </trkpt>
      <trkpt lat="45.38301" lon="6.79082">
        <ele>2706.25</ele>
        <time>2018-03-25T07:17:00Z</time>
      </trkpt>
      <trkpt lat="45.38298" lon="6.79079">
        <ele>2708.65</ele>
        <time>2018-03-25T07:17:12Z</time>
      </trkpt>
      <trkpt lat="45.38294" lon="6.79084">
        <ele>2710.09</ele>
        <time>2018-03-25T07:17:26Z</time>
      </trkpt>
      <trkpt lat="45.38296" lon="6.79083">
        <ele>2709.61</ele>
        <time>2018-03-25T07:17:41Z</time>
      </trkpt>
      <trkpt lat="45.38295" lon="6.79086">
        <ele>2710.57</ele>
        <time>2018-03-25T07:17:58Z</time>
      </trkpt>
      <trkpt lat="45.38291" lon="6.7909">
        <ele>2712.5</ele>
        <time>2018-03-25T07:18:11Z</time>
      </trkpt>
      <trkpt lat="45.38287" lon="6.79095">
        <ele>2714.9</ele>
        <time>2018-03-25T07:18:26Z</time>
      </trkpt>
      <trkpt lat="45.38283" lon="6.79098">
        <ele>2715.86</ele>
        <time>2018-03-25T07:18:39Z</time>
      </trkpt>
      <trkpt lat="45.38278" lon="6.79095">
        <ele>2717.3</ele>
        <time>2018-03-25T07:18:53Z</time>
      </trkpt>
      <trkpt lat="45.38279" lon="6.79085">
        <ele>2719.71</ele>
        <time>2018-03-25T07:19:09Z</time>
      </trkpt>
      <trkpt lat="45.38278" lon="6.79081">
        <ele>2720.67</ele>
        <time>2018-03-25T07:19:15Z</time>
      </trkpt>
      <trkpt lat="45.38277" lon="6.79071">
        <ele>2721.15</ele>
        <time>2018-03-25T07:19:28Z</time>
      </trkpt>
      <trkpt lat="45.38276" lon="6.79063">
        <ele>2722.11</ele>
        <time>2018-03-25T07:19:41Z</time>
      </trkpt>
      <trkpt lat="45.38275" lon="6.79057">
        <ele>2724.99</ele>
        <time>2018-03-25T07:19:54Z</time>
      </trkpt>
      <trkpt lat="45.38275" lon="6.7905">
        <ele>2725.48</ele>
        <time>2018-03-25T07:20:08Z</time>
      </trkpt>
      <trkpt lat="45.38274" lon="6.79041">
        <ele>2728.36</ele>
        <time>2018-03-25T07:20:20Z</time>
      </trkpt>
      <trkpt lat="45.38272" lon="6.79032">
        <ele>2729.8</ele>
        <time>2018-03-25T07:20:33Z</time>
      </trkpt>
      <trkpt lat="45.38271" lon="6.79025">
        <ele>2731.24</ele>
        <time>2018-03-25T07:20:47Z</time>
      </trkpt>
      <trkpt lat="45.38268" lon="6.79022">
        <ele>2731.24</ele>
        <time>2018-03-25T07:21:04Z</time>
      </trkpt>
      <trkpt lat="45.38265" lon="6.79026">
        <ele>2732.68</ele>
        <time>2018-03-25T07:21:15Z</time>
      </trkpt>
      <trkpt lat="45.38263" lon="6.79027">
        <ele>2732.2</ele>
        <time>2018-03-25T07:21:31Z</time>
      </trkpt>
      <trkpt lat="45.38267" lon="6.79028">
        <ele>2732.2</ele>
        <time>2018-03-25T07:21:53Z</time>
      </trkpt>
      <trkpt lat="45.38265" lon="6.79028">
        <ele>2732.2</ele>
        <time>2018-03-25T07:22:09Z</time>
      </trkpt>
      <trkpt lat="45.38263" lon="6.79028">
        <ele>2730.76</ele>
        <time>2018-03-25T07:22:27Z</time>
      </trkpt>
      <trkpt lat="45.38261" lon="6.79029">
        <ele>2732.2</ele>
        <time>2018-03-25T07:22:38Z</time>
      </trkpt>
      <trkpt lat="45.38259" lon="6.7903">
        <ele>2734.13</ele>
        <time>2018-03-25T07:22:50Z</time>
      </trkpt>
      <trkpt lat="45.38259" lon="6.79031">
        <ele>2734.61</ele>
        <time>2018-03-25T07:23:00Z</time>
      </trkpt>
      <trkpt lat="45.38254" lon="6.79037">
        <ele>2736.05</ele>
        <time>2018-03-25T07:23:12Z</time>
      </trkpt>
      <trkpt lat="45.38249" lon="6.79045">
        <ele>2737.49</ele>
        <time>2018-03-25T07:23:27Z</time>
      </trkpt>
      <trkpt lat="45.38247" lon="6.79052">
        <ele>2739.89</ele>
        <time>2018-03-25T07:23:43Z</time>
      </trkpt>
      <trkpt lat="45.38245" lon="6.79057">
        <ele>2741.34</ele>
        <time>2018-03-25T07:23:53Z</time>
      </trkpt>
      <trkpt lat="45.3824" lon="6.79062">
        <ele>2742.3</ele>
        <time>2018-03-25T07:24:08Z</time>
      </trkpt>
      <trkpt lat="45.38241" lon="6.79054">
        <ele>2743.74</ele>
        <time>2018-03-25T07:24:21Z</time>
      </trkpt>
      <trkpt lat="45.38239" lon="6.79046">
        <ele>2745.66</ele>
        <time>2018-03-25T07:24:34Z</time>
      </trkpt>
      <trkpt lat="45.38236" lon="6.79038">
        <ele>2746.62</ele>
        <time>2018-03-25T07:24:46Z</time>
      </trkpt>
      <trkpt lat="45.38234" lon="6.79029">
        <ele>2748.07</ele>
        <time>2018-03-25T07:24:59Z</time>
      </trkpt>
      <trkpt lat="45.38231" lon="6.79022">
        <ele>2749.03</ele>
        <time>2018-03-25T07:25:13Z</time>
      </trkpt>
      <trkpt lat="45.38228" lon="6.79014">
        <ele>2749.99</ele>
        <time>2018-03-25T07:25:26Z</time>
      </trkpt>
      <trkpt lat="45.38225" lon="6.79007">
        <ele>2750.95</ele>
        <time>2018-03-25T07:25:38Z</time>
      </trkpt>
      <trkpt lat="45.38222" lon="6.79001">
        <ele>2753.35</ele>
        <time>2018-03-25T07:25:46Z</time>
      </trkpt>
      <trkpt lat="45.38219" lon="6.78997">
        <ele>2752.87</ele>
        <time>2018-03-25T07:25:59Z</time>
      </trkpt>
      <trkpt lat="45.38216" lon="6.78993">
        <ele>2754.31</ele>
        <time>2018-03-25T07:26:10Z</time>
      </trkpt>
      <trkpt lat="45.38211" lon="6.78991">
        <ele>2754.8</ele>
        <time>2018-03-25T07:26:24Z</time>
      </trkpt>
      <trkpt lat="45.38204" lon="6.78991">
        <ele>2756.24</ele>
        <time>2018-03-25T07:26:37Z</time>
      </trkpt>
      <trkpt lat="45.38203" lon="6.78998">
        <ele>2757.2</ele>
        <time>2018-03-25T07:26:50Z</time>
      </trkpt>
      <trkpt lat="45.38204" lon="6.79008">
        <ele>2760.08</ele>
        <time>2018-03-25T07:27:04Z</time>
      </trkpt>
      <trkpt lat="45.38201" lon="6.79011">
        <ele>2759.6</ele>
        <time>2018-03-25T07:27:21Z</time>
      </trkpt>
      <trkpt lat="45.38201" lon="6.79018">
        <ele>2761.04</ele>
        <time>2018-03-25T07:27:34Z</time>
      </trkpt>
      <trkpt lat="45.38193" lon="6.79018">
        <ele>2763.45</ele>
        <time>2018-03-25T07:27:45Z</time>
      </trkpt>
      <trkpt lat="45.38185" lon="6.79017">
        <ele>2764.89</ele>
        <time>2018-03-25T07:27:56Z</time>
      </trkpt>
      <trkpt lat="45.38187" lon="6.79015">
        <ele>2765.37</ele>
        <time>2018-03-25T07:28:17Z</time>
      </trkpt>
      <trkpt lat="45.38174" lon="6.79014">
        <ele>2767.77</ele>
        <time>2018-03-25T07:28:31Z</time>
      </trkpt>
      <trkpt lat="45.38164" lon="6.79015">
        <ele>2768.73</ele>
        <time>2018-03-25T07:28:44Z</time>
      </trkpt>
      <trkpt lat="45.38157" lon="6.79013">
        <ele>2770.66</ele>
        <time>2018-03-25T07:28:56Z</time>
      </trkpt>
      <trkpt lat="45.38151" lon="6.79011">
        <ele>2770.18</ele>
        <time>2018-03-25T07:29:08Z</time>
      </trkpt>
      <trkpt lat="45.38147" lon="6.79013">
        <ele>2773.54</ele>
        <time>2018-03-25T07:29:19Z</time>
      </trkpt>
      <trkpt lat="45.38149" lon="6.79014">
        <ele>2773.06</ele>
        <time>2018-03-25T07:29:32Z</time>
      </trkpt>
      <trkpt lat="45.38149" lon="6.79017">
        <ele>2772.1</ele>
        <time>2018-03-25T07:29:47Z</time>
      </trkpt>
      <trkpt lat="45.38148" lon="6.79016">
        <ele>2773.54</ele>
        <time>2018-03-25T07:29:56Z</time>
      </trkpt>
      <trkpt lat="45.3815" lon="6.79017">
        <ele>2774.02</ele>
        <time>2018-03-25T07:30:17Z</time>
      </trkpt>
      <trkpt lat="45.38151" lon="6.79019">
        <ele>2774.02</ele>
        <time>2018-03-25T07:30:37Z</time>
      </trkpt>
      <trkpt lat="45.38154" lon="6.79017">
        <ele>2774.02</ele>
        <time>2018-03-25T07:30:57Z</time>
      </trkpt>
      <trkpt lat="45.38153" lon="6.79018">
        <ele>2773.06</ele>
        <time>2018-03-25T07:31:03Z</time>
      </trkpt>
      <trkpt lat="45.38154" lon="6.79018">
        <ele>2774.02</ele>
        <time>2018-03-25T07:31:13Z</time>
      </trkpt>
      <trkpt lat="45.38146" lon="6.79019">
        <ele>2774.5</ele>
        <time>2018-03-25T07:31:33Z</time>
      </trkpt>
      <trkpt lat="45.38146" lon="6.7902">
        <ele>2774.02</ele>
        <time>2018-03-25T07:31:49Z</time>
      </trkpt>
      <trkpt lat="45.3815" lon="6.79019">
        <ele>2774.02</ele>
        <time>2018-03-25T07:32:10Z</time>
      </trkpt>
      <trkpt lat="45.38141" lon="6.7902">
        <ele>2773.06</ele>
        <time>2018-03-25T07:32:23Z</time>
      </trkpt>
      <trkpt lat="45.3814" lon="6.79022">
        <ele>2774.02</ele>
        <time>2018-03-25T07:32:38Z</time>
      </trkpt>
      <trkpt lat="45.38139" lon="6.79022">
        <ele>2773.54</ele>
        <time>2018-03-25T07:32:53Z</time>
      </trkpt>
      <trkpt lat="45.38136" lon="6.79022">
        <ele>2774.98</ele>
        <time>2018-03-25T07:33:12Z</time>
      </trkpt>
      <trkpt lat="45.38135" lon="6.79023">
        <ele>2774.02</ele>
        <time>2018-03-25T07:33:33Z</time>
      </trkpt>
      <trkpt lat="45.38139" lon="6.79022">
        <ele>2774.02</ele>
        <time>2018-03-25T07:33:53Z</time>
      </trkpt>
      <trkpt lat="45.38141" lon="6.79021">
        <ele>2774.02</ele>
        <time>2018-03-25T07:34:17Z</time>
      </trkpt>
      <trkpt lat="45.3814" lon="6.79023">
        <ele>2774.02</ele>
        <time>2018-03-25T07:34:45Z</time>
      </trkpt>
      <trkpt lat="45.38141" lon="6.79021">
        <ele>2770.66</ele>
        <time>2018-03-25T07:35:02Z</time>
      </trkpt>
      <trkpt lat="45.38141" lon="6.79021">
        <ele>2774.02</ele>
        <time>2018-03-25T07:35:04Z</time>
      </trkpt>
      <trkpt lat="45.38141" lon="6.79021">
        <ele>2773.54</ele>
        <time>2018-03-25T07:35:10Z</time>
      </trkpt>
      <trkpt lat="45.38139" lon="6.79022">
        <ele>2771.14</ele>
        <time>2018-03-25T07:35:35Z</time>
      </trkpt>
      <trkpt lat="45.38137" lon="6.79024">
        <ele>2772.1</ele>
        <time>2018-03-25T07:36:07Z</time>
      </trkpt>
      <trkpt lat="45.38137" lon="6.79021">
        <ele>2772.1</ele>
        <time>2018-03-25T07:36:33Z</time>
      </trkpt>
      <trkpt lat="45.38136" lon="6.7902">
        <ele>2774.5</ele>
        <time>2018-03-25T07:36:51Z</time>
      </trkpt>
      <trkpt lat="45.38136" lon="6.7902">
        <ele>2771.14</ele>
        <time>2018-03-25T07:36:53Z</time>
      </trkpt>
      <trkpt lat="45.38137" lon="6.79021">
        <ele>2783.15</ele>
        <time>2018-03-25T07:36:54Z</time>
      </trkpt>
      <trkpt lat="45.38137" lon="6.79021">
        <ele>2765.37</ele>
        <time>2018-03-25T07:36:55Z</time>
      </trkpt>
      <trkpt lat="45.38137" lon="6.79021">
        <ele>2780.75</ele>
        <time>2018-03-25T07:36:56Z</time>
      </trkpt>
      <trkpt lat="45.38136" lon="6.79021">
        <ele>2773.54</ele>
        <time>2018-03-25T07:36:57Z</time>
      </trkpt>
      <trkpt lat="45.38136" lon="6.79022">
        <ele>2772.58</ele>
        <time>2018-03-25T07:36:59Z</time>
      </trkpt>
      <trkpt lat="45.38138" lon="6.79023">
        <ele>2774.02</ele>
        <time>2018-03-25T07:37:25Z</time>
      </trkpt>
      <trkpt lat="45.38137" lon="6.79022">
        <ele>2774.5</ele>
        <time>2018-03-25T07:37:36Z</time>
      </trkpt>
      <trkpt lat="45.38137" lon="6.79021">
        <ele>2774.02</ele>
        <time>2018-03-25T07:37:44Z</time>
      </trkpt>
      <trkpt lat="45.38137" lon="6.79021">
        <ele>2772.58</ele>
        <time>2018-03-25T07:37:48Z</time>
      </trkpt>
      <trkpt lat="45.38139" lon="6.79021">
        <ele>2771.14</ele>
        <time>2018-03-25T07:37:55Z</time>
      </trkpt>
      <trkpt lat="45.3814" lon="6.7902">
        <ele>2775.46</ele>
        <time>2018-03-25T07:38:13Z</time>
      </trkpt>
      <trkpt lat="45.3814" lon="6.79021">
        <ele>2774.5</ele>
        <time>2018-03-25T07:38:14Z</time>
      </trkpt>
      <trkpt lat="45.3814" lon="6.7902">
        <ele>2770.66</ele>
        <time>2018-03-25T07:38:16Z</time>
      </trkpt>
      <trkpt lat="45.38141" lon="6.79022">
        <ele>2774.02</ele>
        <time>2018-03-25T07:38:23Z</time>
      </trkpt>
      <trkpt lat="45.38141" lon="6.7902">
        <ele>2774.02</ele>
        <time>2018-03-25T07:38:33Z</time>
      </trkpt>
      <trkpt lat="45.38139" lon="6.79023">
        <ele>2772.58</ele>
        <time>2018-03-25T07:39:10Z</time>
      </trkpt>
      <trkpt lat="45.38139" lon="6.79022">
        <ele>2773.06</ele>
        <time>2018-03-25T07:39:45Z</time>
      </trkpt>
      <trkpt lat="45.38139" lon="6.79021">
        <ele>2772.1</ele>
        <time>2018-03-25T07:40:09Z</time>
      </trkpt>
      <trkpt lat="45.38138" lon="6.79022">
        <ele>2773.06</ele>
        <time>2018-03-25T07:40:42Z</time>
      </trkpt>
      <trkpt lat="45.38138" lon="6.79021">
        <ele>2773.06</ele>
        <time>2018-03-25T07:40:52Z</time>
      </trkpt>
      <trkpt lat="45.38138" lon="6.7902">
        <ele>2772.58</ele>
        <time>2018-03-25T07:41:27Z</time>
      </trkpt>
      <trkpt lat="45.38138" lon="6.79021">
        <ele>2773.06</ele>
        <time>2018-03-25T07:41:58Z</time>
      </trkpt>
      <trkpt lat="45.3814" lon="6.79021">
        <ele>2772.58</ele>
        <time>2018-03-25T07:42:34Z</time>
      </trkpt>
      <trkpt lat="45.3814" lon="6.7902">
        <ele>2772.1</ele>
        <time>2018-03-25T07:43:15Z</time>
      </trkpt>
      <trkpt lat="45.3814" lon="6.79021">
        <ele>2772.58</ele>
        <time>2018-03-25T07:43:47Z</time>
      </trkpt>
      <trkpt lat="45.38139" lon="6.7902">
        <ele>2773.06</ele>
        <time>2018-03-25T07:44:07Z</time>
      </trkpt>
      <trkpt lat="45.3814" lon="6.7902">
        <ele>2773.54</ele>
        <time>2018-03-25T07:44:19Z</time>
      </trkpt>
      <trkpt lat="45.38136" lon="6.7902">
        <ele>2774.02</ele>
        <time>2018-03-25T07:44:40Z</time>
      </trkpt>
      <trkpt lat="45.38138" lon="6.79021">
        <ele>2774.02</ele>
        <time>2018-03-25T07:44:58Z</time>
      </trkpt>
      <trkpt lat="45.38137" lon="6.79021">
        <ele>2773.06</ele>
        <time>2018-03-25T07:45:10Z</time>
      </trkpt>
      <trkpt lat="45.38136" lon="6.79021">
        <ele>2773.54</ele>
        <time>2018-03-25T07:45:32Z</time>
      </trkpt>
      <trkpt lat="45.38137" lon="6.7902">
        <ele>2773.06</ele>
        <time>2018-03-25T07:45:42Z</time>
      </trkpt>
      <trkpt lat="45.38135" lon="6.79021">
        <ele>2774.02</ele>
        <time>2018-03-25T07:45:53Z</time>
      </trkpt>
      <trkpt lat="45.38132" lon="6.79023">
        <ele>2774.02</ele>
        <time>2018-03-25T07:45:56Z</time>
      </trkpt>
      <trkpt lat="45.38108" lon="6.79025">
        <ele>2770.18</ele>
        <time>2018-03-25T07:46:07Z</time>
      </trkpt>
      <trkpt lat="45.38106" lon="6.7902">
        <ele>2768.73</ele>
        <time>2018-03-25T07:46:10Z</time>
      </trkpt>
      <trkpt lat="45.38105" lon="6.78985">
        <ele>2765.37</ele>
        <time>2018-03-25T07:46:21Z</time>
      </trkpt>
      <trkpt lat="45.38106" lon="6.78976">
        <ele>2764.41</ele>
        <time>2018-03-25T07:46:23Z</time>
      </trkpt>
      <trkpt lat="45.38109" lon="6.78955">
        <ele>2762</ele>
        <time>2018-03-25T07:46:27Z</time>
      </trkpt>
      <trkpt lat="45.38114" lon="6.78932">
        <ele>2758.64</ele>
        <time>2018-03-25T07:46:34Z</time>
      </trkpt>
      <trkpt lat="45.38116" lon="6.78924">
        <ele>2757.2</ele>
        <time>2018-03-25T07:46:37Z</time>
      </trkpt>
      <trkpt lat="45.38118" lon="6.78915">
        <ele>2756.72</ele>
        <time>2018-03-25T07:46:41Z</time>
      </trkpt>
      <trkpt lat="45.38133" lon="6.78914">
        <ele>2752.87</ele>
        <time>2018-03-25T07:46:47Z</time>
      </trkpt>
      <trkpt lat="45.38138" lon="6.78921">
        <ele>2751.91</ele>
        <time>2018-03-25T07:46:49Z</time>
      </trkpt>
      <trkpt lat="45.38149" lon="6.78927">
        <ele>2750.47</ele>
        <time>2018-03-25T07:46:52Z</time>
      </trkpt>
      <trkpt lat="45.38159" lon="6.78926">
        <ele>2749.03</ele>
        <time>2018-03-25T07:46:55Z</time>
      </trkpt>
      <trkpt lat="45.38164" lon="6.78916">
        <ele>2747.1</ele>
        <time>2018-03-25T07:46:58Z</time>
      </trkpt>
      <trkpt lat="45.38161" lon="6.7891">
        <ele>2745.66</ele>
        <time>2018-03-25T07:46:59Z</time>
      </trkpt>
      <trkpt lat="45.38158" lon="6.78905">
        <ele>2745.18</ele>
        <time>2018-03-25T07:47:00Z</time>
      </trkpt>
      <trkpt lat="45.38153" lon="6.7889">
        <ele>2742.78</ele>
        <time>2018-03-25T07:47:07Z</time>
      </trkpt>
      <trkpt lat="45.38148" lon="6.7887">
        <ele>2740.38</ele>
        <time>2018-03-25T07:47:16Z</time>
      </trkpt>
      <trkpt lat="45.38156" lon="6.78868">
        <ele>2737.01</ele>
        <time>2018-03-25T07:47:19Z</time>
      </trkpt>
      <trkpt lat="45.38157" lon="6.78869">
        <ele>2737.49</ele>
        <time>2018-03-25T07:47:20Z</time>
      </trkpt>
      <trkpt lat="45.38163" lon="6.78871">
        <ele>2736.53</ele>
        <time>2018-03-25T07:47:29Z</time>
      </trkpt>
      <trkpt lat="45.38164" lon="6.78875">
        <ele>2736.53</ele>
        <time>2018-03-25T07:47:35Z</time>
      </trkpt>
      <trkpt lat="45.38163" lon="6.7886">
        <ele>2734.13</ele>
        <time>2018-03-25T07:47:40Z</time>
      </trkpt>
      <trkpt lat="45.38154" lon="6.78842">
        <ele>2731.72</ele>
        <time>2018-03-25T07:47:45Z</time>
      </trkpt>
      <trkpt lat="45.38148" lon="6.78831">
        <ele>2729.8</ele>
        <time>2018-03-25T07:47:48Z</time>
      </trkpt>
      <trkpt lat="45.3816" lon="6.78824">
        <ele>2724.03</ele>
        <time>2018-03-25T07:47:52Z</time>
      </trkpt>
      <trkpt lat="45.38172" lon="6.78829">
        <ele>2722.11</ele>
        <time>2018-03-25T07:47:55Z</time>
      </trkpt>
      <trkpt lat="45.38175" lon="6.78829">
        <ele>2722.59</ele>
        <time>2018-03-25T07:47:56Z</time>
      </trkpt>
      <trkpt lat="45.38171" lon="6.78805">
        <ele>2717.78</ele>
        <time>2018-03-25T07:48:02Z</time>
      </trkpt>
      <trkpt lat="45.38169" lon="6.78801">
        <ele>2717.78</ele>
        <time>2018-03-25T07:48:03Z</time>
      </trkpt>
      <trkpt lat="45.38172" lon="6.78793">
        <ele>2714.42</ele>
        <time>2018-03-25T07:48:05Z</time>
      </trkpt>
      <trkpt lat="45.3818" lon="6.78793">
        <ele>2712.98</ele>
        <time>2018-03-25T07:48:07Z</time>
      </trkpt>
      <trkpt lat="45.3821" lon="6.78789">
        <ele>2708.17</ele>
        <time>2018-03-25T07:48:13Z</time>
      </trkpt>
      <trkpt lat="45.38226" lon="6.78782">
        <ele>2703.36</ele>
        <time>2018-03-25T07:48:15Z</time>
      </trkpt>
      <trkpt lat="45.38236" lon="6.78776">
        <ele>2700.48</ele>
        <time>2018-03-25T07:48:17Z</time>
      </trkpt>
      <trkpt lat="45.38255" lon="6.78762">
        <ele>2697.12</ele>
        <time>2018-03-25T07:48:20Z</time>
      </trkpt>
      <trkpt lat="45.38268" lon="6.78754">
        <ele>2694.23</ele>
        <time>2018-03-25T07:48:22Z</time>
      </trkpt>
      <trkpt lat="45.38281" lon="6.78743">
        <ele>2692.79</ele>
        <time>2018-03-25T07:48:24Z</time>
      </trkpt>
      <trkpt lat="45.38297" lon="6.78729">
        <ele>2690.87</ele>
        <time>2018-03-25T07:48:31Z</time>
      </trkpt>
      <trkpt lat="45.38297" lon="6.78724">
        <ele>2691.83</ele>
        <time>2018-03-25T07:48:33Z</time>
      </trkpt>
      <trkpt lat="45.38299" lon="6.7872">
        <ele>2691.35</ele>
        <time>2018-03-25T07:48:45Z</time>
      </trkpt>
      <trkpt lat="45.38298" lon="6.78719">
        <ele>2692.79</ele>
        <time>2018-03-25T07:48:52Z</time>
      </trkpt>
      <trkpt lat="45.38294" lon="6.7872">
        <ele>2692.31</ele>
        <time>2018-03-25T07:49:01Z</time>
      </trkpt>
      <trkpt lat="45.38289" lon="6.78725">
        <ele>2692.31</ele>
        <time>2018-03-25T07:49:12Z</time>
      </trkpt>
      <trkpt lat="45.38286" lon="6.78728">
        <ele>2692.31</ele>
        <time>2018-03-25T07:49:16Z</time>
      </trkpt>
      <trkpt lat="45.38277" lon="6.78736">
        <ele>2694.23</ele>
        <time>2018-03-25T07:49:29Z</time>
      </trkpt>
      <trkpt lat="45.38276" lon="6.78736">
        <ele>2693.75</ele>
        <time>2018-03-25T07:49:38Z</time>
      </trkpt>
      <trkpt lat="45.38276" lon="6.78735">
        <ele>2692.79</ele>
        <time>2018-03-25T07:49:42Z</time>
      </trkpt>
      <trkpt lat="45.38281" lon="6.78731">
        <ele>2692.79</ele>
        <time>2018-03-25T07:49:54Z</time>
      </trkpt>
      <trkpt lat="45.38283" lon="6.78729">
        <ele>2692.79</ele>
        <time>2018-03-25T07:49:57Z</time>
      </trkpt>
      <trkpt lat="45.3829" lon="6.78725">
        <ele>2692.79</ele>
        <time>2018-03-25T07:50:08Z</time>
      </trkpt>
      <trkpt lat="45.38301" lon="6.78722">
        <ele>2692.31</ele>
        <time>2018-03-25T07:50:20Z</time>
      </trkpt>
      <trkpt lat="45.38309" lon="6.78724">
        <ele>2692.31</ele>
        <time>2018-03-25T07:50:31Z</time>
      </trkpt>
      <trkpt lat="45.38321" lon="6.78727">
        <ele>2690.39</ele>
        <time>2018-03-25T07:50:41Z</time>
      </trkpt>
      <trkpt lat="45.38325" lon="6.78731">
        <ele>2688.46</ele>
        <time>2018-03-25T07:50:44Z</time>
      </trkpt>
      <trkpt lat="45.38326" lon="6.78732">
        <ele>2688.94</ele>
        <time>2018-03-25T07:50:46Z</time>
      </trkpt>
      <trkpt lat="45.38332" lon="6.78738">
        <ele>2687.98</ele>
        <time>2018-03-25T07:50:56Z</time>
      </trkpt>
      <trkpt lat="45.3833" lon="6.78739">
        <ele>2686.54</ele>
        <time>2018-03-25T07:51:13Z</time>
      </trkpt>
      <trkpt lat="45.38339" lon="6.78755">
        <ele>2685.58</ele>
        <time>2018-03-25T07:51:32Z</time>
      </trkpt>
      <trkpt lat="45.38356" lon="6.78789">
        <ele>2681.73</ele>
        <time>2018-03-25T07:51:44Z</time>
      </trkpt>
      <trkpt lat="45.38367" lon="6.78808">
        <ele>2678.85</ele>
        <time>2018-03-25T07:51:50Z</time>
      </trkpt>
      <trkpt lat="45.38369" lon="6.78812">
        <ele>2678.37</ele>
        <time>2018-03-25T07:51:51Z</time>
      </trkpt>
      <trkpt lat="45.38378" lon="6.78824">
        <ele>2675.01</ele>
        <time>2018-03-25T07:51:55Z</time>
      </trkpt>
      <trkpt lat="45.38381" lon="6.78827">
        <ele>2675.01</ele>
        <time>2018-03-25T07:51:56Z</time>
      </trkpt>
      <trkpt lat="45.38395" lon="6.78851">
        <ele>2671.64</ele>
        <time>2018-03-25T07:52:07Z</time>
      </trkpt>
      <trkpt lat="45.38398" lon="6.78858">
        <ele>2671.64</ele>
        <time>2018-03-25T07:52:19Z</time>
      </trkpt>
      <trkpt lat="45.38398" lon="6.78858">
        <ele>2671.64</ele>
        <time>2018-03-25T07:52:34Z</time>
      </trkpt>
      <trkpt lat="45.38397" lon="6.78857">
        <ele>2671.64</ele>
        <time>2018-03-25T07:52:41Z</time>
      </trkpt>
      <trkpt lat="45.38399" lon="6.7885">
        <ele>2670.68</ele>
        <time>2018-03-25T07:52:45Z</time>
      </trkpt>
      <trkpt lat="45.38397" lon="6.78836">
        <ele>2668.28</ele>
        <time>2018-03-25T07:52:50Z</time>
      </trkpt>
      <trkpt lat="45.38396" lon="6.78832">
        <ele>2667.31</ele>
        <time>2018-03-25T07:52:52Z</time>
      </trkpt>
      <trkpt lat="45.38396" lon="6.7883">
        <ele>2667.8</ele>
        <time>2018-03-25T07:53:03Z</time>
      </trkpt>
      <trkpt lat="45.38396" lon="6.7883">
        <ele>2667.31</ele>
        <time>2018-03-25T07:53:11Z</time>
      </trkpt>
      <trkpt lat="45.38395" lon="6.78821">
        <ele>2665.39</ele>
        <time>2018-03-25T07:53:22Z</time>
      </trkpt>
      <trkpt lat="45.38395" lon="6.78823">
        <ele>2665.87</ele>
        <time>2018-03-25T07:53:27Z</time>
      </trkpt>
      <trkpt lat="45.384" lon="6.78817">
        <ele>2662.99</ele>
        <time>2018-03-25T07:53:31Z</time>
      </trkpt>
      <trkpt lat="45.38406" lon="6.78821">
        <ele>2660.11</ele>
        <time>2018-03-25T07:53:33Z</time>
      </trkpt>
      <trkpt lat="45.3841" lon="6.78819">
        <ele>2657.22</ele>
        <time>2018-03-25T07:53:38Z</time>
      </trkpt>
      <trkpt lat="45.38411" lon="6.78821">
        <ele>2657.7</ele>
        <time>2018-03-25T07:54:00Z</time>
      </trkpt>
      <trkpt lat="45.38411" lon="6.78821">
        <ele>2657.7</ele>
        <time>2018-03-25T07:54:27Z</time>
      </trkpt>
      <trkpt lat="45.38412" lon="6.78816">
        <ele>2656.74</ele>
        <time>2018-03-25T07:54:32Z</time>
      </trkpt>
      <trkpt lat="45.38422" lon="6.7881">
        <ele>2651.45</ele>
        <time>2018-03-25T07:54:35Z</time>
      </trkpt>
      <trkpt lat="45.38426" lon="6.78805">
        <ele>2648.57</ele>
        <time>2018-03-25T07:54:36Z</time>
      </trkpt>
      <trkpt lat="45.38431" lon="6.78804">
        <ele>2644.24</ele>
        <time>2018-03-25T07:54:37Z</time>
      </trkpt>
      <trkpt lat="45.38443" lon="6.78797">
        <ele>2639.44</ele>
        <time>2018-03-25T07:54:39Z</time>
      </trkpt>
      <trkpt lat="45.38449" lon="6.78797">
        <ele>2635.11</ele>
        <time>2018-03-25T07:54:40Z</time>
      </trkpt>
      <trkpt lat="45.38455" lon="6.78802">
        <ele>2630.79</ele>
        <time>2018-03-25T07:54:41Z</time>
      </trkpt>
      <trkpt lat="45.38459" lon="6.78808">
        <ele>2628.86</ele>
        <time>2018-03-25T07:54:42Z</time>
      </trkpt>
      <trkpt lat="45.38473" lon="6.78827">
        <ele>2627.9</ele>
        <time>2018-03-25T07:54:54Z</time>
      </trkpt>
      <trkpt lat="45.38475" lon="6.78829">
        <ele>2627.42</ele>
        <time>2018-03-25T07:55:11Z</time>
      </trkpt>
      <trkpt lat="45.38476" lon="6.7883">
        <ele>2627.9</ele>
        <time>2018-03-25T07:55:34Z</time>
      </trkpt>
      <trkpt lat="45.38476" lon="6.78829">
        <ele>2627.9</ele>
        <time>2018-03-25T07:56:01Z</time>
      </trkpt>
      <trkpt lat="45.38478" lon="6.78828">
        <ele>2627.42</ele>
        <time>2018-03-25T07:56:22Z</time>
      </trkpt>
      <trkpt lat="45.38485" lon="6.78819">
        <ele>2625.5</ele>
        <time>2018-03-25T07:56:26Z</time>
      </trkpt>
      <trkpt lat="45.38493" lon="6.78804">
        <ele>2620.69</ele>
        <time>2018-03-25T07:56:29Z</time>
      </trkpt>
      <trkpt lat="45.38499" lon="6.78798">
        <ele>2615.4</ele>
        <time>2018-03-25T07:56:31Z</time>
      </trkpt>
      <trkpt lat="45.38509" lon="6.78794">
        <ele>2610.6</ele>
        <time>2018-03-25T07:56:33Z</time>
      </trkpt>
      <trkpt lat="45.38521" lon="6.78794">
        <ele>2606.75</ele>
        <time>2018-03-25T07:56:35Z</time>
      </trkpt>
      <trkpt lat="45.38527" lon="6.78795">
        <ele>2602.91</ele>
        <time>2018-03-25T07:56:36Z</time>
      </trkpt>
      <trkpt lat="45.38533" lon="6.78807">
        <ele>2599.06</ele>
        <time>2018-03-25T07:56:38Z</time>
      </trkpt>
      <trkpt lat="45.38535" lon="6.78817">
        <ele>2598.1</ele>
        <time>2018-03-25T07:56:40Z</time>
      </trkpt>
      <trkpt lat="45.38536" lon="6.7882">
        <ele>2597.62</ele>
        <time>2018-03-25T07:56:41Z</time>
      </trkpt>
      <trkpt lat="45.38539" lon="6.78837">
        <ele>2596.18</ele>
        <time>2018-03-25T07:56:46Z</time>
      </trkpt>
      <trkpt lat="45.3854" lon="6.78841">
        <ele>2595.22</ele>
        <time>2018-03-25T07:57:01Z</time>
      </trkpt>
      <trkpt lat="45.38542" lon="6.78841">
        <ele>2595.22</ele>
        <time>2018-03-25T07:57:32Z</time>
      </trkpt>
      <trkpt lat="45.38542" lon="6.78842">
        <ele>2594.25</ele>
        <time>2018-03-25T07:58:05Z</time>
      </trkpt>
      <trkpt lat="45.38539" lon="6.78841">
        <ele>2595.22</ele>
        <time>2018-03-25T07:58:39Z</time>
      </trkpt>
      <trkpt lat="45.3854" lon="6.78843">
        <ele>2594.74</ele>
        <time>2018-03-25T07:59:06Z</time>
      </trkpt>
      <trkpt lat="45.3854" lon="6.78843">
        <ele>2594.74</ele>
        <time>2018-03-25T07:59:10Z</time>
      </trkpt>
      <trkpt lat="45.38547" lon="6.78856">
        <ele>2591.85</ele>
        <time>2018-03-25T07:59:14Z</time>
      </trkpt>
      <trkpt lat="45.38564" lon="6.78853">
        <ele>2585.6</ele>
        <time>2018-03-25T07:59:17Z</time>
      </trkpt>
      <trkpt lat="45.38578" lon="6.78847">
        <ele>2580.8</ele>
        <time>2018-03-25T07:59:19Z</time>
      </trkpt>
      <trkpt lat="45.38585" lon="6.78844">
        <ele>2575.99</ele>
        <time>2018-03-25T07:59:20Z</time>
      </trkpt>
      <trkpt lat="45.38594" lon="6.78844">
        <ele>2572.63</ele>
        <time>2018-03-25T07:59:21Z</time>
      </trkpt>
      <trkpt lat="45.38604" lon="6.78841">
        <ele>2568.78</ele>
        <time>2018-03-25T07:59:22Z</time>
      </trkpt>
      <trkpt lat="45.38614" lon="6.78837">
        <ele>2563.97</ele>
        <time>2018-03-25T07:59:23Z</time>
      </trkpt>
      <trkpt lat="45.38625" lon="6.78834">
        <ele>2561.09</ele>
        <time>2018-03-25T07:59:24Z</time>
      </trkpt>
      <trkpt lat="45.38635" lon="6.78828">
        <ele>2556.28</ele>
        <time>2018-03-25T07:59:25Z</time>
      </trkpt>
      <trkpt lat="45.38666" lon="6.7881">
        <ele>2545.71</ele>
        <time>2018-03-25T07:59:28Z</time>
      </trkpt>
      <trkpt lat="45.38684" lon="6.78815">
        <ele>2542.34</ele>
        <time>2018-03-25T07:59:30Z</time>
      </trkpt>
      <trkpt lat="45.38695" lon="6.78814">
        <ele>2540.9</ele>
        <time>2018-03-25T07:59:35Z</time>
      </trkpt>
      <trkpt lat="45.38693" lon="6.78812">
        <ele>2540.9</ele>
        <time>2018-03-25T07:59:39Z</time>
      </trkpt>
      <trkpt lat="45.38696" lon="6.78806">
        <ele>2538.02</ele>
        <time>2018-03-25T07:59:47Z</time>
      </trkpt>
      <trkpt lat="45.38695" lon="6.78808">
        <ele>2539.46</ele>
        <time>2018-03-25T08:00:17Z</time>
      </trkpt>
      <trkpt lat="45.38696" lon="6.78806">
        <ele>2539.94</ele>
        <time>2018-03-25T08:00:47Z</time>
      </trkpt>
      <trkpt lat="45.38698" lon="6.78807">
        <ele>2538.98</ele>
        <time>2018-03-25T08:00:49Z</time>
      </trkpt>
      <trkpt lat="45.387" lon="6.78809">
        <ele>2538.5</ele>
        <time>2018-03-25T08:00:52Z</time>
      </trkpt>
      <trkpt lat="45.38716" lon="6.78826">
        <ele>2535.61</ele>
        <time>2018-03-25T08:01:03Z</time>
      </trkpt>
      <trkpt lat="45.38732" lon="6.78839">
        <ele>2531.77</ele>
        <time>2018-03-25T08:01:07Z</time>
      </trkpt>
      <trkpt lat="45.38748" lon="6.78866">
        <ele>2527.92</ele>
        <time>2018-03-25T08:01:16Z</time>
      </trkpt>
      <trkpt lat="45.38765" lon="6.78887">
        <ele>2524.08</ele>
        <time>2018-03-25T08:01:22Z</time>
      </trkpt>
      <trkpt lat="45.38788" lon="6.78899">
        <ele>2518.31</ele>
        <time>2018-03-25T08:01:25Z</time>
      </trkpt>
      <trkpt lat="45.38805" lon="6.78902">
        <ele>2514.95</ele>
        <time>2018-03-25T08:01:27Z</time>
      </trkpt>
      <trkpt lat="45.38813" lon="6.78903">
        <ele>2514.95</ele>
        <time>2018-03-25T08:01:28Z</time>
      </trkpt>
      <trkpt lat="45.38844" lon="6.78907">
        <ele>2512.54</ele>
        <time>2018-03-25T08:01:35Z</time>
      </trkpt>
      <trkpt lat="45.38851" lon="6.78905">
        <ele>2513.02</ele>
        <time>2018-03-25T08:01:45Z</time>
      </trkpt>
      <trkpt lat="45.38851" lon="6.78902">
        <ele>2512.54</ele>
        <time>2018-03-25T08:02:03Z</time>
      </trkpt>
      <trkpt lat="45.38851" lon="6.78904">
        <ele>2511.1</ele>
        <time>2018-03-25T08:02:15Z</time>
      </trkpt>
      <trkpt lat="45.3885" lon="6.78905">
        <ele>2511.58</ele>
        <time>2018-03-25T08:02:38Z</time>
      </trkpt>
      <trkpt lat="45.38851" lon="6.78905">
        <ele>2511.1</ele>
        <time>2018-03-25T08:03:01Z</time>
      </trkpt>
      <trkpt lat="45.38848" lon="6.78905">
        <ele>2510.62</ele>
        <time>2018-03-25T08:03:42Z</time>
      </trkpt>
      <trkpt lat="45.38849" lon="6.78904">
        <ele>2511.58</ele>
        <time>2018-03-25T08:04:20Z</time>
      </trkpt>
      <trkpt lat="45.38848" lon="6.78905">
        <ele>2511.58</ele>
        <time>2018-03-25T08:04:46Z</time>
      </trkpt>
      <trkpt lat="45.38851" lon="6.78903">
        <ele>2510.62</ele>
        <time>2018-03-25T08:05:28Z</time>
      </trkpt>
      <trkpt lat="45.38849" lon="6.78906">
        <ele>2514.47</ele>
        <time>2018-03-25T08:05:45Z</time>
      </trkpt>
      <trkpt lat="45.3885" lon="6.78906">
        <ele>2511.58</ele>
        <time>2018-03-25T08:05:49Z</time>
      </trkpt>
      <trkpt lat="45.3885" lon="6.78906">
        <ele>2510.14</ele>
        <time>2018-03-25T08:05:56Z</time>
      </trkpt>
      <trkpt lat="45.38847" lon="6.78907">
        <ele>2512.54</ele>
        <time>2018-03-25T08:06:11Z</time>
      </trkpt>
      <trkpt lat="45.38847" lon="6.78904">
        <ele>2512.54</ele>
        <time>2018-03-25T08:06:24Z</time>
      </trkpt>
      <trkpt lat="45.38848" lon="6.78904">
        <ele>2513.02</ele>
        <time>2018-03-25T08:06:40Z</time>
      </trkpt>
      <trkpt lat="45.38846" lon="6.78902">
        <ele>2513.02</ele>
        <time>2018-03-25T08:07:04Z</time>
      </trkpt>
      <trkpt lat="45.38846" lon="6.78899">
        <ele>2513.02</ele>
        <time>2018-03-25T08:07:19Z</time>
      </trkpt>
      <trkpt lat="45.38846" lon="6.789">
        <ele>2512.54</ele>
        <time>2018-03-25T08:07:36Z</time>
      </trkpt>
      <trkpt lat="45.38846" lon="6.789">
        <ele>2513.02</ele>
        <time>2018-03-25T08:07:57Z</time>
      </trkpt>
      <trkpt lat="45.38845" lon="6.78901">
        <ele>2513.02</ele>
        <time>2018-03-25T08:08:10Z</time>
      </trkpt>
      <trkpt lat="45.38847" lon="6.78899">
        <ele>2512.54</ele>
        <time>2018-03-25T08:08:28Z</time>
      </trkpt>
      <trkpt lat="45.38846" lon="6.78899">
        <ele>2512.54</ele>
        <time>2018-03-25T08:08:39Z</time>
      </trkpt>
      <trkpt lat="45.38846" lon="6.78899">
        <ele>2513.5</ele>
        <time>2018-03-25T08:08:51Z</time>
      </trkpt>
      <trkpt lat="45.38845" lon="6.78898">
        <ele>2513.98</ele>
        <time>2018-03-25T08:08:53Z</time>
      </trkpt>
      <trkpt lat="45.38845" lon="6.78898">
        <ele>2512.54</ele>
        <time>2018-03-25T08:08:55Z</time>
      </trkpt>
      <trkpt lat="45.38844" lon="6.78899">
        <ele>2512.54</ele>
        <time>2018-03-25T08:09:19Z</time>
      </trkpt>
      <trkpt lat="45.38852" lon="6.78899">
        <ele>2512.54</ele>
        <time>2018-03-25T08:09:46Z</time>
      </trkpt>
      <trkpt lat="45.38861" lon="6.78901">
        <ele>2514.47</ele>
        <time>2018-03-25T08:10:00Z</time>
      </trkpt>
      <trkpt lat="45.38868" lon="6.78902">
        <ele>2516.39</ele>
        <time>2018-03-25T08:10:11Z</time>
      </trkpt>
      <trkpt lat="45.38877" lon="6.78906">
        <ele>2516.39</ele>
        <time>2018-03-25T08:10:25Z</time>
      </trkpt>
      <trkpt lat="45.38887" lon="6.78907">
        <ele>2517.35</ele>
        <time>2018-03-25T08:10:38Z</time>
      </trkpt>
      <trkpt lat="45.38893" lon="6.7891">
        <ele>2517.35</ele>
        <time>2018-03-25T08:10:49Z</time>
      </trkpt>
      <trkpt lat="45.38903" lon="6.7891">
        <ele>2517.35</ele>
        <time>2018-03-25T08:11:03Z</time>
      </trkpt>
      <trkpt lat="45.38906" lon="6.78911">
        <ele>2519.27</ele>
        <time>2018-03-25T08:11:08Z</time>
      </trkpt>
      <trkpt lat="45.3891" lon="6.78914">
        <ele>2521.19</ele>
        <time>2018-03-25T08:11:19Z</time>
      </trkpt>
      <trkpt lat="45.38918" lon="6.78913">
        <ele>2521.19</ele>
        <time>2018-03-25T08:11:33Z</time>
      </trkpt>
      <trkpt lat="45.3893" lon="6.78913">
        <ele>2520.23</ele>
        <time>2018-03-25T08:11:47Z</time>
      </trkpt>
      <trkpt lat="45.38944" lon="6.7891">
        <ele>2520.23</ele>
        <time>2018-03-25T08:12:01Z</time>
      </trkpt>
      <trkpt lat="45.38956" lon="6.78905">
        <ele>2519.75</ele>
        <time>2018-03-25T08:12:15Z</time>
      </trkpt>
      <trkpt lat="45.38967" lon="6.78898">
        <ele>2521.19</ele>
        <time>2018-03-25T08:12:29Z</time>
      </trkpt>
      <trkpt lat="45.38974" lon="6.78893">
        <ele>2522.64</ele>
        <time>2018-03-25T08:12:42Z</time>
      </trkpt>
      <trkpt lat="45.38984" lon="6.78888">
        <ele>2522.64</ele>
        <time>2018-03-25T08:12:56Z</time>
      </trkpt>
      <trkpt lat="45.38993" lon="6.78893">
        <ele>2523.6</ele>
        <time>2018-03-25T08:13:09Z</time>
      </trkpt>
      <trkpt lat="45.39001" lon="6.78899">
        <ele>2525.04</ele>
        <time>2018-03-25T08:13:21Z</time>
      </trkpt>
      <trkpt lat="45.39008" lon="6.78903">
        <ele>2523.12</ele>
        <time>2018-03-25T08:13:30Z</time>
      </trkpt>
      <trkpt lat="45.39019" lon="6.78912">
        <ele>2521.68</ele>
        <time>2018-03-25T08:13:44Z</time>
      </trkpt>
      <trkpt lat="45.39021" lon="6.78914">
        <ele>2522.16</ele>
        <time>2018-03-25T08:14:00Z</time>
      </trkpt>
      <trkpt lat="45.39022" lon="6.78914">
        <ele>2522.16</ele>
        <time>2018-03-25T08:14:40Z</time>
      </trkpt>
      <trkpt lat="45.39028" lon="6.78917">
        <ele>2521.68</ele>
        <time>2018-03-25T08:14:53Z</time>
      </trkpt>
      <trkpt lat="45.39043" lon="6.78924">
        <ele>2518.31</ele>
        <time>2018-03-25T08:15:06Z</time>
      </trkpt>
      <trkpt lat="45.39047" lon="6.78925">
        <ele>2518.31</ele>
        <time>2018-03-25T08:15:09Z</time>
      </trkpt>
      <trkpt lat="45.39049" lon="6.78914">
        <ele>2516.39</ele>
        <time>2018-03-25T08:15:21Z</time>
      </trkpt>
      <trkpt lat="45.39049" lon="6.78913">
        <ele>2516.87</ele>
        <time>2018-03-25T08:15:23Z</time>
      </trkpt>
      <trkpt lat="45.39052" lon="6.78913">
        <ele>2515.91</ele>
        <time>2018-03-25T08:15:25Z</time>
      </trkpt>
      <trkpt lat="45.39062" lon="6.7892">
        <ele>2513.5</ele>
        <time>2018-03-25T08:15:27Z</time>
      </trkpt>
      <trkpt lat="45.39073" lon="6.78928">
        <ele>2512.54</ele>
        <time>2018-03-25T08:15:29Z</time>
      </trkpt>
      <trkpt lat="45.39085" lon="6.78938">
        <ele>2509.18</ele>
        <time>2018-03-25T08:15:32Z</time>
      </trkpt>
      <trkpt lat="45.39087" lon="6.7894">
        <ele>2508.7</ele>
        <time>2018-03-25T08:15:33Z</time>
      </trkpt>
      <trkpt lat="45.3909" lon="6.78942">
        <ele>2508.7</ele>
        <time>2018-03-25T08:15:44Z</time>
      </trkpt>
      <trkpt lat="45.3909" lon="6.78943">
        <ele>2508.7</ele>
        <time>2018-03-25T08:16:12Z</time>
      </trkpt>
      <trkpt lat="45.39096" lon="6.78951">
        <ele>2508.7</ele>
        <time>2018-03-25T08:16:29Z</time>
      </trkpt>
      <trkpt lat="45.39106" lon="6.78964">
        <ele>2509.18</ele>
        <time>2018-03-25T08:16:45Z</time>
      </trkpt>
      <trkpt lat="45.39121" lon="6.78977">
        <ele>2509.18</ele>
        <time>2018-03-25T08:17:01Z</time>
      </trkpt>
      <trkpt lat="45.39131" lon="6.78987">
        <ele>2509.18</ele>
        <time>2018-03-25T08:17:12Z</time>
      </trkpt>
      <trkpt lat="45.39132" lon="6.78988">
        <ele>2508.7</ele>
        <time>2018-03-25T08:17:13Z</time>
      </trkpt>
      <trkpt lat="45.39133" lon="6.78989">
        <ele>2508.7</ele>
        <time>2018-03-25T08:17:14Z</time>
      </trkpt>
      <trkpt lat="45.39147" lon="6.79002">
        <ele>2509.18</ele>
        <time>2018-03-25T08:17:31Z</time>
      </trkpt>
      <trkpt lat="45.39156" lon="6.7901">
        <ele>2509.66</ele>
        <time>2018-03-25T08:17:41Z</time>
      </trkpt>
      <trkpt lat="45.39167" lon="6.79024">
        <ele>2509.66</ele>
        <time>2018-03-25T08:17:57Z</time>
      </trkpt>
      <trkpt lat="45.39177" lon="6.79039">
        <ele>2512.06</ele>
        <time>2018-03-25T08:18:13Z</time>
      </trkpt>
      <trkpt lat="45.39186" lon="6.79052">
        <ele>2513.5</ele>
        <time>2018-03-25T08:18:29Z</time>
      </trkpt>
      <trkpt lat="45.39193" lon="6.79061">
        <ele>2514.95</ele>
        <time>2018-03-25T08:18:43Z</time>
      </trkpt>
      <trkpt lat="45.39197" lon="6.79064">
        <ele>2514.95</ele>
        <time>2018-03-25T08:18:56Z</time>
      </trkpt>
      <trkpt lat="45.39199" lon="6.79062">
        <ele>2514.95</ele>
        <time>2018-03-25T08:19:06Z</time>
      </trkpt>
      <trkpt lat="45.39205" lon="6.79067">
        <ele>2515.43</ele>
        <time>2018-03-25T08:19:15Z</time>
      </trkpt>
      <trkpt lat="45.39199" lon="6.79071">
        <ele>2513.98</ele>
        <time>2018-03-25T08:19:18Z</time>
      </trkpt>
      <trkpt lat="45.39196" lon="6.79073">
        <ele>2513.98</ele>
        <time>2018-03-25T08:19:19Z</time>
      </trkpt>
      <trkpt lat="45.39195" lon="6.79074">
        <ele>2513.98</ele>
        <time>2018-03-25T08:19:20Z</time>
      </trkpt>
      <trkpt lat="45.39193" lon="6.79075">
        <ele>2513.02</ele>
        <time>2018-03-25T08:19:30Z</time>
      </trkpt>
      <trkpt lat="45.39193" lon="6.79076">
        <ele>2513.02</ele>
        <time>2018-03-25T08:19:41Z</time>
      </trkpt>
      <trkpt lat="45.39194" lon="6.79076">
        <ele>2512.54</ele>
        <time>2018-03-25T08:19:52Z</time>
      </trkpt>
      <trkpt lat="45.39192" lon="6.79077">
        <ele>2513.02</ele>
        <time>2018-03-25T08:20:00Z</time>
      </trkpt>
      <trkpt lat="45.39193" lon="6.79078">
        <ele>2513.5</ele>
        <time>2018-03-25T08:20:12Z</time>
      </trkpt>
      <trkpt lat="45.39194" lon="6.79077">
        <ele>2512.54</ele>
        <time>2018-03-25T08:20:30Z</time>
      </trkpt>
      <trkpt lat="45.39198" lon="6.79072">
        <ele>2513.98</ele>
        <time>2018-03-25T08:20:36Z</time>
      </trkpt>
      <trkpt lat="45.39201" lon="6.79067">
        <ele>2513.5</ele>
        <time>2018-03-25T08:20:46Z</time>
      </trkpt>
      <trkpt lat="45.39203" lon="6.79073">
        <ele>2514.47</ele>
        <time>2018-03-25T08:21:11Z</time>
      </trkpt>
      <trkpt lat="45.39204" lon="6.79075">
        <ele>2514.47</ele>
        <time>2018-03-25T08:21:41Z</time>
      </trkpt>
      <trkpt lat="45.39204" lon="6.79064">
        <ele>2514.47</ele>
        <time>2018-03-25T08:21:58Z</time>
      </trkpt>
      <trkpt lat="45.39204" lon="6.79066">
        <ele>2514.47</ele>
        <time>2018-03-25T08:22:16Z</time>
      </trkpt>
      <trkpt lat="45.39204" lon="6.79066">
        <ele>2513.98</ele>
        <time>2018-03-25T08:22:17Z</time>
      </trkpt>
      <trkpt lat="45.39202" lon="6.79068">
        <ele>2513.5</ele>
        <time>2018-03-25T08:22:19Z</time>
      </trkpt>
      <trkpt lat="45.39201" lon="6.7907">
        <ele>2513.02</ele>
        <time>2018-03-25T08:22:20Z</time>
      </trkpt>
      <trkpt lat="45.39198" lon="6.79076">
        <ele>2513.5</ele>
        <time>2018-03-25T08:22:34Z</time>
      </trkpt>
      <trkpt lat="45.39197" lon="6.79076">
        <ele>2514.47</ele>
        <time>2018-03-25T08:22:51Z</time>
      </trkpt>
      <trkpt lat="45.39194" lon="6.79076">
        <ele>2513.5</ele>
        <time>2018-03-25T08:23:06Z</time>
      </trkpt>
      <trkpt lat="45.39193" lon="6.79077">
        <ele>2513.5</ele>
        <time>2018-03-25T08:23:21Z</time>
      </trkpt>
      <trkpt lat="45.39187" lon="6.79072">
        <ele>2513.98</ele>
        <time>2018-03-25T08:23:37Z</time>
      </trkpt>
      <trkpt lat="45.39188" lon="6.79074">
        <ele>2513.02</ele>
        <time>2018-03-25T08:23:54Z</time>
      </trkpt>
      <trkpt lat="45.39191" lon="6.79073">
        <ele>2513.5</ele>
        <time>2018-03-25T08:24:13Z</time>
      </trkpt>
      <trkpt lat="45.39197" lon="6.79074">
        <ele>2515.43</ele>
        <time>2018-03-25T08:24:26Z</time>
      </trkpt>
      <trkpt lat="45.392" lon="6.79075">
        <ele>2512.54</ele>
        <time>2018-03-25T08:24:31Z</time>
      </trkpt>
      <trkpt lat="45.39207" lon="6.7907">
        <ele>2513.5</ele>
        <time>2018-03-25T08:24:50Z</time>
      </trkpt>
      <trkpt lat="45.39201" lon="6.7907">
        <ele>2512.54</ele>
        <time>2018-03-25T08:25:19Z</time>
      </trkpt>
      <trkpt lat="45.39188" lon="6.79109">
        <ele>2514.47</ele>
        <time>2018-03-25T08:43:55Z</time>
      </trkpt>
      <trkpt lat="45.39189" lon="6.7911">
        <ele>2514.47</ele>
        <time>2018-03-25T08:44:02Z</time>
      </trkpt>
      <trkpt lat="45.39218" lon="6.7908">
        <ele>2513.98</ele>
        <time>2018-03-25T09:02:49Z</time>
      </trkpt>
      <trkpt lat="45.39208" lon="6.79041">
        <ele>2511.58</ele>
        <time>2018-03-25T09:03:00Z</time>
      </trkpt>
      <trkpt lat="45.39204" lon="6.79013">
        <ele>2511.1</ele>
        <time>2018-03-25T09:03:02Z</time>
      </trkpt>
      <trkpt lat="45.39186" lon="6.78945">
        <ele>2511.1</ele>
        <time>2018-03-25T09:03:45Z</time>
      </trkpt>
      <trkpt lat="45.39176" lon="6.78951">
        <ele>2512.06</ele>
        <time>2018-03-25T09:03:57Z</time>
      </trkpt>
      <trkpt lat="45.3918" lon="6.78999">
        <ele>2510.14</ele>
        <time>2018-03-25T09:04:24Z</time>
      </trkpt>
      <trkpt lat="45.39187" lon="6.7903">
        <ele>2511.58</ele>
        <time>2018-03-25T09:04:51Z</time>
      </trkpt>
      <trkpt lat="45.39194" lon="6.79044">
        <ele>2512.06</ele>
        <time>2018-03-25T09:05:29Z</time>
      </trkpt>
      <trkpt lat="45.39195" lon="6.79062">
        <ele>2511.1</ele>
        <time>2018-03-25T09:05:55Z</time>
      </trkpt>
      <trkpt lat="45.39199" lon="6.79054">
        <ele>2511.1</ele>
        <time>2018-03-25T09:06:30Z</time>
      </trkpt>
      <trkpt lat="45.39199" lon="6.79056">
        <ele>2512.06</ele>
        <time>2018-03-25T09:07:00Z</time>
      </trkpt>
      <trkpt lat="45.39199" lon="6.79055">
        <ele>2510.62</ele>
        <time>2018-03-25T09:07:08Z</time>
      </trkpt>
      <trkpt lat="45.392" lon="6.79061">
        <ele>2511.58</ele>
        <time>2018-03-25T09:07:30Z</time>
      </trkpt>
      <trkpt lat="45.39203" lon="6.79067">
        <ele>2511.58</ele>
        <time>2018-03-25T09:07:56Z</time>
      </trkpt>
      <trkpt lat="45.39203" lon="6.7907">
        <ele>2512.06</ele>
        <time>2018-03-25T09:07:59Z</time>
      </trkpt>
      <trkpt lat="45.39206" lon="6.79093">
        <ele>2513.02</ele>
        <time>2018-03-25T09:08:21Z</time>
      </trkpt>
      <trkpt lat="45.3921" lon="6.79098">
        <ele>2511.58</ele>
        <time>2018-03-25T09:08:47Z</time>
      </trkpt>
      <trkpt lat="45.39205" lon="6.79083">
        <ele>2512.06</ele>
        <time>2018-03-25T09:09:10Z</time>
      </trkpt>
      <trkpt lat="45.39203" lon="6.79073">
        <ele>2511.58</ele>
        <time>2018-03-25T09:09:17Z</time>
      </trkpt>
      <trkpt lat="45.39194" lon="6.79053">
        <ele>2512.06</ele>
        <time>2018-03-25T09:09:42Z</time>
      </trkpt>
      <trkpt lat="45.39186" lon="6.79034">
        <ele>2512.06</ele>
        <time>2018-03-25T09:10:09Z</time>
      </trkpt>
      <trkpt lat="45.39187" lon="6.7904">
        <ele>2512.06</ele>
        <time>2018-03-25T09:10:25Z</time>
      </trkpt>
      <trkpt lat="45.39196" lon="6.7908">
        <ele>2512.54</ele>
        <time>2018-03-25T09:10:37Z</time>
      </trkpt>
      <trkpt lat="45.39195" lon="6.7908">
        <ele>2512.06</ele>
        <time>2018-03-25T09:10:56Z</time>
      </trkpt>
      <trkpt lat="45.39196" lon="6.79079">
        <ele>2511.58</ele>
        <time>2018-03-25T09:11:11Z</time>
      </trkpt>
      <trkpt lat="45.39197" lon="6.79081">
        <ele>2512.54</ele>
        <time>2018-03-25T09:11:34Z</time>
      </trkpt>
      <trkpt lat="45.39197" lon="6.79081">
        <ele>2511.1</ele>
        <time>2018-03-25T09:11:36Z</time>
      </trkpt>
      <trkpt lat="45.39197" lon="6.7908">
        <ele>2512.54</ele>
        <time>2018-03-25T09:11:39Z</time>
      </trkpt>
      <trkpt lat="45.39194" lon="6.79082">
        <ele>2512.06</ele>
        <time>2018-03-25T09:11:53Z</time>
      </trkpt>
      <trkpt lat="45.3919" lon="6.79097">
        <ele>2511.58</ele>
        <time>2018-03-25T09:12:06Z</time>
      </trkpt>
      <trkpt lat="45.39189" lon="6.791">
        <ele>2513.5</ele>
        <time>2018-03-25T09:12:09Z</time>
      </trkpt>
      <trkpt lat="45.39188" lon="6.79106">
        <ele>2515.43</ele>
        <time>2018-03-25T09:12:19Z</time>
      </trkpt>
      <trkpt lat="45.39185" lon="6.79105">
        <ele>2514.95</ele>
        <time>2018-03-25T09:12:28Z</time>
      </trkpt>
      <trkpt lat="45.39185" lon="6.79113">
        <ele>2515.91</ele>
        <time>2018-03-25T09:12:40Z</time>
      </trkpt>
      <trkpt lat="45.39185" lon="6.79112">
        <ele>2515.91</ele>
        <time>2018-03-25T09:13:09Z</time>
      </trkpt>
      <trkpt lat="45.39186" lon="6.79125">
        <ele>2516.39</ele>
        <time>2018-03-25T09:13:24Z</time>
      </trkpt>
      <trkpt lat="45.39184" lon="6.79139">
        <ele>2515.91</ele>
        <time>2018-03-25T09:13:35Z</time>
      </trkpt>
      <trkpt lat="45.3918" lon="6.79156">
        <ele>2517.35</ele>
        <time>2018-03-25T09:13:49Z</time>
      </trkpt>
      <trkpt lat="45.39176" lon="6.79167">
        <ele>2517.35</ele>
        <time>2018-03-25T09:14:01Z</time>
      </trkpt>
      <trkpt lat="45.39175" lon="6.79172">
        <ele>2516.39</ele>
        <time>2018-03-25T09:14:11Z</time>
      </trkpt>
      <trkpt lat="45.3917" lon="6.79183">
        <ele>2516.87</ele>
        <time>2018-03-25T09:14:24Z</time>
      </trkpt>
      <trkpt lat="45.39167" lon="6.7919">
        <ele>2517.35</ele>
        <time>2018-03-25T09:14:31Z</time>
      </trkpt>
      <trkpt lat="45.39164" lon="6.79194">
        <ele>2516.39</ele>
        <time>2018-03-25T09:14:45Z</time>
      </trkpt>
      <trkpt lat="45.39164" lon="6.79195">
        <ele>2516.87</ele>
        <time>2018-03-25T09:14:58Z</time>
      </trkpt>
      <trkpt lat="45.39159" lon="6.79207">
        <ele>2516.39</ele>
        <time>2018-03-25T09:15:09Z</time>
      </trkpt>
      <trkpt lat="45.39155" lon="6.79215">
        <ele>2515.91</ele>
        <time>2018-03-25T09:15:16Z</time>
      </trkpt>
      <trkpt lat="45.39152" lon="6.79223">
        <ele>2515.43</ele>
        <time>2018-03-25T09:15:22Z</time>
      </trkpt>
      <trkpt lat="45.3914" lon="6.79238">
        <ele>2515.91</ele>
        <time>2018-03-25T09:15:36Z</time>
      </trkpt>
      <trkpt lat="45.39138" lon="6.7924">
        <ele>2516.39</ele>
        <time>2018-03-25T09:15:38Z</time>
      </trkpt>
      <trkpt lat="45.39129" lon="6.79255">
        <ele>2515.91</ele>
        <time>2018-03-25T09:15:52Z</time>
      </trkpt>
      <trkpt lat="45.39126" lon="6.79259">
        <ele>2516.39</ele>
        <time>2018-03-25T09:16:11Z</time>
      </trkpt>
      <trkpt lat="45.39119" lon="6.79268">
        <ele>2516.87</ele>
        <time>2018-03-25T09:16:20Z</time>
      </trkpt>
      <trkpt lat="45.39108" lon="6.79283">
        <ele>2517.83</ele>
        <time>2018-03-25T09:16:36Z</time>
      </trkpt>
      <trkpt lat="45.39098" lon="6.79297">
        <ele>2518.31</ele>
        <time>2018-03-25T09:16:51Z</time>
      </trkpt>
      <trkpt lat="45.39087" lon="6.79313">
        <ele>2518.31</ele>
        <time>2018-03-25T09:17:07Z</time>
      </trkpt>
      <trkpt lat="45.39086" lon="6.79312">
        <ele>2518.79</ele>
        <time>2018-03-25T09:17:21Z</time>
      </trkpt>
      <trkpt lat="45.39084" lon="6.79313">
        <ele>2519.27</ele>
        <time>2018-03-25T09:17:53Z</time>
      </trkpt>
      <trkpt lat="45.39076" lon="6.79328">
        <ele>2519.75</ele>
        <time>2018-03-25T09:18:06Z</time>
      </trkpt>
      <trkpt lat="45.39075" lon="6.7933">
        <ele>2520.71</ele>
        <time>2018-03-25T09:18:08Z</time>
      </trkpt>
      <trkpt lat="45.39063" lon="6.79343">
        <ele>2520.23</ele>
        <time>2018-03-25T09:18:22Z</time>
      </trkpt>
      <trkpt lat="45.39051" lon="6.79355">
        <ele>2520.71</ele>
        <time>2018-03-25T09:18:36Z</time>
      </trkpt>
      <trkpt lat="45.39035" lon="6.79366">
        <ele>2520.23</ele>
        <time>2018-03-25T09:18:51Z</time>
      </trkpt>
      <trkpt lat="45.39032" lon="6.79371">
        <ele>2520.23</ele>
        <time>2018-03-25T09:18:55Z</time>
      </trkpt>
      <trkpt lat="45.39031" lon="6.79375">
        <ele>2519.75</ele>
        <time>2018-03-25T09:19:10Z</time>
      </trkpt>
      <trkpt lat="45.39029" lon="6.79376">
        <ele>2519.27</ele>
        <time>2018-03-25T09:19:22Z</time>
      </trkpt>
      <trkpt lat="45.39029" lon="6.79376">
        <ele>2519.27</ele>
        <time>2018-03-25T09:19:40Z</time>
      </trkpt>
      <trkpt lat="45.39026" lon="6.79378">
        <ele>2519.75</ele>
        <time>2018-03-25T09:19:48Z</time>
      </trkpt>
      <trkpt lat="45.39026" lon="6.79381">
        <ele>2519.27</ele>
        <time>2018-03-25T09:20:03Z</time>
      </trkpt>
      <trkpt lat="45.3902" lon="6.79387">
        <ele>2520.23</ele>
        <time>2018-03-25T09:20:18Z</time>
      </trkpt>
      <trkpt lat="45.39009" lon="6.79398">
        <ele>2517.83</ele>
        <time>2018-03-25T09:20:27Z</time>
      </trkpt>
      <trkpt lat="45.38989" lon="6.7942">
        <ele>2514.95</ele>
        <time>2018-03-25T09:20:39Z</time>
      </trkpt>
      <trkpt lat="45.38985" lon="6.79424">
        <ele>2513.5</ele>
        <time>2018-03-25T09:20:41Z</time>
      </trkpt>
      <trkpt lat="45.38975" lon="6.79433">
        <ele>2512.06</ele>
        <time>2018-03-25T09:20:45Z</time>
      </trkpt>
      <trkpt lat="45.38965" lon="6.7944">
        <ele>2511.1</ele>
        <time>2018-03-25T09:20:48Z</time>
      </trkpt>
      <trkpt lat="45.38949" lon="6.79459">
        <ele>2506.29</ele>
        <time>2018-03-25T09:20:52Z</time>
      </trkpt>
      <trkpt lat="45.38944" lon="6.79464">
        <ele>2504.85</ele>
        <time>2018-03-25T09:20:53Z</time>
      </trkpt>
      <trkpt lat="45.38935" lon="6.7948">
        <ele>2497.64</ele>
        <time>2018-03-25T09:20:57Z</time>
      </trkpt>
      <trkpt lat="45.38935" lon="6.7948">
        <ele>2499.08</ele>
        <time>2018-03-25T09:20:58Z</time>
      </trkpt>
      <trkpt lat="45.38935" lon="6.79479">
        <ele>2500.05</ele>
        <time>2018-03-25T09:21:00Z</time>
      </trkpt>
      <trkpt lat="45.38936" lon="6.7948">
        <ele>2499.08</ele>
        <time>2018-03-25T09:21:13Z</time>
      </trkpt>
      <trkpt lat="45.38936" lon="6.79481">
        <ele>2499.57</ele>
        <time>2018-03-25T09:21:31Z</time>
      </trkpt>
      <trkpt lat="45.38936" lon="6.79482">
        <ele>2499.08</ele>
        <time>2018-03-25T09:21:43Z</time>
      </trkpt>
      <trkpt lat="45.38936" lon="6.79481">
        <ele>2501.49</ele>
        <time>2018-03-25T09:21:55Z</time>
      </trkpt>
      <trkpt lat="45.38935" lon="6.79481">
        <ele>2501.49</ele>
        <time>2018-03-25T09:22:05Z</time>
      </trkpt>
      <trkpt lat="45.38934" lon="6.79482">
        <ele>2501.01</ele>
        <time>2018-03-25T09:22:20Z</time>
      </trkpt>
      <trkpt lat="45.38933" lon="6.79483">
        <ele>2501.01</ele>
        <time>2018-03-25T09:22:26Z</time>
      </trkpt>
      <trkpt lat="45.38933" lon="6.79483">
        <ele>2500.53</ele>
        <time>2018-03-25T09:22:41Z</time>
      </trkpt>
      <trkpt lat="45.38931" lon="6.79483">
        <ele>2500.53</ele>
        <time>2018-03-25T09:22:56Z</time>
      </trkpt>
      <trkpt lat="45.38933" lon="6.79482">
        <ele>2500.53</ele>
        <time>2018-03-25T09:23:15Z</time>
      </trkpt>
      <trkpt lat="45.38933" lon="6.79484">
        <ele>2500.05</ele>
        <time>2018-03-25T09:23:43Z</time>
      </trkpt>
      <trkpt lat="45.38935" lon="6.79484">
        <ele>2499.57</ele>
        <time>2018-03-25T09:24:12Z</time>
      </trkpt>
      <trkpt lat="45.38935" lon="6.79484">
        <ele>2500.53</ele>
        <time>2018-03-25T09:24:35Z</time>
      </trkpt>
      <trkpt lat="45.38935" lon="6.79483">
        <ele>2501.49</ele>
        <time>2018-03-25T09:25:00Z</time>
      </trkpt>
      <trkpt lat="45.38933" lon="6.79487">
        <ele>2501.97</ele>
        <time>2018-03-25T09:25:21Z</time>
      </trkpt>
      <trkpt lat="45.38923" lon="6.79499">
        <ele>2498.6</ele>
        <time>2018-03-25T09:25:31Z</time>
      </trkpt>
      <trkpt lat="45.38918" lon="6.79507">
        <ele>2498.12</ele>
        <time>2018-03-25T09:25:37Z</time>
      </trkpt>
      <trkpt lat="45.38916" lon="6.79512">
        <ele>2498.12</ele>
        <time>2018-03-25T09:25:40Z</time>
      </trkpt>
      <trkpt lat="45.38912" lon="6.79525">
        <ele>2497.64</ele>
        <time>2018-03-25T09:25:49Z</time>
      </trkpt>
      <trkpt lat="45.3891" lon="6.79527">
        <ele>2497.64</ele>
        <time>2018-03-25T09:25:51Z</time>
      </trkpt>
      <trkpt lat="45.38901" lon="6.79549">
        <ele>2497.16</ele>
        <time>2018-03-25T09:26:07Z</time>
      </trkpt>
      <trkpt lat="45.38899" lon="6.79554">
        <ele>2497.64</ele>
        <time>2018-03-25T09:26:17Z</time>
      </trkpt>
      <trkpt lat="45.38897" lon="6.79559">
        <ele>2497.16</ele>
        <time>2018-03-25T09:26:21Z</time>
      </trkpt>
      <trkpt lat="45.3889" lon="6.79574">
        <ele>2496.68</ele>
        <time>2018-03-25T09:26:32Z</time>
      </trkpt>
      <trkpt lat="45.38888" lon="6.79581">
        <ele>2497.16</ele>
        <time>2018-03-25T09:26:37Z</time>
      </trkpt>
      <trkpt lat="45.38883" lon="6.7959">
        <ele>2496.68</ele>
        <time>2018-03-25T09:26:43Z</time>
      </trkpt>
      <trkpt lat="45.38873" lon="6.79613">
        <ele>2495.24</ele>
        <time>2018-03-25T09:26:57Z</time>
      </trkpt>
      <trkpt lat="45.38875" lon="6.79612">
        <ele>2496.2</ele>
        <time>2018-03-25T09:27:12Z</time>
      </trkpt>
      <trkpt lat="45.38874" lon="6.79615">
        <ele>2495.24</ele>
        <time>2018-03-25T09:27:37Z</time>
      </trkpt>
      <trkpt lat="45.38869" lon="6.79626">
        <ele>2494.76</ele>
        <time>2018-03-25T09:27:52Z</time>
      </trkpt>
      <trkpt lat="45.38857" lon="6.79655">
        <ele>2493.32</ele>
        <time>2018-03-25T09:28:08Z</time>
      </trkpt>
      <trkpt lat="45.38848" lon="6.79675">
        <ele>2493.8</ele>
        <time>2018-03-25T09:28:24Z</time>
      </trkpt>
      <trkpt lat="45.38838" lon="6.79696">
        <ele>2492.36</ele>
        <time>2018-03-25T09:28:40Z</time>
      </trkpt>
      <trkpt lat="45.38831" lon="6.79713">
        <ele>2493.32</ele>
        <time>2018-03-25T09:28:53Z</time>
      </trkpt>
      <trkpt lat="45.38821" lon="6.79732">
        <ele>2492.84</ele>
        <time>2018-03-25T09:29:09Z</time>
      </trkpt>
      <trkpt lat="45.38811" lon="6.79747">
        <ele>2493.32</ele>
        <time>2018-03-25T09:29:24Z</time>
      </trkpt>
      <trkpt lat="45.38806" lon="6.79769">
        <ele>2492.84</ele>
        <time>2018-03-25T09:29:38Z</time>
      </trkpt>
      <trkpt lat="45.38798" lon="6.79789">
        <ele>2492.84</ele>
        <time>2018-03-25T09:29:54Z</time>
      </trkpt>
      <trkpt lat="45.38795" lon="6.79789">
        <ele>2493.8</ele>
        <time>2018-03-25T09:29:58Z</time>
      </trkpt>
      <trkpt lat="45.38791" lon="6.79814">
        <ele>2493.8</ele>
        <time>2018-03-25T09:30:15Z</time>
      </trkpt>
      <trkpt lat="45.38788" lon="6.79816">
        <ele>2494.28</ele>
        <time>2018-03-25T09:30:19Z</time>
      </trkpt>
      <trkpt lat="45.38786" lon="6.79824">
        <ele>2495.24</ele>
        <time>2018-03-25T09:30:25Z</time>
      </trkpt>
      <trkpt lat="45.38781" lon="6.79831">
        <ele>2494.76</ele>
        <time>2018-03-25T09:30:33Z</time>
      </trkpt>
      <trkpt lat="45.38774" lon="6.79837">
        <ele>2495.24</ele>
        <time>2018-03-25T09:30:43Z</time>
      </trkpt>
      <trkpt lat="45.38767" lon="6.79857">
        <ele>2496.2</ele>
        <time>2018-03-25T09:30:59Z</time>
      </trkpt>
      <trkpt lat="45.3876" lon="6.7987">
        <ele>2497.16</ele>
        <time>2018-03-25T09:31:12Z</time>
      </trkpt>
      <trkpt lat="45.38751" lon="6.79881">
        <ele>2497.64</ele>
        <time>2018-03-25T09:31:27Z</time>
      </trkpt>
      <trkpt lat="45.38743" lon="6.79891">
        <ele>2499.08</ele>
        <time>2018-03-25T09:31:41Z</time>
      </trkpt>
      <trkpt lat="45.38735" lon="6.79902">
        <ele>2499.57</ele>
        <time>2018-03-25T09:31:55Z</time>
      </trkpt>
      <trkpt lat="45.38727" lon="6.79915">
        <ele>2500.53</ele>
        <time>2018-03-25T09:32:10Z</time>
      </trkpt>
      <trkpt lat="45.38723" lon="6.79914">
        <ele>2500.53</ele>
        <time>2018-03-25T09:32:22Z</time>
      </trkpt>
      <trkpt lat="45.38725" lon="6.79918">
        <ele>2501.01</ele>
        <time>2018-03-25T09:32:45Z</time>
      </trkpt>
      <trkpt lat="45.38724" lon="6.79917">
        <ele>2500.53</ele>
        <time>2018-03-25T09:33:15Z</time>
      </trkpt>
      <trkpt lat="45.38725" lon="6.79919">
        <ele>2500.53</ele>
        <time>2018-03-25T09:33:41Z</time>
      </trkpt>
      <trkpt lat="45.38724" lon="6.79918">
        <ele>2500.53</ele>
        <time>2018-03-25T09:34:05Z</time>
      </trkpt>
      <trkpt lat="45.38721" lon="6.79926">
        <ele>2500.53</ele>
        <time>2018-03-25T09:34:23Z</time>
      </trkpt>
      <trkpt lat="45.38714" lon="6.7995">
        <ele>2498.6</ele>
        <time>2018-03-25T09:34:38Z</time>
      </trkpt>
      <trkpt lat="45.38713" lon="6.79955">
        <ele>2498.6</ele>
        <time>2018-03-25T09:34:41Z</time>
      </trkpt>
      <trkpt lat="45.38709" lon="6.79966">
        <ele>2497.64</ele>
        <time>2018-03-25T09:34:47Z</time>
      </trkpt>
      <trkpt lat="45.38701" lon="6.79991">
        <ele>2494.28</ele>
        <time>2018-03-25T09:34:55Z</time>
      </trkpt>
      <trkpt lat="45.38691" lon="6.80015">
        <ele>2491.39</ele>
        <time>2018-03-25T09:35:01Z</time>
      </trkpt>
      <trkpt lat="45.38686" lon="6.80028">
        <ele>2489.95</ele>
        <time>2018-03-25T09:35:04Z</time>
      </trkpt>
      <trkpt lat="45.3868" lon="6.80042">
        <ele>2488.03</ele>
        <time>2018-03-25T09:35:07Z</time>
      </trkpt>
      <trkpt lat="45.38671" lon="6.80064">
        <ele>2484.66</ele>
        <time>2018-03-25T09:35:12Z</time>
      </trkpt>
      <trkpt lat="45.38669" lon="6.80068">
        <ele>2484.66</ele>
        <time>2018-03-25T09:35:13Z</time>
      </trkpt>
      <trkpt lat="45.38665" lon="6.80081">
        <ele>2482.74</ele>
        <time>2018-03-25T09:35:16Z</time>
      </trkpt>
      <trkpt lat="45.38662" lon="6.80095">
        <ele>2481.3</ele>
        <time>2018-03-25T09:35:26Z</time>
      </trkpt>
      <trkpt lat="45.38657" lon="6.80113">
        <ele>2481.3</ele>
        <time>2018-03-25T09:35:38Z</time>
      </trkpt>
      <trkpt lat="45.38652" lon="6.8013">
        <ele>2480.34</ele>
        <time>2018-03-25T09:35:51Z</time>
      </trkpt>
      <trkpt lat="45.3865" lon="6.80142">
        <ele>2479.38</ele>
        <time>2018-03-25T09:35:59Z</time>
      </trkpt>
      <trkpt lat="45.38649" lon="6.80166">
        <ele>2479.86</ele>
        <time>2018-03-25T09:36:15Z</time>
      </trkpt>
      <trkpt lat="45.3865" lon="6.80188">
        <ele>2479.86</ele>
        <time>2018-03-25T09:36:30Z</time>
      </trkpt>
      <trkpt lat="45.38651" lon="6.80211">
        <ele>2479.38</ele>
        <time>2018-03-25T09:36:46Z</time>
      </trkpt>
      <trkpt lat="45.38653" lon="6.80232">
        <ele>2479.38</ele>
        <time>2018-03-25T09:37:02Z</time>
      </trkpt>
      <trkpt lat="45.38653" lon="6.8025">
        <ele>2479.86</ele>
        <time>2018-03-25T09:37:16Z</time>
      </trkpt>
      <trkpt lat="45.38654" lon="6.80251">
        <ele>2479.86</ele>
        <time>2018-03-25T09:37:17Z</time>
      </trkpt>
      <trkpt lat="45.38655" lon="6.80269">
        <ele>2479.86</ele>
        <time>2018-03-25T09:37:31Z</time>
      </trkpt>
      <trkpt lat="45.38658" lon="6.80284">
        <ele>2480.34</ele>
        <time>2018-03-25T09:37:45Z</time>
      </trkpt>
      <trkpt lat="45.38657" lon="6.80287">
        <ele>2481.78</ele>
        <time>2018-03-25T09:37:48Z</time>
      </trkpt>
      <trkpt lat="45.38655" lon="6.80291">
        <ele>2482.26</ele>
        <time>2018-03-25T09:38:02Z</time>
      </trkpt>
      <trkpt lat="45.38657" lon="6.80294">
        <ele>2482.74</ele>
        <time>2018-03-25T09:38:15Z</time>
      </trkpt>
      <trkpt lat="45.38661" lon="6.80295">
        <ele>2483.22</ele>
        <time>2018-03-25T09:38:24Z</time>
      </trkpt>
      <trkpt lat="45.3866" lon="6.80292">
        <ele>2481.78</ele>
        <time>2018-03-25T09:38:40Z</time>
      </trkpt>
      <trkpt lat="45.38659" lon="6.80291">
        <ele>2481.3</ele>
        <time>2018-03-25T09:38:52Z</time>
      </trkpt>
      <trkpt lat="45.38659" lon="6.8029">
        <ele>2481.3</ele>
        <time>2018-03-25T09:39:33Z</time>
      </trkpt>
      <trkpt lat="45.38658" lon="6.80291">
        <ele>2481.78</ele>
        <time>2018-03-25T09:39:51Z</time>
      </trkpt>
      <trkpt lat="45.38658" lon="6.8029">
        <ele>2480.82</ele>
        <time>2018-03-25T09:40:12Z</time>
      </trkpt>
      <trkpt lat="45.38659" lon="6.80293">
        <ele>2480.82</ele>
        <time>2018-03-25T09:40:45Z</time>
      </trkpt>
      <trkpt lat="45.38659" lon="6.80293">
        <ele>2486.11</ele>
        <time>2018-03-25T09:40:52Z</time>
      </trkpt>
      <trkpt lat="45.38659" lon="6.80294">
        <ele>2486.11</ele>
        <time>2018-03-25T09:40:53Z</time>
      </trkpt>
      <trkpt lat="45.38659" lon="6.80294">
        <ele>2482.26</ele>
        <time>2018-03-25T09:40:54Z</time>
      </trkpt>
      <trkpt lat="45.38658" lon="6.80294">
        <ele>2480.34</ele>
        <time>2018-03-25T09:40:56Z</time>
      </trkpt>
      <trkpt lat="45.38663" lon="6.8029">
        <ele>2480.82</ele>
        <time>2018-03-25T09:41:31Z</time>
      </trkpt>
      <trkpt lat="45.3866" lon="6.8029">
        <ele>2479.38</ele>
        <time>2018-03-25T09:41:50Z</time>
      </trkpt>
      <trkpt lat="45.38657" lon="6.80288">
        <ele>2479.86</ele>
        <time>2018-03-25T09:42:31Z</time>
      </trkpt>
      <trkpt lat="45.38655" lon="6.80293">
        <ele>2480.82</ele>
        <time>2018-03-25T09:43:12Z</time>
      </trkpt>
      <trkpt lat="45.38657" lon="6.80292">
        <ele>2481.78</ele>
        <time>2018-03-25T09:43:55Z</time>
      </trkpt>
      <trkpt lat="45.38658" lon="6.80293">
        <ele>2481.3</ele>
        <time>2018-03-25T09:44:26Z</time>
      </trkpt>
      <trkpt lat="45.38661" lon="6.80292">
        <ele>2480.82</ele>
        <time>2018-03-25T09:44:56Z</time>
      </trkpt>
      <trkpt lat="45.38661" lon="6.80292">
        <ele>2481.78</ele>
        <time>2018-03-25T09:44:59Z</time>
      </trkpt>
      <trkpt lat="45.38666" lon="6.80294">
        <ele>2481.78</ele>
        <time>2018-03-25T09:45:34Z</time>
      </trkpt>
      <trkpt lat="45.38661" lon="6.80295">
        <ele>2481.78</ele>
        <time>2018-03-25T09:46:07Z</time>
      </trkpt>
      <trkpt lat="45.38661" lon="6.80295">
        <ele>2481.78</ele>
        <time>2018-03-25T09:46:46Z</time>
      </trkpt>
      <trkpt lat="45.38659" lon="6.80295">
        <ele>2482.26</ele>
        <time>2018-03-25T09:47:20Z</time>
      </trkpt>
      <trkpt lat="45.38659" lon="6.80294">
        <ele>2481.78</ele>
        <time>2018-03-25T09:48:00Z</time>
      </trkpt>
      <trkpt lat="45.38658" lon="6.80291">
        <ele>2482.74</ele>
        <time>2018-03-25T09:48:39Z</time>
      </trkpt>
      <trkpt lat="45.38658" lon="6.80288">
        <ele>2482.26</ele>
        <time>2018-03-25T09:49:14Z</time>
      </trkpt>
      <trkpt lat="45.38657" lon="6.80288">
        <ele>2482.26</ele>
        <time>2018-03-25T09:49:58Z</time>
      </trkpt>
      <trkpt lat="45.38658" lon="6.80286">
        <ele>2482.26</ele>
        <time>2018-03-25T09:50:36Z</time>
      </trkpt>
      <trkpt lat="45.38657" lon="6.80284">
        <ele>2482.26</ele>
        <time>2018-03-25T09:51:07Z</time>
      </trkpt>
      <trkpt lat="45.38658" lon="6.80286">
        <ele>2482.26</ele>
        <time>2018-03-25T09:51:51Z</time>
      </trkpt>
      <trkpt lat="45.38656" lon="6.8029">
        <ele>2482.74</ele>
        <time>2018-03-25T09:52:25Z</time>
      </trkpt>
      <trkpt lat="45.38659" lon="6.80285">
        <ele>2482.74</ele>
        <time>2018-03-25T09:53:00Z</time>
      </trkpt>
      <trkpt lat="45.3866" lon="6.80284">
        <ele>2483.22</ele>
        <time>2018-03-25T09:53:34Z</time>
      </trkpt>
      <trkpt lat="45.3866" lon="6.80287">
        <ele>2487.07</ele>
        <time>2018-03-25T09:53:41Z</time>
      </trkpt>
      <trkpt lat="45.3866" lon="6.80287">
        <ele>2482.74</ele>
        <time>2018-03-25T09:53:42Z</time>
      </trkpt>
      <trkpt lat="45.3866" lon="6.80291">
        <ele>2486.59</ele>
        <time>2018-03-25T09:53:50Z</time>
      </trkpt>
      <trkpt lat="45.3866" lon="6.80292">
        <ele>2480.34</ele>
        <time>2018-03-25T09:53:53Z</time>
      </trkpt>
      <trkpt lat="45.3866" lon="6.80291">
        <ele>2488.99</ele>
        <time>2018-03-25T09:53:54Z</time>
      </trkpt>
      <trkpt lat="45.3866" lon="6.80292">
        <ele>2484.18</ele>
        <time>2018-03-25T09:53:55Z</time>
      </trkpt>
      <trkpt lat="45.3866" lon="6.80292">
        <ele>2483.7</ele>
        <time>2018-03-25T09:53:57Z</time>
      </trkpt>
      <trkpt lat="45.38659" lon="6.80291">
        <ele>2483.7</ele>
        <time>2018-03-25T09:54:40Z</time>
      </trkpt>
      <trkpt lat="45.38661" lon="6.80289">
        <ele>2483.22</ele>
        <time>2018-03-25T09:55:23Z</time>
      </trkpt>
      <trkpt lat="45.38659" lon="6.80288">
        <ele>2483.22</ele>
        <time>2018-03-25T09:55:50Z</time>
      </trkpt>
      <trkpt lat="45.38658" lon="6.80292">
        <ele>2483.7</ele>
        <time>2018-03-25T09:56:35Z</time>
      </trkpt>
      <trkpt lat="45.38659" lon="6.80292">
        <ele>2484.18</ele>
        <time>2018-03-25T09:56:59Z</time>
      </trkpt>
      <trkpt lat="45.38662" lon="6.80293">
        <ele>2483.22</ele>
        <time>2018-03-25T09:57:27Z</time>
      </trkpt>
      <trkpt lat="45.3866" lon="6.80292">
        <ele>2482.26</ele>
        <time>2018-03-25T09:57:58Z</time>
      </trkpt>
      <trkpt lat="45.38653" lon="6.8029">
        <ele>2482.74</ele>
        <time>2018-03-25T09:58:28Z</time>
      </trkpt>
      <trkpt lat="45.38655" lon="6.80293">
        <ele>2482.74</ele>
        <time>2018-03-25T09:59:02Z</time>
      </trkpt>
      <trkpt lat="45.38657" lon="6.8029">
        <ele>2481.78</ele>
        <time>2018-03-25T09:59:28Z</time>
      </trkpt>
      <trkpt lat="45.38657" lon="6.80288">
        <ele>2481.3</ele>
        <time>2018-03-25T09:59:53Z</time>
      </trkpt>
      <trkpt lat="45.38657" lon="6.80288">
        <ele>2482.74</ele>
        <time>2018-03-25T09:59:56Z</time>
      </trkpt>
      <trkpt lat="45.38657" lon="6.80291">
        <ele>2482.26</ele>
        <time>2018-03-25T10:00:34Z</time>
      </trkpt>
      <trkpt lat="45.38657" lon="6.8029">
        <ele>2482.74</ele>
        <time>2018-03-25T10:01:12Z</time>
      </trkpt>
      <trkpt lat="45.38657" lon="6.8029">
        <ele>2481.3</ele>
        <time>2018-03-25T10:01:15Z</time>
      </trkpt>
      <trkpt lat="45.38657" lon="6.80289">
        <ele>2482.74</ele>
        <time>2018-03-25T10:01:57Z</time>
      </trkpt>
      <trkpt lat="45.38658" lon="6.80291">
        <ele>2483.22</ele>
        <time>2018-03-25T10:02:33Z</time>
      </trkpt>
      <trkpt lat="45.3866" lon="6.80291">
        <ele>2482.74</ele>
        <time>2018-03-25T10:03:06Z</time>
      </trkpt>
      <trkpt lat="45.38659" lon="6.80291">
        <ele>2483.22</ele>
        <time>2018-03-25T10:03:34Z</time>
      </trkpt>
      <trkpt lat="45.38659" lon="6.80288">
        <ele>2482.74</ele>
        <time>2018-03-25T10:04:00Z</time>
      </trkpt>
      <trkpt lat="45.3866" lon="6.80291">
        <ele>2483.22</ele>
        <time>2018-03-25T10:04:33Z</time>
      </trkpt>
      <trkpt lat="45.38659" lon="6.80291">
        <ele>2483.22</ele>
        <time>2018-03-25T10:04:51Z</time>
      </trkpt>
      <trkpt lat="45.38662" lon="6.80288">
        <ele>2482.74</ele>
        <time>2018-03-25T10:05:24Z</time>
      </trkpt>
      <trkpt lat="45.38664" lon="6.80287">
        <ele>2482.74</ele>
        <time>2018-03-25T10:06:02Z</time>
      </trkpt>
      <trkpt lat="45.38663" lon="6.80288">
        <ele>2481.78</ele>
        <time>2018-03-25T10:06:34Z</time>
      </trkpt>
      <trkpt lat="45.38657" lon="6.8029">
        <ele>2482.74</ele>
        <time>2018-03-25T10:06:57Z</time>
      </trkpt>
      <trkpt lat="45.38655" lon="6.80286">
        <ele>2482.74</ele>
        <time>2018-03-25T10:07:20Z</time>
      </trkpt>
      <trkpt lat="45.38657" lon="6.80286">
        <ele>2482.74</ele>
        <time>2018-03-25T10:07:38Z</time>
      </trkpt>
      <trkpt lat="45.38658" lon="6.80285">
        <ele>2482.74</ele>
        <time>2018-03-25T10:07:57Z</time>
      </trkpt>
      <trkpt lat="45.38657" lon="6.8029">
        <ele>2482.74</ele>
        <time>2018-03-25T10:08:15Z</time>
      </trkpt>
      <trkpt lat="45.38658" lon="6.80292">
        <ele>2483.22</ele>
        <time>2018-03-25T10:08:27Z</time>
      </trkpt>
      <trkpt lat="45.38659" lon="6.80292">
        <ele>2483.7</ele>
        <time>2018-03-25T10:08:48Z</time>
      </trkpt>
      <trkpt lat="45.3866" lon="6.80292">
        <ele>2484.18</ele>
        <time>2018-03-25T10:09:10Z</time>
      </trkpt>
      <trkpt lat="45.38658" lon="6.80293">
        <ele>2484.66</ele>
        <time>2018-03-25T10:09:22Z</time>
      </trkpt>
      <trkpt lat="45.38659" lon="6.80293">
        <ele>2483.22</ele>
        <time>2018-03-25T10:09:37Z</time>
      </trkpt>
      <trkpt lat="45.3866" lon="6.80294">
        <ele>2483.22</ele>
        <time>2018-03-25T10:09:59Z</time>
      </trkpt>
      <trkpt lat="45.38659" lon="6.80291">
        <ele>2483.7</ele>
        <time>2018-03-25T10:10:14Z</time>
      </trkpt>
      <trkpt lat="45.38658" lon="6.80288">
        <ele>2484.18</ele>
        <time>2018-03-25T10:10:38Z</time>
      </trkpt>
      <trkpt lat="45.38657" lon="6.80289">
        <ele>2483.22</ele>
        <time>2018-03-25T10:11:08Z</time>
      </trkpt>
      <trkpt lat="45.38659" lon="6.80287">
        <ele>2482.74</ele>
        <time>2018-03-25T10:11:30Z</time>
      </trkpt>
      <trkpt lat="45.38659" lon="6.80284">
        <ele>2483.7</ele>
        <time>2018-03-25T10:11:33Z</time>
      </trkpt>
      <trkpt lat="45.3866" lon="6.80273">
        <ele>2482.26</ele>
        <time>2018-03-25T10:11:40Z</time>
      </trkpt>
      <trkpt lat="45.3866" lon="6.80268">
        <ele>2482.74</ele>
        <time>2018-03-25T10:11:54Z</time>
      </trkpt>
      <trkpt lat="45.38662" lon="6.80258">
        <ele>2481.78</ele>
        <time>2018-03-25T10:12:05Z</time>
      </trkpt>
      <trkpt lat="45.38665" lon="6.80239">
        <ele>2482.26</ele>
        <time>2018-03-25T10:12:19Z</time>
      </trkpt>
      <trkpt lat="45.38667" lon="6.80218">
        <ele>2482.74</ele>
        <time>2018-03-25T10:12:35Z</time>
      </trkpt>
      <trkpt lat="45.3867" lon="6.80199">
        <ele>2482.26</ele>
        <time>2018-03-25T10:12:50Z</time>
      </trkpt>
      <trkpt lat="45.3867" lon="6.80181">
        <ele>2482.74</ele>
        <time>2018-03-25T10:13:06Z</time>
      </trkpt>
      <trkpt lat="45.38674" lon="6.80165">
        <ele>2483.22</ele>
        <time>2018-03-25T10:13:22Z</time>
      </trkpt>
      <trkpt lat="45.38678" lon="6.80152">
        <ele>2484.18</ele>
        <time>2018-03-25T10:13:36Z</time>
      </trkpt>
      <trkpt lat="45.38681" lon="6.80142">
        <ele>2484.18</ele>
        <time>2018-03-25T10:13:50Z</time>
      </trkpt>
      <trkpt lat="45.38682" lon="6.80133">
        <ele>2484.66</ele>
        <time>2018-03-25T10:14:02Z</time>
      </trkpt>
      <trkpt lat="45.38685" lon="6.80129">
        <ele>2485.15</ele>
        <time>2018-03-25T10:14:19Z</time>
      </trkpt>
      <trkpt lat="45.38685" lon="6.8012">
        <ele>2485.63</ele>
        <time>2018-03-25T10:14:41Z</time>
      </trkpt>
      <trkpt lat="45.38687" lon="6.80106">
        <ele>2486.59</ele>
        <time>2018-03-25T10:14:56Z</time>
      </trkpt>
      <trkpt lat="45.3869" lon="6.80095">
        <ele>2486.59</ele>
        <time>2018-03-25T10:15:10Z</time>
      </trkpt>
      <trkpt lat="45.38691" lon="6.80081">
        <ele>2488.03</ele>
        <time>2018-03-25T10:15:24Z</time>
      </trkpt>
      <trkpt lat="45.38694" lon="6.8007">
        <ele>2488.99</ele>
        <time>2018-03-25T10:15:38Z</time>
      </trkpt>
      <trkpt lat="45.38696" lon="6.80059">
        <ele>2489.95</ele>
        <time>2018-03-25T10:15:51Z</time>
      </trkpt>
      <trkpt lat="45.387" lon="6.80052">
        <ele>2490.43</ele>
        <time>2018-03-25T10:16:05Z</time>
      </trkpt>
      <trkpt lat="45.38701" lon="6.8005">
        <ele>2491.39</ele>
        <time>2018-03-25T10:16:20Z</time>
      </trkpt>
      <trkpt lat="45.38704" lon="6.80043">
        <ele>2490.91</ele>
        <time>2018-03-25T10:16:41Z</time>
      </trkpt>
      <trkpt lat="45.38706" lon="6.80031">
        <ele>2492.36</ele>
        <time>2018-03-25T10:16:55Z</time>
      </trkpt>
      <trkpt lat="45.38709" lon="6.80027">
        <ele>2493.8</ele>
        <time>2018-03-25T10:17:04Z</time>
      </trkpt>
      <trkpt lat="45.3871" lon="6.80013">
        <ele>2495.24</ele>
        <time>2018-03-25T10:17:18Z</time>
      </trkpt>
      <trkpt lat="45.38709" lon="6.80003">
        <ele>2495.72</ele>
        <time>2018-03-25T10:17:32Z</time>
      </trkpt>
      <trkpt lat="45.38711" lon="6.79996">
        <ele>2495.24</ele>
        <time>2018-03-25T10:17:47Z</time>
      </trkpt>
      <trkpt lat="45.38713" lon="6.79993">
        <ele>2495.72</ele>
        <time>2018-03-25T10:18:01Z</time>
      </trkpt>
      <trkpt lat="45.38715" lon="6.79988">
        <ele>2496.68</ele>
        <time>2018-03-25T10:18:19Z</time>
      </trkpt>
      <trkpt lat="45.38714" lon="6.79977">
        <ele>2497.16</ele>
        <time>2018-03-25T10:18:36Z</time>
      </trkpt>
      <trkpt lat="45.38714" lon="6.79964">
        <ele>2497.16</ele>
        <time>2018-03-25T10:18:50Z</time>
      </trkpt>
      <trkpt lat="45.38716" lon="6.79952">
        <ele>2498.6</ele>
        <time>2018-03-25T10:19:04Z</time>
      </trkpt>
      <trkpt lat="45.38714" lon="6.79937">
        <ele>2499.57</ele>
        <time>2018-03-25T10:19:18Z</time>
      </trkpt>
      <trkpt lat="45.38715" lon="6.79924">
        <ele>2499.57</ele>
        <time>2018-03-25T10:19:32Z</time>
      </trkpt>
      <trkpt lat="45.3872" lon="6.79914">
        <ele>2501.01</ele>
        <time>2018-03-25T10:19:48Z</time>
      </trkpt>
      <trkpt lat="45.3872" lon="6.79892">
        <ele>2501.49</ele>
        <time>2018-03-25T10:20:02Z</time>
      </trkpt>
      <trkpt lat="45.38724" lon="6.79876">
        <ele>2500.05</ele>
        <time>2018-03-25T10:20:12Z</time>
      </trkpt>
      <trkpt lat="45.38735" lon="6.79867">
        <ele>2498.6</ele>
        <time>2018-03-25T10:20:27Z</time>
      </trkpt>
      <trkpt lat="45.3874" lon="6.79864">
        <ele>2499.08</ele>
        <time>2018-03-25T10:20:32Z</time>
      </trkpt>
      <trkpt lat="45.38742" lon="6.79856">
        <ele>2498.12</ele>
        <time>2018-03-25T10:20:37Z</time>
      </trkpt>
      <trkpt lat="45.38758" lon="6.79843">
        <ele>2497.16</ele>
        <time>2018-03-25T10:20:51Z</time>
      </trkpt>
      <trkpt lat="45.38772" lon="6.79832">
        <ele>2496.68</ele>
        <time>2018-03-25T10:21:05Z</time>
      </trkpt>
      <trkpt lat="45.3878" lon="6.79813">
        <ele>2495.72</ele>
        <time>2018-03-25T10:21:20Z</time>
      </trkpt>
      <trkpt lat="45.3879" lon="6.79799">
        <ele>2494.76</ele>
        <time>2018-03-25T10:21:35Z</time>
      </trkpt>
      <trkpt lat="45.38789" lon="6.79797">
        <ele>2494.76</ele>
        <time>2018-03-25T10:21:51Z</time>
      </trkpt>
      <trkpt lat="45.3879" lon="6.79792">
        <ele>2494.76</ele>
        <time>2018-03-25T10:22:16Z</time>
      </trkpt>
      <trkpt lat="45.38799" lon="6.79777">
        <ele>2494.28</ele>
        <time>2018-03-25T10:22:30Z</time>
      </trkpt>
      <trkpt lat="45.38807" lon="6.79759">
        <ele>2494.76</ele>
        <time>2018-03-25T10:22:45Z</time>
      </trkpt>
      <trkpt lat="45.38817" lon="6.79742">
        <ele>2494.28</ele>
        <time>2018-03-25T10:23:00Z</time>
      </trkpt>
      <trkpt lat="45.38823" lon="6.79725">
        <ele>2494.76</ele>
        <time>2018-03-25T10:23:15Z</time>
      </trkpt>
      <trkpt lat="45.38832" lon="6.79713">
        <ele>2495.24</ele>
        <time>2018-03-25T10:23:30Z</time>
      </trkpt>
      <trkpt lat="45.38841" lon="6.79698">
        <ele>2494.76</ele>
        <time>2018-03-25T10:23:45Z</time>
      </trkpt>
      <trkpt lat="45.38848" lon="6.79692">
        <ele>2494.76</ele>
        <time>2018-03-25T10:23:57Z</time>
      </trkpt>
      <trkpt lat="45.38845" lon="6.79693">
        <ele>2494.76</ele>
        <time>2018-03-25T10:24:16Z</time>
      </trkpt>
      <trkpt lat="45.38849" lon="6.79694">
        <ele>2494.28</ele>
        <time>2018-03-25T10:24:38Z</time>
      </trkpt>
      <trkpt lat="45.38852" lon="6.79685">
        <ele>2494.28</ele>
        <time>2018-03-25T10:24:50Z</time>
      </trkpt>
      <trkpt lat="45.38855" lon="6.79675">
        <ele>2493.8</ele>
        <time>2018-03-25T10:25:01Z</time>
      </trkpt>
      <trkpt lat="45.38864" lon="6.79657">
        <ele>2494.76</ele>
        <time>2018-03-25T10:25:15Z</time>
      </trkpt>
      <trkpt lat="45.38868" lon="6.79641">
        <ele>2494.28</ele>
        <time>2018-03-25T10:25:28Z</time>
      </trkpt>
      <trkpt lat="45.38875" lon="6.79633">
        <ele>2495.72</ele>
        <time>2018-03-25T10:25:42Z</time>
      </trkpt>
      <trkpt lat="45.3888" lon="6.79618">
        <ele>2496.2</ele>
        <time>2018-03-25T10:25:59Z</time>
      </trkpt>
      <trkpt lat="45.38885" lon="6.79605">
        <ele>2497.16</ele>
        <time>2018-03-25T10:26:12Z</time>
      </trkpt>
      <trkpt lat="45.3889" lon="6.79592">
        <ele>2497.64</ele>
        <time>2018-03-25T10:26:27Z</time>
      </trkpt>
      <trkpt lat="45.38892" lon="6.7958">
        <ele>2498.12</ele>
        <time>2018-03-25T10:26:40Z</time>
      </trkpt>
      <trkpt lat="45.3889" lon="6.79561">
        <ele>2497.64</ele>
        <time>2018-03-25T10:26:54Z</time>
      </trkpt>
      <trkpt lat="45.38896" lon="6.79545">
        <ele>2498.6</ele>
        <time>2018-03-25T10:27:11Z</time>
      </trkpt>
      <trkpt lat="45.389" lon="6.79528">
        <ele>2498.6</ele>
        <time>2018-03-25T10:27:28Z</time>
      </trkpt>
      <trkpt lat="45.38901" lon="6.79533">
        <ele>2499.08</ele>
        <time>2018-03-25T10:27:47Z</time>
      </trkpt>
      <trkpt lat="45.38905" lon="6.79529">
        <ele>2498.6</ele>
        <time>2018-03-25T10:28:05Z</time>
      </trkpt>
      <trkpt lat="45.38907" lon="6.79522">
        <ele>2498.6</ele>
        <time>2018-03-25T10:28:23Z</time>
      </trkpt>
      <trkpt lat="45.38909" lon="6.79516">
        <ele>2498.12</ele>
        <time>2018-03-25T10:28:35Z</time>
      </trkpt>
      <trkpt lat="45.38913" lon="6.79509">
        <ele>2498.6</ele>
        <time>2018-03-25T10:28:53Z</time>
      </trkpt>
      <trkpt lat="45.38919" lon="6.79505">
        <ele>2500.05</ele>
        <time>2018-03-25T10:29:02Z</time>
      </trkpt>
      <trkpt lat="45.38922" lon="6.79493">
        <ele>2501.01</ele>
        <time>2018-03-25T10:29:15Z</time>
      </trkpt>
      <trkpt lat="45.38929" lon="6.79484">
        <ele>2502.93</ele>
        <time>2018-03-25T10:29:29Z</time>
      </trkpt>
      <trkpt lat="45.38933" lon="6.7948">
        <ele>2502.93</ele>
        <time>2018-03-25T10:29:41Z</time>
      </trkpt>
      <trkpt lat="45.3894" lon="6.79471">
        <ele>2504.37</ele>
        <time>2018-03-25T10:29:56Z</time>
      </trkpt>
      <trkpt lat="45.38942" lon="6.79462">
        <ele>2504.85</ele>
        <time>2018-03-25T10:30:10Z</time>
      </trkpt>
      <trkpt lat="45.38949" lon="6.79459">
        <ele>2507.74</ele>
        <time>2018-03-25T10:30:23Z</time>
      </trkpt>
      <trkpt lat="45.38954" lon="6.79452">
        <ele>2508.22</ele>
        <time>2018-03-25T10:30:37Z</time>
      </trkpt>
      <trkpt lat="45.38957" lon="6.79449">
        <ele>2510.62</ele>
        <time>2018-03-25T10:30:44Z</time>
      </trkpt>
      <trkpt lat="45.38963" lon="6.79443">
        <ele>2510.14</ele>
        <time>2018-03-25T10:30:59Z</time>
      </trkpt>
      <trkpt lat="45.38968" lon="6.79439">
        <ele>2512.06</ele>
        <time>2018-03-25T10:31:13Z</time>
      </trkpt>
      <trkpt lat="45.38974" lon="6.79436">
        <ele>2513.5</ele>
        <time>2018-03-25T10:31:26Z</time>
      </trkpt>
      <trkpt lat="45.38981" lon="6.7943">
        <ele>2516.39</ele>
        <time>2018-03-25T10:31:41Z</time>
      </trkpt>
      <trkpt lat="45.38987" lon="6.79424">
        <ele>2516.87</ele>
        <time>2018-03-25T10:31:55Z</time>
      </trkpt>
      <trkpt lat="45.38992" lon="6.79418">
        <ele>2517.83</ele>
        <time>2018-03-25T10:32:08Z</time>
      </trkpt>
      <trkpt lat="45.38999" lon="6.79411">
        <ele>2518.79</ele>
        <time>2018-03-25T10:32:23Z</time>
      </trkpt>
      <trkpt lat="45.39007" lon="6.79404">
        <ele>2520.23</ele>
        <time>2018-03-25T10:32:41Z</time>
      </trkpt>
      <trkpt lat="45.39011" lon="6.79395">
        <ele>2520.71</ele>
        <time>2018-03-25T10:32:54Z</time>
      </trkpt>
      <trkpt lat="45.39012" lon="6.79395">
        <ele>2521.68</ele>
        <time>2018-03-25T10:33:19Z</time>
      </trkpt>
      <trkpt lat="45.39019" lon="6.79385">
        <ele>2522.64</ele>
        <time>2018-03-25T10:33:33Z</time>
      </trkpt>
      <trkpt lat="45.39025" lon="6.79375">
        <ele>2523.12</ele>
        <time>2018-03-25T10:33:49Z</time>
      </trkpt>
      <trkpt lat="45.39033" lon="6.79364">
        <ele>2524.08</ele>
        <time>2018-03-25T10:34:05Z</time>
      </trkpt>
      <trkpt lat="45.39046" lon="6.79358">
        <ele>2524.08</ele>
        <time>2018-03-25T10:34:20Z</time>
      </trkpt>
      <trkpt lat="45.39056" lon="6.79344">
        <ele>2524.56</ele>
        <time>2018-03-25T10:34:37Z</time>
      </trkpt>
      <trkpt lat="45.39067" lon="6.79328">
        <ele>2523.6</ele>
        <time>2018-03-25T10:34:54Z</time>
      </trkpt>
      <trkpt lat="45.39077" lon="6.79314">
        <ele>2523.12</ele>
        <time>2018-03-25T10:35:11Z</time>
      </trkpt>
      <trkpt lat="45.39085" lon="6.79305">
        <ele>2522.64</ele>
        <time>2018-03-25T10:35:25Z</time>
      </trkpt>
      <trkpt lat="45.39087" lon="6.79303">
        <ele>2522.64</ele>
        <time>2018-03-25T10:35:48Z</time>
      </trkpt>
      <trkpt lat="45.39091" lon="6.793">
        <ele>2522.64</ele>
        <time>2018-03-25T10:36:02Z</time>
      </trkpt>
      <trkpt lat="45.39091" lon="6.79297">
        <ele>2523.12</ele>
        <time>2018-03-25T10:36:20Z</time>
      </trkpt>
      <trkpt lat="45.39097" lon="6.79289">
        <ele>2522.64</ele>
        <time>2018-03-25T10:36:33Z</time>
      </trkpt>
      <trkpt lat="45.39105" lon="6.79276">
        <ele>2521.68</ele>
        <time>2018-03-25T10:36:47Z</time>
      </trkpt>
      <trkpt lat="45.39115" lon="6.79266">
        <ele>2522.16</ele>
        <time>2018-03-25T10:37:02Z</time>
      </trkpt>
      <trkpt lat="45.39125" lon="6.7925">
        <ele>2522.16</ele>
        <time>2018-03-25T10:37:18Z</time>
      </trkpt>
      <trkpt lat="45.39136" lon="6.79236">
        <ele>2522.16</ele>
        <time>2018-03-25T10:37:34Z</time>
      </trkpt>
      <trkpt lat="45.39144" lon="6.79223">
        <ele>2521.19</ele>
        <time>2018-03-25T10:37:49Z</time>
      </trkpt>
      <trkpt lat="45.39153" lon="6.7921">
        <ele>2522.16</ele>
        <time>2018-03-25T10:38:06Z</time>
      </trkpt>
      <trkpt lat="45.39158" lon="6.79204">
        <ele>2521.68</ele>
        <time>2018-03-25T10:38:20Z</time>
      </trkpt>
      <trkpt lat="45.39163" lon="6.79198">
        <ele>2523.6</ele>
        <time>2018-03-25T10:38:34Z</time>
      </trkpt>
      <trkpt lat="45.3917" lon="6.79185">
        <ele>2524.56</ele>
        <time>2018-03-25T10:38:50Z</time>
      </trkpt>
      <trkpt lat="45.39179" lon="6.79175">
        <ele>2525.04</ele>
        <time>2018-03-25T10:39:05Z</time>
      </trkpt>
      <trkpt lat="45.39188" lon="6.79157">
        <ele>2525.04</ele>
        <time>2018-03-25T10:39:21Z</time>
      </trkpt>
      <trkpt lat="45.39194" lon="6.79145">
        <ele>2525.52</ele>
        <time>2018-03-25T10:39:32Z</time>
      </trkpt>
      <trkpt lat="45.39204" lon="6.79131">
        <ele>2523.12</ele>
        <time>2018-03-25T10:39:46Z</time>
      </trkpt>
      <trkpt lat="45.39222" lon="6.79118">
        <ele>2522.16</ele>
        <time>2018-03-25T10:39:59Z</time>
      </trkpt>
      <trkpt lat="45.3923" lon="6.79112">
        <ele>2521.19</ele>
        <time>2018-03-25T10:40:12Z</time>
      </trkpt>
      <trkpt lat="45.39237" lon="6.79108">
        <ele>2521.68</ele>
        <time>2018-03-25T10:40:25Z</time>
      </trkpt>
      <trkpt lat="45.39247" lon="6.79109">
        <ele>2521.19</ele>
        <time>2018-03-25T10:40:33Z</time>
      </trkpt>
      <trkpt lat="45.39254" lon="6.79105">
        <ele>2521.68</ele>
        <time>2018-03-25T10:40:46Z</time>
      </trkpt>
      <trkpt lat="45.39253" lon="6.791">
        <ele>2522.64</ele>
        <time>2018-03-25T10:40:59Z</time>
      </trkpt>
      <trkpt lat="45.39258" lon="6.79103">
        <ele>2521.68</ele>
        <time>2018-03-25T10:41:18Z</time>
      </trkpt>
      <trkpt lat="45.39261" lon="6.79103">
        <ele>2521.19</ele>
        <time>2018-03-25T10:41:24Z</time>
      </trkpt>
      <trkpt lat="45.39262" lon="6.79098">
        <ele>2521.68</ele>
        <time>2018-03-25T10:41:28Z</time>
      </trkpt>
      <trkpt lat="45.39279" lon="6.79084">
        <ele>2518.79</ele>
        <time>2018-03-25T10:41:46Z</time>
      </trkpt>
      <trkpt lat="45.39279" lon="6.79081">
        <ele>2519.27</ele>
        <time>2018-03-25T10:42:03Z</time>
      </trkpt>
      <trkpt lat="45.39291" lon="6.79074">
        <ele>2519.27</ele>
        <time>2018-03-25T10:42:16Z</time>
      </trkpt>
      <trkpt lat="45.39305" lon="6.79063">
        <ele>2518.31</ele>
        <time>2018-03-25T10:42:30Z</time>
      </trkpt>
      <trkpt lat="45.39308" lon="6.79058">
        <ele>2518.79</ele>
        <time>2018-03-25T10:42:34Z</time>
      </trkpt>
      <trkpt lat="45.39321" lon="6.79047">
        <ele>2518.31</ele>
        <time>2018-03-25T10:42:47Z</time>
      </trkpt>
      <trkpt lat="45.39329" lon="6.79029">
        <ele>2516.87</ele>
        <time>2018-03-25T10:42:58Z</time>
      </trkpt>
      <trkpt lat="45.39353" lon="6.79012">
        <ele>2513.02</ele>
        <time>2018-03-25T10:43:13Z</time>
      </trkpt>
      <trkpt lat="45.39364" lon="6.79">
        <ele>2510.62</ele>
        <time>2018-03-25T10:43:19Z</time>
      </trkpt>
      <trkpt lat="45.39378" lon="6.78987">
        <ele>2507.74</ele>
        <time>2018-03-25T10:43:24Z</time>
      </trkpt>
      <trkpt lat="45.39403" lon="6.78972">
        <ele>2505.33</ele>
        <time>2018-03-25T10:43:37Z</time>
      </trkpt>
      <trkpt lat="45.39415" lon="6.78971">
        <ele>2504.85</ele>
        <time>2018-03-25T10:43:48Z</time>
      </trkpt>
      <trkpt lat="45.3942" lon="6.78966">
        <ele>2504.85</ele>
        <time>2018-03-25T10:44:01Z</time>
      </trkpt>
      <trkpt lat="45.39423" lon="6.7896">
        <ele>2504.37</ele>
        <time>2018-03-25T10:44:19Z</time>
      </trkpt>
      <trkpt lat="45.39436" lon="6.78956">
        <ele>2503.89</ele>
        <time>2018-03-25T10:44:33Z</time>
      </trkpt>
      <trkpt lat="45.39436" lon="6.78956">
        <ele>2504.37</ele>
        <time>2018-03-25T10:44:34Z</time>
      </trkpt>
      <trkpt lat="45.39446" lon="6.78956">
        <ele>2503.41</ele>
        <time>2018-03-25T10:44:44Z</time>
      </trkpt>
      <trkpt lat="45.39448" lon="6.78956">
        <ele>2503.89</ele>
        <time>2018-03-25T10:44:46Z</time>
      </trkpt>
      <trkpt lat="45.39461" lon="6.78955">
        <ele>2504.85</ele>
        <time>2018-03-25T10:45:00Z</time>
      </trkpt>
      <trkpt lat="45.39468" lon="6.78954">
        <ele>2504.85</ele>
        <time>2018-03-25T10:45:08Z</time>
      </trkpt>
      <trkpt lat="45.39483" lon="6.78951">
        <ele>2504.85</ele>
        <time>2018-03-25T10:45:21Z</time>
      </trkpt>
      <trkpt lat="45.3949" lon="6.78947">
        <ele>2505.33</ele>
        <time>2018-03-25T10:45:31Z</time>
      </trkpt>
      <trkpt lat="45.39494" lon="6.78947">
        <ele>2505.81</ele>
        <time>2018-03-25T10:45:49Z</time>
      </trkpt>
      <trkpt lat="45.39493" lon="6.78948">
        <ele>2504.37</ele>
        <time>2018-03-25T10:46:09Z</time>
      </trkpt>
      <trkpt lat="45.39492" lon="6.78945">
        <ele>2505.81</ele>
        <time>2018-03-25T10:46:31Z</time>
      </trkpt>
      <trkpt lat="45.39499" lon="6.78945">
        <ele>2504.37</ele>
        <time>2018-03-25T10:46:45Z</time>
      </trkpt>
      <trkpt lat="45.39507" lon="6.78945">
        <ele>2505.81</ele>
        <time>2018-03-25T10:46:58Z</time>
      </trkpt>
      <trkpt lat="45.39518" lon="6.78938">
        <ele>2507.26</ele>
        <time>2018-03-25T10:47:12Z</time>
      </trkpt>
      <trkpt lat="45.39522" lon="6.78932">
        <ele>2507.74</ele>
        <time>2018-03-25T10:47:25Z</time>
      </trkpt>
      <trkpt lat="45.39534" lon="6.78929">
        <ele>2507.26</ele>
        <time>2018-03-25T10:47:35Z</time>
      </trkpt>
      <trkpt lat="45.39538" lon="6.78919">
        <ele>2506.77</ele>
        <time>2018-03-25T10:47:42Z</time>
      </trkpt>
      <trkpt lat="45.39544" lon="6.78913">
        <ele>2506.77</ele>
        <time>2018-03-25T10:47:51Z</time>
      </trkpt>
      <trkpt lat="45.39545" lon="6.78905">
        <ele>2505.33</ele>
        <time>2018-03-25T10:47:56Z</time>
      </trkpt>
      <trkpt lat="45.39566" lon="6.78891">
        <ele>2502.93</ele>
        <time>2018-03-25T10:48:08Z</time>
      </trkpt>
      <trkpt lat="45.3958" lon="6.78888">
        <ele>2501.97</ele>
        <time>2018-03-25T10:48:19Z</time>
      </trkpt>
      <trkpt lat="45.39606" lon="6.78879">
        <ele>2498.6</ele>
        <time>2018-03-25T10:48:31Z</time>
      </trkpt>
      <trkpt lat="45.39617" lon="6.78883">
        <ele>2498.6</ele>
        <time>2018-03-25T10:48:42Z</time>
      </trkpt>
      <trkpt lat="45.39625" lon="6.78881">
        <ele>2497.64</ele>
        <time>2018-03-25T10:48:54Z</time>
      </trkpt>
      <trkpt lat="45.39631" lon="6.78874">
        <ele>2497.64</ele>
        <time>2018-03-25T10:49:24Z</time>
      </trkpt>
      <trkpt lat="45.39627" lon="6.78882">
        <ele>2497.16</ele>
        <time>2018-03-25T10:49:52Z</time>
      </trkpt>
      <trkpt lat="45.39624" lon="6.78878">
        <ele>2497.64</ele>
        <time>2018-03-25T10:50:16Z</time>
      </trkpt>
      <trkpt lat="45.39625" lon="6.7888">
        <ele>2498.12</ele>
        <time>2018-03-25T10:50:29Z</time>
      </trkpt>
      <trkpt lat="45.39635" lon="6.7888">
        <ele>2496.2</ele>
        <time>2018-03-25T10:50:39Z</time>
      </trkpt>
      <trkpt lat="45.39638" lon="6.78879">
        <ele>2495.72</ele>
        <time>2018-03-25T10:50:40Z</time>
      </trkpt>
      <trkpt lat="45.39659" lon="6.78879">
        <ele>2492.84</ele>
        <time>2018-03-25T10:50:45Z</time>
      </trkpt>
      <trkpt lat="45.39661" lon="6.78879">
        <ele>2492.36</ele>
        <time>2018-03-25T10:50:46Z</time>
      </trkpt>
      <trkpt lat="45.39666" lon="6.78879">
        <ele>2492.84</ele>
        <time>2018-03-25T10:50:56Z</time>
      </trkpt>
      <trkpt lat="45.39667" lon="6.78879">
        <ele>2492.84</ele>
        <time>2018-03-25T10:51:11Z</time>
      </trkpt>
      <trkpt lat="45.39679" lon="6.7888">
        <ele>2492.36</ele>
        <time>2018-03-25T10:51:23Z</time>
      </trkpt>
      <trkpt lat="45.39701" lon="6.78879">
        <ele>2491.87</ele>
        <time>2018-03-25T10:51:38Z</time>
      </trkpt>
      <trkpt lat="45.39702" lon="6.78878">
        <ele>2491.87</ele>
        <time>2018-03-25T10:51:39Z</time>
      </trkpt>
      <trkpt lat="45.39704" lon="6.78878">
        <ele>2491.39</ele>
        <time>2018-03-25T10:51:40Z</time>
      </trkpt>
      <trkpt lat="45.39709" lon="6.78875">
        <ele>2490.91</ele>
        <time>2018-03-25T10:51:45Z</time>
      </trkpt>
      <trkpt lat="45.39724" lon="6.78872">
        <ele>2489.95</ele>
        <time>2018-03-25T10:51:58Z</time>
      </trkpt>
      <trkpt lat="45.39745" lon="6.78862">
        <ele>2487.07</ele>
        <time>2018-03-25T10:52:06Z</time>
      </trkpt>
      <trkpt lat="45.39763" lon="6.78856">
        <ele>2483.7</ele>
        <time>2018-03-25T10:52:11Z</time>
      </trkpt>
      <trkpt lat="45.39766" lon="6.78855">
        <ele>2484.18</ele>
        <time>2018-03-25T10:52:12Z</time>
      </trkpt>
      <trkpt lat="45.39786" lon="6.78849">
        <ele>2481.78</ele>
        <time>2018-03-25T10:52:22Z</time>
      </trkpt>
      <trkpt lat="45.39796" lon="6.78845">
        <ele>2481.78</ele>
        <time>2018-03-25T10:52:39Z</time>
      </trkpt>
      <trkpt lat="45.39797" lon="6.78845">
        <ele>2481.78</ele>
        <time>2018-03-25T10:52:40Z</time>
      </trkpt>
      <trkpt lat="45.39798" lon="6.78843">
        <ele>2481.78</ele>
        <time>2018-03-25T10:52:51Z</time>
      </trkpt>
      <trkpt lat="45.39807" lon="6.78839">
        <ele>2482.74</ele>
        <time>2018-03-25T10:53:04Z</time>
      </trkpt>
      <trkpt lat="45.39821" lon="6.78832">
        <ele>2482.26</ele>
        <time>2018-03-25T10:53:17Z</time>
      </trkpt>
      <trkpt lat="45.39826" lon="6.78828">
        <ele>2480.34</ele>
        <time>2018-03-25T10:53:22Z</time>
      </trkpt>
      <trkpt lat="45.39843" lon="6.7881">
        <ele>2480.82</ele>
        <time>2018-03-25T10:53:34Z</time>
      </trkpt>
      <trkpt lat="45.39854" lon="6.78797">
        <ele>2480.82</ele>
        <time>2018-03-25T10:53:46Z</time>
      </trkpt>
      <trkpt lat="45.39862" lon="6.78784">
        <ele>2479.86</ele>
        <time>2018-03-25T10:53:59Z</time>
      </trkpt>
      <trkpt lat="45.39875" lon="6.78764">
        <ele>2477.94</ele>
        <time>2018-03-25T10:54:09Z</time>
      </trkpt>
      <trkpt lat="45.39878" lon="6.78759">
        <ele>2476.49</ele>
        <time>2018-03-25T10:54:11Z</time>
      </trkpt>
      <trkpt lat="45.39884" lon="6.78751">
        <ele>2477.94</ele>
        <time>2018-03-25T10:54:22Z</time>
      </trkpt>
      <trkpt lat="45.39886" lon="6.78747">
        <ele>2478.9</ele>
        <time>2018-03-25T10:54:31Z</time>
      </trkpt>
      <trkpt lat="45.39889" lon="6.78737">
        <ele>2477.94</ele>
        <time>2018-03-25T10:54:41Z</time>
      </trkpt>
      <trkpt lat="45.39889" lon="6.78731">
        <ele>2478.42</ele>
        <time>2018-03-25T10:54:47Z</time>
      </trkpt>
      <trkpt lat="45.3989" lon="6.78729">
        <ele>2477.94</ele>
        <time>2018-03-25T10:54:48Z</time>
      </trkpt>
      <trkpt lat="45.3989" lon="6.78727">
        <ele>2477.94</ele>
        <time>2018-03-25T10:54:49Z</time>
      </trkpt>
      <trkpt lat="45.39891" lon="6.78726">
        <ele>2477.94</ele>
        <time>2018-03-25T10:54:50Z</time>
      </trkpt>
      <trkpt lat="45.39891" lon="6.78724">
        <ele>2477.94</ele>
        <time>2018-03-25T10:54:51Z</time>
      </trkpt>
      <trkpt lat="45.39895" lon="6.78701">
        <ele>2476.97</ele>
        <time>2018-03-25T10:55:04Z</time>
      </trkpt>
      <trkpt lat="45.39901" lon="6.78665">
        <ele>2474.09</ele>
        <time>2018-03-25T10:55:18Z</time>
      </trkpt>
      <trkpt lat="45.3991" lon="6.78627">
        <ele>2470.73</ele>
        <time>2018-03-25T10:55:29Z</time>
      </trkpt>
      <trkpt lat="45.39909" lon="6.78622">
        <ele>2469.76</ele>
        <time>2018-03-25T10:55:41Z</time>
      </trkpt>
      <trkpt lat="45.39913" lon="6.7861">
        <ele>2468.8</ele>
        <time>2018-03-25T10:55:54Z</time>
      </trkpt>
      <trkpt lat="45.3992" lon="6.78589">
        <ele>2465.44</ele>
        <time>2018-03-25T10:56:07Z</time>
      </trkpt>
      <trkpt lat="45.39917" lon="6.78587">
        <ele>2465.44</ele>
        <time>2018-03-25T10:56:26Z</time>
      </trkpt>
      <trkpt lat="45.39921" lon="6.78581">
        <ele>2464.96</ele>
        <time>2018-03-25T10:56:44Z</time>
      </trkpt>
      <trkpt lat="45.39922" lon="6.78577">
        <ele>2464</ele>
        <time>2018-03-25T10:57:01Z</time>
      </trkpt>
      <trkpt lat="45.39922" lon="6.78582">
        <ele>2464.96</ele>
        <time>2018-03-25T10:57:18Z</time>
      </trkpt>
      <trkpt lat="45.39922" lon="6.78589">
        <ele>2464.96</ele>
        <time>2018-03-25T10:57:42Z</time>
      </trkpt>
      <trkpt lat="45.39923" lon="6.78585">
        <ele>2464.96</ele>
        <time>2018-03-25T10:58:05Z</time>
      </trkpt>
      <trkpt lat="45.39922" lon="6.78582">
        <ele>2465.44</ele>
        <time>2018-03-25T10:58:26Z</time>
      </trkpt>
      <trkpt lat="45.39922" lon="6.78581">
        <ele>2464.48</ele>
        <time>2018-03-25T10:58:41Z</time>
      </trkpt>
      <trkpt lat="45.39922" lon="6.78585">
        <ele>2464.96</ele>
        <time>2018-03-25T10:59:05Z</time>
      </trkpt>
      <trkpt lat="45.39922" lon="6.78582">
        <ele>2464.96</ele>
        <time>2018-03-25T10:59:21Z</time>
      </trkpt>
      <trkpt lat="45.39921" lon="6.78584">
        <ele>2464.96</ele>
        <time>2018-03-25T10:59:40Z</time>
      </trkpt>
      <trkpt lat="45.3992" lon="6.78579">
        <ele>2464.96</ele>
        <time>2018-03-25T10:59:55Z</time>
      </trkpt>
      <trkpt lat="45.39921" lon="6.78578">
        <ele>2464.48</ele>
        <time>2018-03-25T11:00:12Z</time>
      </trkpt>
      <trkpt lat="45.39906" lon="6.78573">
        <ele>2461.11</ele>
        <time>2018-03-25T11:00:17Z</time>
      </trkpt>
      <trkpt lat="45.39903" lon="6.78572">
        <ele>2460.63</ele>
        <time>2018-03-25T11:00:23Z</time>
      </trkpt>
      <trkpt lat="45.39902" lon="6.78568">
        <ele>2460.15</ele>
        <time>2018-03-25T11:00:25Z</time>
      </trkpt>
      <trkpt lat="45.39915" lon="6.78551">
        <ele>2455.82</ele>
        <time>2018-03-25T11:00:32Z</time>
      </trkpt>
      <trkpt lat="45.39915" lon="6.78549">
        <ele>2455.34</ele>
        <time>2018-03-25T11:00:48Z</time>
      </trkpt>
      <trkpt lat="45.39916" lon="6.78547">
        <ele>2455.82</ele>
        <time>2018-03-25T11:01:06Z</time>
      </trkpt>
      <trkpt lat="45.39914" lon="6.78546">
        <ele>2455.82</ele>
        <time>2018-03-25T11:01:19Z</time>
      </trkpt>
      <trkpt lat="45.39918" lon="6.78548">
        <ele>2456.31</ele>
        <time>2018-03-25T11:01:35Z</time>
      </trkpt>
      <trkpt lat="45.39918" lon="6.78548">
        <ele>2456.31</ele>
        <time>2018-03-25T11:01:36Z</time>
      </trkpt>
      <trkpt lat="45.39917" lon="6.78546">
        <ele>2454.38</ele>
        <time>2018-03-25T11:01:51Z</time>
      </trkpt>
      <trkpt lat="45.39918" lon="6.78547">
        <ele>2453.9</ele>
        <time>2018-03-25T11:02:29Z</time>
      </trkpt>
      <trkpt lat="45.39917" lon="6.78548">
        <ele>2451.98</ele>
        <time>2018-03-25T11:02:38Z</time>
      </trkpt>
      <trkpt lat="45.39917" lon="6.78548">
        <ele>2454.86</ele>
        <time>2018-03-25T11:02:40Z</time>
      </trkpt>
      <trkpt lat="45.39915" lon="6.78546">
        <ele>2454.38</ele>
        <time>2018-03-25T11:02:56Z</time>
      </trkpt>
      <trkpt lat="45.39919" lon="6.78553">
        <ele>2454.38</ele>
        <time>2018-03-25T11:03:25Z</time>
      </trkpt>
      <trkpt lat="45.39919" lon="6.78559">
        <ele>2455.34</ele>
        <time>2018-03-25T11:03:52Z</time>
      </trkpt>
      <trkpt lat="45.3992" lon="6.78565">
        <ele>2455.34</ele>
        <time>2018-03-25T11:04:24Z</time>
      </trkpt>
      <trkpt lat="45.39921" lon="6.78564">
        <ele>2455.34</ele>
        <time>2018-03-25T11:04:32Z</time>
      </trkpt>
      <trkpt lat="45.3992" lon="6.78561">
        <ele>2451.02</ele>
        <time>2018-03-25T11:04:42Z</time>
      </trkpt>
      <trkpt lat="45.3992" lon="6.7856">
        <ele>2455.34</ele>
        <time>2018-03-25T11:04:43Z</time>
      </trkpt>
      <trkpt lat="45.39919" lon="6.78559">
        <ele>2459.19</ele>
        <time>2018-03-25T11:04:46Z</time>
      </trkpt>
      <trkpt lat="45.39919" lon="6.7855">
        <ele>2455.34</ele>
        <time>2018-03-25T11:04:47Z</time>
      </trkpt>
      <trkpt lat="45.39919" lon="6.78548">
        <ele>2455.34</ele>
        <time>2018-03-25T11:05:21Z</time>
      </trkpt>
      <trkpt lat="45.39915" lon="6.78547">
        <ele>2455.82</ele>
        <time>2018-03-25T11:05:40Z</time>
      </trkpt>
      <trkpt lat="45.39917" lon="6.78544">
        <ele>2456.31</ele>
        <time>2018-03-25T11:06:04Z</time>
      </trkpt>
      <trkpt lat="45.39916" lon="6.78543">
        <ele>2456.31</ele>
        <time>2018-03-25T11:06:19Z</time>
      </trkpt>
      <trkpt lat="45.39917" lon="6.78539">
        <ele>2455.34</ele>
        <time>2018-03-25T11:06:21Z</time>
      </trkpt>
      <trkpt lat="45.39921" lon="6.78522">
        <ele>2452.94</ele>
        <time>2018-03-25T11:06:25Z</time>
      </trkpt>
      <trkpt lat="45.39922" lon="6.78515">
        <ele>2451.98</ele>
        <time>2018-03-25T11:06:26Z</time>
      </trkpt>
      <trkpt lat="45.39925" lon="6.78503">
        <ele>2448.62</ele>
        <time>2018-03-25T11:06:28Z</time>
      </trkpt>
      <trkpt lat="45.39927" lon="6.7849">
        <ele>2447.17</ele>
        <time>2018-03-25T11:06:37Z</time>
      </trkpt>
      <trkpt lat="45.39927" lon="6.78489">
        <ele>2446.69</ele>
        <time>2018-03-25T11:06:42Z</time>
      </trkpt>
      <trkpt lat="45.39926" lon="6.78488">
        <ele>2447.17</ele>
        <time>2018-03-25T11:06:43Z</time>
      </trkpt>
      <trkpt lat="45.39923" lon="6.78488">
        <ele>2443.81</ele>
        <time>2018-03-25T11:06:44Z</time>
      </trkpt>
      <trkpt lat="45.3992" lon="6.7849">
        <ele>2443.81</ele>
        <time>2018-03-25T11:06:45Z</time>
      </trkpt>
      <trkpt lat="45.39916" lon="6.78493">
        <ele>2443.33</ele>
        <time>2018-03-25T11:06:46Z</time>
      </trkpt>
      <trkpt lat="45.39902" lon="6.785">
        <ele>2440.44</ele>
        <time>2018-03-25T11:06:50Z</time>
      </trkpt>
      <trkpt lat="45.39901" lon="6.785">
        <ele>2439.96</ele>
        <time>2018-03-25T11:06:59Z</time>
      </trkpt>
      <trkpt lat="45.39887" lon="6.78486">
        <ele>2437.08</ele>
        <time>2018-03-25T11:07:03Z</time>
      </trkpt>
      <trkpt lat="45.39881" lon="6.7848">
        <ele>2436.6</ele>
        <time>2018-03-25T11:07:04Z</time>
      </trkpt>
      <trkpt lat="45.39865" lon="6.78444">
        <ele>2431.31</ele>
        <time>2018-03-25T11:07:08Z</time>
      </trkpt>
      <trkpt lat="45.39858" lon="6.78408">
        <ele>2427.47</ele>
        <time>2018-03-25T11:07:12Z</time>
      </trkpt>
      <trkpt lat="45.39856" lon="6.78399">
        <ele>2427.47</ele>
        <time>2018-03-25T11:07:13Z</time>
      </trkpt>
      <trkpt lat="45.39851" lon="6.78378">
        <ele>2425.06</ele>
        <time>2018-03-25T11:07:16Z</time>
      </trkpt>
      <trkpt lat="45.39847" lon="6.78366">
        <ele>2422.66</ele>
        <time>2018-03-25T11:07:18Z</time>
      </trkpt>
      <trkpt lat="45.39838" lon="6.78331">
        <ele>2420.74</ele>
        <time>2018-03-25T11:07:26Z</time>
      </trkpt>
      <trkpt lat="45.39836" lon="6.78324">
        <ele>2420.74</ele>
        <time>2018-03-25T11:07:36Z</time>
      </trkpt>
      <trkpt lat="45.39833" lon="6.78316">
        <ele>2420.26</ele>
        <time>2018-03-25T11:07:50Z</time>
      </trkpt>
      <trkpt lat="45.39831" lon="6.78314">
        <ele>2420.26</ele>
        <time>2018-03-25T11:08:07Z</time>
      </trkpt>
      <trkpt lat="45.39831" lon="6.78311">
        <ele>2420.74</ele>
        <time>2018-03-25T11:08:27Z</time>
      </trkpt>
      <trkpt lat="45.3983" lon="6.78314">
        <ele>2420.74</ele>
        <time>2018-03-25T11:08:45Z</time>
      </trkpt>
      <trkpt lat="45.3983" lon="6.78315">
        <ele>2420.26</ele>
        <time>2018-03-25T11:09:08Z</time>
      </trkpt>
      <trkpt lat="45.39832" lon="6.78314">
        <ele>2421.22</ele>
        <time>2018-03-25T11:09:33Z</time>
      </trkpt>
      <trkpt lat="45.39832" lon="6.78315">
        <ele>2420.74</ele>
        <time>2018-03-25T11:10:06Z</time>
      </trkpt>
      <trkpt lat="45.39831" lon="6.78316">
        <ele>2420.74</ele>
        <time>2018-03-25T11:10:31Z</time>
      </trkpt>
      <trkpt lat="45.39833" lon="6.78313">
        <ele>2420.74</ele>
        <time>2018-03-25T11:10:54Z</time>
      </trkpt>
      <trkpt lat="45.3983" lon="6.78314">
        <ele>2421.22</ele>
        <time>2018-03-25T11:11:16Z</time>
      </trkpt>
      <trkpt lat="45.39831" lon="6.78316">
        <ele>2419.78</ele>
        <time>2018-03-25T11:11:24Z</time>
      </trkpt>
      <trkpt lat="45.3983" lon="6.78313">
        <ele>2420.74</ele>
        <time>2018-03-25T11:11:43Z</time>
      </trkpt>
      <trkpt lat="45.39827" lon="6.7831">
        <ele>2421.22</ele>
        <time>2018-03-25T11:12:09Z</time>
      </trkpt>
      <trkpt lat="45.39826" lon="6.78307">
        <ele>2420.26</ele>
        <time>2018-03-25T11:12:45Z</time>
      </trkpt>
      <trkpt lat="45.39823" lon="6.78303">
        <ele>2421.22</ele>
        <time>2018-03-25T11:13:02Z</time>
      </trkpt>
      <trkpt lat="45.3982" lon="6.78299">
        <ele>2419.78</ele>
        <time>2018-03-25T11:13:12Z</time>
      </trkpt>
      <trkpt lat="45.3981" lon="6.78281">
        <ele>2416.89</ele>
        <time>2018-03-25T11:13:25Z</time>
      </trkpt>
      <trkpt lat="45.39802" lon="6.78257">
        <ele>2413.53</ele>
        <time>2018-03-25T11:13:29Z</time>
      </trkpt>
      <trkpt lat="45.39796" lon="6.78234">
        <ele>2410.16</ele>
        <time>2018-03-25T11:13:32Z</time>
      </trkpt>
      <trkpt lat="45.39793" lon="6.78226">
        <ele>2409.2</ele>
        <time>2018-03-25T11:13:33Z</time>
      </trkpt>
      <trkpt lat="45.39783" lon="6.78202">
        <ele>2404.88</ele>
        <time>2018-03-25T11:13:37Z</time>
      </trkpt>
      <trkpt lat="45.39782" lon="6.78201">
        <ele>2405.36</ele>
        <time>2018-03-25T11:13:38Z</time>
      </trkpt>
      <trkpt lat="45.39777" lon="6.78195">
        <ele>2404.88</ele>
        <time>2018-03-25T11:13:54Z</time>
      </trkpt>
      <trkpt lat="45.39776" lon="6.78197">
        <ele>2404.88</ele>
        <time>2018-03-25T11:14:15Z</time>
      </trkpt>
      <trkpt lat="45.39777" lon="6.78196">
        <ele>2404.88</ele>
        <time>2018-03-25T11:14:24Z</time>
      </trkpt>
      <trkpt lat="45.39779" lon="6.78187">
        <ele>2403.43</ele>
        <time>2018-03-25T11:14:27Z</time>
      </trkpt>
      <trkpt lat="45.39776" lon="6.78166">
        <ele>2399.59</ele>
        <time>2018-03-25T11:14:32Z</time>
      </trkpt>
      <trkpt lat="45.39775" lon="6.78154">
        <ele>2396.22</ele>
        <time>2018-03-25T11:14:34Z</time>
      </trkpt>
      <trkpt lat="45.39773" lon="6.78148">
        <ele>2394.78</ele>
        <time>2018-03-25T11:14:36Z</time>
      </trkpt>
      <trkpt lat="45.39769" lon="6.78145">
        <ele>2394.78</ele>
        <time>2018-03-25T11:14:52Z</time>
      </trkpt>
      <trkpt lat="45.39763" lon="6.78144">
        <ele>2395.26</ele>
        <time>2018-03-25T11:15:21Z</time>
      </trkpt>
      <trkpt lat="45.39771" lon="6.78148">
        <ele>2395.74</ele>
        <time>2018-03-25T11:15:40Z</time>
      </trkpt>
      <trkpt lat="45.39773" lon="6.78149">
        <ele>2396.22</ele>
        <time>2018-03-25T11:15:59Z</time>
      </trkpt>
      <trkpt lat="45.39769" lon="6.78144">
        <ele>2395.74</ele>
        <time>2018-03-25T11:16:23Z</time>
      </trkpt>
      <trkpt lat="45.39766" lon="6.78143">
        <ele>2395.74</ele>
        <time>2018-03-25T11:16:48Z</time>
      </trkpt>
      <trkpt lat="45.39767" lon="6.78141">
        <ele>2395.74</ele>
        <time>2018-03-25T11:17:12Z</time>
      </trkpt>
      <trkpt lat="45.39768" lon="6.78143">
        <ele>2395.74</ele>
        <time>2018-03-25T11:17:33Z</time>
      </trkpt>
      <trkpt lat="45.39764" lon="6.78142">
        <ele>2396.22</ele>
        <time>2018-03-25T11:17:49Z</time>
      </trkpt>
      <trkpt lat="45.39762" lon="6.78131">
        <ele>2393.82</ele>
        <time>2018-03-25T11:17:54Z</time>
      </trkpt>
      <trkpt lat="45.39758" lon="6.7812">
        <ele>2391.9</ele>
        <time>2018-03-25T11:18:00Z</time>
      </trkpt>
      <trkpt lat="45.39759" lon="6.78123">
        <ele>2391.9</ele>
        <time>2018-03-25T11:18:21Z</time>
      </trkpt>
      <trkpt lat="45.39762" lon="6.78119">
        <ele>2392.38</ele>
        <time>2018-03-25T11:18:46Z</time>
      </trkpt>
      <trkpt lat="45.39761" lon="6.78122">
        <ele>2392.38</ele>
        <time>2018-03-25T11:19:18Z</time>
      </trkpt>
      <trkpt lat="45.3976" lon="6.78123">
        <ele>2392.86</ele>
        <time>2018-03-25T11:19:25Z</time>
      </trkpt>
      <trkpt lat="45.39761" lon="6.78117">
        <ele>2391.9</ele>
        <time>2018-03-25T11:19:27Z</time>
      </trkpt>
      <trkpt lat="45.39753" lon="6.78102">
        <ele>2388.53</ele>
        <time>2018-03-25T11:19:31Z</time>
      </trkpt>
      <trkpt lat="45.39752" lon="6.78103">
        <ele>2388.53</ele>
        <time>2018-03-25T11:19:36Z</time>
      </trkpt>
      <trkpt lat="45.39752" lon="6.78102">
        <ele>2388.53</ele>
        <time>2018-03-25T11:19:37Z</time>
      </trkpt>
      <trkpt lat="45.39752" lon="6.78089">
        <ele>2387.09</ele>
        <time>2018-03-25T11:19:40Z</time>
      </trkpt>
      <trkpt lat="45.3975" lon="6.78071">
        <ele>2383.25</ele>
        <time>2018-03-25T11:19:42Z</time>
      </trkpt>
      <trkpt lat="45.39742" lon="6.78035">
        <ele>2377</ele>
        <time>2018-03-25T11:19:45Z</time>
      </trkpt>
      <trkpt lat="45.39738" lon="6.78007">
        <ele>2372.67</ele>
        <time>2018-03-25T11:19:47Z</time>
      </trkpt>
      <trkpt lat="45.39731" lon="6.77965">
        <ele>2367.86</ele>
        <time>2018-03-25T11:19:50Z</time>
      </trkpt>
      <trkpt lat="45.39728" lon="6.77939">
        <ele>2363.54</ele>
        <time>2018-03-25T11:19:52Z</time>
      </trkpt>
      <trkpt lat="45.39726" lon="6.77913">
        <ele>2360.17</ele>
        <time>2018-03-25T11:19:54Z</time>
      </trkpt>
      <trkpt lat="45.39722" lon="6.7788">
        <ele>2356.33</ele>
        <time>2018-03-25T11:19:57Z</time>
      </trkpt>
      <trkpt lat="45.39718" lon="6.77841">
        <ele>2352.96</ele>
        <time>2018-03-25T11:20:02Z</time>
      </trkpt>
      <trkpt lat="45.39715" lon="6.77823">
        <ele>2350.56</ele>
        <time>2018-03-25T11:20:05Z</time>
      </trkpt>
      <trkpt lat="45.39712" lon="6.77799">
        <ele>2347.68</ele>
        <time>2018-03-25T11:20:09Z</time>
      </trkpt>
      <trkpt lat="45.39707" lon="6.77763">
        <ele>2344.31</ele>
        <time>2018-03-25T11:20:14Z</time>
      </trkpt>
      <trkpt lat="45.39701" lon="6.77732">
        <ele>2339.51</ele>
        <time>2018-03-25T11:20:18Z</time>
      </trkpt>
      <trkpt lat="45.39701" lon="6.77726">
        <ele>2339.51</ele>
        <time>2018-03-25T11:20:19Z</time>
      </trkpt>
      <trkpt lat="45.397" lon="6.77714">
        <ele>2337.1</ele>
        <time>2018-03-25T11:20:23Z</time>
      </trkpt>
      <trkpt lat="45.39702" lon="6.77683">
        <ele>2333.74</ele>
        <time>2018-03-25T11:20:30Z</time>
      </trkpt>
      <trkpt lat="45.39705" lon="6.77634">
        <ele>2330.85</ele>
        <time>2018-03-25T11:20:40Z</time>
      </trkpt>
      <trkpt lat="45.39706" lon="6.77614">
        <ele>2329.41</ele>
        <time>2018-03-25T11:20:50Z</time>
      </trkpt>
      <trkpt lat="45.39706" lon="6.77617">
        <ele>2329.41</ele>
        <time>2018-03-25T11:21:18Z</time>
      </trkpt>
      <trkpt lat="45.39706" lon="6.77616">
        <ele>2328.93</ele>
        <time>2018-03-25T11:21:21Z</time>
      </trkpt>
      <trkpt lat="45.39707" lon="6.77608">
        <ele>2327.49</ele>
        <time>2018-03-25T11:21:26Z</time>
      </trkpt>
      <trkpt lat="45.39708" lon="6.77553">
        <ele>2323.64</ele>
        <time>2018-03-25T11:21:40Z</time>
      </trkpt>
      <trkpt lat="45.39708" lon="6.77534">
        <ele>2323.16</ele>
        <time>2018-03-25T11:21:43Z</time>
      </trkpt>
      <trkpt lat="45.39707" lon="6.77513">
        <ele>2320.76</ele>
        <time>2018-03-25T11:21:46Z</time>
      </trkpt>
      <trkpt lat="45.39703" lon="6.77447">
        <ele>2316.91</ele>
        <time>2018-03-25T11:21:58Z</time>
      </trkpt>
      <trkpt lat="45.39701" lon="6.77422">
        <ele>2315.95</ele>
        <time>2018-03-25T11:22:01Z</time>
      </trkpt>
      <trkpt lat="45.39699" lon="6.7741">
        <ele>2314.99</ele>
        <time>2018-03-25T11:22:02Z</time>
      </trkpt>
      <trkpt lat="45.39693" lon="6.77387">
        <ele>2311.15</ele>
        <time>2018-03-25T11:22:04Z</time>
      </trkpt>
      <trkpt lat="45.39686" lon="6.77364">
        <ele>2309.22</ele>
        <time>2018-03-25T11:22:06Z</time>
      </trkpt>
      <trkpt lat="45.39682" lon="6.77354">
        <ele>2309.7</ele>
        <time>2018-03-25T11:22:07Z</time>
      </trkpt>
      <trkpt lat="45.39665" lon="6.77311">
        <ele>2305.86</ele>
        <time>2018-03-25T11:22:13Z</time>
      </trkpt>
      <trkpt lat="45.39646" lon="6.77274">
        <ele>2303.94</ele>
        <time>2018-03-25T11:22:24Z</time>
      </trkpt>
      <trkpt lat="45.39638" lon="6.77265">
        <ele>2304.42</ele>
        <time>2018-03-25T11:22:29Z</time>
      </trkpt>
      <trkpt lat="45.39629" lon="6.77248">
        <ele>2303.46</ele>
        <time>2018-03-25T11:22:38Z</time>
      </trkpt>
      <trkpt lat="45.39622" lon="6.77236">
        <ele>2302.49</ele>
        <time>2018-03-25T11:22:42Z</time>
      </trkpt>
      <trkpt lat="45.39608" lon="6.77216">
        <ele>2300.09</ele>
        <time>2018-03-25T11:22:53Z</time>
      </trkpt>
      <trkpt lat="45.39605" lon="6.77209">
        <ele>2301.05</ele>
        <time>2018-03-25T11:23:19Z</time>
      </trkpt>
      <trkpt lat="45.39604" lon="6.7721">
        <ele>2300.57</ele>
        <time>2018-03-25T11:23:45Z</time>
      </trkpt>
      <trkpt lat="45.39601" lon="6.77208">
        <ele>2300.57</ele>
        <time>2018-03-25T11:24:05Z</time>
      </trkpt>
      <trkpt lat="45.39596" lon="6.77201">
        <ele>2299.61</ele>
        <time>2018-03-25T11:24:08Z</time>
      </trkpt>
      <trkpt lat="45.3959" lon="6.77185">
        <ele>2297.69</ele>
        <time>2018-03-25T11:24:11Z</time>
      </trkpt>
      <trkpt lat="45.3958" lon="6.77157">
        <ele>2293.36</ele>
        <time>2018-03-25T11:24:15Z</time>
      </trkpt>
      <trkpt lat="45.39574" lon="6.77141">
        <ele>2290.48</ele>
        <time>2018-03-25T11:24:17Z</time>
      </trkpt>
      <trkpt lat="45.39569" lon="6.77124">
        <ele>2287.11</ele>
        <time>2018-03-25T11:24:19Z</time>
      </trkpt>
      <trkpt lat="45.39565" lon="6.77104">
        <ele>2285.19</ele>
        <time>2018-03-25T11:24:21Z</time>
      </trkpt>
      <trkpt lat="45.39559" lon="6.77078">
        <ele>2280.87</ele>
        <time>2018-03-25T11:24:25Z</time>
      </trkpt>
      <trkpt lat="45.39556" lon="6.77074">
        <ele>2280.38</ele>
        <time>2018-03-25T11:24:26Z</time>
      </trkpt>
      <trkpt lat="45.39553" lon="6.77068">
        <ele>2279.42</ele>
        <time>2018-03-25T11:24:28Z</time>
      </trkpt>
      <trkpt lat="45.39551" lon="6.77065">
        <ele>2278.94</ele>
        <time>2018-03-25T11:24:39Z</time>
      </trkpt>
      <trkpt lat="45.39552" lon="6.77062">
        <ele>2279.42</ele>
        <time>2018-03-25T11:24:44Z</time>
      </trkpt>
      <trkpt lat="45.39561" lon="6.77066">
        <ele>2277.02</ele>
        <time>2018-03-25T11:24:49Z</time>
      </trkpt>
      <trkpt lat="45.39562" lon="6.77062">
        <ele>2277.02</ele>
        <time>2018-03-25T11:24:53Z</time>
      </trkpt>
      <trkpt lat="45.39563" lon="6.77056">
        <ele>2275.58</ele>
        <time>2018-03-25T11:25:00Z</time>
      </trkpt>
      <trkpt lat="45.39563" lon="6.77057">
        <ele>2275.58</ele>
        <time>2018-03-25T11:25:10Z</time>
      </trkpt>
      <trkpt lat="45.39543" lon="6.77025">
        <ele>2272.21</ele>
        <time>2018-03-25T11:25:19Z</time>
      </trkpt>
      <trkpt lat="45.39534" lon="6.77012">
        <ele>2270.29</ele>
        <time>2018-03-25T11:25:22Z</time>
      </trkpt>
      <trkpt lat="45.39524" lon="6.76997">
        <ele>2269.33</ele>
        <time>2018-03-25T11:25:26Z</time>
      </trkpt>
      <trkpt lat="45.39513" lon="6.76981">
        <ele>2266.93</ele>
        <time>2018-03-25T11:25:35Z</time>
      </trkpt>
      <trkpt lat="45.39514" lon="6.76979">
        <ele>2265.96</ele>
        <time>2018-03-25T11:25:57Z</time>
      </trkpt>
      <trkpt lat="45.39513" lon="6.76973">
        <ele>2265.48</ele>
        <time>2018-03-25T11:26:09Z</time>
      </trkpt>
      <trkpt lat="45.39511" lon="6.76972">
        <ele>2265.96</ele>
        <time>2018-03-25T11:26:32Z</time>
      </trkpt>
      <trkpt lat="45.39511" lon="6.76972">
        <ele>2265.48</ele>
        <time>2018-03-25T11:26:36Z</time>
      </trkpt>
      <trkpt lat="45.39514" lon="6.76972">
        <ele>2264.04</ele>
        <time>2018-03-25T11:26:39Z</time>
      </trkpt>
      <trkpt lat="45.39515" lon="6.76974">
        <ele>2264.52</ele>
        <time>2018-03-25T11:26:57Z</time>
      </trkpt>
      <trkpt lat="45.39515" lon="6.76971">
        <ele>2264.52</ele>
        <time>2018-03-25T11:27:15Z</time>
      </trkpt>
      <trkpt lat="45.39516" lon="6.76971">
        <ele>2264.52</ele>
        <time>2018-03-25T11:27:35Z</time>
      </trkpt>
      <trkpt lat="45.39517" lon="6.76969">
        <ele>2264.04</ele>
        <time>2018-03-25T11:27:54Z</time>
      </trkpt>
      <trkpt lat="45.39516" lon="6.76951">
        <ele>2261.16</ele>
        <time>2018-03-25T11:27:59Z</time>
      </trkpt>
      <trkpt lat="45.3951" lon="6.76941">
        <ele>2260.68</ele>
        <time>2018-03-25T11:28:01Z</time>
      </trkpt>
      <trkpt lat="45.39503" lon="6.76919">
        <ele>2257.31</ele>
        <time>2018-03-25T11:28:04Z</time>
      </trkpt>
      <trkpt lat="45.39494" lon="6.76897">
        <ele>2254.43</ele>
        <time>2018-03-25T11:28:07Z</time>
      </trkpt>
      <trkpt lat="45.39481" lon="6.76868">
        <ele>2250.58</ele>
        <time>2018-03-25T11:28:12Z</time>
      </trkpt>
      <trkpt lat="45.39479" lon="6.76864">
        <ele>2250.1</ele>
        <time>2018-03-25T11:28:13Z</time>
      </trkpt>
      <trkpt lat="45.3948" lon="6.76858">
        <ele>2250.1</ele>
        <time>2018-03-25T11:28:26Z</time>
      </trkpt>
      <trkpt lat="45.3948" lon="6.76857">
        <ele>2250.1</ele>
        <time>2018-03-25T11:28:38Z</time>
      </trkpt>
      <trkpt lat="45.39488" lon="6.76855">
        <ele>2248.66</ele>
        <time>2018-03-25T11:28:42Z</time>
      </trkpt>
      <trkpt lat="45.39492" lon="6.76857">
        <ele>2247.7</ele>
        <time>2018-03-25T11:28:43Z</time>
      </trkpt>
      <trkpt lat="45.39498" lon="6.76863">
        <ele>2246.26</ele>
        <time>2018-03-25T11:28:45Z</time>
      </trkpt>
      <trkpt lat="45.39502" lon="6.76854">
        <ele>2242.89</ele>
        <time>2018-03-25T11:28:50Z</time>
      </trkpt>
      <trkpt lat="45.39501" lon="6.76853">
        <ele>2242.41</ele>
        <time>2018-03-25T11:28:52Z</time>
      </trkpt>
      <trkpt lat="45.39495" lon="6.7683">
        <ele>2240.49</ele>
        <time>2018-03-25T11:29:05Z</time>
      </trkpt>
      <trkpt lat="45.39492" lon="6.7682">
        <ele>2238.57</ele>
        <time>2018-03-25T11:29:07Z</time>
      </trkpt>
      <trkpt lat="45.39485" lon="6.76801">
        <ele>2236.64</ele>
        <time>2018-03-25T11:29:11Z</time>
      </trkpt>
      <trkpt lat="45.39482" lon="6.76792">
        <ele>2235.68</ele>
        <time>2018-03-25T11:29:13Z</time>
      </trkpt>
      <trkpt lat="45.39468" lon="6.76761">
        <ele>2232.32</ele>
        <time>2018-03-25T11:29:19Z</time>
      </trkpt>
      <trkpt lat="45.39457" lon="6.76741">
        <ele>2228.95</ele>
        <time>2018-03-25T11:29:25Z</time>
      </trkpt>
      <trkpt lat="45.39456" lon="6.76738">
        <ele>2228.47</ele>
        <time>2018-03-25T11:29:46Z</time>
      </trkpt>
      <trkpt lat="45.39457" lon="6.76739">
        <ele>2228.95</ele>
        <time>2018-03-25T11:29:53Z</time>
      </trkpt>
      <trkpt lat="45.39457" lon="6.76739">
        <ele>2227.99</ele>
        <time>2018-03-25T11:30:12Z</time>
      </trkpt>
      <trkpt lat="45.39459" lon="6.76736">
        <ele>2228.95</ele>
        <time>2018-03-25T11:30:34Z</time>
      </trkpt>
      <trkpt lat="45.39456" lon="6.76737">
        <ele>2228.95</ele>
        <time>2018-03-25T11:30:50Z</time>
      </trkpt>
      <trkpt lat="45.39456" lon="6.76736">
        <ele>2228.47</ele>
        <time>2018-03-25T11:30:51Z</time>
      </trkpt>
      <trkpt lat="45.39455" lon="6.76727">
        <ele>2226.55</ele>
        <time>2018-03-25T11:31:00Z</time>
      </trkpt>
      <trkpt lat="45.39454" lon="6.76731">
        <ele>2226.07</ele>
        <time>2018-03-25T11:31:20Z</time>
      </trkpt>
      <trkpt lat="45.39451" lon="6.76727">
        <ele>2225.59</ele>
        <time>2018-03-25T11:31:31Z</time>
      </trkpt>
      <trkpt lat="45.3945" lon="6.76722">
        <ele>2224.63</ele>
        <time>2018-03-25T11:31:33Z</time>
      </trkpt>
      <trkpt lat="45.39451" lon="6.76714">
        <ele>2222.22</ele>
        <time>2018-03-25T11:31:38Z</time>
      </trkpt>
      <trkpt lat="45.39453" lon="6.76711">
        <ele>2220.3</ele>
        <time>2018-03-25T11:31:51Z</time>
      </trkpt>
      <trkpt lat="45.39453" lon="6.76708">
        <ele>2221.26</ele>
        <time>2018-03-25T11:32:04Z</time>
      </trkpt>
      <trkpt lat="45.39471" lon="6.76715">
        <ele>2217.9</ele>
        <time>2018-03-25T11:32:12Z</time>
      </trkpt>
      <trkpt lat="45.39482" lon="6.76722">
        <ele>2215.01</ele>
        <time>2018-03-25T11:32:20Z</time>
      </trkpt>
      <trkpt lat="45.39481" lon="6.76721">
        <ele>2214.53</ele>
        <time>2018-03-25T11:32:31Z</time>
      </trkpt>
      <trkpt lat="45.39486" lon="6.76719">
        <ele>2215.01</ele>
        <time>2018-03-25T11:32:59Z</time>
      </trkpt>
      <trkpt lat="45.39487" lon="6.76719">
        <ele>2215.01</ele>
        <time>2018-03-25T11:33:22Z</time>
      </trkpt>
      <trkpt lat="45.39485" lon="6.76722">
        <ele>2215.01</ele>
        <time>2018-03-25T11:33:39Z</time>
      </trkpt>
      <trkpt lat="45.39484" lon="6.76725">
        <ele>2214.53</ele>
        <time>2018-03-25T11:34:01Z</time>
      </trkpt>
      <trkpt lat="45.39478" lon="6.76724">
        <ele>2215.5</ele>
        <time>2018-03-25T11:34:28Z</time>
      </trkpt>
      <trkpt lat="45.39478" lon="6.76725">
        <ele>2215.01</ele>
        <time>2018-03-25T11:34:49Z</time>
      </trkpt>
      <trkpt lat="45.39477" lon="6.76722">
        <ele>2214.53</ele>
        <time>2018-03-25T11:35:01Z</time>
      </trkpt>
      <trkpt lat="45.39462" lon="6.76698">
        <ele>2211.65</ele>
        <time>2018-03-25T11:35:09Z</time>
      </trkpt>
      <trkpt lat="45.3946" lon="6.76694">
        <ele>2211.65</ele>
        <time>2018-03-25T11:35:10Z</time>
      </trkpt>
      <trkpt lat="45.39452" lon="6.76683">
        <ele>2208.77</ele>
        <time>2018-03-25T11:35:14Z</time>
      </trkpt>
      <trkpt lat="45.39445" lon="6.76683">
        <ele>2207.81</ele>
        <time>2018-03-25T11:35:27Z</time>
      </trkpt>
      <trkpt lat="45.39446" lon="6.7668">
        <ele>2208.29</ele>
        <time>2018-03-25T11:35:47Z</time>
      </trkpt>
      <trkpt lat="45.39439" lon="6.76671">
        <ele>2206.84</ele>
        <time>2018-03-25T11:36:04Z</time>
      </trkpt>
      <trkpt lat="45.39432" lon="6.7666">
        <ele>2204.44</ele>
        <time>2018-03-25T11:36:09Z</time>
      </trkpt>
      <trkpt lat="45.39433" lon="6.76652">
        <ele>2203.48</ele>
        <time>2018-03-25T11:36:20Z</time>
      </trkpt>
      <trkpt lat="45.39434" lon="6.76652">
        <ele>2203</ele>
        <time>2018-03-25T11:36:41Z</time>
      </trkpt>
      <trkpt lat="45.39423" lon="6.76655">
        <ele>2203</ele>
        <time>2018-03-25T11:37:02Z</time>
      </trkpt>
      <trkpt lat="45.39422" lon="6.76652">
        <ele>2202.52</ele>
        <time>2018-03-25T11:37:03Z</time>
      </trkpt>
      <trkpt lat="45.39418" lon="6.76642">
        <ele>2202.04</ele>
        <time>2018-03-25T11:37:07Z</time>
      </trkpt>
      <trkpt lat="45.39413" lon="6.76623">
        <ele>2199.63</ele>
        <time>2018-03-25T11:37:12Z</time>
      </trkpt>
      <trkpt lat="45.39406" lon="6.76601">
        <ele>2195.79</ele>
        <time>2018-03-25T11:37:17Z</time>
      </trkpt>
      <trkpt lat="45.39402" lon="6.76591">
        <ele>2194.83</ele>
        <time>2018-03-25T11:37:26Z</time>
      </trkpt>
      <trkpt lat="45.39398" lon="6.76588">
        <ele>2193.39</ele>
        <time>2018-03-25T11:37:38Z</time>
      </trkpt>
      <trkpt lat="45.39391" lon="6.76571">
        <ele>2189.54</ele>
        <time>2018-03-25T11:37:45Z</time>
      </trkpt>
      <trkpt lat="45.39389" lon="6.76567">
        <ele>2188.1</ele>
        <time>2018-03-25T11:37:46Z</time>
      </trkpt>
      <trkpt lat="45.39384" lon="6.76556">
        <ele>2186.66</ele>
        <time>2018-03-25T11:37:48Z</time>
      </trkpt>
      <trkpt lat="45.39374" lon="6.7652">
        <ele>2182.33</ele>
        <time>2018-03-25T11:37:52Z</time>
      </trkpt>
      <trkpt lat="45.39371" lon="6.7651">
        <ele>2180.41</ele>
        <time>2018-03-25T11:37:53Z</time>
      </trkpt>
      <trkpt lat="45.39366" lon="6.76494">
        <ele>2178.48</ele>
        <time>2018-03-25T11:37:55Z</time>
      </trkpt>
      <trkpt lat="45.39363" lon="6.76482">
        <ele>2177.04</ele>
        <time>2018-03-25T11:37:57Z</time>
      </trkpt>
      <trkpt lat="45.3936" lon="6.76471">
        <ele>2175.6</ele>
        <time>2018-03-25T11:38:07Z</time>
      </trkpt>
      <trkpt lat="45.39359" lon="6.76473">
        <ele>2176.08</ele>
        <time>2018-03-25T11:38:20Z</time>
      </trkpt>
      <trkpt lat="45.39368" lon="6.76481">
        <ele>2173.68</ele>
        <time>2018-03-25T11:38:30Z</time>
      </trkpt>
      <trkpt lat="45.39379" lon="6.76488">
        <ele>2172.72</ele>
        <time>2018-03-25T11:38:42Z</time>
      </trkpt>
      <trkpt lat="45.39395" lon="6.76504">
        <ele>2169.35</ele>
        <time>2018-03-25T11:38:48Z</time>
      </trkpt>
      <trkpt lat="45.39399" lon="6.76507">
        <ele>2169.35</ele>
        <time>2018-03-25T11:38:49Z</time>
      </trkpt>
      <trkpt lat="45.39403" lon="6.7651">
        <ele>2168.39</ele>
        <time>2018-03-25T11:38:50Z</time>
      </trkpt>
      <trkpt lat="45.39417" lon="6.76516">
        <ele>2166.95</ele>
        <time>2018-03-25T11:38:53Z</time>
      </trkpt>
      <trkpt lat="45.39426" lon="6.76519">
        <ele>2165.51</ele>
        <time>2018-03-25T11:38:55Z</time>
      </trkpt>
      <trkpt lat="45.39431" lon="6.76519">
        <ele>2164.06</ele>
        <time>2018-03-25T11:39:00Z</time>
      </trkpt>
      <trkpt lat="45.39431" lon="6.76517">
        <ele>2163.58</ele>
        <time>2018-03-25T11:39:01Z</time>
      </trkpt>
      <trkpt lat="45.39431" lon="6.76514">
        <ele>2163.58</ele>
        <time>2018-03-25T11:39:02Z</time>
      </trkpt>
      <trkpt lat="45.39433" lon="6.76513">
        <ele>2162.62</ele>
        <time>2018-03-25T11:39:16Z</time>
      </trkpt>
      <trkpt lat="45.39428" lon="6.76512">
        <ele>2163.1</ele>
        <time>2018-03-25T11:39:43Z</time>
      </trkpt>
      <trkpt lat="45.39424" lon="6.76516">
        <ele>2163.1</ele>
        <time>2018-03-25T11:40:01Z</time>
      </trkpt>
      <trkpt lat="45.39424" lon="6.76508">
        <ele>2161.18</ele>
        <time>2018-03-25T11:40:18Z</time>
      </trkpt>
      <trkpt lat="45.39425" lon="6.76502">
        <ele>2161.18</ele>
        <time>2018-03-25T11:40:19Z</time>
      </trkpt>
      <trkpt lat="45.39427" lon="6.76495">
        <ele>2159.74</ele>
        <time>2018-03-25T11:40:20Z</time>
      </trkpt>
      <trkpt lat="45.39426" lon="6.76491">
        <ele>2157.82</ele>
        <time>2018-03-25T11:40:21Z</time>
      </trkpt>
      <trkpt lat="45.39424" lon="6.76486">
        <ele>2157.34</ele>
        <time>2018-03-25T11:40:22Z</time>
      </trkpt>
      <trkpt lat="45.39423" lon="6.76479">
        <ele>2155.41</ele>
        <time>2018-03-25T11:40:23Z</time>
      </trkpt>
      <trkpt lat="45.39421" lon="6.76467">
        <ele>2151.57</ele>
        <time>2018-03-25T11:40:26Z</time>
      </trkpt>
      <trkpt lat="45.3942" lon="6.76466">
        <ele>2152.05</ele>
        <time>2018-03-25T11:40:27Z</time>
      </trkpt>
      <trkpt lat="45.39419" lon="6.76468">
        <ele>2150.13</ele>
        <time>2018-03-25T11:40:39Z</time>
      </trkpt>
      <trkpt lat="45.3942" lon="6.76466">
        <ele>2151.57</ele>
        <time>2018-03-25T11:40:46Z</time>
      </trkpt>
      <trkpt lat="45.39421" lon="6.76454">
        <ele>2149.65</ele>
        <time>2018-03-25T11:40:49Z</time>
      </trkpt>
      <trkpt lat="45.3942" lon="6.76448">
        <ele>2147.72</ele>
        <time>2018-03-25T11:40:50Z</time>
      </trkpt>
      <trkpt lat="45.39418" lon="6.76443">
        <ele>2146.76</ele>
        <time>2018-03-25T11:40:51Z</time>
      </trkpt>
      <trkpt lat="45.39417" lon="6.76436">
        <ele>2144.36</ele>
        <time>2018-03-25T11:40:53Z</time>
      </trkpt>
      <trkpt lat="45.39412" lon="6.76423">
        <ele>2141.47</ele>
        <time>2018-03-25T11:40:58Z</time>
      </trkpt>
      <trkpt lat="45.39413" lon="6.76423">
        <ele>2141.47</ele>
        <time>2018-03-25T11:41:16Z</time>
      </trkpt>
      <trkpt lat="45.39409" lon="6.76423">
        <ele>2141.47</ele>
        <time>2018-03-25T11:41:43Z</time>
      </trkpt>
      <trkpt lat="45.39412" lon="6.76423">
        <ele>2141.47</ele>
        <time>2018-03-25T11:42:07Z</time>
      </trkpt>
      <trkpt lat="45.39412" lon="6.76423">
        <ele>2140.51</ele>
        <time>2018-03-25T11:42:10Z</time>
      </trkpt>
      <trkpt lat="45.39413" lon="6.76422">
        <ele>2140.51</ele>
        <time>2018-03-25T11:42:33Z</time>
      </trkpt>
      <trkpt lat="45.394" lon="6.76395">
        <ele>2137.15</ele>
        <time>2018-03-25T11:42:42Z</time>
      </trkpt>
      <trkpt lat="45.39389" lon="6.76376">
        <ele>2133.78</ele>
        <time>2018-03-25T11:42:48Z</time>
      </trkpt>
      <trkpt lat="45.39381" lon="6.76359">
        <ele>2131.38</ele>
        <time>2018-03-25T11:42:53Z</time>
      </trkpt>
      <trkpt lat="45.39376" lon="6.76346">
        <ele>2128.02</ele>
        <time>2018-03-25T11:42:56Z</time>
      </trkpt>
      <trkpt lat="45.39374" lon="6.76343">
        <ele>2127.53</ele>
        <time>2018-03-25T11:42:57Z</time>
      </trkpt>
      <trkpt lat="45.39367" lon="6.76335">
        <ele>2126.57</ele>
        <time>2018-03-25T11:43:05Z</time>
      </trkpt>
      <trkpt lat="45.39356" lon="6.76316">
        <ele>2123.21</ele>
        <time>2018-03-25T11:43:11Z</time>
      </trkpt>
      <trkpt lat="45.39345" lon="6.76295">
        <ele>2119.84</ele>
        <time>2018-03-25T11:43:15Z</time>
      </trkpt>
      <trkpt lat="45.39342" lon="6.7629">
        <ele>2118.4</ele>
        <time>2018-03-25T11:43:17Z</time>
      </trkpt>
      <trkpt lat="45.39343" lon="6.76284">
        <ele>2117.44</ele>
        <time>2018-03-25T11:43:29Z</time>
      </trkpt>
      <trkpt lat="45.39345" lon="6.76284">
        <ele>2117.92</ele>
        <time>2018-03-25T11:43:58Z</time>
      </trkpt>
      <trkpt lat="45.39345" lon="6.76282">
        <ele>2117.92</ele>
        <time>2018-03-25T11:44:22Z</time>
      </trkpt>
      <trkpt lat="45.39345" lon="6.76285">
        <ele>2118.88</ele>
        <time>2018-03-25T11:44:47Z</time>
      </trkpt>
      <trkpt lat="45.39343" lon="6.76285">
        <ele>2118.4</ele>
        <time>2018-03-25T11:45:10Z</time>
      </trkpt>
      <trkpt lat="45.39342" lon="6.76284">
        <ele>2117.92</ele>
        <time>2018-03-25T11:45:28Z</time>
      </trkpt>
      <trkpt lat="45.39341" lon="6.76284">
        <ele>2116.96</ele>
        <time>2018-03-25T11:45:48Z</time>
      </trkpt>
      <trkpt lat="45.39344" lon="6.76286">
        <ele>2116.48</ele>
        <time>2018-03-25T11:45:50Z</time>
      </trkpt>
      <trkpt lat="45.39345" lon="6.76287">
        <ele>2116.96</ele>
        <time>2018-03-25T11:45:51Z</time>
      </trkpt>
      <trkpt lat="45.3935" lon="6.76292">
        <ele>2117.44</ele>
        <time>2018-03-25T11:46:03Z</time>
      </trkpt>
      <trkpt lat="45.39353" lon="6.76291">
        <ele>2116.48</ele>
        <time>2018-03-25T11:46:13Z</time>
      </trkpt>
      <trkpt lat="45.3935" lon="6.76293">
        <ele>2116.96</ele>
        <time>2018-03-25T11:46:39Z</time>
      </trkpt>
      <trkpt lat="45.39352" lon="6.76292">
        <ele>2117.92</ele>
        <time>2018-03-25T11:46:53Z</time>
      </trkpt>
      <trkpt lat="45.39351" lon="6.7629">
        <ele>2117.44</ele>
        <time>2018-03-25T11:47:08Z</time>
      </trkpt>
      <trkpt lat="45.39348" lon="6.76292">
        <ele>2117.92</ele>
        <time>2018-03-25T11:47:24Z</time>
      </trkpt>
      <trkpt lat="45.39346" lon="6.76292">
        <ele>2117.92</ele>
        <time>2018-03-25T11:47:41Z</time>
      </trkpt>
      <trkpt lat="45.3935" lon="6.76291">
        <ele>2117.92</ele>
        <time>2018-03-25T11:48:01Z</time>
      </trkpt>
      <trkpt lat="45.39351" lon="6.76294">
        <ele>2117.92</ele>
        <time>2018-03-25T11:48:14Z</time>
      </trkpt>
      <trkpt lat="45.39351" lon="6.76293">
        <ele>2117.92</ele>
        <time>2018-03-25T11:48:32Z</time>
      </trkpt>
      <trkpt lat="45.39348" lon="6.76295">
        <ele>2117.92</ele>
        <time>2018-03-25T11:48:46Z</time>
      </trkpt>
      <trkpt lat="45.39344" lon="6.76296">
        <ele>2118.4</ele>
        <time>2018-03-25T11:49:06Z</time>
      </trkpt>
      <trkpt lat="45.3935" lon="6.76291">
        <ele>2117.92</ele>
        <time>2018-03-25T11:49:24Z</time>
      </trkpt>
      <trkpt lat="45.39349" lon="6.76292">
        <ele>2117.92</ele>
        <time>2018-03-25T11:49:45Z</time>
      </trkpt>
      <trkpt lat="45.39347" lon="6.76291">
        <ele>2118.4</ele>
        <time>2018-03-25T11:49:59Z</time>
      </trkpt>
      <trkpt lat="45.3935" lon="6.76291">
        <ele>2118.4</ele>
        <time>2018-03-25T11:50:16Z</time>
      </trkpt>
      <trkpt lat="45.39352" lon="6.7629">
        <ele>2118.4</ele>
        <time>2018-03-25T11:50:31Z</time>
      </trkpt>
      <trkpt lat="45.39361" lon="6.76295">
        <ele>2117.92</ele>
        <time>2018-03-25T11:50:43Z</time>
      </trkpt>
      <trkpt lat="45.39383" lon="6.76304">
        <ele>2114.56</ele>
        <time>2018-03-25T11:50:51Z</time>
      </trkpt>
      <trkpt lat="45.39415" lon="6.76302">
        <ele>2112.15</ele>
        <time>2018-03-25T11:51:03Z</time>
      </trkpt>
      <trkpt lat="45.39415" lon="6.763">
        <ele>2112.15</ele>
        <time>2018-03-25T11:51:05Z</time>
      </trkpt>
      <trkpt lat="45.39414" lon="6.76294">
        <ele>2110.71</ele>
        <time>2018-03-25T11:51:14Z</time>
      </trkpt>
      <trkpt lat="45.39414" lon="6.76292">
        <ele>2109.75</ele>
        <time>2018-03-25T11:51:15Z</time>
      </trkpt>
      <trkpt lat="45.39414" lon="6.76289">
        <ele>2109.27</ele>
        <time>2018-03-25T11:51:16Z</time>
      </trkpt>
      <trkpt lat="45.39413" lon="6.76286">
        <ele>2108.31</ele>
        <time>2018-03-25T11:51:17Z</time>
      </trkpt>
      <trkpt lat="45.39413" lon="6.76281">
        <ele>2107.83</ele>
        <time>2018-03-25T11:51:18Z</time>
      </trkpt>
      <trkpt lat="45.39412" lon="6.76276">
        <ele>2106.87</ele>
        <time>2018-03-25T11:51:19Z</time>
      </trkpt>
      <trkpt lat="45.39411" lon="6.76273">
        <ele>2105.91</ele>
        <time>2018-03-25T11:51:20Z</time>
      </trkpt>
      <trkpt lat="45.3941" lon="6.7627">
        <ele>2105.42</ele>
        <time>2018-03-25T11:51:21Z</time>
      </trkpt>
      <trkpt lat="45.39408" lon="6.76266">
        <ele>2104.46</ele>
        <time>2018-03-25T11:51:22Z</time>
      </trkpt>
      <trkpt lat="45.39407" lon="6.76262">
        <ele>2103.5</ele>
        <time>2018-03-25T11:51:23Z</time>
      </trkpt>
      <trkpt lat="45.39406" lon="6.7626">
        <ele>2102.54</ele>
        <time>2018-03-25T11:51:24Z</time>
      </trkpt>
      <trkpt lat="45.39404" lon="6.76256">
        <ele>2102.06</ele>
        <time>2018-03-25T11:51:27Z</time>
      </trkpt>
      <trkpt lat="45.39402" lon="6.76254">
        <ele>2101.1</ele>
        <time>2018-03-25T11:51:28Z</time>
      </trkpt>
      <trkpt lat="45.394" lon="6.76251">
        <ele>2100.62</ele>
        <time>2018-03-25T11:51:29Z</time>
      </trkpt>
      <trkpt lat="45.39398" lon="6.76249">
        <ele>2100.62</ele>
        <time>2018-03-25T11:51:30Z</time>
      </trkpt>
      <trkpt lat="45.3939" lon="6.76242">
        <ele>2098.21</ele>
        <time>2018-03-25T11:51:42Z</time>
      </trkpt>
      <trkpt lat="45.39384" lon="6.7624">
        <ele>2098.21</ele>
        <time>2018-03-25T11:52:05Z</time>
      </trkpt>
      <trkpt lat="45.39373" lon="6.76227">
        <ele>2094.85</ele>
        <time>2018-03-25T11:52:12Z</time>
      </trkpt>
      <trkpt lat="45.39367" lon="6.76215">
        <ele>2091.49</ele>
        <time>2018-03-25T11:52:17Z</time>
      </trkpt>
      <trkpt lat="45.39356" lon="6.76204">
        <ele>2089.08</ele>
        <time>2018-03-25T11:52:24Z</time>
      </trkpt>
      <trkpt lat="45.39351" lon="6.76198">
        <ele>2087.64</ele>
        <time>2018-03-25T11:52:26Z</time>
      </trkpt>
      <trkpt lat="45.39347" lon="6.76194">
        <ele>2086.68</ele>
        <time>2018-03-25T11:52:27Z</time>
      </trkpt>
      <trkpt lat="45.3934" lon="6.76185">
        <ele>2085.72</ele>
        <time>2018-03-25T11:52:29Z</time>
      </trkpt>
      <trkpt lat="45.39335" lon="6.7618">
        <ele>2084.28</ele>
        <time>2018-03-25T11:52:30Z</time>
      </trkpt>
      <trkpt lat="45.39331" lon="6.76177">
        <ele>2081.87</ele>
        <time>2018-03-25T11:52:31Z</time>
      </trkpt>
      <trkpt lat="45.39328" lon="6.76173">
        <ele>2081.39</ele>
        <time>2018-03-25T11:52:32Z</time>
      </trkpt>
      <trkpt lat="45.39324" lon="6.76169">
        <ele>2080.43</ele>
        <time>2018-03-25T11:52:33Z</time>
      </trkpt>
      <trkpt lat="45.39314" lon="6.76156">
        <ele>2078.99</ele>
        <time>2018-03-25T11:52:36Z</time>
      </trkpt>
      <trkpt lat="45.39311" lon="6.76151">
        <ele>2078.51</ele>
        <time>2018-03-25T11:52:37Z</time>
      </trkpt>
      <trkpt lat="45.39308" lon="6.76146">
        <ele>2077.07</ele>
        <time>2018-03-25T11:52:38Z</time>
      </trkpt>
      <trkpt lat="45.39305" lon="6.76141">
        <ele>2076.1</ele>
        <time>2018-03-25T11:52:39Z</time>
      </trkpt>
      <trkpt lat="45.39304" lon="6.7614">
        <ele>2076.1</ele>
        <time>2018-03-25T11:52:40Z</time>
      </trkpt>
      <trkpt lat="45.39303" lon="6.76134">
        <ele>2075.62</ele>
        <time>2018-03-25T11:52:47Z</time>
      </trkpt>
      <trkpt lat="45.39299" lon="6.7613">
        <ele>2075.62</ele>
        <time>2018-03-25T11:53:00Z</time>
      </trkpt>
      <trkpt lat="45.393" lon="6.76129">
        <ele>2075.62</ele>
        <time>2018-03-25T11:53:27Z</time>
      </trkpt>
      <trkpt lat="45.393" lon="6.76127">
        <ele>2076.1</ele>
        <time>2018-03-25T11:53:55Z</time>
      </trkpt>
      <trkpt lat="45.39299" lon="6.76128">
        <ele>2076.1</ele>
        <time>2018-03-25T11:53:57Z</time>
      </trkpt>
      <trkpt lat="45.39298" lon="6.76126">
        <ele>2075.62</ele>
        <time>2018-03-25T11:53:58Z</time>
      </trkpt>
      <trkpt lat="45.39296" lon="6.76123">
        <ele>2075.62</ele>
        <time>2018-03-25T11:53:59Z</time>
      </trkpt>
      <trkpt lat="45.3928" lon="6.76103">
        <ele>2071.78</ele>
        <time>2018-03-25T11:54:03Z</time>
      </trkpt>
      <trkpt lat="45.39269" lon="6.76087">
        <ele>2069.38</ele>
        <time>2018-03-25T11:54:05Z</time>
      </trkpt>
      <trkpt lat="45.39263" lon="6.76078">
        <ele>2067.93</ele>
        <time>2018-03-25T11:54:06Z</time>
      </trkpt>
      <trkpt lat="45.39245" lon="6.76048">
        <ele>2064.57</ele>
        <time>2018-03-25T11:54:09Z</time>
      </trkpt>
      <trkpt lat="45.3924" lon="6.76037">
        <ele>2063.61</ele>
        <time>2018-03-25T11:54:10Z</time>
      </trkpt>
      <trkpt lat="45.39226" lon="6.76004">
        <ele>2060.24</ele>
        <time>2018-03-25T11:54:13Z</time>
      </trkpt>
      <trkpt lat="45.39211" lon="6.75954">
        <ele>2057.84</ele>
        <time>2018-03-25T11:54:18Z</time>
      </trkpt>
      <trkpt lat="45.39194" lon="6.75911">
        <ele>2054.47</ele>
        <time>2018-03-25T11:54:23Z</time>
      </trkpt>
      <trkpt lat="45.39188" lon="6.75898">
        <ele>2054.47</ele>
        <time>2018-03-25T11:54:25Z</time>
      </trkpt>
      <trkpt lat="45.39182" lon="6.75888">
        <ele>2053.99</ele>
        <time>2018-03-25T11:54:32Z</time>
      </trkpt>
      <trkpt lat="45.39174" lon="6.75877">
        <ele>2053.03</ele>
        <time>2018-03-25T11:54:56Z</time>
      </trkpt>
      <trkpt lat="45.39169" lon="6.75869">
        <ele>2053.03</ele>
        <time>2018-03-25T11:54:58Z</time>
      </trkpt>
      <trkpt lat="45.39166" lon="6.75864">
        <ele>2052.07</ele>
        <time>2018-03-25T11:54:59Z</time>
      </trkpt>
      <trkpt lat="45.39156" lon="6.75829">
        <ele>2051.11</ele>
        <time>2018-03-25T11:55:09Z</time>
      </trkpt>
      <trkpt lat="45.39153" lon="6.75825">
        <ele>2051.11</ele>
        <time>2018-03-25T11:55:28Z</time>
      </trkpt>
      <trkpt lat="45.39155" lon="6.75828">
        <ele>2052.07</ele>
        <time>2018-03-25T11:55:51Z</time>
      </trkpt>
      <trkpt lat="45.39157" lon="6.75829">
        <ele>2051.59</ele>
        <time>2018-03-25T11:56:12Z</time>
      </trkpt>
      <trkpt lat="45.39156" lon="6.75823">
        <ele>2051.59</ele>
        <time>2018-03-25T11:56:29Z</time>
      </trkpt>
      <trkpt lat="45.39156" lon="6.75821">
        <ele>2051.59</ele>
        <time>2018-03-25T11:56:30Z</time>
      </trkpt>
      <trkpt lat="45.39155" lon="6.75819">
        <ele>2051.11</ele>
        <time>2018-03-25T11:56:31Z</time>
      </trkpt>
      <trkpt lat="45.39154" lon="6.75816">
        <ele>2051.11</ele>
        <time>2018-03-25T11:56:32Z</time>
      </trkpt>
      <trkpt lat="45.39153" lon="6.75811">
        <ele>2050.63</ele>
        <time>2018-03-25T11:56:33Z</time>
      </trkpt>
      <trkpt lat="45.39152" lon="6.75807">
        <ele>2050.15</ele>
        <time>2018-03-25T11:56:34Z</time>
      </trkpt>
      <trkpt lat="45.3914" lon="6.75762">
        <ele>2046.78</ele>
        <time>2018-03-25T11:56:44Z</time>
      </trkpt>
      <trkpt lat="45.39138" lon="6.75756">
        <ele>2046.3</ele>
        <time>2018-03-25T11:56:45Z</time>
      </trkpt>
      <trkpt lat="45.39135" lon="6.75751">
        <ele>2045.82</ele>
        <time>2018-03-25T11:56:46Z</time>
      </trkpt>
      <trkpt lat="45.39131" lon="6.75745">
        <ele>2044.86</ele>
        <time>2018-03-25T11:56:47Z</time>
      </trkpt>
      <trkpt lat="45.39128" lon="6.75739">
        <ele>2044.38</ele>
        <time>2018-03-25T11:56:48Z</time>
      </trkpt>
      <trkpt lat="45.39125" lon="6.75732">
        <ele>2043.9</ele>
        <time>2018-03-25T11:56:49Z</time>
      </trkpt>
      <trkpt lat="45.39122" lon="6.75726">
        <ele>2043.42</ele>
        <time>2018-03-25T11:56:50Z</time>
      </trkpt>
      <trkpt lat="45.39106" lon="6.75703">
        <ele>2041.02</ele>
        <time>2018-03-25T11:56:54Z</time>
      </trkpt>
      <trkpt lat="45.39102" lon="6.75695">
        <ele>2040.54</ele>
        <time>2018-03-25T11:56:55Z</time>
      </trkpt>
      <trkpt lat="45.39093" lon="6.75677">
        <ele>2039.09</ele>
        <time>2018-03-25T11:56:57Z</time>
      </trkpt>
      <trkpt lat="45.39083" lon="6.75642">
        <ele>2036.21</ele>
        <time>2018-03-25T11:57:00Z</time>
      </trkpt>
      <trkpt lat="45.39071" lon="6.75609">
        <ele>2034.29</ele>
        <time>2018-03-25T11:57:03Z</time>
      </trkpt>
      <trkpt lat="45.39059" lon="6.75579">
        <ele>2030.92</ele>
        <time>2018-03-25T11:57:06Z</time>
      </trkpt>
      <trkpt lat="45.39035" lon="6.75525">
        <ele>2027.56</ele>
        <time>2018-03-25T11:57:13Z</time>
      </trkpt>
      <trkpt lat="45.39026" lon="6.75506">
        <ele>2027.08</ele>
        <time>2018-03-25T11:57:16Z</time>
      </trkpt>
      <trkpt lat="45.39008" lon="6.75465">
        <ele>2025.15</ele>
        <time>2018-03-25T11:57:24Z</time>
      </trkpt>
      <trkpt lat="45.39005" lon="6.7546">
        <ele>2024.67</ele>
        <time>2018-03-25T11:57:25Z</time>
      </trkpt>
      <trkpt lat="45.38996" lon="6.75443">
        <ele>2023.23</ele>
        <time>2018-03-25T11:57:29Z</time>
      </trkpt>
      <trkpt lat="45.38994" lon="6.75438">
        <ele>2022.75</ele>
        <time>2018-03-25T11:57:30Z</time>
      </trkpt>
      <trkpt lat="45.38975" lon="6.75405">
        <ele>2020.35</ele>
        <time>2018-03-25T11:57:36Z</time>
      </trkpt>
      <trkpt lat="45.38976" lon="6.75394">
        <ele>2017.94</ele>
        <time>2018-03-25T11:57:38Z</time>
      </trkpt>
      <trkpt lat="45.38977" lon="6.75389">
        <ele>2015.54</ele>
        <time>2018-03-25T11:57:41Z</time>
      </trkpt>
      <trkpt lat="45.38981" lon="6.75369">
        <ele>2013.62</ele>
        <time>2018-03-25T11:57:44Z</time>
      </trkpt>
      <trkpt lat="45.38981" lon="6.7536">
        <ele>2013.14</ele>
        <time>2018-03-25T11:57:45Z</time>
      </trkpt>
      <trkpt lat="45.3898" lon="6.75352">
        <ele>2012.18</ele>
        <time>2018-03-25T11:57:46Z</time>
      </trkpt>
      <trkpt lat="45.38979" lon="6.75345">
        <ele>2012.18</ele>
        <time>2018-03-25T11:57:47Z</time>
      </trkpt>
      <trkpt lat="45.38978" lon="6.75338">
        <ele>2011.7</ele>
        <time>2018-03-25T11:57:48Z</time>
      </trkpt>
      <trkpt lat="45.38976" lon="6.75332">
        <ele>2011.7</ele>
        <time>2018-03-25T11:57:49Z</time>
      </trkpt>
    </trkseg>
  </trk>
</gpx>